Wetterdaten: Samstag, 13.05.2017
Datum Zeit Temp. A. Temp. A. max Feuchte A. Luftdruck Regen Wind Richtung Richtung Sonnenschein ET UV Solar Taupunkt Windchill Windböen
13.05.2017 00:00 9,1 °C 9,1 °C 93 % 1006,9 hPa 0,0 mm 0,0 km/h (0 Bft) S-SW 202 ° 0 min 0,000 mm 0,0 UV-I 0 W/m² 8,0 °C 9,1 °C 0,0 km/h (0 Bft)
13.05.2017 00:01 9,1 °C 9,1 °C 93 % 1006,9 hPa 0,0 mm 1,6 km/h (1 Bft) S-SW 202 ° 0 min 0,000 mm 0,0 UV-I 0 W/m² 8,0 °C 9,1 °C 3,2 km/h (1 Bft)
13.05.2017 00:03 9,1 °C 9,1 °C 93 % 1006,9 hPa 0,0 mm 0,1 km/h (0 Bft) S-SW 202 ° 0 min 0,000 mm 0,0 UV-I 0 W/m² 8,0 °C 9,1 °C 1,6 km/h (1 Bft)
13.05.2017 00:04 9,0 °C 9,1 °C 93 % 1006,9 hPa 0,0 mm 0,0 km/h (0 Bft) S-SW 202 ° 0 min 0,000 mm 0,0 UV-I 0 W/m² 7,9 °C 9,0 °C 0,0 km/h (0 Bft)
13.05.2017 00:05 9,1 °C 9,1 °C 94 % 1007,0 hPa 0,0 mm 0,0 km/h (0 Bft) S-SW 202 ° 0 min 0,000 mm 0,0 UV-I 0 W/m² 8,2 °C 9,1 °C 0,0 km/h (0 Bft)
13.05.2017 00:06 8,9 °C 9,1 °C 93 % 1007,0 hPa 0,0 mm 0,0 km/h (0 Bft) S-SW 202 ° 0 min 0,000 mm 0,0 UV-I 0 W/m² 7,8 °C 8,9 °C 0,0 km/h (0 Bft)
13.05.2017 00:07 8,9 °C 9,0 °C 93 % 1007,0 hPa 0,0 mm 0,0 km/h (0 Bft) S-SW 202 ° 0 min 0,000 mm 0,0 UV-I 0 W/m² 7,8 °C 8,9 °C 0,0 km/h (0 Bft)
13.05.2017 00:08 8,9 °C 8,9 °C 94 % 1007,0 hPa 0,0 mm 0,0 km/h (0 Bft) S-SW 202 ° 0 min 0,000 mm 0,0 UV-I 0 W/m² 8,0 °C 8,9 °C 0,0 km/h (0 Bft)
13.05.2017 00:09 8,9 °C 8,9 °C 94 % 1007,0 hPa 0,0 mm 0,0 km/h (0 Bft) S-SW 202 ° 0 min 0,000 mm 0,0 UV-I 0 W/m² 8,0 °C 8,9 °C 0,0 km/h (0 Bft)
13.05.2017 00:10 8,9 °C 8,9 °C 94 % 1007,0 hPa 0,0 mm 0,0 km/h (0 Bft) S-SW 202 ° 0 min 0,000 mm 0,0 UV-I 0 W/m² 8,0 °C 8,9 °C 0,0 km/h (0 Bft)
13.05.2017 00:11 8,9 °C 8,9 °C 94 % 1007,0 hPa 0,0 mm 0,0 km/h (0 Bft) S-SW 202 ° 0 min 0,000 mm 0,0 UV-I 0 W/m² 8,0 °C 8,9 °C 0,0 km/h (0 Bft)
13.05.2017 00:12 8,9 °C 9,0 °C 94 % 1007,0 hPa 0,0 mm 0,0 km/h (0 Bft) S-SW 202 ° 0 min 0,000 mm 0,0 UV-I 0 W/m² 8,0 °C 8,9 °C 0,0 km/h (0 Bft)
13.05.2017 00:13 8,9 °C 9,0 °C 94 % 1007,0 hPa 0,0 mm 0,0 km/h (0 Bft) S-SW 202 ° 0 min 0,000 mm 0,0 UV-I 0 W/m² 8,0 °C 8,9 °C 0,0 km/h (0 Bft)
13.05.2017 00:14 9,0 °C 9,0 °C 94 % 1007,0 hPa 0,0 mm 0,2 km/h (0 Bft) S-SW 204 ° 0 min 0,000 mm 0,0 UV-I 0 W/m² 8,1 °C 9,0 °C 1,6 km/h (1 Bft)
13.05.2017 00:15 9,0 °C 9,0 °C 94 % 1007,1 hPa 0,0 mm 2,2 km/h (1 Bft) S 178 ° 0 min 0,000 mm 0,0 UV-I 0 W/m² 8,1 °C 9,0 °C 4,8 km/h (1 Bft)
13.05.2017 00:16 8,9 °C 9,0 °C 94 % 1007,0 hPa 0,0 mm 1,8 km/h (1 Bft) S-SO 167 ° 0 min 0,000 mm 0,0 UV-I 0 W/m² 8,0 °C 8,9 °C 6,4 km/h (2 Bft)
13.05.2017 00:17 9,0 °C 9,0 °C 94 % 1007,1 hPa 0,0 mm 0,0 km/h (0 Bft) S-SO 167 ° 0 min 0,000 mm 0,0 UV-I 0 W/m² 8,1 °C 9,0 °C 0,0 km/h (0 Bft)
13.05.2017 00:18 9,1 °C 9,1 °C 94 % 1007,1 hPa 0,0 mm 2,7 km/h (1 Bft) S 181 ° 0 min 0,000 mm 0,0 UV-I 0 W/m² 8,2 °C 9,1 °C 6,4 km/h (2 Bft)
13.05.2017 00:19 9,1 °C 9,1 °C 94 % 1007,0 hPa 0,0 mm 1,1 km/h (1 Bft) S 181 ° 0 min 0,000 mm 0,0 UV-I 0 W/m² 8,2 °C 9,1 °C 3,2 km/h (1 Bft)
13.05.2017 00:20 9,1 °C 9,1 °C 94 % 1007,0 hPa 0,0 mm 0,0 km/h (0 Bft) S 181 ° 0 min 0,000 mm 0,0 UV-I 0 W/m² 8,2 °C 9,1 °C 0,0 km/h (0 Bft)
13.05.2017 00:21 9,1 °C 9,2 °C 94 % 1007,0 hPa 0,0 mm 0,0 km/h (0 Bft) S 181 ° 0 min 0,000 mm 0,0 UV-I 0 W/m² 8,2 °C 9,1 °C 0,0 km/h (0 Bft)
13.05.2017 00:22 9,2 °C 9,2 °C 94 % 1007,0 hPa 0,0 mm 0,1 km/h (0 Bft) W-SW 257 ° 0 min 0,000 mm 0,0 UV-I 0 W/m² 8,3 °C 9,2 °C 1,6 km/h (1 Bft)
13.05.2017 00:23 9,2 °C 9,2 °C 94 % 1007,0 hPa 0,0 mm 0,2 km/h (0 Bft) W-SW 257 ° 0 min 0,000 mm 0,0 UV-I 0 W/m² 8,3 °C 9,2 °C 1,6 km/h (1 Bft)
13.05.2017 00:24 9,2 °C 9,2 °C 94 % 1007,0 hPa 0,0 mm 1,5 km/h (1 Bft) SW 223 ° 0 min 0,000 mm 0,0 UV-I 0 W/m² 8,3 °C 9,2 °C 4,8 km/h (1 Bft)
13.05.2017 00:25 9,2 °C 9,2 °C 94 % 1007,0 hPa 0,0 mm 0,7 km/h (0 Bft) SW 223 ° 0 min 0,000 mm 0,0 UV-I 0 W/m² 8,3 °C 9,2 °C 3,2 km/h (1 Bft)
13.05.2017 00:26 9,2 °C 9,2 °C 94 % 1007,0 hPa 0,0 mm 0,0 km/h (0 Bft) SW 223 ° 0 min 0,000 mm 0,0 UV-I 0 W/m² 8,3 °C 9,2 °C 0,0 km/h (0 Bft)
13.05.2017 00:27 9,2 °C 9,2 °C 94 % 1007,1 hPa 0,0 mm 0,9 km/h (0 Bft) SW 223 ° 0 min 0,000 mm 0,0 UV-I 0 W/m² 8,3 °C 9,2 °C 3,2 km/h (1 Bft)
13.05.2017 00:28 9,2 °C 9,2 °C 94 % 1007,0 hPa 0,0 mm 0,8 km/h (0 Bft) SW 223 ° 0 min 0,000 mm 0,0 UV-I 0 W/m² 8,3 °C 9,2 °C 3,2 km/h (1 Bft)
13.05.2017 00:29 9,2 °C 9,2 °C 94 % 1007,0 hPa 0,0 mm 0,3 km/h (0 Bft) SW 223 ° 0 min 0,000 mm 0,0 UV-I 0 W/m² 8,3 °C 9,2 °C 1,6 km/h (1 Bft)
13.05.2017 00:30 9,2 °C 9,2 °C 94 % 1007,1 hPa 0,0 mm 0,3 km/h (0 Bft) W-SW 238 ° 0 min 0,000 mm 0,0 UV-I 0 W/m² 8,3 °C 9,2 °C 1,6 km/h (1 Bft)
13.05.2017 00:31 9,2 °C 9,2 °C 94 % 1007,0 hPa 0,0 mm 0,5 km/h (0 Bft) SW 229 ° 0 min 0,000 mm 0,0 UV-I 0 W/m² 8,3 °C 9,2 °C 3,2 km/h (1 Bft)
13.05.2017 00:32 9,2 °C 9,2 °C 94 % 1007,1 hPa 0,0 mm 0,0 km/h (0 Bft) SW 229 ° 0 min 0,000 mm 0,0 UV-I 0 W/m² 8,3 °C 9,2 °C 0,0 km/h (0 Bft)
13.05.2017 00:33 9,2 °C 9,2 °C 94 % 1007,0 hPa 0,0 mm 0,1 km/h (0 Bft) SW 229 ° 0 min 0,000 mm 0,0 UV-I 0 W/m² 8,3 °C 9,2 °C 1,6 km/h (1 Bft)
13.05.2017 00:34 9,1 °C 9,2 °C 94 % 1007,1 hPa 0,0 mm 3,2 km/h (1 Bft) SW 219 ° 0 min 0,000 mm 0,0 UV-I 0 W/m² 8,2 °C 9,1 °C 6,4 km/h (2 Bft)
13.05.2017 00:35 9,1 °C 9,1 °C 94 % 1007,1 hPa 0,0 mm 2,0 km/h (1 Bft) W 265 ° 0 min 0,000 mm 0,0 UV-I 0 W/m² 8,2 °C 9,1 °C 4,8 km/h (1 Bft)
13.05.2017 00:36 9,1 °C 9,1 °C 94 % 1007,1 hPa 0,0 mm 2,5 km/h (1 Bft) W 266 ° 0 min 0,000 mm 0,0 UV-I 0 W/m² 8,2 °C 9,1 °C 4,8 km/h (1 Bft)
13.05.2017 00:37 9,1 °C 9,1 °C 94 % 1007,1 hPa 0,0 mm 0,3 km/h (0 Bft) W 266 ° 0 min 0,000 mm 0,0 UV-I 0 W/m² 8,2 °C 9,1 °C 1,6 km/h (1 Bft)
13.05.2017 00:38 9,1 °C 9,1 °C 94 % 1007,1 hPa 0,0 mm 0,0 km/h (0 Bft) W 266 ° 0 min 0,000 mm 0,0 UV-I 0 W/m² 8,2 °C 9,1 °C 0,0 km/h (0 Bft)
13.05.2017 00:39 9,2 °C 9,2 °C 94 % 1007,1 hPa 0,0 mm 3,4 km/h (1 Bft) W-SW 240 ° 0 min 0,000 mm 0,0 UV-I 0 W/m² 8,3 °C 9,2 °C 9,7 km/h (2 Bft)
13.05.2017 00:40 9,2 °C 9,2 °C 94 % 1007,0 hPa 0,0 mm 3,3 km/h (1 Bft) W-SW 247 ° 0 min 0,000 mm 0,0 UV-I 0 W/m² 8,3 °C 9,2 °C 4,8 km/h (1 Bft)
13.05.2017 00:41 9,3 °C 9,3 °C 95 % 1007,0 hPa 0,0 mm 2,5 km/h (1 Bft) W-SW 247 ° 0 min 0,000 mm 0,0 UV-I 0 W/m² 8,5 °C 9,3 °C 4,8 km/h (1 Bft)
13.05.2017 00:42 9,3 °C 9,3 °C 95 % 1007,1 hPa 0,0 mm 0,6 km/h (0 Bft) W-SW 247 ° 0 min 0,000 mm 0,0 UV-I 0 W/m² 8,5 °C 9,3 °C 1,6 km/h (1 Bft)
13.05.2017 00:43 9,3 °C 9,3 °C 95 % 1007,1 hPa 0,0 mm 0,1 km/h (0 Bft) W-SW 247 ° 0 min 0,000 mm 0,0 UV-I 0 W/m² 8,5 °C 9,3 °C 1,6 km/h (1 Bft)
13.05.2017 00:44 9,4 °C 9,4 °C 95 % 1007,1 hPa 0,0 mm 0,0 km/h (0 Bft) W-SW 247 ° 0 min 0,000 mm 0,0 UV-I 0 W/m² 8,6 °C 9,4 °C 0,0 km/h (0 Bft)
13.05.2017 00:45 9,4 °C 9,4 °C 95 % 1007,1 hPa 0,0 mm 0,9 km/h (0 Bft) SW 236 ° 0 min 0,000 mm 0,0 UV-I 0 W/m² 8,6 °C 9,4 °C 3,2 km/h (1 Bft)
13.05.2017 00:46 9,4 °C 9,5 °C 94 % 1007,1 hPa 0,0 mm 0,0 km/h (0 Bft) SW 236 ° 0 min 0,000 mm 0,0 UV-I 0 W/m² 8,5 °C 9,4 °C 0,0 km/h (0 Bft)
13.05.2017 00:47 9,5 °C 9,5 °C 94 % 1007,1 hPa 0,0 mm 2,6 km/h (1 Bft) S-SW 212 ° 0 min 0,000 mm 0,0 UV-I 0 W/m² 8,6 °C 9,5 °C 6,4 km/h (2 Bft)
13.05.2017 00:48 9,6 °C 9,6 °C 94 % 1007,1 hPa 0,0 mm 5,9 km/h (2 Bft) S 187 ° 0 min 0,000 mm 0,0 UV-I 0 W/m² 8,7 °C 9,0 °C 11,3 km/h (2 Bft)
13.05.2017 00:49 9,6 °C 9,6 °C 94 % 1007,1 hPa 0,0 mm 4,4 km/h (1 Bft) S-SW 197 ° 0 min 0,000 mm 0,0 UV-I 0 W/m² 8,7 °C 9,6 °C 4,8 km/h (1 Bft)
13.05.2017 00:50 9,7 °C 9,7 °C 94 % 1007,1 hPa 0,0 mm 2,3 km/h (1 Bft) S 185 ° 0 min 0,000 mm 0,0 UV-I 0 W/m² 8,8 °C 9,7 °C 3,2 km/h (1 Bft)
13.05.2017 00:51 9,6 °C 9,7 °C 94 % 1007,1 hPa 0,0 mm 2,2 km/h (1 Bft) S 188 ° 0 min 0,000 mm 0,0 UV-I 0 W/m² 8,7 °C 9,6 °C 4,8 km/h (1 Bft)
13.05.2017 00:52 9,7 °C 9,7 °C 94 % 1007,2 hPa 0,0 mm 1,2 km/h (1 Bft) S-SO 164 ° 0 min 0,000 mm 0,0 UV-I 0 W/m² 8,8 °C 9,7 °C 6,4 km/h (2 Bft)
13.05.2017 00:53 9,7 °C 9,7 °C 94 % 1007,2 hPa 0,0 mm 0,7 km/h (0 Bft) S-SO 164 ° 0 min 0,000 mm 0,0 UV-I 0 W/m² 8,8 °C 9,7 °C 1,6 km/h (1 Bft)
13.05.2017 00:54 9,7 °C 9,7 °C 94 % 1007,2 hPa 0,0 mm 0,1 km/h (0 Bft) S-SO 164 ° 0 min 0,000 mm 0,0 UV-I 0 W/m² 8,8 °C 9,7 °C 1,6 km/h (1 Bft)
13.05.2017 00:55 9,7 °C 9,7 °C 94 % 1007,2 hPa 0,0 mm 0,9 km/h (0 Bft) S-SO 164 ° 0 min 0,000 mm 0,0 UV-I 0 W/m² 8,8 °C 9,7 °C 1,6 km/h (1 Bft)
13.05.2017 00:56 9,7 °C 9,7 °C 94 % 1007,2 hPa 0,0 mm 0,1 km/h (0 Bft) S-SO 164 ° 0 min 0,000 mm 0,0 UV-I 0 W/m² 8,8 °C 9,7 °C 1,6 km/h (1 Bft)
13.05.2017 00:57 9,7 °C 9,7 °C 94 % 1007,2 hPa 0,0 mm 0,0 km/h (0 Bft) S-SO 164 ° 0 min 0,000 mm 0,0 UV-I 0 W/m² 8,8 °C 9,7 °C 0,0 km/h (0 Bft)
13.05.2017 00:58 9,7 °C 9,7 °C 93 % 1007,2 hPa 0,0 mm 0,0 km/h (0 Bft) S-SO 164 ° 0 min 0,000 mm 0,0 UV-I 0 W/m² 8,6 °C 9,7 °C 0,0 km/h (0 Bft)
13.05.2017 00:59 9,7 °C 9,7 °C 94 % 1007,2 hPa 0,0 mm 0,0 km/h (0 Bft) S-SO 164 ° 0 min 0,000 mm 0,0 UV-I 0 W/m² 8,8 °C 9,7 °C 0,0 km/h (0 Bft)
13.05.2017 01:00 9,6 °C 9,7 °C 94 % 1007,2 hPa 0,0 mm 0,0 km/h (0 Bft) S-SO 164 ° 0 min 0,000 mm 0,0 UV-I 0 W/m² 8,7 °C 9,6 °C 0,0 km/h (0 Bft)
13.05.2017 01:01 9,7 °C 9,7 °C 94 % 1007,3 hPa 0,0 mm 1,2 km/h (1 Bft) S-SO 165 ° 0 min 0,000 mm 0,0 UV-I 0 W/m² 8,8 °C 9,7 °C 3,2 km/h (1 Bft)
13.05.2017 01:02 9,7 °C 9,7 °C 94 % 1007,3 hPa 0,0 mm 0,0 km/h (0 Bft) S-SO 165 ° 0 min 0,000 mm 0,0 UV-I 0 W/m² 8,8 °C 9,7 °C 0,0 km/h (0 Bft)
13.05.2017 01:03 9,7 °C 9,7 °C 93 % 1007,3 hPa 0,0 mm 0,6 km/h (0 Bft) S-SO 165 ° 0 min 0,000 mm 0,0 UV-I 0 W/m² 8,6 °C 9,7 °C 1,6 km/h (1 Bft)
13.05.2017 01:04 9,7 °C 9,7 °C 93 % 1007,3 hPa 0,0 mm 1,7 km/h (1 Bft) SW 236 ° 0 min 0,000 mm 0,0 UV-I 0 W/m² 8,6 °C 9,7 °C 4,8 km/h (1 Bft)
13.05.2017 01:05 9,7 °C 9,7 °C 93 % 1007,3 hPa 0,0 mm 2,0 km/h (1 Bft) SW 235 ° 0 min 0,000 mm 0,0 UV-I 0 W/m² 8,6 °C 9,7 °C 3,2 km/h (1 Bft)
13.05.2017 01:06 9,7 °C 9,7 °C 93 % 1007,3 hPa 0,0 mm 0,1 km/h (0 Bft) SW 235 ° 0 min 0,000 mm 0,0 UV-I 0 W/m² 8,6 °C 9,7 °C 1,6 km/h (1 Bft)
13.05.2017 01:07 9,7 °C 9,7 °C 93 % 1007,3 hPa 0,0 mm 0,0 km/h (0 Bft) SW 235 ° 0 min 0,000 mm 0,0 UV-I 0 W/m² 8,6 °C 9,7 °C 0,0 km/h (0 Bft)
13.05.2017 01:08 9,7 °C 9,7 °C 93 % 1007,3 hPa 0,0 mm 1,8 km/h (1 Bft) SW 235 ° 0 min 0,000 mm 0,0 UV-I 0 W/m² 8,6 °C 9,7 °C 3,2 km/h (1 Bft)
13.05.2017 01:09 9,8 °C 9,8 °C 93 % 1007,4 hPa 0,0 mm 3,0 km/h (1 Bft) S-SW 205 ° 0 min 0,000 mm 0,0 UV-I 0 W/m² 8,7 °C 9,8 °C 4,8 km/h (1 Bft)
13.05.2017 01:10 9,8 °C 9,8 °C 93 % 1007,4 hPa 0,0 mm 1,3 km/h (1 Bft) S 187 ° 0 min 0,000 mm 0,0 UV-I 0 W/m² 8,7 °C 9,8 °C 6,4 km/h (2 Bft)
13.05.2017 01:11 9,8 °C 9,8 °C 93 % 1007,3 hPa 0,0 mm 2,2 km/h (1 Bft) S 191 ° 0 min 0,000 mm 0,0 UV-I 0 W/m² 8,7 °C 9,8 °C 3,2 km/h (1 Bft)
13.05.2017 01:12 9,9 °C 9,9 °C 93 % 1007,3 hPa 0,0 mm 1,6 km/h (1 Bft) S-SW 192 ° 0 min 0,000 mm 0,0 UV-I 0 W/m² 8,8 °C 9,9 °C 3,2 km/h (1 Bft)
13.05.2017 01:13 9,9 °C 9,9 °C 93 % 1007,4 hPa 0,0 mm 2,3 km/h (1 Bft) S-SW 192 ° 0 min 0,000 mm 0,0 UV-I 0 W/m² 8,8 °C 9,9 °C 3,2 km/h (1 Bft)
13.05.2017 01:14 9,9 °C 9,9 °C 93 % 1007,4 hPa 0,0 mm 1,1 km/h (1 Bft) S-SW 192 ° 0 min 0,000 mm 0,0 UV-I 0 W/m² 8,8 °C 9,9 °C 3,2 km/h (1 Bft)
13.05.2017 01:15 9,9 °C 9,9 °C 93 % 1007,4 hPa 0,0 mm 1,0 km/h (0 Bft) S-SW 192 ° 0 min 0,000 mm 0,0 UV-I 0 W/m² 8,8 °C 9,9 °C 3,2 km/h (1 Bft)
13.05.2017 01:16 9,9 °C 9,9 °C 93 % 1007,4 hPa 0,0 mm 1,6 km/h (1 Bft) S 191 ° 0 min 0,000 mm 0,0 UV-I 0 W/m² 8,8 °C 9,9 °C 3,2 km/h (1 Bft)
13.05.2017 01:17 9,9 °C 9,9 °C 93 % 1007,4 hPa 0,0 mm 1,6 km/h (1 Bft) S 191 ° 0 min 0,000 mm 0,0 UV-I 0 W/m² 8,8 °C 9,9 °C 3,2 km/h (1 Bft)
13.05.2017 01:18 9,9 °C 9,9 °C 93 % 1007,5 hPa 0,0 mm 0,1 km/h (0 Bft) S 191 ° 0 min 0,000 mm 0,0 UV-I 0 W/m² 8,8 °C 9,9 °C 1,6 km/h (1 Bft)
13.05.2017 01:19 9,9 °C 9,9 °C 93 % 1007,5 hPa 0,0 mm 1,8 km/h (1 Bft) S-SW 209 ° 0 min 0,000 mm 0,0 UV-I 0 W/m² 8,8 °C 9,9 °C 4,8 km/h (1 Bft)
13.05.2017 01:20 9,9 °C 9,9 °C 92 % 1007,4 hPa 0,0 mm 2,6 km/h (1 Bft) S-SW 202 ° 0 min 0,000 mm 0,0 UV-I 0 W/m² 8,7 °C 9,9 °C 3,2 km/h (1 Bft)
13.05.2017 01:21 9,9 °C 9,9 °C 93 % 1007,4 hPa 0,0 mm 1,0 km/h (0 Bft) S-SW 205 ° 0 min 0,000 mm 0,0 UV-I 0 W/m² 8,8 °C 9,9 °C 3,2 km/h (1 Bft)
13.05.2017 01:22 9,9 °C 9,9 °C 93 % 1007,5 hPa 0,0 mm 5,2 km/h (1 Bft) W-SW 253 ° 0 min 0,000 mm 0,0 UV-I 0 W/m² 8,8 °C 9,6 °C 6,4 km/h (2 Bft)
13.05.2017 01:23 9,9 °C 9,9 °C 92 % 1007,6 hPa 0,0 mm 2,4 km/h (1 Bft) SW 217 ° 0 min 0,000 mm 0,0 UV-I 0 W/m² 8,7 °C 9,9 °C 4,8 km/h (1 Bft)
13.05.2017 01:24 10,0 °C 10,0 °C 92 % 1007,5 hPa 0,0 mm 6,2 km/h (2 Bft) W 261 ° 0 min 0,000 mm 0,0 UV-I 0 W/m² 8,8 °C 9,4 °C 9,7 km/h (2 Bft)
13.05.2017 01:25 10,0 °C 10,0 °C 92 % 1007,6 hPa 0,2 mm 8,6 km/h (2 Bft) W-NW 286 ° 0 min 0,000 mm 0,0 UV-I 0 W/m² 8,8 °C 8,9 °C 11,3 km/h (2 Bft)
13.05.2017 01:26 10,0 °C 10,0 °C 92 % 1007,6 hPa 0,2 mm 4,8 km/h (1 Bft) W-SW 240 ° 0 min 0,000 mm 0,0 UV-I 0 W/m² 8,8 °C 9,8 °C 6,4 km/h (2 Bft)
13.05.2017 01:27 10,0 °C 10,0 °C 92 % 1007,6 hPa 0,2 mm 7,6 km/h (2 Bft) S-SW 204 ° 0 min 0,000 mm 0,0 UV-I 0 W/m² 8,8 °C 9,1 °C 11,3 km/h (2 Bft)
13.05.2017 01:28 10,0 °C 10,0 °C 92 % 1007,6 hPa 0,2 mm 4,0 km/h (1 Bft) S-SO 160 ° 0 min 0,000 mm 0,0 UV-I 0 W/m² 8,8 °C 10,0 °C 8,0 km/h (2 Bft)
13.05.2017 01:29 9,9 °C 10,0 °C 92 % 1007,6 hPa 0,2 mm 4,8 km/h (1 Bft) S 190 ° 0 min 0,000 mm 0,0 UV-I 0 W/m² 8,7 °C 9,7 °C 8,0 km/h (2 Bft)
13.05.2017 01:30 9,9 °C 9,9 °C 92 % 1007,6 hPa 0,2 mm 7,2 km/h (2 Bft) S 178 ° 0 min 0,000 mm 0,0 UV-I 0 W/m² 8,7 °C 9,1 °C 11,3 km/h (2 Bft)
13.05.2017 01:31 9,9 °C 9,9 °C 92 % 1007,6 hPa 0,2 mm 6,8 km/h (2 Bft) S-SW 200 ° 0 min 0,000 mm 0,0 UV-I 0 W/m² 8,7 °C 9,2 °C 11,3 km/h (2 Bft)
13.05.2017 01:32 9,8 °C 9,9 °C 92 % 1007,7 hPa 0,0 mm 6,0 km/h (2 Bft) S-SW 213 ° 0 min 0,000 mm 0,0 UV-I 0 W/m² 8,6 °C 9,2 °C 12,9 km/h (3 Bft)
13.05.2017 01:33 9,8 °C 9,8 °C 92 % 1007,6 hPa 0,2 mm 6,9 km/h (2 Bft) S-SW 194 ° 0 min 0,000 mm 0,0 UV-I 0 W/m² 8,6 °C 9,0 °C 8,0 km/h (2 Bft)
13.05.2017 01:34 9,8 °C 9,8 °C 92 % 1007,6 hPa 0,0 mm 4,4 km/h (1 Bft) S 186 ° 0 min 0,000 mm 0,0 UV-I 0 W/m² 8,6 °C 9,8 °C 8,0 km/h (2 Bft)
13.05.2017 01:35 9,8 °C 9,8 °C 92 % 1007,6 hPa 0,2 mm 1,9 km/h (1 Bft) S 184 ° 0 min 0,000 mm 0,0 UV-I 0 W/m² 8,6 °C 9,8 °C 4,8 km/h (1 Bft)
13.05.2017 01:36 9,8 °C 9,8 °C 93 % 1007,6 hPa 0,0 mm 3,4 km/h (1 Bft) S 184 ° 0 min 0,000 mm 0,0 UV-I 0 W/m² 8,7 °C 9,8 °C 4,8 km/h (1 Bft)
13.05.2017 01:37 9,8 °C 9,8 °C 93 % 1007,6 hPa 0,0 mm 1,6 km/h (1 Bft) S 184 ° 0 min 0,000 mm 0,0 UV-I 0 W/m² 8,7 °C 9,8 °C 3,2 km/h (1 Bft)
13.05.2017 01:38 9,7 °C 9,8 °C 93 % 1007,6 hPa 0,0 mm 1,7 km/h (1 Bft) S 184 ° 0 min 0,000 mm 0,0 UV-I 0 W/m² 8,6 °C 9,7 °C 3,2 km/h (1 Bft)
13.05.2017 01:39 9,7 °C 9,7 °C 93 % 1007,6 hPa 0,0 mm 2,6 km/h (1 Bft) S 184 ° 0 min 0,000 mm 0,0 UV-I 0 W/m² 8,6 °C 9,7 °C 3,2 km/h (1 Bft)
13.05.2017 01:40 9,7 °C 9,7 °C 93 % 1007,6 hPa 0,0 mm 3,5 km/h (1 Bft) S 171 ° 0 min 0,000 mm 0,0 UV-I 0 W/m² 8,6 °C 9,7 °C 6,4 km/h (2 Bft)
13.05.2017 01:41 9,6 °C 9,7 °C 93 % 1007,6 hPa 0,0 mm 1,5 km/h (1 Bft) S 171 ° 0 min 0,000 mm 0,0 UV-I 0 W/m² 8,5 °C 9,6 °C 3,2 km/h (1 Bft)
13.05.2017 01:42 9,6 °C 9,7 °C 93 % 1007,6 hPa 0,0 mm 2,8 km/h (1 Bft) S-SW 208 ° 0 min 0,000 mm 0,0 UV-I 0 W/m² 8,5 °C 9,6 °C 4,8 km/h (1 Bft)
13.05.2017 01:43 9,6 °C 9,7 °C 93 % 1007,7 hPa 0,0 mm 4,3 km/h (1 Bft) S-SO 165 ° 0 min 0,000 mm 0,0 UV-I 0 W/m² 8,5 °C 9,6 °C 8,0 km/h (2 Bft)
13.05.2017 01:44 9,6 °C 9,7 °C 93 % 1007,7 hPa 0,0 mm 4,8 km/h (1 Bft) S-SO 165 ° 0 min 0,000 mm 0,0 UV-I 0 W/m² 8,5 °C 9,4 °C 6,4 km/h (2 Bft)
13.05.2017 01:45 9,6 °C 9,7 °C 93 % 1007,6 hPa 0,0 mm 4,1 km/h (1 Bft) S-SO 155 ° 0 min 0,000 mm 0,0 UV-I 0 W/m² 8,5 °C 9,6 °C 8,0 km/h (2 Bft)
13.05.2017 01:46 9,6 °C 9,6 °C 93 % 1007,6 hPa 0,0 mm 3,9 km/h (1 Bft) S 186 ° 0 min 0,000 mm 0,0 UV-I 0 W/m² 8,5 °C 9,6 °C 6,4 km/h (2 Bft)
13.05.2017 01:47 9,6 °C 9,6 °C 93 % 1007,6 hPa 0,0 mm 2,9 km/h (1 Bft) S 182 ° 0 min 0,000 mm 0,0 UV-I 0 W/m² 8,5 °C 9,6 °C 4,8 km/h (1 Bft)
13.05.2017 01:48 9,6 °C 9,6 °C 93 % 1007,7 hPa 0,0 mm 3,8 km/h (1 Bft) S 180 ° 0 min 0,000 mm 0,0 UV-I 0 W/m² 8,5 °C 9,6 °C 4,8 km/h (1 Bft)
13.05.2017 01:49 9,6 °C 9,6 °C 93 % 1007,6 hPa 0,0 mm 7,1 km/h (2 Bft) S 188 ° 0 min 0,000 mm 0,0 UV-I 0 W/m² 8,5 °C 8,7 °C 11,3 km/h (2 Bft)
13.05.2017 01:50 9,6 °C 9,6 °C 93 % 1007,6 hPa 0,0 mm 4,6 km/h (1 Bft) S 178 ° 0 min 0,000 mm 0,0 UV-I 0 W/m² 8,5 °C 9,4 °C 6,4 km/h (2 Bft)
13.05.2017 01:51 9,6 °C 9,6 °C 93 % 1007,7 hPa 0,0 mm 5,0 km/h (1 Bft) S-SO 156 ° 0 min 0,000 mm 0,0 UV-I 0 W/m² 8,5 °C 9,3 °C 9,7 km/h (2 Bft)
13.05.2017 01:52 9,6 °C 9,6 °C 93 % 1007,7 hPa 0,0 mm 3,4 km/h (1 Bft) S-SO 156 ° 0 min 0,000 mm 0,0 UV-I 0 W/m² 8,5 °C 9,6 °C 4,8 km/h (1 Bft)
13.05.2017 01:53 9,6 °C 9,6 °C 93 % 1007,7 hPa 0,0 mm 3,0 km/h (1 Bft) S-SO 156 ° 0 min 0,000 mm 0,0 UV-I 0 W/m² 8,5 °C 9,6 °C 4,8 km/h (1 Bft)
13.05.2017 01:54 9,6 °C 9,6 °C 93 % 1007,7 hPa 0,0 mm 4,0 km/h (1 Bft) S 172 ° 0 min 0,000 mm 0,0 UV-I 0 W/m² 8,5 °C 9,6 °C 8,0 km/h (2 Bft)
13.05.2017 01:55 9,6 °C 9,6 °C 94 % 1007,7 hPa 0,0 mm 3,3 km/h (1 Bft) S 179 ° 0 min 0,000 mm 0,0 UV-I 0 W/m² 8,7 °C 9,6 °C 6,4 km/h (2 Bft)
13.05.2017 01:56 9,6 °C 9,6 °C 94 % 1007,7 hPa 0,0 mm 5,4 km/h (1 Bft) S 181 ° 0 min 0,000 mm 0,0 UV-I 0 W/m² 8,7 °C 9,2 °C 8,0 km/h (2 Bft)
13.05.2017 01:57 9,6 °C 9,6 °C 94 % 1007,7 hPa 0,0 mm 5,4 km/h (1 Bft) S 175 ° 0 min 0,000 mm 0,0 UV-I 0 W/m² 8,7 °C 9,2 °C 8,0 km/h (2 Bft)
13.05.2017 01:58 9,6 °C 9,7 °C 94 % 1007,7 hPa 0,0 mm 5,3 km/h (1 Bft) S-SO 165 ° 0 min 0,000 mm 0,0 UV-I 0 W/m² 8,7 °C 9,2 °C 8,0 km/h (2 Bft)
13.05.2017 01:59 9,7 °C 9,7 °C 94 % 1007,7 hPa 0,0 mm 5,0 km/h (1 Bft) S 169 ° 0 min 0,000 mm 0,0 UV-I 0 W/m² 8,8 °C 9,4 °C 8,0 km/h (2 Bft)
13.05.2017 02:00 9,7 °C 9,7 °C 94 % 1007,7 hPa 0,0 mm 4,4 km/h (1 Bft) S 184 ° 0 min 0,000 mm 0,0 UV-I 0 W/m² 8,8 °C 9,7 °C 8,0 km/h (2 Bft)
13.05.2017 02:01 9,7 °C 9,7 °C 94 % 1007,7 hPa 0,0 mm 4,6 km/h (1 Bft) S 184 ° 0 min 0,000 mm 0,0 UV-I 0 W/m² 8,8 °C 9,5 °C 6,4 km/h (2 Bft)
13.05.2017 02:02 9,7 °C 9,7 °C 94 % 1007,7 hPa 0,0 mm 4,3 km/h (1 Bft) S 184 ° 0 min 0,000 mm 0,0 UV-I 0 W/m² 8,8 °C 9,7 °C 6,4 km/h (2 Bft)
13.05.2017 02:03 9,7 °C 9,7 °C 94 % 1007,7 hPa 0,0 mm 5,3 km/h (1 Bft) S 180 ° 0 min 0,000 mm 0,0 UV-I 0 W/m² 8,8 °C 9,3 °C 6,4 km/h (2 Bft)
13.05.2017 02:04 9,7 °C 9,8 °C 94 % 1007,7 hPa 0,0 mm 3,2 km/h (1 Bft) S 180 ° 0 min 0,000 mm 0,0 UV-I 0 W/m² 8,8 °C 9,7 °C 4,8 km/h (1 Bft)
13.05.2017 02:05 9,7 °C 9,8 °C 94 % 1007,8 hPa 0,0 mm 1,8 km/h (1 Bft) S 180 ° 0 min 0,000 mm 0,0 UV-I 0 W/m² 8,8 °C 9,7 °C 3,2 km/h (1 Bft)
13.05.2017 02:06 9,7 °C 9,8 °C 94 % 1007,7 hPa 0,0 mm 1,5 km/h (1 Bft) S 180 ° 0 min 0,000 mm 0,0 UV-I 0 W/m² 8,8 °C 9,7 °C 1,6 km/h (1 Bft)
13.05.2017 02:07 9,7 °C 9,8 °C 94 % 1007,7 hPa 0,0 mm 1,5 km/h (1 Bft) S 180 ° 0 min 0,000 mm 0,0 UV-I 0 W/m² 8,8 °C 9,7 °C 3,2 km/h (1 Bft)
13.05.2017 02:08 9,7 °C 9,7 °C 94 % 1007,8 hPa 0,0 mm 3,5 km/h (1 Bft) S-SW 207 ° 0 min 0,000 mm 0,0 UV-I 0 W/m² 8,8 °C 9,7 °C 4,8 km/h (1 Bft)
13.05.2017 02:09 9,7 °C 9,7 °C 94 % 1007,8 hPa 0,0 mm 3,7 km/h (1 Bft) S-SW 207 ° 0 min 0,000 mm 0,0 UV-I 0 W/m² 8,8 °C 9,7 °C 6,4 km/h (2 Bft)
13.05.2017 02:10 9,7 °C 9,8 °C 94 % 1007,8 hPa 0,0 mm 1,4 km/h (1 Bft) S-SW 207 ° 0 min 0,000 mm 0,0 UV-I 0 W/m² 8,8 °C 9,7 °C 3,2 km/h (1 Bft)
13.05.2017 02:11 9,7 °C 9,7 °C 93 % 1007,9 hPa 0,0 mm 4,2 km/h (1 Bft) S-SW 201 ° 0 min 0,000 mm 0,0 UV-I 0 W/m² 8,6 °C 9,7 °C 6,4 km/h (2 Bft)
13.05.2017 02:12 9,7 °C 9,8 °C 93 % 1007,9 hPa 0,0 mm 5,0 km/h (1 Bft) S-SW 213 ° 0 min 0,000 mm 0,0 UV-I 0 W/m² 8,6 °C 9,4 °C 8,0 km/h (2 Bft)
13.05.2017 02:13 9,7 °C 9,7 °C 93 % 1007,8 hPa 0,0 mm 4,6 km/h (1 Bft) S-SW 212 ° 0 min 0,000 mm 0,0 UV-I 0 W/m² 8,6 °C 9,5 °C 9,7 km/h (2 Bft)
13.05.2017 02:14 9,7 °C 9,7 °C 93 % 1007,9 hPa 0,0 mm 4,0 km/h (1 Bft) S-SW 201 ° 0 min 0,000 mm 0,0 UV-I 0 W/m² 8,6 °C 9,7 °C 8,0 km/h (2 Bft)
13.05.2017 02:15 9,7 °C 9,7 °C 93 % 1007,9 hPa 0,0 mm 2,7 km/h (1 Bft) SW 233 ° 0 min 0,000 mm 0,0 UV-I 0 W/m² 8,6 °C 9,7 °C 4,8 km/h (1 Bft)
13.05.2017 02:16 9,7 °C 9,7 °C 93 % 1007,9 hPa 0,0 mm 2,6 km/h (1 Bft) S-SW 207 ° 0 min 0,000 mm 0,0 UV-I 0 W/m² 8,6 °C 9,7 °C 4,8 km/h (1 Bft)
13.05.2017 02:17 9,7 °C 9,7 °C 93 % 1007,8 hPa 0,0 mm 1,3 km/h (1 Bft) S-SW 207 ° 0 min 0,000 mm 0,0 UV-I 0 W/m² 8,6 °C 9,7 °C 3,2 km/h (1 Bft)
13.05.2017 02:18 9,7 °C 9,7 °C 93 % 1007,9 hPa 0,0 mm 3,6 km/h (1 Bft) S-SW 207 ° 0 min 0,000 mm 0,0 UV-I 0 W/m² 8,6 °C 9,7 °C 4,8 km/h (1 Bft)
13.05.2017 02:19 9,6 °C 9,7 °C 93 % 1007,9 hPa 0,0 mm 3,7 km/h (1 Bft) S-SW 205 ° 0 min 0,000 mm 0,0 UV-I 0 W/m² 8,5 °C 9,6 °C 6,4 km/h (2 Bft)
13.05.2017 02:20 9,6 °C 9,6 °C 93 % 1007,9 hPa 0,0 mm 3,8 km/h (1 Bft) S-SW 205 ° 0 min 0,000 mm 0,0 UV-I 0 W/m² 8,5 °C 9,6 °C 6,4 km/h (2 Bft)
13.05.2017 02:21 9,6 °C 9,6 °C 93 % 1007,9 hPa 0,0 mm 1,1 km/h (1 Bft) S-SW 205 ° 0 min 0,000 mm 0,0 UV-I 0 W/m² 8,5 °C 9,6 °C 3,2 km/h (1 Bft)
13.05.2017 02:22 9,6 °C 9,6 °C 93 % 1007,9 hPa 0,0 mm 2,4 km/h (1 Bft) W-SW 240 ° 0 min 0,000 mm 0,0 UV-I 0 W/m² 8,5 °C 9,6 °C 8,0 km/h (2 Bft)
13.05.2017 02:23 9,6 °C 9,6 °C 93 % 1007,9 hPa 0,0 mm 3,6 km/h (1 Bft) W-SW 242 ° 0 min 0,000 mm 0,0 UV-I 0 W/m² 8,5 °C 9,6 °C 6,4 km/h (2 Bft)
13.05.2017 02:24 9,6 °C 9,6 °C 93 % 1007,9 hPa 0,0 mm 2,8 km/h (1 Bft) W-SW 242 ° 0 min 0,000 mm 0,0 UV-I 0 W/m² 8,5 °C 9,6 °C 3,2 km/h (1 Bft)
13.05.2017 02:25 9,6 °C 9,6 °C 93 % 1007,9 hPa 0,0 mm 2,1 km/h (1 Bft) W-SW 242 ° 0 min 0,000 mm 0,0 UV-I 0 W/m² 8,5 °C 9,6 °C 3,2 km/h (1 Bft)
13.05.2017 02:26 9,6 °C 9,6 °C 93 % 1007,9 hPa 0,0 mm 2,0 km/h (1 Bft) W-SW 242 ° 0 min 0,000 mm 0,0 UV-I 0 W/m² 8,5 °C 9,6 °C 4,8 km/h (1 Bft)
13.05.2017 02:27 9,6 °C 9,6 °C 93 % 1008,0 hPa 0,0 mm 3,9 km/h (1 Bft) SW 226 ° 0 min 0,000 mm 0,0 UV-I 0 W/m² 8,5 °C 9,6 °C 4,8 km/h (1 Bft)
13.05.2017 02:28 9,6 °C 9,6 °C 93 % 1007,9 hPa 0,0 mm 1,7 km/h (1 Bft) SW 232 ° 0 min 0,000 mm 0,0 UV-I 0 W/m² 8,5 °C 9,6 °C 4,8 km/h (1 Bft)
13.05.2017 02:29 9,6 °C 9,6 °C 93 % 1007,9 hPa 0,0 mm 2,1 km/h (1 Bft) SW 232 ° 0 min 0,000 mm 0,0 UV-I 0 W/m² 8,5 °C 9,6 °C 3,2 km/h (1 Bft)
13.05.2017 02:30 9,6 °C 9,6 °C 93 % 1007,9 hPa 0,0 mm 0,9 km/h (0 Bft) SW 232 ° 0 min 0,000 mm 0,0 UV-I 0 W/m² 8,5 °C 9,6 °C 1,6 km/h (1 Bft)
13.05.2017 02:31 9,6 °C 9,6 °C 94 % 1007,9 hPa 0,0 mm 1,5 km/h (1 Bft) SW 232 ° 0 min 0,000 mm 0,0 UV-I 0 W/m² 8,7 °C 9,6 °C 3,2 km/h (1 Bft)
13.05.2017 02:32 9,6 °C 9,6 °C 94 % 1007,9 hPa 0,0 mm 0,1 km/h (0 Bft) SW 232 ° 0 min 0,000 mm 0,0 UV-I 0 W/m² 8,7 °C 9,6 °C 1,6 km/h (1 Bft)
13.05.2017 02:33 9,6 °C 9,6 °C 94 % 1007,9 hPa 0,0 mm 0,0 km/h (0 Bft) SW 232 ° 0 min 0,000 mm 0,0 UV-I 0 W/m² 8,7 °C 9,6 °C 0,0 km/h (0 Bft)
13.05.2017 02:34 9,6 °C 9,6 °C 94 % 1007,9 hPa 0,0 mm 2,7 km/h (1 Bft) S-SO 152 ° 0 min 0,000 mm 0,0 UV-I 0 W/m² 8,7 °C 9,6 °C 4,8 km/h (1 Bft)
13.05.2017 02:35 9,5 °C 9,6 °C 94 % 1007,9 hPa 0,0 mm 2,7 km/h (1 Bft) S-SO 152 ° 0 min 0,000 mm 0,0 UV-I 0 W/m² 8,6 °C 9,5 °C 4,8 km/h (1 Bft)
13.05.2017 02:36 9,5 °C 9,6 °C 94 % 1007,9 hPa 0,0 mm 1,8 km/h (1 Bft) S-SO 152 ° 0 min 0,000 mm 0,0 UV-I 0 W/m² 8,6 °C 9,5 °C 3,2 km/h (1 Bft)
13.05.2017 02:37 9,5 °C 9,6 °C 94 % 1007,9 hPa 0,0 mm 0,1 km/h (0 Bft) S-SO 152 ° 0 min 0,000 mm 0,0 UV-I 0 W/m² 8,6 °C 9,5 °C 1,6 km/h (1 Bft)
13.05.2017 02:38 9,5 °C 9,5 °C 94 % 1007,9 hPa 0,0 mm 0,6 km/h (0 Bft) S-SO 152 ° 0 min 0,000 mm 0,0 UV-I 0 W/m² 8,6 °C 9,5 °C 1,6 km/h (1 Bft)
13.05.2017 02:39 9,4 °C 9,5 °C 94 % 1007,9 hPa 0,0 mm 0,1 km/h (0 Bft) S-SO 152 ° 0 min 0,000 mm 0,0 UV-I 0 W/m² 8,5 °C 9,4 °C 1,6 km/h (1 Bft)
13.05.2017 02:40 9,4 °C 9,4 °C 94 % 1007,9 hPa 0,0 mm 0,4 km/h (0 Bft) S-SO 152 ° 0 min 0,000 mm 0,0 UV-I 0 W/m² 8,5 °C 9,4 °C 1,6 km/h (1 Bft)
13.05.2017 02:41 9,4 °C 9,4 °C 94 % 1008,0 hPa 0,0 mm 0,0 km/h (0 Bft) S-SO 152 ° 0 min 0,000 mm 0,0 UV-I 0 W/m² 8,5 °C 9,4 °C 0,0 km/h (0 Bft)
13.05.2017 02:42 9,4 °C 9,4 °C 94 % 1007,9 hPa 0,0 mm 0,0 km/h (0 Bft) S-SO 152 ° 0 min 0,000 mm 0,0 UV-I 0 W/m² 8,5 °C 9,4 °C 0,0 km/h (0 Bft)
13.05.2017 02:43 9,4 °C 9,5 °C 94 % 1008,0 hPa 0,0 mm 0,9 km/h (0 Bft) S-SO 153 ° 0 min 0,000 mm 0,0 UV-I 0 W/m² 8,5 °C 9,4 °C 1,6 km/h (1 Bft)
13.05.2017 02:44 9,4 °C 9,4 °C 94 % 1008,0 hPa 0,0 mm 1,2 km/h (1 Bft) S-SO 153 ° 0 min 0,000 mm 0,0 UV-I 0 W/m² 8,5 °C 9,4 °C 3,2 km/h (1 Bft)
13.05.2017 02:45 9,4 °C 9,4 °C 94 % 1008,0 hPa 0,0 mm 2,2 km/h (1 Bft) S-SO 152 ° 0 min 0,000 mm 0,0 UV-I 0 W/m² 8,5 °C 9,4 °C 3,2 km/h (1 Bft)
13.05.2017 02:46 9,5 °C 9,5 °C 94 % 1008,0 hPa 0,0 mm 0,7 km/h (0 Bft) S-SO 152 ° 0 min 0,000 mm 0,0 UV-I 0 W/m² 8,6 °C 9,5 °C 1,6 km/h (1 Bft)
13.05.2017 02:47 9,5 °C 9,5 °C 95 % 1008,0 hPa 0,0 mm 1,7 km/h (1 Bft) S-SO 153 ° 0 min 0,000 mm 0,0 UV-I 0 W/m² 8,7 °C 9,5 °C 3,2 km/h (1 Bft)
13.05.2017 02:48 9,4 °C 9,5 °C 95 % 1008,0 hPa 0,0 mm 0,0 km/h (0 Bft) S-SO 152 ° 0 min 0,000 mm 0,0 UV-I 0 W/m² 8,6 °C 9,4 °C 0,0 km/h (0 Bft)
13.05.2017 02:49 9,4 °C 9,5 °C 95 % 1008,0 hPa 0,0 mm 0,0 km/h (0 Bft) S-SO 152 ° 0 min 0,000 mm 0,0 UV-I 0 W/m² 8,6 °C 9,4 °C 0,0 km/h (0 Bft)
13.05.2017 02:50 9,4 °C 9,5 °C 95 % 1007,9 hPa 0,0 mm 0,1 km/h (0 Bft) S-SO 152 ° 0 min 0,000 mm 0,0 UV-I 0 W/m² 8,6 °C 9,4 °C 1,6 km/h (1 Bft)
13.05.2017 02:51 9,4 °C 9,4 °C 95 % 1008,0 hPa 0,0 mm 0,0 km/h (0 Bft) S-SO 152 ° 0 min 0,000 mm 0,0 UV-I 0 W/m² 8,6 °C 9,4 °C 0,0 km/h (0 Bft)
13.05.2017 02:52 9,4 °C 9,5 °C 95 % 1008,0 hPa 0,0 mm 0,0 km/h (0 Bft) S-SO 152 ° 0 min 0,000 mm 0,0 UV-I 0 W/m² 8,6 °C 9,4 °C 0,0 km/h (0 Bft)
13.05.2017 02:53 9,4 °C 9,5 °C 95 % 1008,0 hPa 0,0 mm 0,0 km/h (0 Bft) S-SO 152 ° 0 min 0,000 mm 0,0 UV-I 0 W/m² 8,6 °C 9,4 °C 0,0 km/h (0 Bft)
13.05.2017 02:54 9,4 °C 9,5 °C 95 % 1008,0 hPa 0,0 mm 0,0 km/h (0 Bft) S-SO 153 ° 0 min 0,000 mm 0,0 UV-I 0 W/m² 8,6 °C 9,4 °C 0,0 km/h (0 Bft)
13.05.2017 02:55 9,4 °C 9,5 °C 95 % 1007,9 hPa 0,0 mm 0,0 km/h (0 Bft) S-SO 152 ° 0 min 0,000 mm 0,0 UV-I 0 W/m² 8,6 °C 9,4 °C 0,0 km/h (0 Bft)
13.05.2017 02:56 9,4 °C 9,5 °C 95 % 1008,0 hPa 0,0 mm 0,0 km/h (0 Bft) S-SO 152 ° 0 min 0,000 mm 0,0 UV-I 0 W/m² 8,6 °C 9,4 °C 0,0 km/h (0 Bft)
13.05.2017 02:57 9,4 °C 9,5 °C 95 % 1008,0 hPa 0,0 mm 0,0 km/h (0 Bft) S-SO 153 ° 0 min 0,000 mm 0,0 UV-I 0 W/m² 8,6 °C 9,4 °C 0,0 km/h (0 Bft)
13.05.2017 02:58 9,5 °C 9,5 °C 95 % 1008,0 hPa 0,0 mm 0,0 km/h (0 Bft) S-SO 152 ° 0 min 0,000 mm 0,0 UV-I 0 W/m² 8,7 °C 9,5 °C 0,0 km/h (0 Bft)
13.05.2017 02:59 9,5 °C 9,5 °C 95 % 1008,0 hPa 0,0 mm 0,0 km/h (0 Bft) S-SO 153 ° 0 min 0,000 mm 0,0 UV-I 0 W/m² 8,7 °C 9,5 °C 0,0 km/h (0 Bft)
13.05.2017 03:00 9,5 °C 9,5 °C 95 % 1008,0 hPa 0,0 mm 0,0 km/h (0 Bft) S-SO 152 ° 0 min 0,000 mm 0,0 UV-I 0 W/m² 8,7 °C 9,5 °C 0,0 km/h (0 Bft)
13.05.2017 03:01 9,5 °C 9,5 °C 95 % 1008,0 hPa 0,0 mm 0,0 km/h (0 Bft) S-SO 152 ° 0 min 0,000 mm 0,0 UV-I 0 W/m² 8,7 °C 9,5 °C 0,0 km/h (0 Bft)
13.05.2017 03:02 9,5 °C 9,6 °C 95 % 1008,0 hPa 0,0 mm 0,0 km/h (0 Bft) S-SO 152 ° 0 min 0,000 mm 0,0 UV-I 0 W/m² 8,7 °C 9,5 °C 0,0 km/h (0 Bft)
13.05.2017 03:03 9,5 °C 9,6 °C 95 % 1008,0 hPa 0,0 mm 0,0 km/h (0 Bft) S-SO 152 ° 0 min 0,000 mm 0,0 UV-I 0 W/m² 8,7 °C 9,5 °C 0,0 km/h (0 Bft)
13.05.2017 03:04 9,5 °C 9,6 °C 95 % 1008,1 hPa 0,0 mm 0,0 km/h (0 Bft) S-SO 153 ° 0 min 0,000 mm 0,0 UV-I 0 W/m² 8,7 °C 9,5 °C 0,0 km/h (0 Bft)
13.05.2017 03:05 9,5 °C 9,6 °C 95 % 1008,0 hPa 0,0 mm 0,0 km/h (0 Bft) S-SO 152 ° 0 min 0,000 mm 0,0 UV-I 0 W/m² 8,7 °C 9,5 °C 0,0 km/h (0 Bft)
13.05.2017 03:06 9,6 °C 9,6 °C 95 % 1008,0 hPa 0,0 mm 0,0 km/h (0 Bft) S-SO 152 ° 0 min 0,000 mm 0,0 UV-I 0 W/m² 8,8 °C 9,6 °C 0,0 km/h (0 Bft)
13.05.2017 03:07 9,5 °C 9,6 °C 95 % 1008,0 hPa 0,0 mm 0,0 km/h (0 Bft) S-SO 153 ° 0 min 0,000 mm 0,0 UV-I 0 W/m² 8,7 °C 9,5 °C 0,0 km/h (0 Bft)
13.05.2017 03:08 9,5 °C 9,5 °C 95 % 1008,0 hPa 0,0 mm 0,0 km/h (0 Bft) S-SO 153 ° 0 min 0,000 mm 0,0 UV-I 0 W/m² 8,7 °C 9,5 °C 0,0 km/h (0 Bft)
13.05.2017 03:09 9,4 °C 9,5 °C 95 % 1008,0 hPa 0,0 mm 0,0 km/h (0 Bft) S-SO 152 ° 0 min 0,000 mm 0,0 UV-I 0 W/m² 8,6 °C 9,4 °C 0,0 km/h (0 Bft)
13.05.2017 03:10 9,4 °C 9,5 °C 95 % 1008,0 hPa 0,0 mm 0,0 km/h (0 Bft) S-SO 152 ° 0 min 0,000 mm 0,0 UV-I 0 W/m² 8,6 °C 9,4 °C 0,0 km/h (0 Bft)
13.05.2017 03:11 9,4 °C 9,5 °C 95 % 1008,0 hPa 0,0 mm 0,0 km/h (0 Bft) S-SO 152 ° 0 min 0,000 mm 0,0 UV-I 0 W/m² 8,6 °C 9,4 °C 0,0 km/h (0 Bft)
13.05.2017 03:12 9,5 °C 9,5 °C 95 % 1008,0 hPa 0,0 mm 0,0 km/h (0 Bft) S-SO 152 ° 0 min 0,000 mm 0,0 UV-I 0 W/m² 8,7 °C 9,5 °C 0,0 km/h (0 Bft)
13.05.2017 03:13 9,4 °C 9,5 °C 95 % 1008,1 hPa 0,0 mm 0,0 km/h (0 Bft) S-SO 153 ° 0 min 0,000 mm 0,0 UV-I 0 W/m² 8,6 °C 9,4 °C 0,0 km/h (0 Bft)
13.05.2017 03:14 9,4 °C 9,5 °C 95 % 1008,1 hPa 0,0 mm 0,0 km/h (0 Bft) S-SO 152 ° 0 min 0,000 mm 0,0 UV-I 0 W/m² 8,6 °C 9,4 °C 0,0 km/h (0 Bft)
13.05.2017 03:15 9,5 °C 9,5 °C 95 % 1008,0 hPa 0,0 mm 0,0 km/h (0 Bft) S-SO 152 ° 0 min 0,000 mm 0,0 UV-I 0 W/m² 8,7 °C 9,5 °C 0,0 km/h (0 Bft)
13.05.2017 03:16 9,4 °C 9,5 °C 95 % 1008,0 hPa 0,0 mm 0,0 km/h (0 Bft) S-SO 152 ° 0 min 0,000 mm 0,0 UV-I 0 W/m² 8,6 °C 9,4 °C 0,0 km/h (0 Bft)
13.05.2017 03:17 9,4 °C 9,4 °C 95 % 1008,0 hPa 0,0 mm 0,0 km/h (0 Bft) S-SO 152 ° 0 min 0,000 mm 0,0 UV-I 0 W/m² 8,6 °C 9,4 °C 0,0 km/h (0 Bft)
13.05.2017 03:18 9,4 °C 9,4 °C 95 % 1008,1 hPa 0,0 mm 0,0 km/h (0 Bft) S-SO 153 ° 0 min 0,000 mm 0,0 UV-I 0 W/m² 8,6 °C 9,4 °C 0,0 km/h (0 Bft)
13.05.2017 03:19 9,4 °C 9,4 °C 95 % 1008,1 hPa 0,0 mm 0,0 km/h (0 Bft) S-SO 152 ° 0 min 0,000 mm 0,0 UV-I 0 W/m² 8,6 °C 9,4 °C 0,0 km/h (0 Bft)
13.05.2017 03:20 9,4 °C 9,4 °C 95 % 1008,1 hPa 0,0 mm 0,0 km/h (0 Bft) S-SO 152 ° 0 min 0,000 mm 0,0 UV-I 0 W/m² 8,6 °C 9,4 °C 0,0 km/h (0 Bft)
13.05.2017 03:21 9,4 °C 9,4 °C 95 % 1008,1 hPa 0,0 mm 0,0 km/h (0 Bft) S-SO 152 ° 0 min 0,000 mm 0,0 UV-I 0 W/m² 8,6 °C 9,4 °C 0,0 km/h (0 Bft)
13.05.2017 03:22 9,4 °C 9,4 °C 95 % 1008,1 hPa 0,0 mm 0,0 km/h (0 Bft) S-SO 153 ° 0 min 0,000 mm 0,0 UV-I 0 W/m² 8,6 °C 9,4 °C 0,0 km/h (0 Bft)
13.05.2017 03:23 9,4 °C 9,4 °C 95 % 1008,1 hPa 0,0 mm 0,0 km/h (0 Bft) S-SO 152 ° 0 min 0,000 mm 0,0 UV-I 0 W/m² 8,6 °C 9,4 °C 0,0 km/h (0 Bft)
13.05.2017 03:24 9,4 °C 9,4 °C 95 % 1008,1 hPa 0,0 mm 0,0 km/h (0 Bft) S-SO 152 ° 0 min 0,000 mm 0,0 UV-I 0 W/m² 8,6 °C 9,4 °C 0,0 km/h (0 Bft)
13.05.2017 03:25 9,4 °C 9,4 °C 95 % 1008,1 hPa 0,0 mm 0,5 km/h (0 Bft) S-SO 153 ° 0 min 0,000 mm 0,0 UV-I 0 W/m² 8,6 °C 9,4 °C 1,6 km/h (1 Bft)
13.05.2017 03:26 9,4 °C 9,4 °C 95 % 1008,1 hPa 0,0 mm 1,0 km/h (0 Bft) S-SO 152 ° 0 min 0,000 mm 0,0 UV-I 0 W/m² 8,6 °C 9,4 °C 1,6 km/h (1 Bft)
13.05.2017 03:27 9,4 °C 9,4 °C 95 % 1008,1 hPa 0,0 mm 0,1 km/h (0 Bft) S-SO 152 ° 0 min 0,000 mm 0,0 UV-I 0 W/m² 8,6 °C 9,4 °C 1,6 km/h (1 Bft)
13.05.2017 03:28 9,4 °C 9,4 °C 95 % 1008,1 hPa 0,0 mm 0,0 km/h (0 Bft) S-SO 152 ° 0 min 0,000 mm 0,0 UV-I 0 W/m² 8,6 °C 9,4 °C 0,0 km/h (0 Bft)
13.05.2017 03:29 9,4 °C 9,4 °C 95 % 1008,1 hPa 0,0 mm 0,0 km/h (0 Bft) S-SO 152 ° 0 min 0,000 mm 0,0 UV-I 0 W/m² 8,6 °C 9,4 °C 0,0 km/h (0 Bft)
13.05.2017 03:30 9,4 °C 9,4 °C 95 % 1008,1 hPa 0,0 mm 0,0 km/h (0 Bft) S-SO 152 ° 0 min 0,000 mm 0,0 UV-I 0 W/m² 8,6 °C 9,4 °C 0,0 km/h (0 Bft)
13.05.2017 03:31 9,3 °C 9,4 °C 95 % 1008,1 hPa 0,0 mm 0,0 km/h (0 Bft) S-SO 153 ° 0 min 0,000 mm 0,0 UV-I 0 W/m² 8,5 °C 9,3 °C 0,0 km/h (0 Bft)
13.05.2017 03:32 9,4 °C 9,4 °C 95 % 1008,1 hPa 0,0 mm 0,0 km/h (0 Bft) S-SO 152 ° 0 min 0,000 mm 0,0 UV-I 0 W/m² 8,6 °C 9,4 °C 0,0 km/h (0 Bft)
13.05.2017 03:33 9,4 °C 9,4 °C 95 % 1008,1 hPa 0,0 mm 0,0 km/h (0 Bft) S-SO 153 ° 0 min 0,000 mm 0,0 UV-I 0 W/m² 8,6 °C 9,4 °C 0,0 km/h (0 Bft)
13.05.2017 03:34 9,3 °C 9,4 °C 95 % 1008,2 hPa 0,0 mm 0,0 km/h (0 Bft) S-SO 152 ° 0 min 0,000 mm 0,0 UV-I 0 W/m² 8,5 °C 9,3 °C 0,0 km/h (0 Bft)
13.05.2017 03:35 9,4 °C 9,4 °C 95 % 1008,2 hPa 0,0 mm 0,0 km/h (0 Bft) S-SO 153 ° 0 min 0,000 mm 0,0 UV-I 0 W/m² 8,6 °C 9,4 °C 0,0 km/h (0 Bft)
13.05.2017 03:36 9,4 °C 9,4 °C 95 % 1008,1 hPa 0,0 mm 0,0 km/h (0 Bft) S-SO 153 ° 0 min 0,000 mm 0,0 UV-I 0 W/m² 8,6 °C 9,4 °C 0,0 km/h (0 Bft)
13.05.2017 03:37 9,4 °C 9,4 °C 95 % 1008,2 hPa 0,0 mm 0,0 km/h (0 Bft) S-SO 153 ° 0 min 0,000 mm 0,0 UV-I 0 W/m² 8,6 °C 9,4 °C 0,0 km/h (0 Bft)
13.05.2017 03:38 9,4 °C 9,4 °C 95 % 1008,2 hPa 0,0 mm 0,0 km/h (0 Bft) S-SO 153 ° 0 min 0,000 mm 0,0 UV-I 0 W/m² 8,6 °C 9,4 °C 0,0 km/h (0 Bft)
13.05.2017 03:39 9,4 °C 9,4 °C 95 % 1008,2 hPa 0,0 mm 0,0 km/h (0 Bft) S-SO 152 ° 0 min 0,000 mm 0,0 UV-I 0 W/m² 8,6 °C 9,4 °C 0,0 km/h (0 Bft)
13.05.2017 03:40 9,4 °C 9,4 °C 95 % 1008,2 hPa 0,0 mm 0,0 km/h (0 Bft) S-SO 153 ° 0 min 0,000 mm 0,0 UV-I 0 W/m² 8,6 °C 9,4 °C 0,0 km/h (0 Bft)
13.05.2017 03:41 9,4 °C 9,4 °C 95 % 1008,2 hPa 0,0 mm 0,0 km/h (0 Bft) S-SO 152 ° 0 min 0,000 mm 0,0 UV-I 0 W/m² 8,6 °C 9,4 °C 0,0 km/h (0 Bft)
13.05.2017 03:42 9,4 °C 9,4 °C 95 % 1008,2 hPa 0,0 mm 0,0 km/h (0 Bft) S-SO 153 ° 0 min 0,000 mm 0,0 UV-I 0 W/m² 8,6 °C 9,4 °C 0,0 km/h (0 Bft)
13.05.2017 03:43 9,4 °C 9,4 °C 95 % 1008,2 hPa 0,0 mm 0,0 km/h (0 Bft) S-SO 153 ° 0 min 0,000 mm 0,0 UV-I 0 W/m² 8,6 °C 9,4 °C 0,0 km/h (0 Bft)
13.05.2017 03:44 9,4 °C 9,4 °C 95 % 1008,2 hPa 0,0 mm 0,3 km/h (0 Bft) S-SO 153 ° 0 min 0,000 mm 0,0 UV-I 0 W/m² 8,6 °C 9,4 °C 1,6 km/h (1 Bft)
13.05.2017 03:45 9,4 °C 9,4 °C 95 % 1008,3 hPa 0,0 mm 0,4 km/h (0 Bft) S-SO 153 ° 0 min 0,000 mm 0,0 UV-I 0 W/m² 8,6 °C 9,4 °C 1,6 km/h (1 Bft)
13.05.2017 03:46 9,4 °C 9,4 °C 95 % 1008,3 hPa 0,0 mm 1,1 km/h (1 Bft) S-SO 153 ° 0 min 0,000 mm 0,0 UV-I 0 W/m² 8,6 °C 9,4 °C 3,2 km/h (1 Bft)
13.05.2017 03:47 9,4 °C 9,4 °C 95 % 1008,3 hPa 0,0 mm 4,9 km/h (1 Bft) S-SW 200 ° 0 min 0,000 mm 0,0 UV-I 0 W/m² 8,6 °C 9,1 °C 6,4 km/h (2 Bft)
13.05.2017 03:48 9,4 °C 9,5 °C 95 % 1008,3 hPa 0,0 mm 5,0 km/h (1 Bft) S-SW 196 ° 0 min 0,000 mm 0,0 UV-I 0 W/m² 8,6 °C 9,1 °C 6,4 km/h (2 Bft)
13.05.2017 03:49 9,5 °C 9,5 °C 95 % 1008,3 hPa 0,0 mm 3,0 km/h (1 Bft) S-SW 196 ° 0 min 0,000 mm 0,0 UV-I 0 W/m² 8,7 °C 9,5 °C 4,8 km/h (1 Bft)
13.05.2017 03:50 9,5 °C 9,6 °C 95 % 1008,4 hPa 0,0 mm 1,0 km/h (0 Bft) S-SW 196 ° 0 min 0,000 mm 0,0 UV-I 0 W/m² 8,7 °C 9,5 °C 3,2 km/h (1 Bft)
13.05.2017 03:51 9,5 °C 9,6 °C 95 % 1008,4 hPa 0,0 mm 2,5 km/h (1 Bft) SW 221 ° 0 min 0,000 mm 0,0 UV-I 0 W/m² 8,7 °C 9,5 °C 4,8 km/h (1 Bft)
13.05.2017 03:52 9,6 °C 9,6 °C 95 % 1008,3 hPa 0,0 mm 3,4 km/h (1 Bft) S 184 ° 0 min 0,000 mm 0,0 UV-I 0 W/m² 8,8 °C 9,6 °C 4,8 km/h (1 Bft)
13.05.2017 03:53 9,6 °C 9,6 °C 95 % 1008,4 hPa 0,0 mm 3,1 km/h (1 Bft) S 184 ° 0 min 0,000 mm 0,0 UV-I 0 W/m² 8,8 °C 9,6 °C 4,8 km/h (1 Bft)
13.05.2017 03:54 9,6 °C 9,6 °C 95 % 1008,4 hPa 0,0 mm 7,2 km/h (2 Bft) S 171 ° 0 min 0,000 mm 0,0 UV-I 0 W/m² 8,8 °C 8,7 °C 14,5 km/h (3 Bft)
13.05.2017 03:55 9,7 °C 9,7 °C 95 % 1008,4 hPa 0,0 mm 6,6 km/h (2 Bft) S-SW 213 ° 0 min 0,000 mm 0,0 UV-I 0 W/m² 8,9 °C 9,0 °C 11,3 km/h (2 Bft)
13.05.2017 03:56 9,7 °C 9,7 °C 94 % 1008,3 hPa 0,0 mm 4,8 km/h (1 Bft) S-SW 199 ° 0 min 0,000 mm 0,0 UV-I 0 W/m² 8,8 °C 9,5 °C 8,0 km/h (2 Bft)
13.05.2017 03:57 9,8 °C 9,8 °C 94 % 1008,3 hPa 0,0 mm 5,2 km/h (1 Bft) S-SW 202 ° 0 min 0,000 mm 0,0 UV-I 0 W/m² 8,9 °C 9,5 °C 9,7 km/h (2 Bft)
13.05.2017 03:58 9,8 °C 9,8 °C 94 % 1008,3 hPa 0,0 mm 3,8 km/h (1 Bft) S-SW 195 ° 0 min 0,000 mm 0,0 UV-I 0 W/m² 8,9 °C 9,8 °C 9,7 km/h (2 Bft)
13.05.2017 03:59 9,8 °C 9,8 °C 94 % 1008,4 hPa 0,0 mm 6,6 km/h (2 Bft) S 185 ° 0 min 0,000 mm 0,0 UV-I 0 W/m² 8,9 °C 9,1 °C 9,7 km/h (2 Bft)
13.05.2017 04:00 9,8 °C 9,8 °C 93 % 1008,4 hPa 0,0 mm 3,6 km/h (1 Bft) S-SW 209 ° 0 min 0,000 mm 0,0 UV-I 0 W/m² 8,7 °C 9,8 °C 6,4 km/h (2 Bft)
13.05.2017 04:01 9,9 °C 9,9 °C 93 % 1008,4 hPa 0,0 mm 4,5 km/h (1 Bft) S-SW 208 ° 0 min 0,000 mm 0,0 UV-I 0 W/m² 8,8 °C 9,9 °C 6,4 km/h (2 Bft)
13.05.2017 04:02 9,9 °C 9,9 °C 93 % 1008,4 hPa 0,0 mm 5,5 km/h (1 Bft) SO 144 ° 0 min 0,000 mm 0,0 UV-I 0 W/m² 8,8 °C 9,5 °C 8,0 km/h (2 Bft)
13.05.2017 04:03 9,9 °C 9,9 °C 93 % 1008,4 hPa 0,0 mm 3,2 km/h (1 Bft) S 182 ° 0 min 0,000 mm 0,0 UV-I 0 W/m² 8,8 °C 9,9 °C 4,8 km/h (1 Bft)
13.05.2017 04:04 9,9 °C 9,9 °C 93 % 1008,4 hPa 0,0 mm 3,6 km/h (1 Bft) S-SW 196 ° 0 min 0,000 mm 0,0 UV-I 0 W/m² 8,8 °C 9,9 °C 6,4 km/h (2 Bft)
13.05.2017 04:05 9,9 °C 9,9 °C 93 % 1008,4 hPa 0,0 mm 5,4 km/h (1 Bft) S-SW 208 ° 0 min 0,000 mm 0,0 UV-I 0 W/m² 8,8 °C 9,5 °C 8,0 km/h (2 Bft)
13.05.2017 04:06 9,9 °C 9,9 °C 92 % 1008,4 hPa 0,0 mm 4,8 km/h (1 Bft) SW 215 ° 0 min 0,000 mm 0,0 UV-I 0 W/m² 8,7 °C 9,7 °C 8,0 km/h (2 Bft)
13.05.2017 04:07 10,0 °C 10,0 °C 92 % 1008,4 hPa 0,0 mm 4,4 km/h (1 Bft) S-SW 202 ° 0 min 0,000 mm 0,0 UV-I 0 W/m² 8,8 °C 10,0 °C 4,8 km/h (1 Bft)
13.05.2017 04:08 10,0 °C 10,0 °C 92 % 1008,4 hPa 0,0 mm 4,8 km/h (1 Bft) S-SW 213 ° 0 min 0,000 mm 0,0 UV-I 0 W/m² 8,8 °C 9,8 °C 8,0 km/h (2 Bft)
13.05.2017 04:09 10,0 °C 10,0 °C 92 % 1008,4 hPa 0,0 mm 3,4 km/h (1 Bft) SW 232 ° 0 min 0,000 mm 0,0 UV-I 0 W/m² 8,8 °C 10,0 °C 4,8 km/h (1 Bft)
13.05.2017 04:10 9,9 °C 10,0 °C 92 % 1008,4 hPa 0,0 mm 0,8 km/h (0 Bft) SW 232 ° 0 min 0,000 mm 0,0 UV-I 0 W/m² 8,7 °C 9,9 °C 1,6 km/h (1 Bft)
13.05.2017 04:11 9,9 °C 9,9 °C 93 % 1008,4 hPa 0,2 mm 1,7 km/h (1 Bft) SW 232 ° 0 min 0,000 mm 0,0 UV-I 0 W/m² 8,8 °C 9,9 °C 3,2 km/h (1 Bft)
13.05.2017 04:12 9,8 °C 9,9 °C 92 % 1008,4 hPa 0,0 mm 1,1 km/h (1 Bft) SW 214 ° 0 min 0,000 mm 0,0 UV-I 0 W/m² 8,6 °C 9,8 °C 3,2 km/h (1 Bft)
13.05.2017 04:13 9,8 °C 9,8 °C 92 % 1008,4 hPa 0,0 mm 1,7 km/h (1 Bft) SW 214 ° 0 min 0,000 mm 0,0 UV-I 0 W/m² 8,6 °C 9,8 °C 3,2 km/h (1 Bft)
13.05.2017 04:14 9,8 °C 9,8 °C 93 % 1008,4 hPa 0,0 mm 3,3 km/h (1 Bft) SW 218 ° 0 min 0,000 mm 0,0 UV-I 0 W/m² 8,7 °C 9,8 °C 8,0 km/h (2 Bft)
13.05.2017 04:15 9,8 °C 9,8 °C 93 % 1008,5 hPa 0,0 mm 3,3 km/h (1 Bft) SW 218 ° 0 min 0,000 mm 0,0 UV-I 0 W/m² 8,7 °C 9,8 °C 4,8 km/h (1 Bft)
13.05.2017 04:16 9,8 °C 9,8 °C 93 % 1008,5 hPa 0,0 mm 1,8 km/h (1 Bft) SW 218 ° 0 min 0,000 mm 0,0 UV-I 0 W/m² 8,7 °C 9,8 °C 3,2 km/h (1 Bft)
13.05.2017 04:17 9,8 °C 9,8 °C 93 % 1008,5 hPa 0,0 mm 0,6 km/h (0 Bft) SW 218 ° 0 min 0,000 mm 0,0 UV-I 0 W/m² 8,7 °C 9,8 °C 3,2 km/h (1 Bft)
13.05.2017 04:18 9,8 °C 9,8 °C 93 % 1008,5 hPa 0,0 mm 1,2 km/h (1 Bft) SW 218 ° 0 min 0,000 mm 0,0 UV-I 0 W/m² 8,7 °C 9,8 °C 3,2 km/h (1 Bft)
13.05.2017 04:19 9,8 °C 9,8 °C 93 % 1008,5 hPa 0,0 mm 1,3 km/h (1 Bft) SW 217 ° 0 min 0,000 mm 0,0 UV-I 0 W/m² 8,7 °C 9,8 °C 3,2 km/h (1 Bft)
13.05.2017 04:20 9,7 °C 9,8 °C 93 % 1008,5 hPa 0,0 mm 2,2 km/h (1 Bft) W-SW 250 ° 0 min 0,000 mm 0,0 UV-I 0 W/m² 8,6 °C 9,7 °C 4,8 km/h (1 Bft)
13.05.2017 04:21 9,7 °C 9,8 °C 93 % 1008,5 hPa 0,0 mm 1,9 km/h (1 Bft) O-SO 117 ° 0 min 0,000 mm 0,0 UV-I 0 W/m² 8,6 °C 9,7 °C 4,8 km/h (1 Bft)
13.05.2017 04:22 9,7 °C 9,7 °C 93 % 1008,5 hPa 0,0 mm 4,1 km/h (1 Bft) S-SW 211 ° 0 min 0,000 mm 0,0 UV-I 0 W/m² 8,6 °C 9,7 °C 6,4 km/h (2 Bft)
13.05.2017 04:23 9,7 °C 9,7 °C 93 % 1008,5 hPa 0,0 mm 0,3 km/h (0 Bft) S-SW 211 ° 0 min 0,000 mm 0,0 UV-I 0 W/m² 8,6 °C 9,7 °C 1,6 km/h (1 Bft)
13.05.2017 04:24 9,6 °C 9,7 °C 93 % 1008,5 hPa 0,0 mm 1,3 km/h (1 Bft) S-SW 211 ° 0 min 0,000 mm 0,0 UV-I 0 W/m² 8,5 °C 9,6 °C 1,6 km/h (1 Bft)
13.05.2017 04:25 9,6 °C 9,6 °C 93 % 1008,5 hPa 0,0 mm 1,1 km/h (1 Bft) S-SW 211 ° 0 min 0,000 mm 0,0 UV-I 0 W/m² 8,5 °C 9,6 °C 1,6 km/h (1 Bft)
13.05.2017 04:26 9,6 °C 9,6 °C 93 % 1008,5 hPa 0,0 mm 1,0 km/h (0 Bft) S-SW 211 ° 0 min 0,000 mm 0,0 UV-I 0 W/m² 8,5 °C 9,6 °C 3,2 km/h (1 Bft)
13.05.2017 04:27 9,6 °C 9,6 °C 94 % 1008,5 hPa 0,0 mm 0,0 km/h (0 Bft) S-SW 211 ° 0 min 0,000 mm 0,0 UV-I 0 W/m² 8,7 °C 9,6 °C 0,0 km/h (0 Bft)
13.05.2017 04:28 9,5 °C 9,6 °C 94 % 1008,5 hPa 0,0 mm 0,0 km/h (0 Bft) S-SW 211 ° 0 min 0,000 mm 0,0 UV-I 0 W/m² 8,6 °C 9,5 °C 0,0 km/h (0 Bft)
13.05.2017 04:29 9,5 °C 9,5 °C 94 % 1008,5 hPa 0,0 mm 0,3 km/h (0 Bft) S-SW 211 ° 0 min 0,000 mm 0,0 UV-I 0 W/m² 8,6 °C 9,5 °C 1,6 km/h (1 Bft)
13.05.2017 04:30 9,4 °C 9,5 °C 94 % 1008,5 hPa 0,0 mm 1,3 km/h (1 Bft) S-SW 211 ° 0 min 0,000 mm 0,0 UV-I 0 W/m² 8,5 °C 9,4 °C 3,2 km/h (1 Bft)
13.05.2017 04:31 9,4 °C 9,4 °C 94 % 1008,5 hPa 0,0 mm 1,4 km/h (1 Bft) S-SW 211 ° 0 min 0,000 mm 0,0 UV-I 0 W/m² 8,5 °C 9,4 °C 3,2 km/h (1 Bft)
13.05.2017 04:32 9,4 °C 9,4 °C 94 % 1008,5 hPa 0,0 mm 0,4 km/h (0 Bft) S-SW 211 ° 0 min 0,000 mm 0,0 UV-I 0 W/m² 8,5 °C 9,4 °C 3,2 km/h (1 Bft)
13.05.2017 04:33 9,4 °C 9,4 °C 94 % 1008,5 hPa 0,0 mm 0,0 km/h (0 Bft) S-SW 211 ° 0 min 0,000 mm 0,0 UV-I 0 W/m² 8,5 °C 9,4 °C 0,0 km/h (0 Bft)
13.05.2017 04:34 9,4 °C 9,4 °C 94 % 1008,5 hPa 0,0 mm 0,1 km/h (0 Bft) S-SW 211 ° 0 min 0,000 mm 0,0 UV-I 0 W/m² 8,5 °C 9,4 °C 1,6 km/h (1 Bft)
13.05.2017 04:35 9,4 °C 9,4 °C 94 % 1008,5 hPa 0,0 mm 1,8 km/h (1 Bft) S-SW 204 ° 0 min 0,000 mm 0,0 UV-I 0 W/m² 8,5 °C 9,4 °C 3,2 km/h (1 Bft)
13.05.2017 04:36 9,4 °C 9,4 °C 94 % 1008,6 hPa 0,0 mm 1,7 km/h (1 Bft) S-SW 204 ° 0 min 0,000 mm 0,0 UV-I 0 W/m² 8,5 °C 9,4 °C 3,2 km/h (1 Bft)
13.05.2017 04:37 9,4 °C 9,4 °C 94 % 1008,5 hPa 0,0 mm 0,1 km/h (0 Bft) S-SW 204 ° 0 min 0,000 mm 0,0 UV-I 0 W/m² 8,5 °C 9,4 °C 1,6 km/h (1 Bft)
13.05.2017 04:38 9,4 °C 9,4 °C 94 % 1008,5 hPa 0,0 mm 0,0 km/h (0 Bft) S-SW 204 ° 0 min 0,000 mm 0,0 UV-I 0 W/m² 8,5 °C 9,4 °C 0,0 km/h (0 Bft)
13.05.2017 04:39 9,4 °C 9,4 °C 94 % 1008,6 hPa 0,0 mm 0,0 km/h (0 Bft) S-SW 204 ° 0 min 0,000 mm 0,0 UV-I 0 W/m² 8,5 °C 9,4 °C 0,0 km/h (0 Bft)
13.05.2017 04:40 9,4 °C 9,4 °C 94 % 1008,6 hPa 0,0 mm 0,0 km/h (0 Bft) S-SW 204 ° 0 min 0,000 mm 0,0 UV-I 0 W/m² 8,5 °C 9,4 °C 0,0 km/h (0 Bft)
13.05.2017 04:41 9,4 °C 9,4 °C 94 % 1008,6 hPa 0,0 mm 0,0 km/h (0 Bft) S-SW 204 ° 0 min 0,000 mm 0,0 UV-I 0 W/m² 8,5 °C 9,4 °C 0,0 km/h (0 Bft)
13.05.2017 04:42 9,4 °C 9,4 °C 94 % 1008,6 hPa 0,0 mm 0,0 km/h (0 Bft) S-SW 204 ° 0 min 0,000 mm 0,0 UV-I 0 W/m² 8,5 °C 9,4 °C 0,0 km/h (0 Bft)
13.05.2017 04:43 9,4 °C 9,4 °C 94 % 1008,6 hPa 0,0 mm 1,0 km/h (0 Bft) S-SW 204 ° 0 min 0,000 mm 0,0 UV-I 0 W/m² 8,5 °C 9,4 °C 3,2 km/h (1 Bft)
13.05.2017 04:44 9,3 °C 9,4 °C 94 % 1008,6 hPa 0,0 mm 1,5 km/h (1 Bft) S-SW 204 ° 0 min 0,000 mm 0,0 UV-I 0 W/m² 8,4 °C 9,3 °C 3,2 km/h (1 Bft)
13.05.2017 04:45 9,3 °C 9,4 °C 94 % 1008,6 hPa 0,0 mm 0,0 km/h (0 Bft) S-SW 204 ° 0 min 0,000 mm 0,0 UV-I 0 W/m² 8,4 °C 9,3 °C 0,0 km/h (0 Bft)
13.05.2017 04:46 9,3 °C 9,3 °C 94 % 1008,7 hPa 0,0 mm 0,1 km/h (0 Bft) S-SW 204 ° 0 min 0,000 mm 0,0 UV-I 0 W/m² 8,4 °C 9,3 °C 1,6 km/h (1 Bft)
13.05.2017 04:47 9,3 °C 9,3 °C 94 % 1008,7 hPa 0,0 mm 0,5 km/h (0 Bft) S-SW 204 ° 0 min 0,000 mm 0,0 UV-I 0 W/m² 8,4 °C 9,3 °C 1,6 km/h (1 Bft)
13.05.2017 04:48 9,3 °C 9,3 °C 94 % 1008,7 hPa 0,0 mm 1,5 km/h (1 Bft) S-SW 204 ° 0 min 0,000 mm 0,0 UV-I 0 W/m² 8,4 °C 9,3 °C 3,2 km/h (1 Bft)
13.05.2017 04:49 9,3 °C 9,3 °C 94 % 1008,6 hPa 0,0 mm 0,2 km/h (0 Bft) S-SW 204 ° 0 min 0,000 mm 0,0 UV-I 0 W/m² 8,4 °C 9,3 °C 1,6 km/h (1 Bft)
13.05.2017 04:50 9,3 °C 9,3 °C 94 % 1008,7 hPa 0,0 mm 0,0 km/h (0 Bft) S-SW 204 ° 0 min 0,000 mm 0,0 UV-I 0 W/m² 8,4 °C 9,3 °C 0,0 km/h (0 Bft)
13.05.2017 04:51 9,2 °C 9,3 °C 94 % 1008,7 hPa 0,0 mm 0,7 km/h (0 Bft) W-SW 253 ° 0 min 0,000 mm 0,0 UV-I 0 W/m² 8,3 °C 9,2 °C 1,6 km/h (1 Bft)
13.05.2017 04:52 9,2 °C 9,3 °C 95 % 1008,7 hPa 0,0 mm 0,2 km/h (0 Bft) W-SW 253 ° 0 min 0,000 mm 0,0 UV-I 0 W/m² 8,4 °C 9,2 °C 1,6 km/h (1 Bft)
13.05.2017 04:53 9,2 °C 9,3 °C 95 % 1008,7 hPa 0,0 mm 0,0 km/h (0 Bft) W-SW 253 ° 0 min 0,000 mm 0,0 UV-I 0 W/m² 8,4 °C 9,2 °C 0,0 km/h (0 Bft)
13.05.2017 04:54 9,2 °C 9,3 °C 95 % 1008,7 hPa 0,0 mm 0,0 km/h (0 Bft) W-SW 253 ° 0 min 0,000 mm 0,0 UV-I 0 W/m² 8,4 °C 9,2 °C 0,0 km/h (0 Bft)
13.05.2017 04:55 9,3 °C 9,3 °C 95 % 1008,7 hPa 0,0 mm 0,0 km/h (0 Bft) W-SW 253 ° 0 min 0,000 mm 0,0 UV-I 0 W/m² 8,5 °C 9,3 °C 0,0 km/h (0 Bft)
13.05.2017 04:56 9,2 °C 9,3 °C 95 % 1008,7 hPa 0,0 mm 0,1 km/h (0 Bft) W-SW 253 ° 0 min 0,000 mm 0,0 UV-I 0 W/m² 8,4 °C 9,2 °C 1,6 km/h (1 Bft)
13.05.2017 04:57 9,2 °C 9,3 °C 95 % 1008,7 hPa 0,0 mm 0,1 km/h (0 Bft) W-SW 253 ° 0 min 0,000 mm 0,0 UV-I 0 W/m² 8,4 °C 9,2 °C 1,6 km/h (1 Bft)
13.05.2017 04:58 9,2 °C 9,2 °C 94 % 1008,7 hPa 0,0 mm 0,0 km/h (0 Bft) W-SW 253 ° 0 min 0,000 mm 0,0 UV-I 0 W/m² 8,3 °C 9,2 °C 0,0 km/h (0 Bft)
13.05.2017 04:59 9,2 °C 9,2 °C 94 % 1008,7 hPa 0,0 mm 0,1 km/h (0 Bft) W-SW 253 ° 0 min 0,000 mm 0,0 UV-I 0 W/m² 8,3 °C 9,2 °C 1,6 km/h (1 Bft)
13.05.2017 05:00 9,2 °C 9,2 °C 94 % 1008,7 hPa 0,0 mm 0,4 km/h (0 Bft) W-SW 253 ° 0 min 0,000 mm 0,0 UV-I 0 W/m² 8,3 °C 9,2 °C 1,6 km/h (1 Bft)
13.05.2017 05:01 9,2 °C 9,2 °C 94 % 1008,7 hPa 0,0 mm 0,0 km/h (0 Bft) W-SW 253 ° 0 min 0,000 mm 0,0 UV-I 0 W/m² 8,3 °C 9,2 °C 0,0 km/h (0 Bft)
13.05.2017 05:02 9,2 °C 9,2 °C 94 % 1008,7 hPa 0,0 mm 0,0 km/h (0 Bft) W-SW 253 ° 0 min 0,000 mm 0,0 UV-I 0 W/m² 8,3 °C 9,2 °C 0,0 km/h (0 Bft)
13.05.2017 05:03 9,1 °C 9,2 °C 94 % 1008,8 hPa 0,0 mm 0,0 km/h (0 Bft) W-SW 253 ° 0 min 0,000 mm 0,0 UV-I 0 W/m² 8,2 °C 9,1 °C 0,0 km/h (0 Bft)
13.05.2017 05:04 9,1 °C 9,2 °C 94 % 1008,8 hPa 0,0 mm 0,1 km/h (0 Bft) W-SW 253 ° 0 min 0,000 mm 0,0 UV-I 0 W/m² 8,2 °C 9,1 °C 1,6 km/h (1 Bft)
13.05.2017 05:05 9,2 °C 9,2 °C 94 % 1008,7 hPa 0,0 mm 0,7 km/h (0 Bft) W-SW 253 ° 0 min 0,000 mm 0,0 UV-I 0 W/m² 8,3 °C 9,2 °C 1,6 km/h (1 Bft)
13.05.2017 05:06 9,2 °C 9,2 °C 95 % 1008,8 hPa 0,0 mm 0,0 km/h (0 Bft) W-SW 253 ° 0 min 0,000 mm 0,0 UV-I 0 W/m² 8,4 °C 9,2 °C 0,0 km/h (0 Bft)
13.05.2017 05:07 9,2 °C 9,2 °C 95 % 1008,8 hPa 0,0 mm 0,1 km/h (0 Bft) W-SW 253 ° 0 min 0,000 mm 0,0 UV-I 0 W/m² 8,4 °C 9,2 °C 1,6 km/h (1 Bft)
13.05.2017 05:08 9,2 °C 9,2 °C 94 % 1008,9 hPa 0,0 mm 0,2 km/h (0 Bft) W-SW 253 ° 0 min 0,000 mm 0,0 UV-I 0 W/m² 8,3 °C 9,2 °C 1,6 km/h (1 Bft)
13.05.2017 05:09 9,2 °C 9,2 °C 94 % 1008,9 hPa 0,0 mm 0,0 km/h (0 Bft) W-SW 253 ° 0 min 0,000 mm 0,0 UV-I 0 W/m² 8,3 °C 9,2 °C 0,0 km/h (0 Bft)
13.05.2017 05:10 9,2 °C 9,2 °C 94 % 1008,9 hPa 0,0 mm 0,0 km/h (0 Bft) W-SW 253 ° 0 min 0,000 mm 0,0 UV-I 0 W/m² 8,3 °C 9,2 °C 0,0 km/h (0 Bft)
13.05.2017 05:11 9,2 °C 9,2 °C 94 % 1008,9 hPa 0,0 mm 0,9 km/h (0 Bft) SW 219 ° 0 min 0,000 mm 0,0 UV-I 0 W/m² 8,3 °C 9,2 °C 4,8 km/h (1 Bft)
13.05.2017 05:12 9,2 °C 9,2 °C 94 % 1008,8 hPa 0,0 mm 3,0 km/h (1 Bft) S-SW 209 ° 0 min 0,000 mm 0,0 UV-I 0 W/m² 8,3 °C 9,2 °C 4,8 km/h (1 Bft)
13.05.2017 05:13 9,2 °C 9,2 °C 94 % 1008,9 hPa 0,0 mm 3,4 km/h (1 Bft) S-SO 163 ° 0 min 0,000 mm 0,0 UV-I 0 W/m² 8,3 °C 9,2 °C 6,4 km/h (2 Bft)
13.05.2017 05:14 9,2 °C 9,2 °C 94 % 1008,9 hPa 0,0 mm 1,1 km/h (1 Bft) S-SO 163 ° 0 min 0,000 mm 0,0 UV-I 0 W/m² 8,3 °C 9,2 °C 3,2 km/h (1 Bft)
13.05.2017 05:15 9,2 °C 9,2 °C 95 % 1008,8 hPa 0,0 mm 1,1 km/h (1 Bft) S-SO 163 ° 0 min 0,000 mm 0,0 UV-I 0 W/m² 8,4 °C 9,2 °C 1,6 km/h (1 Bft)
13.05.2017 05:16 9,2 °C 9,2 °C 95 % 1008,8 hPa 0,0 mm 1,4 km/h (1 Bft) S-SO 163 ° 0 min 0,000 mm 0,0 UV-I 0 W/m² 8,4 °C 9,2 °C 3,2 km/h (1 Bft)
13.05.2017 05:17 9,3 °C 9,3 °C 95 % 1008,8 hPa 0,0 mm 0,6 km/h (0 Bft) S-SO 163 ° 0 min 0,000 mm 0,0 UV-I 0 W/m² 8,5 °C 9,3 °C 3,2 km/h (1 Bft)
13.05.2017 05:18 9,3 °C 9,3 °C 95 % 1008,9 hPa 0,0 mm 0,6 km/h (0 Bft) S-SO 163 ° 0 min 0,000 mm 0,0 UV-I 0 W/m² 8,5 °C 9,3 °C 1,6 km/h (1 Bft)
13.05.2017 05:19 9,3 °C 9,3 °C 95 % 1008,9 hPa 0,0 mm 0,1 km/h (0 Bft) S-SO 163 ° 0 min 0,000 mm 0,0 UV-I 0 W/m² 8,5 °C 9,3 °C 1,6 km/h (1 Bft)
13.05.2017 05:20 9,3 °C 9,3 °C 94 % 1008,9 hPa 0,0 mm 0,0 km/h (0 Bft) S-SO 163 ° 0 min 0,000 mm 0,0 UV-I 0 W/m² 8,4 °C 9,3 °C 0,0 km/h (0 Bft)
13.05.2017 05:21 9,3 °C 9,3 °C 94 % 1008,9 hPa 0,0 mm 0,0 km/h (0 Bft) S-SO 163 ° 0 min 0,000 mm 0,0 UV-I 0 W/m² 8,4 °C 9,3 °C 0,0 km/h (0 Bft)
13.05.2017 05:22 9,3 °C 9,3 °C 94 % 1008,9 hPa 0,0 mm 0,0 km/h (0 Bft) S-SO 163 ° 0 min 0,000 mm 0,0 UV-I 0 W/m² 8,4 °C 9,3 °C 0,0 km/h (0 Bft)
13.05.2017 05:23 9,3 °C 9,3 °C 94 % 1008,9 hPa 0,0 mm 0,0 km/h (0 Bft) S-SO 163 ° 0 min 0,000 mm 0,0 UV-I 0 W/m² 8,4 °C 9,3 °C 0,0 km/h (0 Bft)
13.05.2017 05:24 9,3 °C 9,3 °C 94 % 1008,9 hPa 0,0 mm 0,0 km/h (0 Bft) S-SO 163 ° 0 min 0,000 mm 0,0 UV-I 0 W/m² 8,4 °C 9,3 °C 0,0 km/h (0 Bft)
13.05.2017 05:25 9,3 °C 9,3 °C 94 % 1008,9 hPa 0,0 mm 0,0 km/h (0 Bft) S-SO 163 ° 0 min 0,000 mm 0,0 UV-I 0 W/m² 8,4 °C 9,3 °C 0,0 km/h (0 Bft)
13.05.2017 05:26 9,3 °C 9,3 °C 94 % 1008,9 hPa 0,0 mm 0,0 km/h (0 Bft) S-SO 163 ° 0 min 0,000 mm 0,0 UV-I 0 W/m² 8,4 °C 9,3 °C 0,0 km/h (0 Bft)
13.05.2017 05:27 9,2 °C 9,3 °C 94 % 1008,9 hPa 0,0 mm 0,0 km/h (0 Bft) S-SO 163 ° 0 min 0,000 mm 0,0 UV-I 0 W/m² 8,3 °C 9,2 °C 0,0 km/h (0 Bft)
13.05.2017 05:28 9,2 °C 9,3 °C 94 % 1008,9 hPa 0,0 mm 0,0 km/h (0 Bft) S-SO 163 ° 0 min 0,000 mm 0,0 UV-I 0 W/m² 8,3 °C 9,2 °C 0,0 km/h (0 Bft)
13.05.2017 05:29 9,2 °C 9,2 °C 94 % 1008,9 hPa 0,0 mm 0,0 km/h (0 Bft) S-SO 163 ° 0 min 0,000 mm 0,0 UV-I 0 W/m² 8,3 °C 9,2 °C 0,0 km/h (0 Bft)
13.05.2017 05:30 9,2 °C 9,2 °C 94 % 1009,0 hPa 0,0 mm 0,0 km/h (0 Bft) S-SO 163 ° 0 min 0,000 mm 0,0 UV-I 0 W/m² 8,3 °C 9,2 °C 0,0 km/h (0 Bft)
13.05.2017 05:31 9,2 °C 9,2 °C 94 % 1008,9 hPa 0,0 mm 0,0 km/h (0 Bft) S-SO 163 ° 0 min 0,000 mm 0,0 UV-I 0 W/m² 8,3 °C 9,2 °C 0,0 km/h (0 Bft)
13.05.2017 05:32 9,2 °C 9,2 °C 94 % 1009,0 hPa 0,0 mm 0,7 km/h (0 Bft) S-SO 163 ° 0 min 0,000 mm 0,0 UV-I 0 W/m² 8,3 °C 9,2 °C 3,2 km/h (1 Bft)
13.05.2017 05:33 9,2 °C 9,2 °C 94 % 1009,0 hPa 0,0 mm 1,5 km/h (1 Bft) S-SO 163 ° 0 min 0,000 mm 0,0 UV-I 0 W/m² 8,3 °C 9,2 °C 3,2 km/h (1 Bft)
13.05.2017 05:34 9,2 °C 9,2 °C 94 % 1008,9 hPa 0,0 mm 1,4 km/h (1 Bft) SW 220 ° 0 min 0,000 mm 0,0 UV-I 0 W/m² 8,3 °C 9,2 °C 3,2 km/h (1 Bft)
13.05.2017 05:35 9,2 °C 9,3 °C 94 % 1009,0 hPa 0,0 mm 0,5 km/h (0 Bft) SW 220 ° 0 min 0,000 mm 0,0 UV-I 0 W/m² 8,3 °C 9,2 °C 1,6 km/h (1 Bft)
13.05.2017 05:36 9,3 °C 9,3 °C 94 % 1009,0 hPa 0,0 mm 0,4 km/h (0 Bft) SW 220 ° 0 min 0,000 mm 0,0 UV-I 0 W/m² 8,4 °C 9,3 °C 1,6 km/h (1 Bft)
13.05.2017 05:37 9,3 °C 9,3 °C 94 % 1009,0 hPa 0,0 mm 1,0 km/h (0 Bft) SW 220 ° 0 min 0,000 mm 0,0 UV-I 0 W/m² 8,4 °C 9,3 °C 1,6 km/h (1 Bft)
13.05.2017 05:38 9,3 °C 9,3 °C 94 % 1009,0 hPa 0,0 mm 0,1 km/h (0 Bft) SW 219 ° 0 min 0,000 mm 0,0 UV-I 0 W/m² 8,4 °C 9,3 °C 1,6 km/h (1 Bft)
13.05.2017 05:39 9,3 °C 9,3 °C 94 % 1009,0 hPa 0,0 mm 0,0 km/h (0 Bft) SW 220 ° 0 min 0,000 mm 0,0 UV-I 0 W/m² 8,4 °C 9,3 °C 0,0 km/h (0 Bft)
13.05.2017 05:40 9,2 °C 9,3 °C 94 % 1009,1 hPa 0,0 mm 0,0 km/h (0 Bft) SW 220 ° 0 min 0,000 mm 0,0 UV-I 0 W/m² 8,3 °C 9,2 °C 0,0 km/h (0 Bft)
13.05.2017 05:41 9,3 °C 9,3 °C 94 % 1009,1 hPa 0,0 mm 1,1 km/h (1 Bft) SW 220 ° 0 min 0,000 mm 0,0 UV-I 0 W/m² 8,4 °C 9,3 °C 3,2 km/h (1 Bft)
13.05.2017 05:42 9,3 °C 9,3 °C 94 % 1009,1 hPa 0,0 mm 2,7 km/h (1 Bft) SW 219 ° 0 min 0,000 mm 0,0 UV-I 0 W/m² 8,4 °C 9,3 °C 3,2 km/h (1 Bft)
13.05.2017 05:43 9,2 °C 9,3 °C 94 % 1009,1 hPa 0,0 mm 1,7 km/h (1 Bft) SW 219 ° 0 min 0,000 mm 0,0 UV-I 0 W/m² 8,3 °C 9,2 °C 3,2 km/h (1 Bft)
13.05.2017 05:44 9,3 °C 9,3 °C 94 % 1009,1 hPa 0,0 mm 3,2 km/h (1 Bft) SW 219 ° 0 min 0,000 mm 0,0 UV-I 0 W/m² 8,4 °C 9,3 °C 4,8 km/h (1 Bft)
13.05.2017 05:45 9,2 °C 9,3 °C 94 % 1009,1 hPa 0,0 mm 0,0 km/h (0 Bft) SW 219 ° 0 min 0,000 mm 0,0 UV-I 0 W/m² 8,3 °C 9,2 °C 0,0 km/h (0 Bft)
13.05.2017 05:46 9,2 °C 9,3 °C 94 % 1009,1 hPa 0,0 mm 0,9 km/h (0 Bft) SW 219 ° 0 min 0,000 mm 0,0 UV-I 0 W/m² 8,3 °C 9,2 °C 1,6 km/h (1 Bft)
13.05.2017 05:47 9,3 °C 9,3 °C 94 % 1009,1 hPa 0,0 mm 1,6 km/h (1 Bft) SW 219 ° 0 min 0,000 mm 0,0 UV-I 0 W/m² 8,4 °C 9,3 °C 3,2 km/h (1 Bft)
13.05.2017 05:48 9,3 °C 9,3 °C 94 % 1009,1 hPa 0,0 mm 1,5 km/h (1 Bft) SW 219 ° 0 min 0,000 mm 0,0 UV-I 0 W/m² 8,4 °C 9,3 °C 3,2 km/h (1 Bft)
13.05.2017 05:49 9,3 °C 9,3 °C 94 % 1009,1 hPa 0,0 mm 0,1 km/h (0 Bft) SW 219 ° 0 min 0,000 mm 0,0 UV-I 0 W/m² 8,4 °C 9,3 °C 1,6 km/h (1 Bft)
13.05.2017 05:50 9,2 °C 9,3 °C 94 % 1009,2 hPa 0,0 mm 0,0 km/h (0 Bft) SW 219 ° 0 min 0,000 mm 0,0 UV-I 0 W/m² 8,3 °C 9,2 °C 0,0 km/h (0 Bft)
13.05.2017 05:51 9,2 °C 9,3 °C 94 % 1009,2 hPa 0,0 mm 0,0 km/h (0 Bft) SW 219 ° 0 min 0,000 mm 0,0 UV-I 0 W/m² 8,3 °C 9,2 °C 0,0 km/h (0 Bft)
13.05.2017 05:52 9,2 °C 9,2 °C 94 % 1009,2 hPa 0,0 mm 0,0 km/h (0 Bft) SW 219 ° 0 min 0,000 mm 0,0 UV-I 0 W/m² 8,3 °C 9,2 °C 0,0 km/h (0 Bft)
13.05.2017 05:53 9,2 °C 9,2 °C 94 % 1009,2 hPa 0,0 mm 0,0 km/h (0 Bft) SW 219 ° 0 min 0,000 mm 0,0 UV-I 0 W/m² 8,3 °C 9,2 °C 0,0 km/h (0 Bft)
13.05.2017 05:54 9,2 °C 9,2 °C 94 % 1009,3 hPa 0,0 mm 0,0 km/h (0 Bft) SW 219 ° 0 min 0,000 mm 0,0 UV-I 5 W/m² 8,3 °C 9,2 °C 0,0 km/h (0 Bft)
13.05.2017 05:55 9,1 °C 9,2 °C 94 % 1009,3 hPa 0,0 mm 0,0 km/h (0 Bft) SW 219 ° 0 min 0,000 mm 0,0 UV-I 5 W/m² 8,2 °C 9,1 °C 0,0 km/h (0 Bft)
13.05.2017 05:56 9,1 °C 9,2 °C 94 % 1009,2 hPa 0,0 mm 0,0 km/h (0 Bft) SW 219 ° 0 min 0,000 mm 0,0 UV-I 5 W/m² 8,2 °C 9,1 °C 0,0 km/h (0 Bft)
13.05.2017 05:57 9,1 °C 9,1 °C 94 % 1009,3 hPa 0,0 mm 0,0 km/h (0 Bft) SW 219 ° 0 min 0,000 mm 0,0 UV-I 7 W/m² 8,2 °C 9,1 °C 0,0 km/h (0 Bft)
13.05.2017 05:58 9,1 °C 9,1 °C 94 % 1009,2 hPa 0,0 mm 0,0 km/h (0 Bft) SW 219 ° 0 min 0,000 mm 0,0 UV-I 7 W/m² 8,2 °C 9,1 °C 0,0 km/h (0 Bft)
13.05.2017 05:59 9,1 °C 9,1 °C 94 % 1009,3 hPa 0,0 mm 1,2 km/h (1 Bft) SW 219 ° 0 min 0,000 mm 0,0 UV-I 9 W/m² 8,2 °C 9,1 °C 3,2 km/h (1 Bft)
13.05.2017 06:00 9,1 °C 9,1 °C 94 % 1009,3 hPa 0,0 mm 1,0 km/h (0 Bft) SW 219 ° 0 min 0,000 mm 0,0 UV-I 11 W/m² 8,2 °C 9,1 °C 3,2 km/h (1 Bft)
13.05.2017 06:01 9,1 °C 9,1 °C 94 % 1009,3 hPa 0,0 mm 0,0 km/h (0 Bft) SW 219 ° 0 min 0,000 mm 0,0 UV-I 12 W/m² 8,2 °C 9,1 °C 0,0 km/h (0 Bft)
13.05.2017 06:02 9,1 °C 9,1 °C 94 % 1009,3 hPa 0,0 mm 0,0 km/h (0 Bft) SW 219 ° 0 min 0,000 mm 0,0 UV-I 12 W/m² 8,2 °C 9,1 °C 0,0 km/h (0 Bft)
13.05.2017 06:03 9,1 °C 9,1 °C 94 % 1009,3 hPa 0,0 mm 0,0 km/h (0 Bft) SW 219 ° 0 min 0,000 mm 0,0 UV-I 14 W/m² 8,2 °C 9,1 °C 0,0 km/h (0 Bft)
13.05.2017 06:04 9,1 °C 9,1 °C 94 % 1009,3 hPa 0,0 mm 0,5 km/h (0 Bft) SW 219 ° 0 min 0,000 mm 0,0 UV-I 16 W/m² 8,2 °C 9,1 °C 1,6 km/h (1 Bft)
13.05.2017 06:05 9,1 °C 9,1 °C 94 % 1009,4 hPa 0,0 mm 0,1 km/h (0 Bft) SW 219 ° 0 min 0,000 mm 0,0 UV-I 16 W/m² 8,2 °C 9,1 °C 1,6 km/h (1 Bft)
13.05.2017 06:06 9,1 °C 9,1 °C 94 % 1009,4 hPa 0,0 mm 0,0 km/h (0 Bft) SW 219 ° 0 min 0,000 mm 0,0 UV-I 18 W/m² 8,2 °C 9,1 °C 0,0 km/h (0 Bft)
13.05.2017 06:07 9,1 °C 9,1 °C 94 % 1009,4 hPa 0,0 mm 0,4 km/h (0 Bft) SW 219 ° 0 min 0,000 mm 0,0 UV-I 18 W/m² 8,2 °C 9,1 °C 1,6 km/h (1 Bft)
13.05.2017 06:08 9,1 °C 9,1 °C 94 % 1009,4 hPa 0,0 mm 0,7 km/h (0 Bft) SW 219 ° 0 min 0,000 mm 0,0 UV-I 19 W/m² 8,2 °C 9,1 °C 1,6 km/h (1 Bft)
13.05.2017 06:09 9,1 °C 9,1 °C 94 % 1009,4 hPa 0,0 mm 0,0 km/h (0 Bft) SW 219 ° 0 min 0,000 mm 0,0 UV-I 19 W/m² 8,2 °C 9,1 °C 0,0 km/h (0 Bft)
13.05.2017 06:10 9,1 °C 9,1 °C 94 % 1009,4 hPa 0,0 mm 0,0 km/h (0 Bft) SW 219 ° 0 min 0,000 mm 0,0 UV-I 19 W/m² 8,2 °C 9,1 °C 0,0 km/h (0 Bft)
13.05.2017 06:11 9,1 °C 9,1 °C 94 % 1009,4 hPa 0,0 mm 0,0 km/h (0 Bft) SW 219 ° 0 min 0,000 mm 0,0 UV-I 19 W/m² 8,2 °C 9,1 °C 0,0 km/h (0 Bft)
13.05.2017 06:12 9,1 °C 9,1 °C 95 % 1009,4 hPa 0,0 mm 0,0 km/h (0 Bft) SW 219 ° 0 min 0,000 mm 0,0 UV-I 21 W/m² 8,3 °C 9,1 °C 0,0 km/h (0 Bft)
13.05.2017 06:13 9,1 °C 9,1 °C 95 % 1009,5 hPa 0,0 mm 0,0 km/h (0 Bft) SW 219 ° 0 min 0,000 mm 0,0 UV-I 21 W/m² 8,3 °C 9,1 °C 0,0 km/h (0 Bft)
13.05.2017 06:14 9,1 °C 9,1 °C 95 % 1009,5 hPa 0,0 mm 0,0 km/h (0 Bft) SW 219 ° 0 min 0,000 mm 0,0 UV-I 21 W/m² 8,3 °C 9,1 °C 0,0 km/h (0 Bft)
13.05.2017 06:15 9,1 °C 9,1 °C 95 % 1009,5 hPa 0,0 mm 0,0 km/h (0 Bft) SW 219 ° 0 min 0,000 mm 0,0 UV-I 21 W/m² 8,3 °C 9,1 °C 0,0 km/h (0 Bft)
13.05.2017 06:16 9,1 °C 9,1 °C 95 % 1009,5 hPa 0,0 mm 0,0 km/h (0 Bft) SW 219 ° 0 min 0,000 mm 0,0 UV-I 26 W/m² 8,3 °C 9,1 °C 0,0 km/h (0 Bft)
13.05.2017 06:17 9,1 °C 9,1 °C 95 % 1009,5 hPa 0,0 mm 1,0 km/h (0 Bft) SW 219 ° 0 min 0,000 mm 0,0 UV-I 28 W/m² 8,3 °C 9,1 °C 3,2 km/h (1 Bft)
13.05.2017 06:18 9,1 °C 9,1 °C 95 % 1009,5 hPa 0,0 mm 0,6 km/h (0 Bft) SW 219 ° 0 min 0,000 mm 0,0 UV-I 32 W/m² 8,3 °C 9,1 °C 1,6 km/h (1 Bft)
13.05.2017 06:19 9,2 °C 9,2 °C 95 % 1009,6 hPa 0,0 mm 1,6 km/h (1 Bft) SW 219 ° 0 min 0,000 mm 0,0 UV-I 35 W/m² 8,4 °C 9,2 °C 1,6 km/h (1 Bft)
13.05.2017 06:20 9,2 °C 9,2 °C 95 % 1009,6 hPa 0,0 mm 1,4 km/h (1 Bft) SW 219 ° 0 min 0,000 mm 0,0 UV-I 37 W/m² 8,4 °C 9,2 °C 3,2 km/h (1 Bft)
13.05.2017 06:21 9,2 °C 9,2 °C 95 % 1009,6 hPa 0,0 mm 0,2 km/h (0 Bft) SW 219 ° 0 min 0,000 mm 0,0 UV-I 37 W/m² 8,4 °C 9,2 °C 1,6 km/h (1 Bft)
13.05.2017 06:22 9,3 °C 9,3 °C 95 % 1009,6 hPa 0,0 mm 0,0 km/h (0 Bft) SW 219 ° 0 min 0,000 mm 0,0 UV-I 39 W/m² 8,5 °C 9,3 °C 0,0 km/h (0 Bft)
13.05.2017 06:23 9,3 °C 9,3 °C 95 % 1009,6 hPa 0,0 mm 0,0 km/h (0 Bft) SW 219 ° 0 min 0,000 mm 0,0 UV-I 39 W/m² 8,5 °C 9,3 °C 0,0 km/h (0 Bft)
13.05.2017 06:24 9,3 °C 9,3 °C 95 % 1009,7 hPa 0,0 mm 0,0 km/h (0 Bft) SW 219 ° 0 min 0,000 mm 0,0 UV-I 40 W/m² 8,5 °C 9,3 °C 0,0 km/h (0 Bft)
13.05.2017 06:25 9,2 °C 9,3 °C 94 % 1009,7 hPa 0,0 mm 0,0 km/h (0 Bft) SW 219 ° 0 min 0,000 mm 0,0 UV-I 40 W/m² 8,3 °C 9,2 °C 0,0 km/h (0 Bft)
13.05.2017 06:26 9,2 °C 9,3 °C 95 % 1009,7 hPa 0,0 mm 0,0 km/h (0 Bft) SW 219 ° 0 min 0,000 mm 0,0 UV-I 44 W/m² 8,4 °C 9,2 °C 0,0 km/h (0 Bft)
13.05.2017 06:27 9,2 °C 9,3 °C 95 % 1009,7 hPa 0,0 mm 0,0 km/h (0 Bft) SW 219 ° 0 min 0,000 mm 0,0 UV-I 44 W/m² 8,4 °C 9,2 °C 0,0 km/h (0 Bft)
13.05.2017 06:28 9,2 °C 9,3 °C 95 % 1009,7 hPa 0,0 mm 0,0 km/h (0 Bft) SW 219 ° 0 min 0,000 mm 0,0 UV-I 49 W/m² 8,4 °C 9,2 °C 0,0 km/h (0 Bft)
13.05.2017 06:29 9,3 °C 9,3 °C 95 % 1009,7 hPa 0,0 mm 0,0 km/h (0 Bft) SW 219 ° 0 min 0,000 mm 0,0 UV-I 54 W/m² 8,5 °C 9,3 °C 0,0 km/h (0 Bft)
13.05.2017 06:30 9,3 °C 9,3 °C 95 % 1009,7 hPa 0,0 mm 0,0 km/h (0 Bft) SW 219 ° 0 min 0,000 mm 0,0 UV-I 62 W/m² 8,5 °C 9,3 °C 0,0 km/h (0 Bft)
13.05.2017 06:31 9,3 °C 9,3 °C 95 % 1009,8 hPa 0,0 mm 0,0 km/h (0 Bft) SW 219 ° 0 min 0,000 mm 0,0 UV-I 58 W/m² 8,5 °C 9,3 °C 0,0 km/h (0 Bft)
13.05.2017 06:32 9,3 °C 9,3 °C 95 % 1009,8 hPa 0,0 mm 0,0 km/h (0 Bft) SW 219 ° 0 min 0,000 mm 0,0 UV-I 51 W/m² 8,5 °C 9,3 °C 0,0 km/h (0 Bft)
13.05.2017 06:33 9,3 °C 9,3 °C 95 % 1009,8 hPa 0,0 mm 0,0 km/h (0 Bft) SW 219 ° 0 min 0,000 mm 0,0 UV-I 60 W/m² 8,5 °C 9,3 °C 0,0 km/h (0 Bft)
13.05.2017 06:34 9,3 °C 9,3 °C 95 % 1009,8 hPa 0,0 mm 0,0 km/h (0 Bft) SW 219 ° 0 min 0,000 mm 0,0 UV-I 81 W/m² 8,5 °C 9,3 °C 0,0 km/h (0 Bft)
13.05.2017 06:35 9,3 °C 9,3 °C 95 % 1009,8 hPa 0,0 mm 0,0 km/h (0 Bft) SW 219 ° 0 min 0,000 mm 0,0 UV-I 74 W/m² 8,5 °C 9,3 °C 0,0 km/h (0 Bft)
13.05.2017 06:36 9,3 °C 9,3 °C 95 % 1009,8 hPa 0,0 mm 0,0 km/h (0 Bft) SW 219 ° 0 min 0,000 mm 0,0 UV-I 72 W/m² 8,5 °C 9,3 °C 0,0 km/h (0 Bft)
13.05.2017 06:37 9,3 °C 9,3 °C 95 % 1009,9 hPa 0,0 mm 0,0 km/h (0 Bft) SW 219 ° 0 min 0,000 mm 0,0 UV-I 76 W/m² 8,5 °C 9,3 °C 0,0 km/h (0 Bft)
13.05.2017 06:38 9,3 °C 9,3 °C 95 % 1009,9 hPa 0,0 mm 0,0 km/h (0 Bft) SW 219 ° 0 min 0,000 mm 0,0 UV-I 81 W/m² 8,5 °C 9,3 °C 0,0 km/h (0 Bft)
13.05.2017 06:39 9,3 °C 9,3 °C 95 % 1009,8 hPa 0,0 mm 0,0 km/h (0 Bft) SW 219 ° 0 min 0,000 mm 0,0 UV-I 76 W/m² 8,5 °C 9,3 °C 0,0 km/h (0 Bft)
13.05.2017 06:40 9,4 °C 9,4 °C 95 % 1009,9 hPa 0,0 mm 0,0 km/h (0 Bft) SW 219 ° 0 min 0,000 mm 0,0 UV-I 79 W/m² 8,6 °C 9,4 °C 0,0 km/h (0 Bft)
13.05.2017 06:41 9,4 °C 9,4 °C 95 % 1009,8 hPa 0,0 mm 0,0 km/h (0 Bft) SW 219 ° 0 min 0,000 mm 0,0 UV-I 88 W/m² 8,6 °C 9,4 °C 0,0 km/h (0 Bft)
13.05.2017 06:42 9,5 °C 9,5 °C 95 % 1009,8 hPa 0,0 mm 0,0 km/h (0 Bft) SW 219 ° 0 min 0,000 mm 0,0 UV-I 98 W/m² 8,7 °C 9,5 °C 0,0 km/h (0 Bft)
13.05.2017 06:43 9,6 °C 9,6 °C 94 % 1009,9 hPa 0,0 mm 0,0 km/h (0 Bft) SW 219 ° 0 min 0,000 mm 0,0 UV-I 100 W/m² 8,7 °C 9,6 °C 0,0 km/h (0 Bft)
13.05.2017 06:44 9,6 °C 9,6 °C 94 % 1009,9 hPa 0,0 mm 0,0 km/h (0 Bft) SW 219 ° 0 min 0,000 mm 0,0 UV-I 100 W/m² 8,7 °C 9,6 °C 0,0 km/h (0 Bft)
13.05.2017 06:45 9,7 °C 9,7 °C 94 % 1009,9 hPa 0,0 mm 0,0 km/h (0 Bft) SW 219 ° 0 min 0,000 mm 0,0 UV-I 97 W/m² 8,8 °C 9,7 °C 0,0 km/h (0 Bft)
13.05.2017 06:46 9,8 °C 9,8 °C 94 % 1009,9 hPa 0,0 mm 0,8 km/h (0 Bft) SW 219 ° 0 min 0,000 mm 0,0 UV-I 100 W/m² 8,9 °C 9,8 °C 3,2 km/h (1 Bft)
13.05.2017 06:47 9,9 °C 9,9 °C 94 % 1009,9 hPa 0,0 mm 1,0 km/h (0 Bft) SW 219 ° 0 min 0,000 mm 0,0 UV-I 100 W/m² 9,0 °C 9,9 °C 3,2 km/h (1 Bft)
13.05.2017 06:48 9,9 °C 9,9 °C 93 % 1009,9 hPa 0,0 mm 0,8 km/h (0 Bft) SW 219 ° 0 min 0,000 mm 0,0 UV-I 100 W/m² 8,8 °C 9,9 °C 1,6 km/h (1 Bft)
13.05.2017 06:49 9,9 °C 9,9 °C 93 % 1009,9 hPa 0,0 mm 0,0 km/h (0 Bft) SW 219 ° 0 min 0,000 mm 0,0 UV-I 102 W/m² 8,8 °C 9,9 °C 0,0 km/h (0 Bft)
13.05.2017 06:50 10,1 °C 10,1 °C 93 % 1009,9 hPa 0,0 mm 0,3 km/h (0 Bft) SW 219 ° 0 min 0,000 mm 0,0 UV-I 107 W/m² 9,0 °C 10,1 °C 3,2 km/h (1 Bft)
13.05.2017 06:51 10,2 °C 10,2 °C 92 % 1009,9 hPa 0,0 mm 2,5 km/h (1 Bft) SW 219 ° 0 min 0,000 mm 0,0 UV-I 113 W/m² 9,0 °C 10,2 °C 3,2 km/h (1 Bft)
13.05.2017 06:52 10,3 °C 10,3 °C 92 % 1010,0 hPa 0,0 mm 1,1 km/h (1 Bft) SW 219 ° 0 min 0,000 mm 0,0 UV-I 116 W/m² 9,1 °C 10,3 °C 3,2 km/h (1 Bft)
13.05.2017 06:53 10,3 °C 10,3 °C 92 % 1010,0 hPa 0,0 mm 2,4 km/h (1 Bft) SW 219 ° 0 min 0,000 mm 0,0 UV-I 121 W/m² 9,1 °C 10,3 °C 3,2 km/h (1 Bft)
13.05.2017 06:54 10,4 °C 10,4 °C 92 % 1010,0 hPa 0,0 mm 2,0 km/h (1 Bft) SW 219 ° 0 min 0,000 mm 0,0 UV-I 125 W/m² 9,2 °C 10,4 °C 3,2 km/h (1 Bft)
13.05.2017 06:55 10,4 °C 10,4 °C 92 % 1010,0 hPa 0,0 mm 1,7 km/h (1 Bft) SW 219 ° 0 min 0,000 mm 0,5 UV-I 128 W/m² 9,2 °C 10,4 °C 3,2 km/h (1 Bft)
13.05.2017 06:56 10,4 °C 10,4 °C 92 % 1010,0 hPa 0,0 mm 1,7 km/h (1 Bft) SW 219 ° 0 min 0,000 mm 0,5 UV-I 134 W/m² 9,2 °C 10,4 °C 3,2 km/h (1 Bft)
13.05.2017 06:57 10,5 °C 10,5 °C 91 % 1010,0 hPa 0,0 mm 0,5 km/h (0 Bft) SW 219 ° 0 min 0,000 mm 0,5 UV-I 139 W/m² 9,1 °C 10,5 °C 1,6 km/h (1 Bft)
13.05.2017 06:58 10,6 °C 10,6 °C 91 % 1010,0 hPa 0,0 mm 1,4 km/h (1 Bft) SW 219 ° 0 min 0,000 mm 0,5 UV-I 142 W/m² 9,2 °C 10,6 °C 3,2 km/h (1 Bft)
13.05.2017 06:59 10,6 °C 10,6 °C 91 % 1010,0 hPa 0,0 mm 0,1 km/h (0 Bft) SW 219 ° 0 min 0,000 mm 0,5 UV-I 142 W/m² 9,2 °C 10,6 °C 1,6 km/h (1 Bft)
13.05.2017 07:00 10,7 °C 10,7 °C 91 % 1010,1 hPa 0,0 mm 0,0 km/h (0 Bft) SW 219 ° 0 min 0,000 mm 0,5 UV-I 139 W/m² 9,3 °C 10,7 °C 0,0 km/h (0 Bft)
13.05.2017 07:01 10,7 °C 10,7 °C 90 % 1010,1 hPa 0,0 mm 0,0 km/h (0 Bft) SW 219 ° 0 min 0,025 mm 0,5 UV-I 139 W/m² 9,1 °C 10,7 °C 0,0 km/h (0 Bft)
13.05.2017 07:02 10,8 °C 10,8 °C 90 % 1010,1 hPa 0,0 mm 0,0 km/h (0 Bft) SW 219 ° 0 min 0,000 mm 0,5 UV-I 151 W/m² 9,2 °C 10,8 °C 0,0 km/h (0 Bft)
13.05.2017 07:03 10,8 °C 10,8 °C 90 % 1010,1 hPa 0,0 mm 0,0 km/h (0 Bft) SW 219 ° 0 min 0,000 mm 0,5 UV-I 149 W/m² 9,2 °C 10,8 °C 0,0 km/h (0 Bft)
13.05.2017 07:04 10,9 °C 10,9 °C 89 % 1010,1 hPa 0,0 mm 0,3 km/h (0 Bft) SW 219 ° 0 min 0,000 mm 0,5 UV-I 153 W/m² 9,2 °C 10,9 °C 1,6 km/h (1 Bft)
13.05.2017 07:05 11,1 °C 11,1 °C 88 % 1010,1 hPa 0,0 mm 0,6 km/h (0 Bft) SW 219 ° 0 min 0,000 mm 0,5 UV-I 146 W/m² 9,2 °C 11,1 °C 3,2 km/h (1 Bft)
13.05.2017 07:06 11,1 °C 11,1 °C 89 % 1010,1 hPa 0,0 mm 3,1 km/h (1 Bft) S-SW 210 ° 0 min 0,000 mm 0,5 UV-I 134 W/m² 9,4 °C 11,1 °C 4,8 km/h (1 Bft)
13.05.2017 07:07 11,1 °C 11,1 °C 87 % 1010,1 hPa 0,0 mm 0,9 km/h (0 Bft) S-SW 210 ° 0 min 0,000 mm 0,5 UV-I 123 W/m² 9,0 °C 11,1 °C 3,2 km/h (1 Bft)
13.05.2017 07:08 11,1 °C 11,2 °C 88 % 1010,2 hPa 0,0 mm 0,8 km/h (0 Bft) S-SW 210 ° 0 min 0,000 mm 0,5 UV-I 111 W/m² 9,2 °C 11,1 °C 1,6 km/h (1 Bft)
13.05.2017 07:09 11,1 °C 11,1 °C 88 % 1010,1 hPa 0,0 mm 2,0 km/h (1 Bft) S-SW 210 ° 0 min 0,000 mm 0,5 UV-I 90 W/m² 9,2 °C 11,1 °C 3,2 km/h (1 Bft)
13.05.2017 07:10 11,1 °C 11,1 °C 88 % 1010,1 hPa 0,0 mm 1,9 km/h (1 Bft) S-SW 210 ° 0 min 0,000 mm 0,5 UV-I 90 W/m² 9,2 °C 11,1 °C 3,2 km/h (1 Bft)
13.05.2017 07:11 11,1 °C 11,1 °C 88 % 1010,1 hPa 0,0 mm 2,7 km/h (1 Bft) S-SW 210 ° 0 min 0,000 mm 0,5 UV-I 95 W/m² 9,2 °C 11,1 °C 4,8 km/h (1 Bft)
13.05.2017 07:12 11,0 °C 11,1 °C 89 % 1010,1 hPa 0,0 mm 2,8 km/h (1 Bft) S-SW 210 ° 0 min 0,000 mm 0,6 UV-I 104 W/m² 9,3 °C 11,0 °C 4,8 km/h (1 Bft)
13.05.2017 07:13 10,9 °C 11,0 °C 89 % 1010,1 hPa 0,0 mm 4,2 km/h (1 Bft) S-SW 203 ° 0 min 0,000 mm 0,6 UV-I 100 W/m² 9,2 °C 10,9 °C 8,0 km/h (2 Bft)
13.05.2017 07:14 10,9 °C 10,9 °C 88 % 1010,2 hPa 0,0 mm 3,1 km/h (1 Bft) S-SW 202 ° 0 min 0,000 mm 0,5 UV-I 74 W/m² 9,0 °C 10,9 °C 4,8 km/h (1 Bft)
13.05.2017 07:15 10,8 °C 10,9 °C 89 % 1010,3 hPa 0,0 mm 3,2 km/h (1 Bft) S-SW 202 ° 0 min 0,000 mm 0,6 UV-I 74 W/m² 9,1 °C 10,8 °C 4,8 km/h (1 Bft)
13.05.2017 07:16 10,8 °C 10,8 °C 89 % 1010,3 hPa 0,0 mm 4,2 km/h (1 Bft) W-SW 252 ° 0 min 0,000 mm 0,6 UV-I 74 W/m² 9,1 °C 10,8 °C 6,4 km/h (2 Bft)
13.05.2017 07:17 10,9 °C 10,9 °C 88 % 1010,2 hPa 0,0 mm 3,0 km/h (1 Bft) S-SW 202 ° 0 min 0,000 mm 0,6 UV-I 76 W/m² 9,0 °C 10,9 °C 4,8 km/h (1 Bft)
13.05.2017 07:18 10,9 °C 10,9 °C 88 % 1010,2 hPa 0,0 mm 5,3 km/h (1 Bft) SW 218 ° 0 min 0,000 mm 0,6 UV-I 77 W/m² 9,0 °C 10,9 °C 6,4 km/h (2 Bft)
13.05.2017 07:19 10,9 °C 10,9 °C 88 % 1010,2 hPa 0,0 mm 3,5 km/h (1 Bft) S-SW 192 ° 0 min 0,000 mm 0,6 UV-I 81 W/m² 9,0 °C 10,9 °C 6,4 km/h (2 Bft)
13.05.2017 07:20 10,9 °C 10,9 °C 88 % 1010,2 hPa 0,0 mm 4,6 km/h (1 Bft) S-SW 192 ° 0 min 0,000 mm 0,6 UV-I 84 W/m² 9,0 °C 10,9 °C 8,0 km/h (2 Bft)
13.05.2017 07:21 10,9 °C 10,9 °C 88 % 1010,3 hPa 0,0 mm 4,5 km/h (1 Bft) S-SW 196 ° 0 min 0,000 mm 0,6 UV-I 86 W/m² 9,0 °C 10,9 °C 6,4 km/h (2 Bft)
13.05.2017 07:22 10,9 °C 10,9 °C 88 % 1010,3 hPa 0,0 mm 2,7 km/h (1 Bft) S-SW 196 ° 0 min 0,000 mm 0,6 UV-I 88 W/m² 9,0 °C 10,9 °C 4,8 km/h (1 Bft)
13.05.2017 07:23 10,9 °C 10,9 °C 88 % 1010,3 hPa 0,0 mm 3,4 km/h (1 Bft) S-SW 196 ° 0 min 0,000 mm 0,6 UV-I 86 W/m² 9,0 °C 10,9 °C 4,8 km/h (1 Bft)
13.05.2017 07:24 10,9 °C 10,9 °C 88 % 1010,3 hPa 0,0 mm 2,6 km/h (1 Bft) S-SW 197 ° 0 min 0,000 mm 0,6 UV-I 88 W/m² 9,0 °C 10,9 °C 6,4 km/h (2 Bft)
13.05.2017 07:25 10,9 °C 10,9 °C 88 % 1010,3 hPa 0,0 mm 4,3 km/h (1 Bft) S-SW 197 ° 0 min 0,000 mm 0,6 UV-I 88 W/m² 9,0 °C 10,9 °C 6,4 km/h (2 Bft)
13.05.2017 07:26 10,9 °C 10,9 °C 88 % 1010,3 hPa 0,0 mm 1,9 km/h (1 Bft) S 190 ° 0 min 0,000 mm 0,6 UV-I 86 W/m² 9,0 °C 10,9 °C 3,2 km/h (1 Bft)
13.05.2017 07:27 11,0 °C 11,0 °C 88 % 1010,3 hPa 0,0 mm 0,0 km/h (0 Bft) S 190 ° 0 min 0,000 mm 0,6 UV-I 86 W/m² 9,1 °C 11,0 °C 0,0 km/h (0 Bft)
13.05.2017 07:28 11,0 °C 11,0 °C 88 % 1010,3 hPa 0,0 mm 0,5 km/h (0 Bft) S 190 ° 0 min 0,000 mm 0,6 UV-I 84 W/m² 9,1 °C 11,0 °C 3,2 km/h (1 Bft)
13.05.2017 07:29 11,0 °C 11,0 °C 88 % 1010,4 hPa 0,0 mm 2,5 km/h (1 Bft) S 190 ° 0 min 0,000 mm 0,6 UV-I 83 W/m² 9,1 °C 11,0 °C 4,8 km/h (1 Bft)
13.05.2017 07:30 11,1 °C 11,1 °C 88 % 1010,4 hPa 0,0 mm 0,4 km/h (0 Bft) S 190 ° 0 min 0,000 mm 0,6 UV-I 84 W/m² 9,2 °C 11,1 °C 1,6 km/h (1 Bft)
13.05.2017 07:31 11,1 °C 11,1 °C 88 % 1010,4 hPa 0,0 mm 0,5 km/h (0 Bft) S-SW 202 ° 0 min 0,000 mm 0,6 UV-I 86 W/m² 9,2 °C 11,1 °C 3,2 km/h (1 Bft)
13.05.2017 07:32 11,1 °C 11,1 °C 88 % 1010,5 hPa 0,0 mm 1,2 km/h (1 Bft) S-SW 202 ° 0 min 0,000 mm 0,7 UV-I 100 W/m² 9,2 °C 11,1 °C 3,2 km/h (1 Bft)
13.05.2017 07:33 11,1 °C 11,1 °C 87 % 1010,4 hPa 0,0 mm 3,2 km/h (1 Bft) SW 228 ° 0 min 0,000 mm 0,7 UV-I 105 W/m² 9,0 °C 11,1 °C 8,0 km/h (2 Bft)
13.05.2017 07:34 11,1 °C 11,1 °C 87 % 1010,4 hPa 0,0 mm 2,0 km/h (1 Bft) SW 228 ° 0 min 0,000 mm 0,7 UV-I 111 W/m² 9,0 °C 11,1 °C 4,8 km/h (1 Bft)
13.05.2017 07:35 11,2 °C 11,2 °C 86 % 1010,5 hPa 0,0 mm 1,5 km/h (1 Bft) SW 228 ° 0 min 0,000 mm 0,7 UV-I 113 W/m² 8,9 °C 11,2 °C 3,2 km/h (1 Bft)
13.05.2017 07:36 11,2 °C 11,2 °C 87 % 1010,4 hPa 0,0 mm 3,9 km/h (1 Bft) W-SW 246 ° 0 min 0,000 mm 0,8 UV-I 113 W/m² 9,1 °C 11,2 °C 8,0 km/h (2 Bft)
13.05.2017 07:37 11,2 °C 11,2 °C 87 % 1010,4 hPa 0,0 mm 3,7 km/h (1 Bft) SW 215 ° 0 min 0,000 mm 0,8 UV-I 114 W/m² 9,1 °C 11,2 °C 6,4 km/h (2 Bft)
13.05.2017 07:38 11,3 °C 11,3 °C 87 % 1010,5 hPa 0,0 mm 5,8 km/h (2 Bft) W-SW 240 ° 0 min 0,000 mm 0,8 UV-I 116 W/m² 9,2 °C 11,3 °C 9,7 km/h (2 Bft)
13.05.2017 07:39 11,3 °C 11,3 °C 87 % 1010,5 hPa 0,0 mm 3,6 km/h (1 Bft) W-SW 240 ° 0 min 0,000 mm 0,8 UV-I 118 W/m² 9,2 °C 11,3 °C 8,0 km/h (2 Bft)
13.05.2017 07:40 11,3 °C 11,3 °C 86 % 1010,5 hPa 0,0 mm 0,5 km/h (0 Bft) SW 228 ° 0 min 0,000 mm 0,8 UV-I 118 W/m² 9,0 °C 11,3 °C 1,6 km/h (1 Bft)
13.05.2017 07:41 11,4 °C 11,4 °C 86 % 1010,5 hPa 0,0 mm 1,4 km/h (1 Bft) SW 228 ° 0 min 0,000 mm 0,8 UV-I 120 W/m² 9,1 °C 11,4 °C 3,2 km/h (1 Bft)
13.05.2017 07:42 11,4 °C 11,4 °C 86 % 1010,4 hPa 0,0 mm 2,3 km/h (1 Bft) W 267 ° 0 min 0,000 mm 0,8 UV-I 121 W/m² 9,1 °C 11,4 °C 4,8 km/h (1 Bft)
13.05.2017 07:43 11,4 °C 11,4 °C 86 % 1010,5 hPa 0,0 mm 0,4 km/h (0 Bft) W-SW 258 ° 0 min 0,000 mm 0,9 UV-I 121 W/m² 9,1 °C 11,4 °C 1,6 km/h (1 Bft)
13.05.2017 07:44 11,4 °C 11,4 °C 86 % 1010,5 hPa 0,0 mm 0,9 km/h (0 Bft) W-SW 258 ° 0 min 0,000 mm 0,9 UV-I 120 W/m² 9,1 °C 11,4 °C 1,6 km/h (1 Bft)
13.05.2017 07:45 11,4 °C 11,4 °C 86 % 1010,4 hPa 0,0 mm 1,5 km/h (1 Bft) W-SW 244 ° 0 min 0,000 mm 0,9 UV-I 121 W/m² 9,1 °C 11,4 °C 4,8 km/h (1 Bft)
13.05.2017 07:46 11,4 °C 11,4 °C 86 % 1010,4 hPa 0,0 mm 0,0 km/h (0 Bft) W-SW 244 ° 0 min 0,000 mm 0,9 UV-I 123 W/m² 9,1 °C 11,4 °C 0,0 km/h (0 Bft)
13.05.2017 07:47 11,5 °C 11,5 °C 86 % 1010,4 hPa 0,0 mm 2,0 km/h (1 Bft) S 190 ° 0 min 0,000 mm 0,9 UV-I 127 W/m² 9,2 °C 11,5 °C 4,8 km/h (1 Bft)
13.05.2017 07:48 11,5 °C 11,5 °C 85 % 1010,4 hPa 0,0 mm 2,7 km/h (1 Bft) S-SW 204 ° 0 min 0,000 mm 0,9 UV-I 128 W/m² 9,1 °C 11,5 °C 4,8 km/h (1 Bft)
13.05.2017 07:49 11,5 °C 11,5 °C 87 % 1010,5 hPa 0,0 mm 4,7 km/h (1 Bft) S-SW 201 ° 0 min 0,000 mm 0,9 UV-I 134 W/m² 9,4 °C 11,5 °C 8,0 km/h (2 Bft)
13.05.2017 07:50 11,5 °C 11,5 °C 85 % 1010,4 hPa 0,0 mm 2,1 km/h (1 Bft) S-SW 210 ° 0 min 0,000 mm 1,0 UV-I 172 W/m² 9,1 °C 11,5 °C 4,8 km/h (1 Bft)
13.05.2017 07:51 11,6 °C 11,6 °C 85 % 1010,5 hPa 0,0 mm 1,0 km/h (0 Bft) S-SW 192 ° 0 min 0,000 mm 1,1 UV-I 193 W/m² 9,2 °C 11,6 °C 3,2 km/h (1 Bft)
13.05.2017 07:52 11,6 °C 11,6 °C 87 % 1010,5 hPa 0,0 mm 1,7 km/h (1 Bft) S 187 ° 0 min 0,000 mm 1,0 UV-I 169 W/m² 9,5 °C 11,6 °C 4,8 km/h (1 Bft)
13.05.2017 07:53 11,7 °C 11,7 °C 86 % 1010,5 hPa 0,0 mm 5,2 km/h (1 Bft) W-SW 241 ° 0 min 0,000 mm 1,0 UV-I 167 W/m² 9,4 °C 11,7 °C 9,7 km/h (2 Bft)
13.05.2017 07:54 11,7 °C 11,7 °C 85 % 1010,5 hPa 0,0 mm 5,0 km/h (1 Bft) W-SW 255 ° 0 min 0,000 mm 1,0 UV-I 167 W/m² 9,3 °C 11,7 °C 8,0 km/h (2 Bft)
13.05.2017 07:55 11,8 °C 11,8 °C 86 % 1010,5 hPa 0,0 mm 4,0 km/h (1 Bft) W-SW 247 ° 0 min 0,000 mm 1,0 UV-I 162 W/m² 9,5 °C 11,8 °C 6,4 km/h (2 Bft)
13.05.2017 07:56 11,8 °C 11,8 °C 86 % 1010,5 hPa 0,0 mm 2,3 km/h (1 Bft) W-SW 252 ° 0 min 0,000 mm 1,0 UV-I 156 W/m² 9,5 °C 11,8 °C 3,2 km/h (1 Bft)
13.05.2017 07:57 11,8 °C 11,8 °C 85 % 1010,5 hPa 0,0 mm 3,4 km/h (1 Bft) W 260 ° 0 min 0,000 mm 1,0 UV-I 151 W/m² 9,4 °C 11,8 °C 4,8 km/h (1 Bft)
13.05.2017 07:58 11,9 °C 11,9 °C 87 % 1010,5 hPa 0,0 mm 5,2 km/h (1 Bft) W-SW 254 ° 0 min 0,000 mm 1,0 UV-I 146 W/m² 9,8 °C 11,9 °C 9,7 km/h (2 Bft)
13.05.2017 07:59 11,9 °C 11,9 °C 85 % 1010,5 hPa 0,0 mm 2,4 km/h (1 Bft) SW 234 ° 0 min 0,000 mm 1,1 UV-I 146 W/m² 9,5 °C 11,9 °C 4,8 km/h (1 Bft)
13.05.2017 08:00 11,9 °C 11,9 °C 85 % 1010,5 hPa 0,0 mm 5,6 km/h (1 Bft) W 259 ° 0 min 0,000 mm 1,1 UV-I 142 W/m² 9,5 °C 11,9 °C 9,7 km/h (2 Bft)
13.05.2017 08:01 11,9 °C 12,0 °C 85 % 1010,5 hPa 0,0 mm 2,8 km/h (1 Bft) W 260 ° 0 min 0,051 mm 1,1 UV-I 134 W/m² 9,5 °C 11,9 °C 9,7 km/h (2 Bft)
13.05.2017 08:02 12,0 °C 12,0 °C 85 % 1010,5 hPa 0,0 mm 1,8 km/h (1 Bft) W 260 ° 0 min 0,000 mm 1,0 UV-I 130 W/m² 9,6 °C 12,0 °C 4,8 km/h (1 Bft)
13.05.2017 08:03 12,1 °C 12,1 °C 86 % 1010,5 hPa 0,0 mm 3,1 km/h (1 Bft) W-SW 257 ° 0 min 0,000 mm 1,1 UV-I 130 W/m² 9,8 °C 12,1 °C 4,8 km/h (1 Bft)
13.05.2017 08:04 12,1 °C 12,1 °C 86 % 1010,5 hPa 0,0 mm 3,0 km/h (1 Bft) W 265 ° 0 min 0,000 mm 1,0 UV-I 116 W/m² 9,8 °C 12,1 °C 6,4 km/h (2 Bft)
13.05.2017 08:05 12,1 °C 12,1 °C 85 % 1010,6 hPa 0,0 mm 4,9 km/h (1 Bft) W-SW 254 ° 0 min 0,000 mm 1,0 UV-I 109 W/m² 9,7 °C 12,1 °C 11,3 km/h (2 Bft)
13.05.2017 08:06 12,1 °C 12,1 °C 85 % 1010,5 hPa 0,0 mm 3,2 km/h (1 Bft) W-SW 256 ° 0 min 0,000 mm 1,0 UV-I 107 W/m² 9,7 °C 12,1 °C 6,4 km/h (2 Bft)
13.05.2017 08:07 12,1 °C 12,1 °C 84 % 1010,6 hPa 0,0 mm 4,6 km/h (1 Bft) SW 220 ° 0 min 0,000 mm 1,0 UV-I 109 W/m² 9,5 °C 12,1 °C 8,0 km/h (2 Bft)
13.05.2017 08:08 12,1 °C 12,1 °C 85 % 1010,6 hPa 0,0 mm 7,8 km/h (2 Bft) W-SW 243 ° 0 min 0,000 mm 1,0 UV-I 113 W/m² 9,7 °C 12,1 °C 14,5 km/h (3 Bft)
13.05.2017 08:09 12,1 °C 12,1 °C 84 % 1010,6 hPa 0,0 mm 4,4 km/h (1 Bft) W-SW 246 ° 0 min 0,000 mm 1,0 UV-I 116 W/m² 9,5 °C 12,1 °C 8,0 km/h (2 Bft)
13.05.2017 08:10 12,1 °C 12,1 °C 85 % 1010,6 hPa 0,0 mm 8,6 km/h (2 Bft) W-SW 249 ° 0 min 0,000 mm 1,1 UV-I 127 W/m² 9,7 °C 12,1 °C 11,3 km/h (2 Bft)
13.05.2017 08:11 12,1 °C 12,1 °C 83 % 1010,6 hPa 0,0 mm 7,6 km/h (2 Bft) W-SW 244 ° 0 min 0,000 mm 1,1 UV-I 139 W/m² 9,3 °C 12,1 °C 9,7 km/h (2 Bft)
13.05.2017 08:12 12,1 °C 12,1 °C 83 % 1010,6 hPa 0,0 mm 2,9 km/h (1 Bft) SW 233 ° 0 min 0,000 mm 1,1 UV-I 139 W/m² 9,3 °C 12,1 °C 6,4 km/h (2 Bft)
13.05.2017 08:13 12,2 °C 12,2 °C 84 % 1010,7 hPa 0,0 mm 5,1 km/h (1 Bft) S-SW 203 ° 0 min 0,000 mm 1,1 UV-I 176 W/m² 9,6 °C 12,2 °C 11,3 km/h (2 Bft)
13.05.2017 08:14 12,2 °C 12,2 °C 83 % 1010,6 hPa 0,0 mm 1,9 km/h (1 Bft) W-SW 244 ° 0 min 0,000 mm 1,1 UV-I 181 W/m² 9,4 °C 12,2 °C 3,2 km/h (1 Bft)
13.05.2017 08:15 12,3 °C 12,3 °C 84 % 1010,6 hPa 0,0 mm 8,5 km/h (2 Bft) W 271 ° 0 min 0,000 mm 1,1 UV-I 181 W/m² 9,7 °C 12,3 °C 12,9 km/h (3 Bft)
13.05.2017 08:16 12,3 °C 12,3 °C 83 % 1010,7 hPa 0,0 mm 6,1 km/h (2 Bft) W-NW 288 ° 0 min 0,000 mm 1,1 UV-I 181 W/m² 9,5 °C 12,3 °C 11,3 km/h (2 Bft)
13.05.2017 08:17 12,4 °C 12,4 °C 84 % 1010,7 hPa 0,0 mm 7,7 km/h (2 Bft) W 267 ° 0 min 0,000 mm 1,1 UV-I 174 W/m² 9,8 °C 12,4 °C 14,5 km/h (3 Bft)
13.05.2017 08:18 12,4 °C 12,4 °C 84 % 1010,7 hPa 0,0 mm 6,4 km/h (2 Bft) SW 221 ° 0 min 0,000 mm 1,0 UV-I 162 W/m² 9,8 °C 12,4 °C 8,0 km/h (2 Bft)
13.05.2017 08:19 12,5 °C 12,5 °C 84 % 1010,7 hPa 0,0 mm 6,5 km/h (2 Bft) W-SW 252 ° 0 min 0,000 mm 1,0 UV-I 149 W/m² 9,9 °C 12,5 °C 11,3 km/h (2 Bft)
13.05.2017 08:20 12,5 °C 12,5 °C 83 % 1010,7 hPa 0,0 mm 5,8 km/h (2 Bft) W-SW 256 ° 0 min 0,000 mm 1,0 UV-I 146 W/m² 9,7 °C 12,5 °C 9,7 km/h (2 Bft)
13.05.2017 08:21 12,5 °C 12,5 °C 83 % 1010,7 hPa 0,0 mm 8,8 km/h (2 Bft) W-SW 254 ° 0 min 0,000 mm 1,0 UV-I 139 W/m² 9,7 °C 12,5 °C 11,3 km/h (2 Bft)
13.05.2017 08:22 12,5 °C 12,5 °C 83 % 1010,7 hPa 0,0 mm 3,6 km/h (1 Bft) SW 224 ° 0 min 0,000 mm 1,0 UV-I 134 W/m² 9,7 °C 12,5 °C 6,4 km/h (2 Bft)
13.05.2017 08:23 12,6 °C 12,6 °C 83 % 1010,8 hPa 0,0 mm 5,2 km/h (1 Bft) W-SW 252 ° 0 min 0,000 mm 1,0 UV-I 128 W/m² 9,8 °C 12,6 °C 6,4 km/h (2 Bft)
13.05.2017 08:24 12,6 °C 12,6 °C 83 % 1010,8 hPa 0,0 mm 2,1 km/h (1 Bft) W-SW 252 ° 0 min 0,000 mm 1,0 UV-I 128 W/m² 9,8 °C 12,6 °C 4,8 km/h (1 Bft)
13.05.2017 08:25 12,6 °C 12,6 °C 84 % 1010,8 hPa 0,0 mm 1,6 km/h (1 Bft) W-SW 252 ° 0 min 0,000 mm 1,0 UV-I 137 W/m² 10,0 °C 12,6 °C 3,2 km/h (1 Bft)
13.05.2017 08:26 12,5 °C 12,6 °C 82 % 1010,8 hPa 0,0 mm 4,3 km/h (1 Bft) SW 229 ° 0 min 0,000 mm 1,1 UV-I 146 W/m² 9,5 °C 12,5 °C 8,0 km/h (2 Bft)
13.05.2017 08:27 12,6 °C 12,6 °C 80 % 1010,8 hPa 0,0 mm 2,5 km/h (1 Bft) SW 236 ° 0 min 0,000 mm 1,1 UV-I 156 W/m² 9,2 °C 12,6 °C 4,8 km/h (1 Bft)
13.05.2017 08:28 12,6 °C 12,6 °C 84 % 1010,8 hPa 0,0 mm 6,2 km/h (2 Bft) W 264 ° 0 min 0,000 mm 1,2 UV-I 169 W/m² 10,0 °C 12,6 °C 12,9 km/h (3 Bft)
13.05.2017 08:29 12,6 °C 12,6 °C 83 % 1010,8 hPa 0,0 mm 6,6 km/h (2 Bft) S-SW 203 ° 0 min 0,000 mm 1,2 UV-I 181 W/m² 9,8 °C 12,6 °C 12,9 km/h (3 Bft)
13.05.2017 08:30 12,6 °C 12,6 °C 82 % 1010,8 hPa 0,0 mm 6,0 km/h (2 Bft) W-SW 243 ° 0 min 0,000 mm 1,3 UV-I 186 W/m² 9,6 °C 12,6 °C 11,3 km/h (2 Bft)
13.05.2017 08:31 12,6 °C 12,6 °C 82 % 1010,8 hPa 0,0 mm 3,9 km/h (1 Bft) W 269 ° 0 min 0,000 mm 1,3 UV-I 199 W/m² 9,6 °C 12,6 °C 6,4 km/h (2 Bft)
13.05.2017 08:32 12,7 °C 12,7 °C 82 % 1010,9 hPa 0,0 mm 1,9 km/h (1 Bft) W 269 ° 0 min 0,000 mm 1,4 UV-I 214 W/m² 9,7 °C 12,7 °C 3,2 km/h (1 Bft)
13.05.2017 08:33 12,7 °C 12,7 °C 84 % 1010,9 hPa 0,0 mm 3,4 km/h (1 Bft) W-SW 249 ° 0 min 0,000 mm 1,4 UV-I 216 W/m² 10,1 °C 12,7 °C 4,8 km/h (1 Bft)
13.05.2017 08:34 12,8 °C 12,8 °C 81 % 1010,8 hPa 0,0 mm 3,7 km/h (1 Bft) W 259 ° 0 min 0,000 mm 1,4 UV-I 216 W/m² 9,6 °C 12,8 °C 4,8 km/h (1 Bft)
13.05.2017 08:35 12,8 °C 12,8 °C 82 % 1010,9 hPa 0,0 mm 3,6 km/h (1 Bft) W 276 ° 0 min 0,000 mm 1,5 UV-I 264 W/m² 9,8 °C 12,8 °C 9,7 km/h (2 Bft)
13.05.2017 08:36 12,8 °C 12,8 °C 82 % 1010,9 hPa 0,0 mm 5,3 km/h (1 Bft) W-NW 285 ° 0 min 0,000 mm 1,6 UV-I 267 W/m² 9,8 °C 12,8 °C 9,7 km/h (2 Bft)
13.05.2017 08:37 12,9 °C 12,9 °C 82 % 1010,9 hPa 0,0 mm 7,7 km/h (2 Bft) W 273 ° 1 min 0,000 mm 2,2 UV-I 438 W/m² 9,9 °C 12,9 °C 11,3 km/h (2 Bft)
13.05.2017 08:38 13,1 °C 13,1 °C 83 % 1010,9 hPa 0,0 mm 5,0 km/h (1 Bft) W-NW 285 ° 1 min 0,000 mm 1,8 UV-I 373 W/m² 10,3 °C 13,1 °C 11,3 km/h (2 Bft)
13.05.2017 08:39 13,1 °C 13,1 °C 80 % 1010,9 hPa 0,0 mm 5,1 km/h (1 Bft) W 266 ° 1 min 0,000 mm 1,6 UV-I 373 W/m² 9,7 °C 13,1 °C 9,7 km/h (2 Bft)
13.05.2017 08:40 13,2 °C 13,2 °C 80 % 1010,9 hPa 0,0 mm 4,8 km/h (1 Bft) W-SW 254 ° 0 min 0,000 mm 1,7 UV-I 283 W/m² 9,8 °C 13,2 °C 11,3 km/h (2 Bft)
13.05.2017 08:41 13,3 °C 13,3 °C 82 % 1010,9 hPa 0,0 mm 5,7 km/h (1 Bft) W 269 ° 0 min 0,000 mm 1,6 UV-I 264 W/m² 10,3 °C 13,3 °C 8,0 km/h (2 Bft)
13.05.2017 08:42 13,3 °C 13,3 °C 81 % 1010,9 hPa 0,0 mm 3,7 km/h (1 Bft) W 267 ° 0 min 0,000 mm 2,4 UV-I 264 W/m² 10,1 °C 13,3 °C 6,4 km/h (2 Bft)
13.05.2017 08:43 13,5 °C 13,5 °C 80 % 1011,0 hPa 0,0 mm 5,3 km/h (1 Bft) W 269 ° 1 min 0,000 mm 2,5 UV-I 601 W/m² 10,1 °C 13,5 °C 9,7 km/h (2 Bft)
13.05.2017 08:44 13,7 °C 13,7 °C 80 % 1011,0 hPa 0,0 mm 5,0 km/h (1 Bft) W-NW 287 ° 1 min 0,000 mm 2,4 UV-I 570 W/m² 10,3 °C 13,7 °C 9,7 km/h (2 Bft)
13.05.2017 08:45 13,8 °C 13,8 °C 79 % 1010,9 hPa 0,0 mm 5,0 km/h (1 Bft) NW 320 ° 1 min 0,000 mm 2,6 UV-I 552 W/m² 10,2 °C 13,8 °C 9,7 km/h (2 Bft)
13.05.2017 08:46 14,1 °C 14,1 °C 80 % 1010,9 hPa 0,0 mm 5,0 km/h (1 Bft) W 268 ° 1 min 0,000 mm 2,6 UV-I 594 W/m² 10,7 °C 14,1 °C 9,7 km/h (2 Bft)
13.05.2017 08:47 14,1 °C 14,1 °C 77 % 1010,9 hPa 0,0 mm 9,0 km/h (2 Bft) W-SW 239 ° 1 min 0,000 mm 2,5 UV-I 506 W/m² 10,1 °C 14,1 °C 12,9 km/h (3 Bft)
13.05.2017 08:48 14,1 °C 14,1 °C 76 % 1011,0 hPa 0,0 mm 4,2 km/h (1 Bft) W-SW 258 ° 1 min 0,000 mm 2,0 UV-I 380 W/m² 9,9 °C 14,1 °C 6,4 km/h (2 Bft)
13.05.2017 08:49 14,1 °C 14,1 °C 75 % 1011,0 hPa 0,0 mm 5,5 km/h (1 Bft) W-NW 286 ° 1 min 0,000 mm 1,8 UV-I 380 W/m² 9,7 °C 14,1 °C 14,5 km/h (3 Bft)
13.05.2017 08:50 13,9 °C 14,1 °C 77 % 1011,0 hPa 0,0 mm 6,1 km/h (2 Bft) W-NW 288 ° 0 min 0,000 mm 1,7 UV-I 220 W/m² 9,9 °C 13,9 °C 11,3 km/h (2 Bft)
13.05.2017 08:51 14,0 °C 14,0 °C 80 % 1011,0 hPa 0,0 mm 5,8 km/h (2 Bft) W-NW 290 ° 0 min 0,000 mm 1,7 UV-I 206 W/m² 10,6 °C 14,0 °C 8,0 km/h (2 Bft)
13.05.2017 08:52 13,9 °C 14,0 °C 77 % 1011,0 hPa 0,0 mm 9,4 km/h (2 Bft) W-NW 288 ° 0 min 0,000 mm 1,7 UV-I 209 W/m² 9,9 °C 13,9 °C 14,5 km/h (3 Bft)
13.05.2017 08:53 13,8 °C 13,9 °C 76 % 1011,0 hPa 0,0 mm 9,1 km/h (2 Bft) W-SW 257 ° 0 min 0,000 mm 2,8 UV-I 209 W/m² 9,6 °C 13,8 °C 14,5 km/h (3 Bft)
13.05.2017 08:54 13,7 °C 13,8 °C 75 % 1011,0 hPa 0,0 mm 10,5 km/h (2 Bft) W 270 ° 1 min 0,000 mm 2,2 UV-I 323 W/m² 9,3 °C 13,7 °C 14,5 km/h (3 Bft)
13.05.2017 08:55 13,7 °C 13,7 °C 78 % 1011,0 hPa 0,0 mm 8,5 km/h (2 Bft) W 263 ° 1 min 0,000 mm 2,1 UV-I 306 W/m² 9,9 °C 13,7 °C 16,1 km/h (3 Bft)
13.05.2017 08:56 13,7 °C 13,7 °C 77 % 1011,0 hPa 0,0 mm 10,8 km/h (2 Bft) W-NW 287 ° 0 min 0,000 mm 1,9 UV-I 258 W/m² 9,7 °C 13,7 °C 14,5 km/h (3 Bft)
13.05.2017 08:57 13,6 °C 13,7 °C 74 % 1011,0 hPa 0,0 mm 8,1 km/h (2 Bft) W-NW 296 ° 0 min 0,000 mm 1,8 UV-I 229 W/m² 9,1 °C 13,6 °C 11,3 km/h (2 Bft)
13.05.2017 08:58 13,5 °C 13,6 °C 76 % 1011,1 hPa 0,0 mm 6,6 km/h (2 Bft) W-NW 290 ° 0 min 0,000 mm 2,2 UV-I 243 W/m² 9,4 °C 13,5 °C 9,7 km/h (2 Bft)
13.05.2017 08:59 13,6 °C 13,6 °C 77 % 1011,1 hPa 0,0 mm 7,8 km/h (2 Bft) W 277 ° 0 min 0,000 mm 2,2 UV-I 243 W/m² 9,6 °C 13,6 °C 11,3 km/h (2 Bft)
13.05.2017 09:00 13,6 °C 13,6 °C 78 % 1011,1 hPa 0,0 mm 10,6 km/h (2 Bft) W-NW 286 ° 1 min 0,153 mm 2,8 UV-I 633 W/m² 9,8 °C 13,6 °C 14,5 km/h (3 Bft)
13.05.2017 09:01 13,7 °C 13,7 °C 77 % 1011,1 hPa 0,0 mm 10,7 km/h (2 Bft) W 279 ° 1 min 0,000 mm 3,0 UV-I 638 W/m² 9,7 °C 13,7 °C 12,9 km/h (3 Bft)
13.05.2017 09:02 13,9 °C 13,9 °C 75 % 1011,1 hPa 0,0 mm 5,5 km/h (1 Bft) W 267 ° 1 min 0,000 mm 3,1 UV-I 642 W/m² 9,5 °C 13,9 °C 9,7 km/h (2 Bft)
13.05.2017 09:03 14,1 °C 14,1 °C 80 % 1011,1 hPa 0,0 mm 7,3 km/h (2 Bft) W 272 ° 1 min 0,000 mm 3,1 UV-I 642 W/m² 10,7 °C 14,1 °C 12,9 km/h (3 Bft)
13.05.2017 09:04 14,3 °C 14,3 °C 80 % 1011,2 hPa 0,0 mm 12,1 km/h (2 Bft) W 259 ° 1 min 0,000 mm 3,1 UV-I 636 W/m² 10,9 °C 14,3 °C 16,1 km/h (3 Bft)
13.05.2017 09:05 14,4 °C 14,4 °C 73 % 1011,1 hPa 0,0 mm 11,6 km/h (2 Bft) W-NW 282 ° 1 min 0,000 mm 3,1 UV-I 645 W/m² 9,6 °C 14,4 °C 16,1 km/h (3 Bft)
13.05.2017 09:06 14,4 °C 14,4 °C 74 % 1011,1 hPa 0,0 mm 10,8 km/h (2 Bft) W-SW 253 ° 1 min 0,000 mm 3,2 UV-I 619 W/m² 9,8 °C 14,4 °C 12,9 km/h (3 Bft)
13.05.2017 09:07 14,6 °C 14,6 °C 76 % 1011,1 hPa 0,0 mm 5,0 km/h (1 Bft) W 259 ° 1 min 0,000 mm 2,9 UV-I 573 W/m² 10,4 °C 14,6 °C 8,0 km/h (2 Bft)
13.05.2017 09:08 14,7 °C 14,7 °C 75 % 1011,1 hPa 0,0 mm 5,1 km/h (1 Bft) W-NW 298 ° 1 min 0,000 mm 3,1 UV-I 504 W/m² 10,3 °C 14,7 °C 6,4 km/h (2 Bft)
13.05.2017 09:09 14,8 °C 14,8 °C 75 % 1011,1 hPa 0,0 mm 5,2 km/h (1 Bft) W-NW 288 ° 1 min 0,000 mm 3,2 UV-I 504 W/m² 10,4 °C 14,8 °C 8,0 km/h (2 Bft)
13.05.2017 09:10 14,8 °C 14,8 °C 74 % 1011,2 hPa 0,0 mm 7,1 km/h (2 Bft) W-NW 302 ° 1 min 0,000 mm 3,3 UV-I 657 W/m² 10,2 °C 14,8 °C 11,3 km/h (2 Bft)
13.05.2017 09:11 14,8 °C 14,8 °C 73 % 1011,2 hPa 0,0 mm 8,4 km/h (2 Bft) N-NW 327 ° 1 min 0,000 mm 3,2 UV-I 612 W/m² 10,0 °C 14,8 °C 12,9 km/h (3 Bft)
13.05.2017 09:12 14,7 °C 14,8 °C 73 % 1011,2 hPa 0,0 mm 7,6 km/h (2 Bft) W-NW 302 ° 1 min 0,000 mm 2,9 UV-I 531 W/m² 9,9 °C 14,7 °C 11,3 km/h (2 Bft)
13.05.2017 09:13 14,7 °C 14,7 °C 73 % 1011,2 hPa 0,0 mm 6,0 km/h (2 Bft) NW 309 ° 1 min 0,000 mm 2,3 UV-I 348 W/m² 9,9 °C 14,7 °C 11,3 km/h (2 Bft)
13.05.2017 09:14 14,7 °C 14,7 °C 77 % 1011,2 hPa 0,0 mm 5,6 km/h (1 Bft) W 277 ° 1 min 0,000 mm 2,8 UV-I 348 W/m² 10,7 °C 14,7 °C 9,7 km/h (2 Bft)
13.05.2017 09:15 14,8 °C 14,8 °C 76 % 1011,2 hPa 0,0 mm 5,2 km/h (1 Bft) W-NW 285 ° 1 min 0,000 mm 2,7 UV-I 478 W/m² 10,6 °C 14,8 °C 9,7 km/h (2 Bft)
13.05.2017 09:16 14,8 °C 14,8 °C 74 % 1011,2 hPa 0,0 mm 7,2 km/h (2 Bft) W-NW 291 ° 1 min 0,000 mm 2,6 UV-I 438 W/m² 10,2 °C 14,8 °C 11,3 km/h (2 Bft)
13.05.2017 09:17 14,8 °C 14,8 °C 75 % 1011,2 hPa 0,0 mm 7,8 km/h (2 Bft) W 268 ° 1 min 0,000 mm 3,0 UV-I 438 W/m² 10,4 °C 14,8 °C 12,9 km/h (3 Bft)
13.05.2017 09:18 14,9 °C 14,9 °C 77 % 1011,2 hPa 0,0 mm 8,0 km/h (2 Bft) W-NW 287 ° 1 min 0,000 mm 3,0 UV-I 438 W/m² 10,9 °C 14,9 °C 16,1 km/h (3 Bft)
13.05.2017 09:19 14,8 °C 14,9 °C 73 % 1011,3 hPa 0,0 mm 6,1 km/h (2 Bft) W-SW 257 ° 1 min 0,000 mm 3,6 UV-I 438 W/m² 10,0 °C 14,8 °C 9,7 km/h (2 Bft)
13.05.2017 09:20 14,8 °C 14,9 °C 75 % 1011,2 hPa 0,0 mm 8,1 km/h (2 Bft) W 273 ° 1 min 0,000 mm 2,5 UV-I 438 W/m² 10,4 °C 14,8 °C 14,5 km/h (3 Bft)
13.05.2017 09:21 14,9 °C 14,9 °C 75 % 1011,2 hPa 0,0 mm 11,4 km/h (2 Bft) W 263 ° 1 min 0,000 mm 2,6 UV-I 461 W/m² 10,5 °C 14,9 °C 14,5 km/h (3 Bft)
13.05.2017 09:22 14,8 °C 14,9 °C 74 % 1011,3 hPa 0,0 mm 12,5 km/h (3 Bft) W-SW 257 ° 1 min 0,000 mm 2,3 UV-I 461 W/m² 10,2 °C 14,8 °C 17,7 km/h (3 Bft)
13.05.2017 09:23 14,8 °C 14,8 °C 74 % 1011,3 hPa 0,0 mm 7,1 km/h (2 Bft) W 259 ° 1 min 0,000 mm 2,3 UV-I 352 W/m² 10,2 °C 14,8 °C 11,3 km/h (2 Bft)
13.05.2017 09:24 14,7 °C 14,8 °C 75 % 1011,3 hPa 0,0 mm 5,4 km/h (1 Bft) W-SW 254 ° 1 min 0,000 mm 2,3 UV-I 343 W/m² 10,3 °C 14,7 °C 11,3 km/h (2 Bft)
13.05.2017 09:25 14,7 °C 14,7 °C 74 % 1011,3 hPa 0,0 mm 7,8 km/h (2 Bft) W 266 ° 1 min 0,000 mm 2,6 UV-I 366 W/m² 10,1 °C 14,7 °C 11,3 km/h (2 Bft)
13.05.2017 09:26 14,6 °C 14,7 °C 72 % 1011,3 hPa 0,0 mm 6,4 km/h (2 Bft) W-NW 287 ° 1 min 0,000 mm 2,2 UV-I 352 W/m² 9,6 °C 14,6 °C 12,9 km/h (3 Bft)
13.05.2017 09:27 14,4 °C 14,6 °C 74 % 1011,4 hPa 0,0 mm 10,1 km/h (2 Bft) W-SW 252 ° 1 min 0,000 mm 2,1 UV-I 308 W/m² 9,8 °C 14,4 °C 14,5 km/h (3 Bft)
13.05.2017 09:28 14,4 °C 14,4 °C 74 % 1011,4 hPa 0,0 mm 7,8 km/h (2 Bft) W 279 ° 1 min 0,000 mm 2,1 UV-I 292 W/m² 9,8 °C 14,4 °C 12,9 km/h (3 Bft)
13.05.2017 09:29 14,3 °C 14,4 °C 75 % 1011,4 hPa 0,0 mm 5,6 km/h (1 Bft) W-NW 292 ° 1 min 0,000 mm 2,1 UV-I 299 W/m² 9,9 °C 14,3 °C 9,7 km/h (2 Bft)
13.05.2017 09:30 14,4 °C 14,4 °C 76 % 1011,4 hPa 0,0 mm 3,9 km/h (1 Bft) W 278 ° 1 min 0,000 mm 2,2 UV-I 390 W/m² 10,2 °C 14,4 °C 6,4 km/h (2 Bft)
13.05.2017 09:31 14,4 °C 14,5 °C 77 % 1011,4 hPa 0,0 mm 7,2 km/h (2 Bft) W-SW 241 ° 1 min 0,000 mm 2,0 UV-I 330 W/m² 10,4 °C 14,4 °C 12,9 km/h (3 Bft)
13.05.2017 09:32 14,5 °C 14,5 °C 76 % 1011,4 hPa 0,0 mm 5,2 km/h (1 Bft) W 267 ° 0 min 0,000 mm 2,0 UV-I 272 W/m² 10,3 °C 14,5 °C 9,7 km/h (2 Bft)
13.05.2017 09:33 14,5 °C 14,6 °C 75 % 1011,4 hPa 0,0 mm 11,1 km/h (2 Bft) NW 305 ° 0 min 0,000 mm 2,0 UV-I 274 W/m² 10,1 °C 14,5 °C 14,5 km/h (3 Bft)
13.05.2017 09:34 14,5 °C 14,6 °C 74 % 1011,4 hPa 0,0 mm 8,4 km/h (2 Bft) W 266 ° 0 min 0,000 mm 1,9 UV-I 255 W/m² 9,9 °C 14,5 °C 12,9 km/h (3 Bft)
13.05.2017 09:35 14,4 °C 14,5 °C 73 % 1011,4 hPa 0,0 mm 11,5 km/h (2 Bft) W 266 ° 0 min 0,000 mm 2,0 UV-I 279 W/m² 9,6 °C 14,4 °C 14,5 km/h (3 Bft)
13.05.2017 09:36 14,3 °C 14,4 °C 73 % 1011,4 hPa 0,0 mm 7,6 km/h (2 Bft) W 259 ° 0 min 0,000 mm 1,9 UV-I 237 W/m² 9,5 °C 14,3 °C 11,3 km/h (2 Bft)
13.05.2017 09:37 14,2 °C 14,3 °C 73 % 1011,5 hPa 0,0 mm 8,8 km/h (2 Bft) W 263 ° 0 min 0,000 mm 1,9 UV-I 241 W/m² 9,4 °C 14,2 °C 14,5 km/h (3 Bft)
13.05.2017 09:38 14,1 °C 14,2 °C 76 % 1011,5 hPa 0,0 mm 8,9 km/h (2 Bft) W-SW 256 ° 0 min 0,000 mm 2,3 UV-I 283 W/m² 9,9 °C 14,1 °C 12,9 km/h (3 Bft)
13.05.2017 09:39 14,1 °C 14,1 °C 75 % 1011,5 hPa 0,0 mm 7,7 km/h (2 Bft) W-SW 254 ° 0 min 0,000 mm 2,1 UV-I 274 W/m² 9,7 °C 14,1 °C 12,9 km/h (3 Bft)
13.05.2017 09:40 14,1 °C 14,1 °C 74 % 1011,5 hPa 0,0 mm 6,9 km/h (2 Bft) W 278 ° 1 min 0,000 mm 2,4 UV-I 290 W/m² 9,5 °C 14,1 °C 11,3 km/h (2 Bft)
13.05.2017 09:41 14,1 °C 14,1 °C 75 % 1011,5 hPa 0,0 mm 5,8 km/h (2 Bft) W-SW 258 ° 0 min 0,000 mm 2,1 UV-I 253 W/m² 9,7 °C 14,1 °C 9,7 km/h (2 Bft)
13.05.2017 09:42 14,0 °C 14,1 °C 73 % 1011,5 hPa 0,0 mm 6,5 km/h (2 Bft) W 279 ° 0 min 0,000 mm 2,2 UV-I 262 W/m² 9,2 °C 14,0 °C 12,9 km/h (3 Bft)
13.05.2017 09:43 14,0 °C 14,1 °C 74 % 1011,5 hPa 0,0 mm 9,2 km/h (2 Bft) W-SW 255 ° 0 min 0,000 mm 2,2 UV-I 264 W/m² 9,4 °C 14,0 °C 14,5 km/h (3 Bft)
13.05.2017 09:44 14,0 °C 14,0 °C 75 % 1011,5 hPa 0,0 mm 7,9 km/h (2 Bft) W-NW 287 ° 0 min 0,000 mm 2,2 UV-I 267 W/m² 9,6 °C 14,0 °C 12,9 km/h (3 Bft)
13.05.2017 09:45 13,9 °C 14,0 °C 75 % 1011,6 hPa 0,0 mm 8,2 km/h (2 Bft) W 261 ° 0 min 0,000 mm 2,3 UV-I 287 W/m² 9,5 °C 13,9 °C 12,9 km/h (3 Bft)
13.05.2017 09:46 13,9 °C 13,9 °C 74 % 1011,6 hPa 0,0 mm 10,6 km/h (2 Bft) W-NW 285 ° 0 min 0,000 mm 2,3 UV-I 283 W/m² 9,3 °C 13,9 °C 12,9 km/h (3 Bft)
13.05.2017 09:47 13,9 °C 13,9 °C 76 % 1011,6 hPa 0,0 mm 6,6 km/h (2 Bft) W 261 ° 0 min 0,000 mm 2,2 UV-I 278 W/m² 9,7 °C 13,9 °C 11,3 km/h (2 Bft)
13.05.2017 09:48 13,9 °C 13,9 °C 77 % 1011,6 hPa 0,0 mm 9,2 km/h (2 Bft) W-SW 258 ° 0 min 0,000 mm 2,3 UV-I 276 W/m² 9,9 °C 13,9 °C 12,9 km/h (3 Bft)
13.05.2017 09:49 13,9 °C 13,9 °C 74 % 1011,7 hPa 0,0 mm 7,0 km/h (2 Bft) W 269 ° 0 min 0,000 mm 2,3 UV-I 274 W/m² 9,3 °C 13,9 °C 11,3 km/h (2 Bft)
13.05.2017 09:50 13,9 °C 13,9 °C 75 % 1011,7 hPa 0,0 mm 5,6 km/h (1 Bft) W 277 ° 0 min 0,000 mm 2,3 UV-I 272 W/m² 9,5 °C 13,9 °C 9,7 km/h (2 Bft)
13.05.2017 09:51 13,8 °C 13,9 °C 75 % 1011,7 hPa 0,0 mm 4,5 km/h (1 Bft) W-NW 288 ° 0 min 0,000 mm 2,3 UV-I 269 W/m² 9,4 °C 13,8 °C 6,4 km/h (2 Bft)
13.05.2017 09:52 13,8 °C 13,8 °C 75 % 1011,8 hPa 0,0 mm 3,2 km/h (1 Bft) W-NW 293 ° 0 min 0,000 mm 2,3 UV-I 265 W/m² 9,4 °C 13,8 °C 4,8 km/h (1 Bft)
13.05.2017 09:53 13,8 °C 13,9 °C 74 % 1011,7 hPa 0,0 mm 5,0 km/h (1 Bft) W-NW 292 ° 0 min 0,000 mm 2,4 UV-I 271 W/m² 9,2 °C 13,8 °C 8,0 km/h (2 Bft)
13.05.2017 09:54 13,9 °C 13,9 °C 76 % 1011,8 hPa 0,0 mm 4,8 km/h (1 Bft) W 273 ° 0 min 0,000 mm 2,5 UV-I 281 W/m² 9,7 °C 13,9 °C 9,7 km/h (2 Bft)
13.05.2017 09:55 13,8 °C 13,9 °C 74 % 1011,8 hPa 0,0 mm 4,1 km/h (1 Bft) W-NW 284 ° 0 min 0,000 mm 2,4 UV-I 274 W/m² 9,2 °C 13,8 °C 6,4 km/h (2 Bft)
13.05.2017 09:56 13,9 °C 13,9 °C 75 % 1011,8 hPa 0,0 mm 4,0 km/h (1 Bft) W 268 ° 0 min 0,000 mm 2,4 UV-I 267 W/m² 9,5 °C 13,9 °C 9,7 km/h (2 Bft)
13.05.2017 09:57 13,8 °C 13,9 °C 76 % 1011,8 hPa 0,0 mm 4,3 km/h (1 Bft) W 267 ° 0 min 0,000 mm 2,4 UV-I 260 W/m² 9,6 °C 13,8 °C 6,4 km/h (2 Bft)
13.05.2017 09:58 13,9 °C 13,9 °C 79 % 1011,8 hPa 0,0 mm 3,4 km/h (1 Bft) W-NW 288 ° 1 min 0,000 mm 2,4 UV-I 299 W/m² 10,3 °C 13,9 °C 6,4 km/h (2 Bft)
13.05.2017 09:59 13,9 °C 13,9 °C 78 % 1011,8 hPa 0,0 mm 3,4 km/h (1 Bft) W-NW 290 ° 0 min 0,000 mm 2,8 UV-I 272 W/m² 10,1 °C 13,9 °C 4,8 km/h (1 Bft)
13.05.2017 10:00 14,0 °C 14,0 °C 77 % 1011,8 hPa 0,0 mm 4,8 km/h (1 Bft) W-NW 284 ° 0 min 0,000 mm 2,5 UV-I 237 W/m² 10,0 °C 14,0 °C 9,7 km/h (2 Bft)
13.05.2017 10:01 14,0 °C 14,0 °C 77 % 1011,8 hPa 0,0 mm 6,4 km/h (2 Bft) W-NW 298 ° 0 min 0,228 mm 2,5 UV-I 232 W/m² 10,0 °C 14,0 °C 9,7 km/h (2 Bft)
13.05.2017 10:02 14,1 °C 14,1 °C 77 % 1011,8 hPa 0,0 mm 7,2 km/h (2 Bft) NW 323 ° 0 min 0,000 mm 4,0 UV-I 232 W/m² 10,1 °C 14,1 °C 11,3 km/h (2 Bft)
13.05.2017 10:03 14,1 °C 14,1 °C 75 % 1011,8 hPa 0,0 mm 9,6 km/h (2 Bft) W 273 ° 0 min 0,000 mm 4,4 UV-I 232 W/m² 9,7 °C 14,1 °C 14,5 km/h (3 Bft)
13.05.2017 10:04 14,2 °C 14,2 °C 77 % 1011,8 hPa 0,0 mm 6,6 km/h (2 Bft) NW 322 ° 1 min 0,000 mm 4,3 UV-I 701 W/m² 10,2 °C 14,2 °C 11,3 km/h (2 Bft)
13.05.2017 10:05 14,4 °C 14,4 °C 76 % 1011,7 hPa 0,0 mm 4,8 km/h (1 Bft) N-NW 329 ° 1 min 0,000 mm 4,2 UV-I 659 W/m² 10,2 °C 14,4 °C 6,4 km/h (2 Bft)
13.05.2017 10:06 14,6 °C 14,6 °C 75 % 1011,7 hPa 0,0 mm 5,6 km/h (1 Bft) NW 306 ° 1 min 0,000 mm 4,2 UV-I 652 W/m² 10,2 °C 14,6 °C 11,3 km/h (2 Bft)
13.05.2017 10:07 14,6 °C 14,6 °C 74 % 1011,8 hPa 0,0 mm 5,2 km/h (1 Bft) W-NW 294 ° 1 min 0,000 mm 4,2 UV-I 619 W/m² 10,0 °C 14,6 °C 6,4 km/h (2 Bft)
13.05.2017 10:08 14,7 °C 14,7 °C 74 % 1011,8 hPa 0,0 mm 8,6 km/h (2 Bft) W-NW 288 ° 1 min 0,000 mm 4,2 UV-I 636 W/m² 10,1 °C 14,7 °C 12,9 km/h (3 Bft)
13.05.2017 10:09 14,7 °C 14,7 °C 75 % 1011,8 hPa 0,0 mm 10,2 km/h (2 Bft) W 265 ° 1 min 0,000 mm 4,2 UV-I 628 W/m² 10,3 °C 14,7 °C 14,5 km/h (3 Bft)
13.05.2017 10:10 14,6 °C 14,7 °C 72 % 1011,7 hPa 0,0 mm 9,2 km/h (2 Bft) NW 326 ° 1 min 0,000 mm 4,3 UV-I 640 W/m² 9,6 °C 14,6 °C 12,9 km/h (3 Bft)
13.05.2017 10:11 14,7 °C 14,7 °C 74 % 1011,7 hPa 0,0 mm 7,6 km/h (2 Bft) W-NW 296 ° 1 min 0,000 mm 4,3 UV-I 647 W/m² 10,1 °C 14,7 °C 14,5 km/h (3 Bft)
13.05.2017 10:12 14,7 °C 14,7 °C 73 % 1011,7 hPa 0,0 mm 7,5 km/h (2 Bft) W 275 ° 1 min 0,000 mm 4,4 UV-I 659 W/m² 9,9 °C 14,7 °C 14,5 km/h (3 Bft)
13.05.2017 10:13 14,8 °C 14,8 °C 75 % 1011,8 hPa 0,0 mm 6,9 km/h (2 Bft) W-NW 285 ° 1 min 0,000 mm 4,4 UV-I 663 W/m² 10,4 °C 14,8 °C 14,5 km/h (3 Bft)
13.05.2017 10:14 14,9 °C 14,9 °C 75 % 1011,8 hPa 0,0 mm 6,6 km/h (2 Bft) NW 317 ° 1 min 0,000 mm 3,4 UV-I 663 W/m² 10,5 °C 14,9 °C 11,3 km/h (2 Bft)
13.05.2017 10:15 15,1 °C 15,1 °C 74 % 1011,8 hPa 0,0 mm 9,2 km/h (2 Bft) W-SW 252 ° 1 min 0,000 mm 3,1 UV-I 446 W/m² 10,5 °C 15,1 °C 14,5 km/h (3 Bft)
13.05.2017 10:16 14,9 °C 15,1 °C 70 % 1011,8 hPa 0,0 mm 8,0 km/h (2 Bft) W-NW 292 ° 1 min 0,000 mm 4,6 UV-I 668 W/m² 9,5 °C 14,9 °C 14,5 km/h (3 Bft)
13.05.2017 10:17 15,0 °C 15,0 °C 73 % 1011,8 hPa 0,0 mm 7,5 km/h (2 Bft) W-NW 290 ° 1 min 0,000 mm 4,6 UV-I 668 W/m² 10,2 °C 15,0 °C 14,5 km/h (3 Bft)
13.05.2017 10:18 15,1 °C 15,1 °C 72 % 1011,8 hPa 0,0 mm 12,4 km/h (3 Bft) W-NW 288 ° 1 min 0,000 mm 4,6 UV-I 668 W/m² 10,1 °C 15,1 °C 17,7 km/h (3 Bft)
13.05.2017 10:19 15,2 °C 15,2 °C 72 % 1011,8 hPa 0,0 mm 10,9 km/h (2 Bft) N-NW 334 ° 1 min 0,000 mm 4,6 UV-I 687 W/m² 10,2 °C 15,2 °C 14,5 km/h (3 Bft)
13.05.2017 10:20 15,2 °C 15,2 °C 71 % 1011,8 hPa 0,0 mm 6,8 km/h (2 Bft) NW 306 ° 1 min 0,000 mm 4,6 UV-I 686 W/m² 10,0 °C 15,2 °C 11,3 km/h (2 Bft)
13.05.2017 10:21 15,3 °C 15,3 °C 71 % 1011,7 hPa 0,0 mm 6,7 km/h (2 Bft) W-NW 284 ° 1 min 0,000 mm 4,7 UV-I 684 W/m² 10,1 °C 15,3 °C 11,3 km/h (2 Bft)
13.05.2017 10:22 15,4 °C 15,4 °C 70 % 1011,8 hPa 0,0 mm 12,3 km/h (3 Bft) NW 322 ° 1 min 0,000 mm 4,7 UV-I 701 W/m² 10,0 °C 15,4 °C 16,1 km/h (3 Bft)
13.05.2017 10:23 15,4 °C 15,5 °C 68 % 1011,8 hPa 0,0 mm 12,8 km/h (3 Bft) W-NW 284 ° 1 min 0,000 mm 4,7 UV-I 693 W/m² 9,5 °C 15,4 °C 16,1 km/h (3 Bft)
13.05.2017 10:24 15,6 °C 15,6 °C 70 % 1011,8 hPa 0,0 mm 7,8 km/h (2 Bft) W 267 ° 1 min 0,000 mm 4,8 UV-I 700 W/m² 10,1 °C 15,6 °C 12,9 km/h (3 Bft)
13.05.2017 10:25 15,5 °C 15,6 °C 70 % 1011,8 hPa 0,0 mm 10,2 km/h (2 Bft) W-NW 291 ° 1 min 0,000 mm 4,8 UV-I 707 W/m² 10,1 °C 15,5 °C 12,9 km/h (3 Bft)
13.05.2017 10:26 15,6 °C 15,6 °C 71 % 1011,8 hPa 0,0 mm 3,3 km/h (1 Bft) W-SW 254 ° 1 min 0,000 mm 4,7 UV-I 698 W/m² 10,4 °C 15,6 °C 8,0 km/h (2 Bft)
13.05.2017 10:27 15,6 °C 15,6 °C 70 % 1011,8 hPa 0,0 mm 3,6 km/h (1 Bft) NW 306 ° 1 min 0,000 mm 4,8 UV-I 707 W/m² 10,1 °C 15,6 °C 11,3 km/h (2 Bft)
13.05.2017 10:28 15,7 °C 15,7 °C 70 % 1011,8 hPa 0,0 mm 7,3 km/h (2 Bft) W 274 ° 1 min 0,000 mm 4,9 UV-I 731 W/m² 10,2 °C 15,7 °C 12,9 km/h (3 Bft)
13.05.2017 10:29 15,8 °C 15,8 °C 69 % 1011,8 hPa 0,0 mm 7,3 km/h (2 Bft) W-SW 254 ° 1 min 0,000 mm 5,0 UV-I 744 W/m² 10,1 °C 15,8 °C 17,7 km/h (3 Bft)
13.05.2017 10:30 15,9 °C 15,9 °C 69 % 1011,9 hPa 0,0 mm 2,8 km/h (1 Bft) W 264 ° 1 min 0,000 mm 5,0 UV-I 745 W/m² 10,2 °C 15,9 °C 11,3 km/h (2 Bft)
13.05.2017 10:31 15,9 °C 15,9 °C 69 % 1011,8 hPa 0,0 mm 13,0 km/h (3 Bft) W-NW 298 ° 1 min 0,000 mm 5,0 UV-I 747 W/m² 10,2 °C 15,9 °C 17,7 km/h (3 Bft)
13.05.2017 10:32 15,9 °C 15,9 °C 68 % 1011,8 hPa 0,0 mm 14,4 km/h (3 Bft) W-NW 286 ° 1 min 0,000 mm 4,8 UV-I 705 W/m² 10,0 °C 15,9 °C 17,7 km/h (3 Bft)
13.05.2017 10:33 16,0 °C 16,0 °C 72 % 1011,9 hPa 0,0 mm 11,2 km/h (2 Bft) W-SW 258 ° 1 min 0,000 mm 4,9 UV-I 715 W/m² 11,0 °C 16,0 °C 19,3 km/h (3 Bft)
13.05.2017 10:34 16,1 °C 16,1 °C 68 % 1011,9 hPa 0,0 mm 12,3 km/h (3 Bft) W-NW 287 ° 1 min 0,000 mm 4,9 UV-I 721 W/m² 10,2 °C 16,1 °C 17,7 km/h (3 Bft)
13.05.2017 10:35 16,0 °C 16,1 °C 69 % 1011,8 hPa 0,0 mm 10,8 km/h (2 Bft) W 265 ° 1 min 0,000 mm 4,9 UV-I 742 W/m² 10,3 °C 16,0 °C 14,5 km/h (3 Bft)
13.05.2017 10:36 16,0 °C 16,0 °C 69 % 1011,9 hPa 0,0 mm 12,3 km/h (3 Bft) SW 225 ° 1 min 0,000 mm 4,8 UV-I 673 W/m² 10,3 °C 16,0 °C 16,1 km/h (3 Bft)
13.05.2017 10:37 15,9 °C 16,0 °C 68 % 1011,9 hPa 0,0 mm 10,8 km/h (2 Bft) W 264 ° 1 min 0,000 mm 4,8 UV-I 698 W/m² 10,0 °C 15,9 °C 17,7 km/h (3 Bft)
13.05.2017 10:38 15,9 °C 15,9 °C 69 % 1011,8 hPa 0,0 mm 8,1 km/h (2 Bft) W 267 ° 1 min 0,000 mm 4,8 UV-I 661 W/m² 10,2 °C 15,9 °C 16,1 km/h (3 Bft)
13.05.2017 10:39 15,8 °C 15,9 °C 67 % 1011,9 hPa 0,0 mm 6,8 km/h (2 Bft) W-SW 258 ° 1 min 0,000 mm 4,7 UV-I 677 W/m² 9,7 °C 15,8 °C 12,9 km/h (3 Bft)
13.05.2017 10:40 15,8 °C 15,8 °C 69 % 1011,8 hPa 0,0 mm 8,4 km/h (2 Bft) W-SW 245 ° 1 min 0,000 mm 4,8 UV-I 668 W/m² 10,1 °C 15,8 °C 12,9 km/h (3 Bft)
13.05.2017 10:41 15,8 °C 15,8 °C 67 % 1011,8 hPa 0,0 mm 14,2 km/h (3 Bft) W 273 ° 1 min 0,000 mm 4,9 UV-I 691 W/m² 9,7 °C 15,8 °C 20,9 km/h (4 Bft)
13.05.2017 10:42 15,8 °C 15,8 °C 67 % 1011,9 hPa 0,0 mm 16,3 km/h (3 Bft) W-NW 291 ° 1 min 0,000 mm 5,0 UV-I 708 W/m² 9,7 °C 15,8 °C 22,5 km/h (4 Bft)
13.05.2017 10:43 15,8 °C 15,8 °C 67 % 1011,8 hPa 0,0 mm 6,5 km/h (2 Bft) W 269 ° 1 min 0,000 mm 4,9 UV-I 703 W/m² 9,7 °C 15,8 °C 11,3 km/h (2 Bft)
13.05.2017 10:44 15,8 °C 15,8 °C 71 % 1011,8 hPa 0,0 mm 7,3 km/h (2 Bft) SW 221 ° 1 min 0,000 mm 3,7 UV-I 703 W/m² 10,6 °C 15,8 °C 14,5 km/h (3 Bft)
13.05.2017 10:45 15,8 °C 15,8 °C 66 % 1011,8 hPa 0,0 mm 7,5 km/h (2 Bft) W-NW 302 ° 1 min 0,000 mm 2,6 UV-I 703 W/m² 9,5 °C 15,8 °C 11,3 km/h (2 Bft)
13.05.2017 10:46 15,7 °C 15,8 °C 66 % 1011,8 hPa 0,0 mm 7,3 km/h (2 Bft) NW 312 ° 1 min 0,000 mm 5,2 UV-I 724 W/m² 9,4 °C 15,7 °C 8,0 km/h (2 Bft)
13.05.2017 10:47 15,8 °C 15,8 °C 68 % 1011,9 hPa 0,0 mm 11,4 km/h (2 Bft) W 275 ° 1 min 0,000 mm 5,3 UV-I 761 W/m² 9,9 °C 15,8 °C 20,9 km/h (4 Bft)
13.05.2017 10:48 15,8 °C 15,9 °C 66 % 1011,8 hPa 0,0 mm 10,0 km/h (2 Bft) W 263 ° 1 min 0,000 mm 5,4 UV-I 775 W/m² 9,5 °C 15,8 °C 16,1 km/h (3 Bft)
13.05.2017 10:49 15,9 °C 15,9 °C 68 % 1011,8 hPa 0,0 mm 11,7 km/h (2 Bft) W 261 ° 1 min 0,000 mm 5,4 UV-I 788 W/m² 10,0 °C 15,9 °C 17,7 km/h (3 Bft)
13.05.2017 10:50 16,0 °C 16,0 °C 66 % 1011,9 hPa 0,0 mm 11,2 km/h (2 Bft) W-NW 288 ° 1 min 0,000 mm 3,4 UV-I 788 W/m² 9,7 °C 16,0 °C 16,1 km/h (3 Bft)
13.05.2017 10:51 16,0 °C 16,0 °C 69 % 1011,8 hPa 0,0 mm 10,7 km/h (2 Bft) W 277 ° 1 min 0,000 mm 5,5 UV-I 612 W/m² 10,3 °C 16,0 °C 14,5 km/h (3 Bft)
13.05.2017 10:52 16,1 °C 16,1 °C 68 % 1011,8 hPa 0,0 mm 6,9 km/h (2 Bft) NW 309 ° 1 min 0,000 mm 5,5 UV-I 814 W/m² 10,2 °C 16,1 °C 11,3 km/h (2 Bft)
13.05.2017 10:53 16,2 °C 16,2 °C 67 % 1011,8 hPa 0,0 mm 10,1 km/h (2 Bft) W 268 ° 1 min 0,000 mm 5,6 UV-I 795 W/m² 10,1 °C 16,2 °C 14,5 km/h (3 Bft)
13.05.2017 10:54 16,3 °C 16,3 °C 66 % 1011,9 hPa 0,0 mm 8,2 km/h (2 Bft) NW 315 ° 1 min 0,000 mm 5,8 UV-I 851 W/m² 9,9 °C 16,3 °C 12,9 km/h (3 Bft)
13.05.2017 10:55 16,3 °C 16,3 °C 67 % 1011,9 hPa 0,0 mm 9,2 km/h (2 Bft) W 275 ° 1 min 0,000 mm 5,9 UV-I 867 W/m² 10,2 °C 16,3 °C 16,1 km/h (3 Bft)
13.05.2017 10:56 16,4 °C 16,4 °C 68 % 1011,8 hPa 0,0 mm 6,6 km/h (2 Bft) W 281 ° 1 min 0,000 mm 6,0 UV-I 875 W/m² 10,5 °C 16,4 °C 9,7 km/h (2 Bft)
13.05.2017 10:57 16,4 °C 16,4 °C 63 % 1011,8 hPa 0,0 mm 13,1 km/h (3 Bft) W 271 ° 1 min 0,000 mm 6,0 UV-I 891 W/m² 9,3 °C 16,4 °C 16,1 km/h (3 Bft)
13.05.2017 10:58 16,4 °C 16,5 °C 66 % 1011,8 hPa 0,0 mm 8,8 km/h (2 Bft) W-SW 251 ° 1 min 0,000 mm 6,1 UV-I 891 W/m² 10,0 °C 16,4 °C 14,5 km/h (3 Bft)
13.05.2017 10:59 16,6 °C 16,6 °C 66 % 1011,8 hPa 0,0 mm 16,8 km/h (3 Bft) W-NW 292 ° 1 min 0,000 mm 6,1 UV-I 844 W/m² 10,2 °C 16,6 °C 24,1 km/h (4 Bft)
13.05.2017 11:00 16,6 °C 16,6 °C 64 % 1011,8 hPa 0,0 mm 11,7 km/h (2 Bft) NW 313 ° 1 min 0,381 mm 6,2 UV-I 932 W/m² 9,8 °C 16,6 °C 19,3 km/h (3 Bft)
13.05.2017 11:01 16,6 °C 16,6 °C 63 % 1011,8 hPa 0,0 mm 16,6 km/h (3 Bft) NW 325 ° 1 min 0,000 mm 6,3 UV-I 933 W/m² 9,5 °C 16,6 °C 24,1 km/h (4 Bft)
13.05.2017 11:02 16,6 °C 16,6 °C 63 % 1011,8 hPa 0,0 mm 12,8 km/h (3 Bft) W 265 ° 1 min 0,000 mm 6,3 UV-I 940 W/m² 9,5 °C 16,6 °C 19,3 km/h (3 Bft)
13.05.2017 11:03 16,7 °C 16,7 °C 63 % 1011,9 hPa 0,0 mm 12,8 km/h (3 Bft) W-NW 286 ° 1 min 0,000 mm 6,3 UV-I 962 W/m² 9,6 °C 16,7 °C 19,3 km/h (3 Bft)
13.05.2017 11:04 16,7 °C 16,7 °C 64 % 1011,9 hPa 0,0 mm 10,7 km/h (2 Bft) W-SW 237 ° 1 min 0,000 mm 5,2 UV-I 962 W/m² 9,9 °C 16,7 °C 19,3 km/h (3 Bft)
13.05.2017 11:05 16,7 °C 16,7 °C 63 % 1011,9 hPa 0,0 mm 9,9 km/h (2 Bft) W-NW 302 ° 1 min 0,000 mm 5,2 UV-I 962 W/m² 9,6 °C 16,7 °C 14,5 km/h (3 Bft)
13.05.2017 11:06 16,6 °C 16,7 °C 64 % 1011,9 hPa 0,0 mm 6,1 km/h (2 Bft) NW 309 ° 1 min 0,000 mm 5,6 UV-I 715 W/m² 9,8 °C 16,6 °C 11,3 km/h (2 Bft)
13.05.2017 11:07 16,6 °C 16,6 °C 64 % 1011,9 hPa 0,0 mm 13,2 km/h (3 Bft) W-NW 300 ° 1 min 0,000 mm 6,3 UV-I 715 W/m² 9,8 °C 16,6 °C 19,3 km/h (3 Bft)
13.05.2017 11:08 16,6 °C 16,6 °C 64 % 1011,9 hPa 0,0 mm 12,2 km/h (2 Bft) W-NW 298 ° 1 min 0,000 mm 6,5 UV-I 967 W/m² 9,8 °C 16,6 °C 16,1 km/h (3 Bft)
13.05.2017 11:09 16,6 °C 16,6 °C 63 % 1011,8 hPa 0,0 mm 9,7 km/h (2 Bft) NW 304 ° 1 min 0,000 mm 5,5 UV-I 916 W/m² 9,5 °C 16,6 °C 16,1 km/h (3 Bft)
13.05.2017 11:10 16,7 °C 16,7 °C 66 % 1011,8 hPa 0,0 mm 12,8 km/h (3 Bft) W 259 ° 1 min 0,000 mm 5,9 UV-I 972 W/m² 10,3 °C 16,7 °C 22,5 km/h (4 Bft)
13.05.2017 11:11 16,7 °C 16,7 °C 64 % 1011,8 hPa 0,0 mm 13,4 km/h (3 Bft) W 269 ° 1 min 0,000 mm 4,9 UV-I 972 W/m² 9,9 °C 16,7 °C 17,7 km/h (3 Bft)
13.05.2017 11:12 16,7 °C 16,7 °C 63 % 1011,9 hPa 0,0 mm 14,8 km/h (3 Bft) W-NW 292 ° 1 min 0,000 mm 5,1 UV-I 849 W/m² 9,6 °C 16,7 °C 19,3 km/h (3 Bft)
13.05.2017 11:13 16,5 °C 16,7 °C 63 % 1011,9 hPa 0,0 mm 9,7 km/h (2 Bft) N-NW 345 ° 1 min 0,000 mm 4,7 UV-I 849 W/m² 9,4 °C 16,5 °C 16,1 km/h (3 Bft)
13.05.2017 11:14 16,4 °C 16,5 °C 65 % 1011,9 hPa 0,0 mm 8,1 km/h (2 Bft) W 268 ° 1 min 0,000 mm 5,9 UV-I 849 W/m² 9,8 °C 16,4 °C 14,5 km/h (3 Bft)
13.05.2017 11:15 16,4 °C 16,4 °C 63 % 1011,9 hPa 0,0 mm 8,4 km/h (2 Bft) W-NW 289 ° 1 min 0,000 mm 5,5 UV-I 499 W/m² 9,3 °C 16,4 °C 12,9 km/h (3 Bft)
13.05.2017 11:16 16,4 °C 16,4 °C 63 % 1011,9 hPa 0,0 mm 10,9 km/h (2 Bft) N-NW 339 ° 1 min 0,000 mm 4,2 UV-I 538 W/m² 9,3 °C 16,4 °C 14,5 km/h (3 Bft)
13.05.2017 11:17 16,3 °C 16,4 °C 63 % 1011,9 hPa 0,0 mm 10,4 km/h (2 Bft) W-NW 288 ° 1 min 0,000 mm 4,5 UV-I 557 W/m² 9,2 °C 16,3 °C 14,5 km/h (3 Bft)
13.05.2017 11:18 16,2 °C 16,3 °C 64 % 1011,9 hPa 0,0 mm 12,0 km/h (2 Bft) W-NW 290 ° 1 min 0,000 mm 4,2 UV-I 492 W/m² 9,4 °C 16,2 °C 20,9 km/h (4 Bft)
13.05.2017 11:19 16,2 °C 16,2 °C 65 % 1011,9 hPa 0,0 mm 11,7 km/h (2 Bft) W-NW 303 ° 1 min 0,000 mm 4,0 UV-I 519 W/m² 9,6 °C 16,2 °C 17,7 km/h (3 Bft)
13.05.2017 11:20 16,1 °C 16,2 °C 66 % 1011,9 hPa 0,0 mm 10,1 km/h (2 Bft) W-NW 283 ° 1 min 0,000 mm 3,9 UV-I 489 W/m² 9,7 °C 16,1 °C 16,1 km/h (3 Bft)
13.05.2017 11:21 16,0 °C 16,1 °C 64 % 1012,0 hPa 0,0 mm 12,4 km/h (3 Bft) NW 304 ° 1 min 0,000 mm 3,4 UV-I 411 W/m² 9,2 °C 16,0 °C 16,1 km/h (3 Bft)
13.05.2017 11:22 15,9 °C 16,0 °C 63 % 1012,0 hPa 0,0 mm 15,0 km/h (3 Bft) W-NW 298 ° 1 min 0,000 mm 3,1 UV-I 411 W/m² 8,9 °C 15,9 °C 19,3 km/h (3 Bft)
13.05.2017 11:23 15,8 °C 15,9 °C 65 % 1011,9 hPa 0,0 mm 10,5 km/h (2 Bft) W-NW 284 ° 0 min 0,000 mm 3,7 UV-I 274 W/m² 9,2 °C 15,8 °C 14,5 km/h (3 Bft)
13.05.2017 11:24 15,7 °C 15,8 °C 66 % 1011,9 hPa 0,0 mm 9,6 km/h (2 Bft) W-NW 302 ° 0 min 0,000 mm 3,3 UV-I 274 W/m² 9,4 °C 15,7 °C 16,1 km/h (3 Bft)
13.05.2017 11:25 15,7 °C 15,7 °C 66 % 1012,0 hPa 0,0 mm 8,8 km/h (2 Bft) W-NW 289 ° 1 min 0,000 mm 4,4 UV-I 339 W/m² 9,4 °C 15,7 °C 12,9 km/h (3 Bft)
13.05.2017 11:26 15,7 °C 15,7 °C 69 % 1012,1 hPa 0,0 mm 8,9 km/h (2 Bft) W 271 ° 1 min 0,000 mm 6,6 UV-I 951 W/m² 10,0 °C 15,7 °C 17,7 km/h (3 Bft)
13.05.2017 11:27 15,8 °C 15,8 °C 66 % 1012,1 hPa 0,0 mm 10,9 km/h (2 Bft) NW 321 ° 1 min 0,000 mm 6,1 UV-I 914 W/m² 9,5 °C 15,8 °C 16,1 km/h (3 Bft)
13.05.2017 11:28 16,1 °C 16,1 °C 69 % 1012,0 hPa 0,0 mm 8,5 km/h (2 Bft) NW 325 ° 1 min 0,000 mm 6,4 UV-I 900 W/m² 10,4 °C 16,1 °C 12,9 km/h (3 Bft)
13.05.2017 11:29 16,1 °C 16,1 °C 65 % 1012,0 hPa 0,0 mm 8,0 km/h (2 Bft) N 5 ° 1 min 0,000 mm 6,4 UV-I 895 W/m² 9,5 °C 16,1 °C 12,9 km/h (3 Bft)
13.05.2017 11:30 16,4 °C 16,4 °C 67 % 1012,0 hPa 0,0 mm 9,3 km/h (2 Bft) W 277 ° 1 min 0,000 mm 6,3 UV-I 874 W/m² 10,3 °C 16,4 °C 12,9 km/h (3 Bft)
13.05.2017 11:31 16,6 °C 16,6 °C 69 % 1012,0 hPa 0,0 mm 6,3 km/h (2 Bft) W-NW 294 ° 1 min 0,000 mm 6,4 UV-I 888 W/m² 10,9 °C 16,6 °C 11,3 km/h (2 Bft)
13.05.2017 11:32 16,6 °C 16,6 °C 65 % 1012,0 hPa 0,0 mm 7,8 km/h (2 Bft) W 271 ° 1 min 0,000 mm 6,4 UV-I 874 W/m² 10,0 °C 16,6 °C 12,9 km/h (3 Bft)
13.05.2017 11:33 16,7 °C 16,7 °C 64 % 1012,0 hPa 0,0 mm 10,9 km/h (2 Bft) W-NW 293 ° 1 min 0,000 mm 6,5 UV-I 886 W/m² 9,9 °C 16,7 °C 20,9 km/h (4 Bft)
13.05.2017 11:34 16,7 °C 16,7 °C 65 % 1012,0 hPa 0,0 mm 9,4 km/h (2 Bft) W-NW 295 ° 1 min 0,000 mm 6,6 UV-I 881 W/m² 10,1 °C 16,7 °C 14,5 km/h (3 Bft)
13.05.2017 11:35 16,7 °C 16,7 °C 65 % 1012,0 hPa 0,0 mm 8,0 km/h (2 Bft) W-NW 300 ° 1 min 0,000 mm 4,3 UV-I 881 W/m² 10,1 °C 16,7 °C 17,7 km/h (3 Bft)
13.05.2017 11:36 16,7 °C 16,7 °C 65 % 1012,0 hPa 0,0 mm 11,5 km/h (2 Bft) W 270 ° 1 min 0,000 mm 6,4 UV-I 881 W/m² 10,1 °C 16,7 °C 17,7 km/h (3 Bft)
13.05.2017 11:37 16,8 °C 16,8 °C 68 % 1012,0 hPa 0,0 mm 10,1 km/h (2 Bft) SW 231 ° 1 min 0,000 mm 6,2 UV-I 881 W/m² 10,9 °C 16,8 °C 19,3 km/h (3 Bft)
13.05.2017 11:38 16,9 °C 16,9 °C 67 % 1012,0 hPa 0,0 mm 10,1 km/h (2 Bft) W-NW 296 ° 1 min 0,000 mm 5,2 UV-I 881 W/m² 10,7 °C 16,9 °C 16,1 km/h (3 Bft)
13.05.2017 11:39 16,8 °C 16,9 °C 64 % 1012,0 hPa 0,0 mm 9,8 km/h (2 Bft) W-NW 288 ° 1 min 0,000 mm 6,1 UV-I 881 W/m² 10,0 °C 16,8 °C 16,1 km/h (3 Bft)
13.05.2017 11:40 16,8 °C 16,8 °C 64 % 1011,9 hPa 0,0 mm 7,5 km/h (2 Bft) NW 311 ° 1 min 0,000 mm 6,3 UV-I 831 W/m² 10,0 °C 16,8 °C 11,3 km/h (2 Bft)
13.05.2017 11:41 16,8 °C 16,8 °C 67 % 1012,0 hPa 0,0 mm 9,7 km/h (2 Bft) N-NW 327 ° 1 min 0,000 mm 3,0 UV-I 831 W/m² 10,6 °C 16,8 °C 12,9 km/h (3 Bft)
13.05.2017 11:42 16,8 °C 16,8 °C 66 % 1011,9 hPa 0,0 mm 8,1 km/h (2 Bft) NW 305 ° 1 min 0,000 mm 3,7 UV-I 831 W/m² 10,4 °C 16,8 °C 12,9 km/h (3 Bft)
13.05.2017 11:43 16,9 °C 16,9 °C 70 % 1011,9 hPa 0,0 mm 5,4 km/h (1 Bft) W-NW 285 ° 1 min 0,000 mm 6,5 UV-I 831 W/m² 11,4 °C 16,9 °C 9,7 km/h (2 Bft)
13.05.2017 11:44 17,0 °C 17,0 °C 63 % 1012,0 hPa 0,0 mm 11,3 km/h (2 Bft) W 272 ° 1 min 0,000 mm 6,7 UV-I 824 W/m² 9,9 °C 17,0 °C 16,1 km/h (3 Bft)
13.05.2017 11:45 16,9 °C 17,0 °C 63 % 1012,0 hPa 0,0 mm 7,8 km/h (2 Bft) N-NW 332 ° 1 min 0,000 mm 6,3 UV-I 902 W/m² 9,8 °C 16,9 °C 14,5 km/h (3 Bft)
13.05.2017 11:46 17,0 °C 17,0 °C 64 % 1012,0 hPa 0,0 mm 7,6 km/h (2 Bft) N-NW 337 ° 1 min 0,000 mm 6,7 UV-I 907 W/m² 10,1 °C 17,0 °C 11,3 km/h (2 Bft)
13.05.2017 11:47 17,1 °C 17,1 °C 64 % 1011,9 hPa 0,0 mm 11,9 km/h (2 Bft) NW 318 ° 1 min 0,000 mm 6,7 UV-I 898 W/m² 10,2 °C 17,1 °C 17,7 km/h (3 Bft)
13.05.2017 11:48 17,2 °C 17,2 °C 65 % 1011,9 hPa 0,0 mm 11,6 km/h (2 Bft) NW 322 ° 1 min 0,000 mm 6,7 UV-I 898 W/m² 10,6 °C 17,2 °C 17,7 km/h (3 Bft)
13.05.2017 11:49 17,2 °C 17,2 °C 63 % 1012,0 hPa 0,0 mm 9,7 km/h (2 Bft) W-NW 288 ° 1 min 0,000 mm 6,7 UV-I 911 W/m² 10,1 °C 17,2 °C 16,1 km/h (3 Bft)
13.05.2017 11:50 17,3 °C 17,3 °C 65 % 1012,0 hPa 0,0 mm 9,9 km/h (2 Bft) W-NW 296 ° 1 min 0,000 mm 6,7 UV-I 926 W/m² 10,7 °C 17,3 °C 16,1 km/h (3 Bft)
13.05.2017 11:51 17,3 °C 17,3 °C 64 % 1011,9 hPa 0,0 mm 10,3 km/h (2 Bft) NW 316 ° 1 min 0,000 mm 6,7 UV-I 911 W/m² 10,4 °C 17,3 °C 14,5 km/h (3 Bft)
13.05.2017 11:52 17,3 °C 17,3 °C 63 % 1012,0 hPa 0,0 mm 10,5 km/h (2 Bft) W 277 ° 1 min 0,000 mm 6,8 UV-I 911 W/m² 10,2 °C 17,3 °C 16,1 km/h (3 Bft)
13.05.2017 11:53 17,3 °C 17,3 °C 64 % 1012,0 hPa 0,0 mm 11,3 km/h (2 Bft) NW 310 ° 1 min 0,000 mm 7,1 UV-I 983 W/m² 10,4 °C 17,3 °C 16,1 km/h (3 Bft)
13.05.2017 11:54 17,4 °C 17,4 °C 65 % 1012,0 hPa 0,0 mm 10,6 km/h (2 Bft) W 279 ° 1 min 0,000 mm 7,1 UV-I 981 W/m² 10,8 °C 17,4 °C 14,5 km/h (3 Bft)
13.05.2017 11:55 17,4 °C 17,4 °C 64 % 1012,0 hPa 0,0 mm 11,3 km/h (2 Bft) NW 313 ° 1 min 0,000 mm 7,1 UV-I 974 W/m² 10,5 °C 17,4 °C 12,9 km/h (3 Bft)
13.05.2017 11:56 17,6 °C 17,6 °C 64 % 1012,0 hPa 0,0 mm 10,2 km/h (2 Bft) NW 320 ° 1 min 0,000 mm 7,1 UV-I 838 W/m² 10,7 °C 17,6 °C 16,1 km/h (3 Bft)
13.05.2017 11:57 17,7 °C 17,7 °C 68 % 1012,0 hPa 0,0 mm 12,9 km/h (3 Bft) W-NW 291 ° 1 min 0,000 mm 6,5 UV-I 773 W/m² 11,7 °C 17,7 °C 17,7 km/h (3 Bft)
13.05.2017 11:58 17,7 °C 17,7 °C 63 % 1011,9 hPa 0,0 mm 7,0 km/h (2 Bft) W 261 ° 1 min 0,000 mm 6,1 UV-I 773 W/m² 10,6 °C 17,7 °C 12,9 km/h (3 Bft)
13.05.2017 11:59 17,8 °C 17,8 °C 64 % 1012,0 hPa 0,0 mm 7,9 km/h (2 Bft) W-SW 254 ° 1 min 0,000 mm 6,1 UV-I 773 W/m² 10,9 °C 17,8 °C 14,5 km/h (3 Bft)
13.05.2017 12:00 17,8 °C 17,8 °C 61 % 1012,0 hPa 0,0 mm 5,5 km/h (1 Bft) W-SW 246 ° 1 min 0,000 mm 6,2 UV-I 773 W/m² 10,2 °C 17,8 °C 11,3 km/h (2 Bft)
13.05.2017 12:01 17,8 °C 17,8 °C 68 % 1011,9 hPa 0,0 mm 5,0 km/h (1 Bft) NW 319 ° 1 min 0,457 mm 6,9 UV-I 926 W/m² 11,8 °C 17,8 °C 8,0 km/h (2 Bft)
13.05.2017 12:02 17,9 °C 17,9 °C 61 % 1012,0 hPa 0,0 mm 13,2 km/h (3 Bft) W 279 ° 1 min 0,000 mm 5,4 UV-I 926 W/m² 10,3 °C 17,9 °C 17,7 km/h (3 Bft)
13.05.2017 12:03 17,8 °C 17,9 °C 60 % 1012,0 hPa 0,0 mm 13,7 km/h (3 Bft) W 268 ° 0 min 0,000 mm 3,6 UV-I 274 W/m² 9,9 °C 17,8 °C 17,7 km/h (3 Bft)
13.05.2017 12:04 17,6 °C 17,8 °C 59 % 1012,0 hPa 0,0 mm 11,2 km/h (2 Bft) W 277 ° 0 min 0,000 mm 6,3 UV-I 274 W/m² 9,5 °C 17,6 °C 16,1 km/h (3 Bft)
13.05.2017 12:05 17,4 °C 17,6 °C 62 % 1012,0 hPa 0,0 mm 10,9 km/h (2 Bft) W-NW 296 ° 0 min 0,000 mm 4,5 UV-I 274 W/m² 10,0 °C 17,4 °C 17,7 km/h (3 Bft)
13.05.2017 12:06 17,5 °C 17,5 °C 61 % 1012,0 hPa 0,0 mm 13,7 km/h (3 Bft) W-NW 286 ° 0 min 0,000 mm 7,5 UV-I 274 W/m² 9,9 °C 17,5 °C 22,5 km/h (4 Bft)
13.05.2017 12:07 17,6 °C 17,6 °C 61 % 1012,1 hPa 0,0 mm 11,8 km/h (2 Bft) W-NW 292 ° 0 min 0,000 mm 6,3 UV-I 274 W/m² 10,0 °C 17,6 °C 19,3 km/h (3 Bft)
13.05.2017 12:08 17,6 °C 17,6 °C 62 % 1012,1 hPa 0,0 mm 12,9 km/h (3 Bft) W-NW 292 ° 0 min 0,000 mm 5,3 UV-I 274 W/m² 10,2 °C 17,6 °C 19,3 km/h (3 Bft)
13.05.2017 12:09 17,4 °C 17,6 °C 60 % 1012,1 hPa 0,0 mm 9,4 km/h (2 Bft) W 281 ° 0 min 0,000 mm 4,0 UV-I 274 W/m² 9,6 °C 17,4 °C 14,5 km/h (3 Bft)
13.05.2017 12:10 17,3 °C 17,4 °C 62 % 1012,1 hPa 0,0 mm 8,0 km/h (2 Bft) W-NW 299 ° 0 min 0,000 mm 6,2 UV-I 274 W/m² 9,9 °C 17,3 °C 16,1 km/h (3 Bft)
13.05.2017 12:11 17,2 °C 17,3 °C 62 % 1012,1 hPa 0,0 mm 12,7 km/h (3 Bft) W-NW 288 ° 0 min 0,000 mm 6,2 UV-I 274 W/m² 9,9 °C 17,2 °C 20,9 km/h (4 Bft)
13.05.2017 12:12 17,1 °C 17,2 °C 61 % 1012,1 hPa 0,0 mm 11,5 km/h (2 Bft) NW 306 ° 1 min 0,000 mm 3,7 UV-I 339 W/m² 9,5 °C 17,1 °C 20,9 km/h (4 Bft)
13.05.2017 12:13 16,9 °C 17,1 °C 61 % 1012,1 hPa 0,0 mm 14,3 km/h (3 Bft) W-NW 290 ° 1 min 0,000 mm 4,0 UV-I 422 W/m² 9,3 °C 16,9 °C 19,3 km/h (3 Bft)
13.05.2017 12:14 16,8 °C 16,9 °C 61 % 1012,1 hPa 0,0 mm 9,4 km/h (2 Bft) W 273 ° 1 min 0,000 mm 4,5 UV-I 503 W/m² 9,2 °C 16,8 °C 12,9 km/h (3 Bft)
13.05.2017 12:15 16,7 °C 16,8 °C 62 % 1012,1 hPa 0,0 mm 11,3 km/h (2 Bft) W 263 ° 1 min 0,000 mm 5,7 UV-I 534 W/m² 9,4 °C 16,7 °C 16,1 km/h (3 Bft)
13.05.2017 12:16 16,8 °C 16,8 °C 67 % 1012,2 hPa 0,0 mm 9,3 km/h (2 Bft) W 271 ° 1 min 0,000 mm 5,7 UV-I 513 W/m² 10,6 °C 16,8 °C 14,5 km/h (3 Bft)
13.05.2017 12:17 16,8 °C 16,8 °C 60 % 1012,1 hPa 0,0 mm 12,9 km/h (3 Bft) W-SW 247 ° 1 min 0,000 mm 5,1 UV-I 513 W/m² 9,0 °C 16,8 °C 16,1 km/h (3 Bft)
13.05.2017 12:18 16,8 °C 16,8 °C 61 % 1012,1 hPa 0,0 mm 5,1 km/h (1 Bft) W 262 ° 1 min 0,000 mm 7,1 UV-I 513 W/m² 9,2 °C 16,8 °C 9,7 km/h (2 Bft)
13.05.2017 12:19 16,9 °C 16,9 °C 62 % 1012,1 hPa 0,0 mm 7,5 km/h (2 Bft) W-NW 291 ° 1 min 0,000 mm 7,3 UV-I 1037 W/m² 9,6 °C 16,9 °C 11,3 km/h (2 Bft)
13.05.2017 12:20 16,9 °C 16,9 °C 63 % 1012,1 hPa 0,0 mm 6,0 km/h (2 Bft) W-NW 295 ° 1 min 0,000 mm 7,5 UV-I 1037 W/m² 9,8 °C 16,9 °C 8,0 km/h (2 Bft)
13.05.2017 12:21 17,1 °C 17,1 °C 62 % 1012,1 hPa 0,0 mm 6,7 km/h (2 Bft) N-NW 333 ° 1 min 0,000 mm 7,5 UV-I 1013 W/m² 9,8 °C 17,1 °C 11,3 km/h (2 Bft)
13.05.2017 12:22 17,2 °C 17,2 °C 64 % 1012,0 hPa 0,0 mm 7,0 km/h (2 Bft) NW 309 ° 1 min 0,000 mm 7,0 UV-I 1025 W/m² 10,3 °C 17,2 °C 9,7 km/h (2 Bft)
13.05.2017 12:23 17,3 °C 17,3 °C 62 % 1012,0 hPa 0,0 mm 6,8 km/h (2 Bft) NW 305 ° 1 min 0,000 mm 6,5 UV-I 972 W/m² 9,9 °C 17,3 °C 8,0 km/h (2 Bft)
13.05.2017 12:24 17,6 °C 17,6 °C 62 % 1012,0 hPa 0,0 mm 5,6 km/h (1 Bft) N-NW 329 ° 1 min 0,000 mm 7,3 UV-I 998 W/m² 10,2 °C 17,6 °C 6,4 km/h (2 Bft)
13.05.2017 12:25 17,8 °C 17,8 °C 62 % 1012,1 hPa 0,0 mm 3,0 km/h (1 Bft) N 355 ° 1 min 0,000 mm 7,4 UV-I 1021 W/m² 10,4 °C 17,8 °C 4,8 km/h (1 Bft)
13.05.2017 12:26 17,8 °C 17,8 °C 61 % 1012,0 hPa 0,0 mm 5,3 km/h (1 Bft) N 355 ° 1 min 0,000 mm 7,5 UV-I 1021 W/m² 10,2 °C 17,8 °C 14,5 km/h (3 Bft)
13.05.2017 12:27 17,9 °C 17,9 °C 62 % 1012,0 hPa 0,0 mm 12,1 km/h (2 Bft) W-NW 302 ° 1 min 0,000 mm 7,7 UV-I 1049 W/m² 10,5 °C 17,9 °C 16,1 km/h (3 Bft)
13.05.2017 12:28 17,8 °C 17,9 °C 58 % 1012,0 hPa 0,0 mm 8,7 km/h (2 Bft) NW 313 ° 1 min 0,000 mm 7,7 UV-I 1079 W/m² 9,4 °C 17,8 °C 14,5 km/h (3 Bft)
13.05.2017 12:29 17,9 °C 17,9 °C 58 % 1012,0 hPa 0,0 mm 10,3 km/h (2 Bft) W-SW 253 ° 1 min 0,000 mm 5,8 UV-I 1107 W/m² 9,5 °C 17,9 °C 12,9 km/h (3 Bft)
13.05.2017 12:30 17,9 °C 17,9 °C 58 % 1012,0 hPa 0,0 mm 7,0 km/h (2 Bft) NW 325 ° 1 min 0,000 mm 7,2 UV-I 1107 W/m² 9,5 °C 17,9 °C 14,5 km/h (3 Bft)
13.05.2017 12:31 17,9 °C 17,9 °C 59 % 1012,0 hPa 0,0 mm 6,9 km/h (2 Bft) W 279 ° 1 min 0,000 mm 8,0 UV-I 1107 W/m² 9,8 °C 17,9 °C 9,7 km/h (2 Bft)
13.05.2017 12:32 18,0 °C 18,0 °C 56 % 1012,0 hPa 0,0 mm 9,6 km/h (2 Bft) W-NW 292 ° 1 min 0,000 mm 5,0 UV-I 1107 W/m² 9,1 °C 18,0 °C 12,9 km/h (3 Bft)
13.05.2017 12:33 18,2 °C 18,2 °C 58 % 1011,9 hPa 0,0 mm 9,9 km/h (2 Bft) N-NW 332 ° 1 min 0,000 mm 8,3 UV-I 1107 W/m² 9,8 °C 18,2 °C 14,5 km/h (3 Bft)
13.05.2017 12:34 18,4 °C 18,4 °C 57 % 1012,0 hPa 0,0 mm 11,7 km/h (2 Bft) W-NW 286 ° 1 min 0,000 mm 8,3 UV-I 1178 W/m² 9,7 °C 18,4 °C 19,3 km/h (3 Bft)
13.05.2017 12:35 18,5 °C 18,5 °C 59 % 1012,0 hPa 0,0 mm 12,9 km/h (3 Bft) W-SW 255 ° 1 min 0,000 mm 8,4 UV-I 1093 W/m² 10,3 °C 18,5 °C 19,3 km/h (3 Bft)
13.05.2017 12:36 18,7 °C 18,7 °C 58 % 1012,0 hPa 0,0 mm 7,8 km/h (2 Bft) W-NW 296 ° 1 min 0,000 mm 8,5 UV-I 1093 W/m² 10,3 °C 18,7 °C 14,5 km/h (3 Bft)
13.05.2017 12:37 18,8 °C 18,8 °C 53 % 1012,0 hPa 0,0 mm 3,9 km/h (1 Bft) W-SW 258 ° 1 min 0,000 mm 8,6 UV-I 1137 W/m² 9,0 °C 18,8 °C 9,7 km/h (2 Bft)
13.05.2017 12:38 18,8 °C 18,8 °C 54 % 1011,9 hPa 0,0 mm 4,2 km/h (1 Bft) W 272 ° 1 min 0,000 mm 8,9 UV-I 1292 W/m² 9,3 °C 18,8 °C 11,3 km/h (2 Bft)
13.05.2017 12:39 18,9 °C 18,9 °C 58 % 1011,9 hPa 0,0 mm 9,4 km/h (2 Bft) S-SW 197 ° 1 min 0,000 mm 9,0 UV-I 1318 W/m² 10,5 °C 18,9 °C 12,9 km/h (3 Bft)
13.05.2017 12:40 18,9 °C 19,0 °C 53 % 1011,9 hPa 0,0 mm 9,0 km/h (2 Bft) S-SW 196 ° 1 min 0,000 mm 9,1 UV-I 1352 W/m² 9,1 °C 18,9 °C 16,1 km/h (3 Bft)
13.05.2017 12:41 18,7 °C 18,9 °C 53 % 1011,9 hPa 0,0 mm 10,0 km/h (2 Bft) S-SW 209 ° 1 min 0,000 mm 9,0 UV-I 1368 W/m² 8,9 °C 18,7 °C 12,9 km/h (3 Bft)
13.05.2017 12:42 18,6 °C 18,7 °C 58 % 1012,0 hPa 0,0 mm 6,6 km/h (2 Bft) W 277 ° 1 min 0,000 mm 5,6 UV-I 1368 W/m² 10,2 °C 18,6 °C 9,7 km/h (2 Bft)
13.05.2017 12:43 18,6 °C 18,6 °C 59 % 1011,9 hPa 0,0 mm 4,2 km/h (1 Bft) W 279 ° 1 min 0,000 mm 6,6 UV-I 1368 W/m² 10,4 °C 18,6 °C 11,3 km/h (2 Bft)
13.05.2017 12:44 18,6 °C 18,6 °C 59 % 1012,0 hPa 0,0 mm 8,2 km/h (2 Bft) NW 313 ° 1 min 0,000 mm 6,8 UV-I 1368 W/m² 10,4 °C 18,6 °C 16,1 km/h (3 Bft)
13.05.2017 12:45 18,6 °C 18,6 °C 57 % 1011,9 hPa 0,0 mm 11,7 km/h (2 Bft) NW 308 ° 1 min 0,000 mm 7,1 UV-I 1368 W/m² 9,9 °C 18,6 °C 17,7 km/h (3 Bft)
13.05.2017 12:46 18,6 °C 18,6 °C 61 % 1011,9 hPa 0,0 mm 6,8 km/h (2 Bft) NW 321 ° 1 min 0,000 mm 5,4 UV-I 1368 W/m² 10,9 °C 18,6 °C 12,9 km/h (3 Bft)
13.05.2017 12:47 18,6 °C 18,6 °C 56 % 1011,9 hPa 0,0 mm 7,4 km/h (2 Bft) NW 320 ° 1 min 0,000 mm 5,6 UV-I 606 W/m² 9,6 °C 18,6 °C 11,3 km/h (2 Bft)
13.05.2017 12:48 18,4 °C 18,6 °C 57 % 1011,9 hPa 0,0 mm 7,2 km/h (2 Bft) W 277 ° 1 min 0,000 mm 5,9 UV-I 670 W/m² 9,7 °C 18,4 °C 11,3 km/h (2 Bft)
13.05.2017 12:49 18,3 °C 18,4 °C 56 % 1011,9 hPa 0,0 mm 9,7 km/h (2 Bft) W-NW 292 ° 1 min 0,000 mm 8,6 UV-I 1025 W/m² 9,4 °C 18,3 °C 12,9 km/h (3 Bft)
13.05.2017 12:50 18,3 °C 18,3 °C 59 % 1012,0 hPa 0,0 mm 8,2 km/h (2 Bft) W-NW 298 ° 1 min 0,000 mm 8,7 UV-I 1025 W/m² 10,1 °C 18,3 °C 12,9 km/h (3 Bft)
13.05.2017 12:51 18,4 °C 18,4 °C 56 % 1011,9 hPa 0,0 mm 4,8 km/h (1 Bft) W-SW 251 ° 1 min 0,000 mm 8,3 UV-I 1025 W/m² 9,5 °C 18,4 °C 9,7 km/h (2 Bft)
13.05.2017 12:52 18,7 °C 18,7 °C 60 % 1011,9 hPa 0,0 mm 9,9 km/h (2 Bft) W-NW 284 ° 1 min 0,000 mm 8,4 UV-I 1025 W/m² 10,8 °C 18,7 °C 17,7 km/h (3 Bft)
13.05.2017 12:53 18,9 °C 18,9 °C 58 % 1011,9 hPa 0,0 mm 13,3 km/h (3 Bft) W-NW 283 ° 1 min 0,000 mm 8,5 UV-I 1248 W/m² 10,5 °C 18,9 °C 17,7 km/h (3 Bft)
13.05.2017 12:54 19,1 °C 19,1 °C 57 % 1011,9 hPa 0,0 mm 13,7 km/h (3 Bft) W 275 ° 1 min 0,000 mm 8,2 UV-I 1213 W/m² 10,4 °C 19,1 °C 19,3 km/h (3 Bft)
13.05.2017 12:55 19,2 °C 19,2 °C 57 % 1012,0 hPa 0,0 mm 11,7 km/h (2 Bft) NW 317 ° 1 min 0,000 mm 8,5 UV-I 1215 W/m² 10,5 °C 19,2 °C 17,7 km/h (3 Bft)
13.05.2017 12:56 19,1 °C 19,2 °C 56 % 1011,9 hPa 0,0 mm 5,9 km/h (2 Bft) W-NW 294 ° 1 min 0,000 mm 8,6 UV-I 1229 W/m² 10,1 °C 19,1 °C 9,7 km/h (2 Bft)
13.05.2017 12:57 19,1 °C 19,1 °C 55 % 1011,9 hPa 0,0 mm 12,7 km/h (3 Bft) W-NW 295 ° 1 min 0,000 mm 8,7 UV-I 1232 W/m² 9,8 °C 19,1 °C 17,7 km/h (3 Bft)
13.05.2017 12:58 19,0 °C 19,1 °C 58 % 1011,9 hPa 0,0 mm 13,9 km/h (3 Bft) W 271 ° 1 min 0,000 mm 8,8 UV-I 1260 W/m² 10,5 °C 19,0 °C 20,9 km/h (4 Bft)
13.05.2017 12:59 18,8 °C 19,0 °C 53 % 1011,9 hPa 0,0 mm 11,8 km/h (2 Bft) W-NW 285 ° 1 min 0,000 mm 6,8 UV-I 1260 W/m² 9,0 °C 18,8 °C 14,5 km/h (3 Bft)
13.05.2017 13:00 18,8 °C 18,8 °C 54 % 1011,9 hPa 0,0 mm 12,2 km/h (2 Bft) W 280 ° 1 min 0,000 mm 6,7 UV-I 1260 W/m² 9,3 °C 18,8 °C 17,7 km/h (3 Bft)
13.05.2017 13:01 18,7 °C 18,8 °C 57 % 1011,9 hPa 0,0 mm 11,8 km/h (2 Bft) N-NW 342 ° 1 min 0,559 mm 6,0 UV-I 1260 W/m² 10,0 °C 18,7 °C 16,1 km/h (3 Bft)
13.05.2017 13:02 18,6 °C 18,7 °C 55 % 1011,9 hPa 0,0 mm 10,9 km/h (2 Bft) W-NW 290 ° 1 min 0,000 mm 6,7 UV-I 1260 W/m² 9,4 °C 18,6 °C 16,1 km/h (3 Bft)
13.05.2017 13:03 18,4 °C 18,6 °C 56 % 1011,9 hPa 0,0 mm 7,2 km/h (2 Bft) W-SW 258 ° 1 min 0,000 mm 6,6 UV-I 722 W/m² 9,5 °C 18,4 °C 11,3 km/h (2 Bft)
13.05.2017 13:04 18,3 °C 18,4 °C 56 % 1011,9 hPa 0,0 mm 12,2 km/h (2 Bft) S-SW 207 ° 1 min 0,000 mm 6,7 UV-I 722 W/m² 9,4 °C 18,3 °C 16,1 km/h (3 Bft)
13.05.2017 13:05 18,3 °C 18,3 °C 60 % 1011,9 hPa 0,0 mm 5,8 km/h (2 Bft) W-NW 296 ° 1 min 0,000 mm 8,5 UV-I 722 W/m² 10,4 °C 18,3 °C 11,3 km/h (2 Bft)
13.05.2017 13:06 18,4 °C 18,4 °C 56 % 1011,9 hPa 0,0 mm 7,8 km/h (2 Bft) NW 317 ° 1 min 0,000 mm 7,7 UV-I 1164 W/m² 9,5 °C 18,4 °C 12,9 km/h (3 Bft)
13.05.2017 13:07 18,4 °C 18,4 °C 57 % 1011,8 hPa 0,0 mm 7,7 km/h (2 Bft) S-SW 211 ° 1 min 0,000 mm 5,7 UV-I 875 W/m² 9,7 °C 18,4 °C 14,5 km/h (3 Bft)
13.05.2017 13:08 18,4 °C 18,5 °C 63 % 1011,8 hPa 0,0 mm 10,8 km/h (2 Bft) W-NW 296 ° 1 min 0,000 mm 5,8 UV-I 835 W/m² 11,2 °C 18,4 °C 16,1 km/h (3 Bft)
13.05.2017 13:09 18,5 °C 18,5 °C 58 % 1011,9 hPa 0,0 mm 9,5 km/h (2 Bft) W-NW 294 ° 1 min 0,000 mm 8,6 UV-I 835 W/m² 10,1 °C 18,5 °C 14,5 km/h (3 Bft)
13.05.2017 13:10 18,6 °C 18,6 °C 59 % 1011,9 hPa 0,0 mm 8,9 km/h (2 Bft) W-NW 287 ° 1 min 0,000 mm 8,1 UV-I 835 W/m² 10,4 °C 18,6 °C 16,1 km/h (3 Bft)
13.05.2017 13:11 18,6 °C 18,6 °C 56 % 1011,9 hPa 0,0 mm 8,6 km/h (2 Bft) W-NW 296 ° 1 min 0,000 mm 5,8 UV-I 835 W/m² 9,6 °C 18,6 °C 12,9 km/h (3 Bft)
13.05.2017 13:12 18,4 °C 18,6 °C 57 % 1011,9 hPa 0,0 mm 11,1 km/h (2 Bft) W-NW 290 ° 1 min 0,000 mm 4,9 UV-I 413 W/m² 9,7 °C 18,4 °C 16,1 km/h (3 Bft)
13.05.2017 13:13 18,3 °C 18,4 °C 60 % 1011,9 hPa 0,0 mm 15,0 km/h (3 Bft) W-NW 300 ° 1 min 0,000 mm 3,8 UV-I 404 W/m² 10,4 °C 18,3 °C 22,5 km/h (4 Bft)
13.05.2017 13:14 18,1 °C 18,3 °C 56 % 1011,9 hPa 0,0 mm 11,8 km/h (2 Bft) W 277 ° 1 min 0,000 mm 3,8 UV-I 397 W/m² 9,2 °C 18,1 °C 16,1 km/h (3 Bft)
13.05.2017 13:15 17,9 °C 18,1 °C 59 % 1011,9 hPa 0,0 mm 12,8 km/h (3 Bft) W-SW 252 ° 1 min 0,000 mm 3,8 UV-I 413 W/m² 9,8 °C 17,9 °C 17,7 km/h (3 Bft)
13.05.2017 13:16 17,8 °C 17,9 °C 59 % 1011,9 hPa 0,0 mm 9,3 km/h (2 Bft) W-NW 285 ° 1 min 0,000 mm 3,9 UV-I 413 W/m² 9,7 °C 17,8 °C 16,1 km/h (3 Bft)
13.05.2017 13:17 17,7 °C 17,8 °C 63 % 1012,0 hPa 0,0 mm 7,1 km/h (2 Bft) W-SW 253 ° 1 min 0,000 mm 3,8 UV-I 411 W/m² 10,6 °C 17,7 °C 19,3 km/h (3 Bft)
13.05.2017 13:18 17,6 °C 17,7 °C 60 % 1011,9 hPa 0,0 mm 17,2 km/h (3 Bft) W 259 ° 1 min 0,000 mm 3,8 UV-I 415 W/m² 9,7 °C 17,6 °C 24,1 km/h (4 Bft)
13.05.2017 13:19 17,6 °C 17,6 °C 61 % 1012,0 hPa 0,0 mm 9,7 km/h (2 Bft) W-NW 295 ° 1 min 0,000 mm 5,8 UV-I 680 W/m² 10,0 °C 17,6 °C 16,1 km/h (3 Bft)
13.05.2017 13:20 17,5 °C 17,6 °C 61 % 1012,0 hPa 0,0 mm 6,4 km/h (2 Bft) NW 317 ° 1 min 0,000 mm 4,7 UV-I 680 W/m² 9,9 °C 17,5 °C 8,0 km/h (2 Bft)
13.05.2017 13:21 17,6 °C 17,6 °C 64 % 1012,0 hPa 0,0 mm 7,9 km/h (2 Bft) W-NW 294 ° 1 min 0,000 mm 6,9 UV-I 647 W/m² 10,7 °C 17,6 °C 12,9 km/h (3 Bft)
13.05.2017 13:22 17,8 °C 17,8 °C 67 % 1012,0 hPa 0,0 mm 12,7 km/h (3 Bft) W-NW 297 ° 1 min 0,000 mm 8,3 UV-I 647 W/m² 11,6 °C 17,8 °C 17,7 km/h (3 Bft)
13.05.2017 13:23 18,1 °C 18,1 °C 60 % 1012,0 hPa 0,0 mm 12,0 km/h (2 Bft) NW 309 ° 1 min 0,000 mm 6,5 UV-I 647 W/m² 10,2 °C 18,1 °C 16,1 km/h (3 Bft)
13.05.2017 13:24 18,1 °C 18,1 °C 59 % 1012,0 hPa 0,0 mm 12,5 km/h (3 Bft) W-NW 296 ° 1 min 0,000 mm 4,1 UV-I 647 W/m² 10,0 °C 18,1 °C 20,9 km/h (4 Bft)
13.05.2017 13:25 18,0 °C 18,1 °C 59 % 1012,0 hPa 0,0 mm 12,1 km/h (2 Bft) W-NW 284 ° 1 min 0,000 mm 4,0 UV-I 441 W/m² 9,9 °C 18,0 °C 19,3 km/h (3 Bft)
13.05.2017 13:26 17,8 °C 18,0 °C 58 % 1012,0 hPa 0,0 mm 10,0 km/h (2 Bft) W-NW 283 ° 1 min 0,000 mm 4,0 UV-I 434 W/m² 9,4 °C 17,8 °C 16,1 km/h (3 Bft)
13.05.2017 13:27 17,7 °C 17,8 °C 60 % 1012,0 hPa 0,0 mm 14,1 km/h (3 Bft) W-NW 300 ° 1 min 0,000 mm 3,8 UV-I 429 W/m² 9,8 °C 17,7 °C 24,1 km/h (4 Bft)
13.05.2017 13:28 17,6 °C 17,7 °C 59 % 1012,0 hPa 0,0 mm 11,1 km/h (2 Bft) W-NW 294 ° 1 min 0,000 mm 3,8 UV-I 413 W/m² 9,5 °C 17,6 °C 17,7 km/h (3 Bft)
13.05.2017 13:29 17,5 °C 17,6 °C 61 % 1012,0 hPa 0,0 mm 13,4 km/h (3 Bft) W-NW 302 ° 1 min 0,000 mm 3,7 UV-I 413 W/m² 9,9 °C 17,5 °C 19,3 km/h (3 Bft)
13.05.2017 13:30 17,3 °C 17,5 °C 61 % 1012,0 hPa 0,0 mm 5,8 km/h (2 Bft) NW 321 ° 1 min 0,000 mm 3,6 UV-I 403 W/m² 9,7 °C 17,3 °C 8,0 km/h (2 Bft)
13.05.2017 13:31 17,3 °C 17,3 °C 61 % 1012,0 hPa 0,0 mm 8,9 km/h (2 Bft) N 360 ° 1 min 0,000 mm 3,5 UV-I 385 W/m² 9,7 °C 17,3 °C 12,9 km/h (3 Bft)
13.05.2017 13:32 17,3 °C 17,3 °C 64 % 1012,0 hPa 0,0 mm 12,7 km/h (3 Bft) NW 322 ° 1 min 0,000 mm 3,5 UV-I 383 W/m² 10,4 °C 17,3 °C 22,5 km/h (4 Bft)
13.05.2017 13:33 17,2 °C 17,3 °C 62 % 1012,0 hPa 0,0 mm 6,4 km/h (2 Bft) W 266 ° 1 min 0,000 mm 3,4 UV-I 318 W/m² 9,9 °C 17,2 °C 11,3 km/h (2 Bft)
13.05.2017 13:34 17,2 °C 17,2 °C 63 % 1012,0 hPa 0,0 mm 9,1 km/h (2 Bft) W-NW 298 ° 1 min 0,000 mm 3,4 UV-I 383 W/m² 10,1 °C 17,2 °C 17,7 km/h (3 Bft)
13.05.2017 13:35 17,2 °C 17,3 °C 64 % 1012,0 hPa 0,0 mm 9,9 km/h (2 Bft) NW 309 ° 1 min 0,000 mm 3,4 UV-I 392 W/m² 10,3 °C 17,2 °C 12,9 km/h (3 Bft)
13.05.2017 13:36 17,2 °C 17,2 °C 62 % 1012,0 hPa 0,0 mm 14,6 km/h (3 Bft) W-NW 297 ° 1 min 0,000 mm 3,5 UV-I 401 W/m² 9,9 °C 17,2 °C 20,9 km/h (4 Bft)
13.05.2017 13:37 17,2 °C 17,2 °C 63 % 1012,0 hPa 0,0 mm 14,0 km/h (3 Bft) NW 321 ° 1 min 0,000 mm 3,1 UV-I 410 W/m² 10,1 °C 17,2 °C 19,3 km/h (3 Bft)
13.05.2017 13:38 17,3 °C 17,3 °C 63 % 1012,0 hPa 0,0 mm 14,6 km/h (3 Bft) W 281 ° 1 min 0,000 mm 3,7 UV-I 434 W/m² 10,2 °C 17,3 °C 19,3 km/h (3 Bft)
13.05.2017 13:39 17,2 °C 17,3 °C 61 % 1012,1 hPa 0,0 mm 15,5 km/h (3 Bft) W-NW 300 ° 1 min 0,000 mm 5,2 UV-I 434 W/m² 9,6 °C 17,2 °C 20,9 km/h (4 Bft)
13.05.2017 13:40 17,2 °C 17,2 °C 61 % 1012,1 hPa 0,0 mm 14,6 km/h (3 Bft) W-NW 287 ° 1 min 0,000 mm 7,7 UV-I 626 W/m² 9,6 °C 17,2 °C 22,5 km/h (4 Bft)
13.05.2017 13:41 17,3 °C 17,3 °C 64 % 1012,1 hPa 0,0 mm 13,2 km/h (3 Bft) W 272 ° 1 min 0,000 mm 6,9 UV-I 608 W/m² 10,4 °C 17,3 °C 19,3 km/h (3 Bft)
13.05.2017 13:42 17,3 °C 17,3 °C 63 % 1012,1 hPa 0,0 mm 11,3 km/h (2 Bft) W 265 ° 1 min 0,000 mm 4,2 UV-I 503 W/m² 10,2 °C 17,3 °C 17,7 km/h (3 Bft)
13.05.2017 13:43 17,3 °C 17,3 °C 61 % 1012,1 hPa 0,0 mm 11,1 km/h (2 Bft) W-NW 290 ° 1 min 0,000 mm 4,4 UV-I 536 W/m² 9,7 °C 17,3 °C 16,1 km/h (3 Bft)
13.05.2017 13:44 17,3 °C 17,3 °C 61 % 1012,1 hPa 0,0 mm 7,1 km/h (2 Bft) W-NW 289 ° 1 min 0,000 mm 4,9 UV-I 622 W/m² 9,7 °C 17,3 °C 12,9 km/h (3 Bft)
13.05.2017 13:45 17,3 °C 17,3 °C 61 % 1012,1 hPa 0,0 mm 7,2 km/h (2 Bft) W-NW 284 ° 1 min 0,000 mm 5,2 UV-I 622 W/m² 9,7 °C 17,3 °C 11,3 km/h (2 Bft)
13.05.2017 13:46 17,3 °C 17,3 °C 64 % 1012,1 hPa 0,0 mm 12,2 km/h (2 Bft) W-NW 298 ° 1 min 0,000 mm 7,3 UV-I 694 W/m² 10,4 °C 17,3 °C 20,9 km/h (4 Bft)
13.05.2017 13:47 17,6 °C 17,6 °C 62 % 1012,1 hPa 0,0 mm 8,2 km/h (2 Bft) W-SW 249 ° 1 min 0,000 mm 8,1 UV-I 694 W/m² 10,2 °C 17,6 °C 12,9 km/h (3 Bft)
13.05.2017 13:48 17,8 °C 17,8 °C 63 % 1012,1 hPa 0,0 mm 5,0 km/h (1 Bft) W-SW 244 ° 1 min 0,000 mm 5,5 UV-I 694 W/m² 10,7 °C 17,8 °C 11,3 km/h (2 Bft)
13.05.2017 13:49 17,9 °C 17,9 °C 63 % 1012,1 hPa 0,0 mm 11,4 km/h (2 Bft) W-NW 285 ° 1 min 0,000 mm 5,0 UV-I 694 W/m² 10,8 °C 17,9 °C 16,1 km/h (3 Bft)
13.05.2017 13:50 17,8 °C 17,9 °C 61 % 1012,1 hPa 0,0 mm 14,1 km/h (3 Bft) W-NW 298 ° 1 min 0,000 mm 4,9 UV-I 694 W/m² 10,2 °C 17,8 °C 17,7 km/h (3 Bft)
13.05.2017 13:51 17,8 °C 17,8 °C 62 % 1012,1 hPa 0,0 mm 10,4 km/h (2 Bft) W-NW 289 ° 1 min 0,000 mm 4,9 UV-I 561 W/m² 10,4 °C 17,8 °C 16,1 km/h (3 Bft)
13.05.2017 13:52 17,8 °C 17,8 °C 64 % 1012,1 hPa 0,0 mm 8,6 km/h (2 Bft) N-NO 12 ° 1 min 0,000 mm 4,7 UV-I 557 W/m² 10,9 °C 17,8 °C 17,7 km/h (3 Bft)
13.05.2017 13:53 17,8 °C 17,8 °C 64 % 1012,1 hPa 0,0 mm 6,7 km/h (2 Bft) NW 312 ° 1 min 0,000 mm 4,6 UV-I 582 W/m² 10,9 °C 17,8 °C 11,3 km/h (2 Bft)
13.05.2017 13:54 17,8 °C 17,9 °C 62 % 1012,1 hPa 0,0 mm 5,0 km/h (1 Bft) N-NW 331 ° 1 min 0,000 mm 8,1 UV-I 582 W/m² 10,4 °C 17,8 °C 6,4 km/h (2 Bft)
13.05.2017 13:55 17,9 °C 17,9 °C 62 % 1012,1 hPa 0,0 mm 7,2 km/h (2 Bft) W-SW 253 ° 1 min 0,000 mm 8,1 UV-I 1201 W/m² 10,5 °C 17,9 °C 14,5 km/h (3 Bft)
13.05.2017 13:56 18,1 °C 18,1 °C 67 % 1012,1 hPa 0,0 mm 14,2 km/h (3 Bft) W-SW 242 ° 1 min 0,000 mm 8,0 UV-I 1144 W/m² 11,9 °C 18,1 °C 17,7 km/h (3 Bft)
13.05.2017 13:57 18,2 °C 18,2 °C 61 % 1012,1 hPa 0,0 mm 8,6 km/h (2 Bft) W-SW 256 ° 1 min 0,000 mm 7,8 UV-I 1116 W/m² 10,6 °C 18,2 °C 11,3 km/h (2 Bft)
13.05.2017 13:58 18,2 °C 18,2 °C 60 % 1012,0 hPa 0,0 mm 6,1 km/h (2 Bft) W-NW 284 ° 1 min 0,000 mm 7,8 UV-I 1106 W/m² 10,3 °C 18,2 °C 11,3 km/h (2 Bft)
13.05.2017 13:59 18,2 °C 18,3 °C 57 % 1012,0 hPa 0,0 mm 6,8 km/h (2 Bft) W 267 ° 1 min 0,000 mm 7,8 UV-I 1051 W/m² 9,5 °C 18,2 °C 12,9 km/h (3 Bft)
13.05.2017 14:00 18,3 °C 18,3 °C 62 % 1012,1 hPa 0,0 mm 9,9 km/h (2 Bft) W 259 ° 1 min 0,407 mm 5,4 UV-I 1051 W/m² 10,9 °C 18,3 °C 19,3 km/h (3 Bft)
13.05.2017 14:01 18,4 °C 18,4 °C 62 % 1012,0 hPa 0,0 mm 16,5 km/h (3 Bft) W-NW 291 ° 1 min 0,000 mm 6,2 UV-I 1051 W/m² 11,0 °C 18,4 °C 20,9 km/h (4 Bft)
13.05.2017 14:02 18,4 °C 18,4 °C 58 % 1012,0 hPa 0,0 mm 9,3 km/h (2 Bft) W 276 ° 1 min 0,000 mm 7,7 UV-I 1051 W/m² 10,0 °C 18,4 °C 14,5 km/h (3 Bft)
13.05.2017 14:03 18,4 °C 18,4 °C 60 % 1012,0 hPa 0,0 mm 14,5 km/h (3 Bft) NW 304 ° 1 min 0,000 mm 7,6 UV-I 1078 W/m² 10,5 °C 18,4 °C 19,3 km/h (3 Bft)
13.05.2017 14:04 18,5 °C 18,5 °C 59 % 1012,1 hPa 0,0 mm 12,8 km/h (3 Bft) W-NW 302 ° 1 min 0,000 mm 7,6 UV-I 1072 W/m² 10,3 °C 18,5 °C 17,7 km/h (3 Bft)
13.05.2017 14:05 18,6 °C 18,6 °C 59 % 1012,1 hPa 0,0 mm 12,5 km/h (3 Bft) W 269 ° 1 min 0,000 mm 7,4 UV-I 1079 W/m² 10,4 °C 18,6 °C 19,3 km/h (3 Bft)
13.05.2017 14:06 18,5 °C 18,6 °C 55 % 1012,1 hPa 0,0 mm 12,1 km/h (2 Bft) N-NW 335 ° 1 min 0,000 mm 7,5 UV-I 1079 W/m² 9,3 °C 18,5 °C 16,1 km/h (3 Bft)
13.05.2017 14:07 18,6 °C 18,6 °C 58 % 1012,1 hPa 0,0 mm 14,9 km/h (3 Bft) NW 315 ° 1 min 0,000 mm 7,6 UV-I 1079 W/m² 10,2 °C 18,6 °C 22,5 km/h (4 Bft)
13.05.2017 14:08 18,6 °C 18,6 °C 58 % 1012,0 hPa 0,0 mm 10,7 km/h (2 Bft) W-NW 295 ° 1 min 0,000 mm 7,6 UV-I 1079 W/m² 10,2 °C 18,6 °C 14,5 km/h (3 Bft)
13.05.2017 14:09 18,5 °C 18,6 °C 55 % 1012,1 hPa 0,0 mm 14,3 km/h (3 Bft) W 275 ° 1 min 0,000 mm 7,7 UV-I 1013 W/m² 9,3 °C 18,5 °C 19,3 km/h (3 Bft)
13.05.2017 14:10 18,4 °C 18,5 °C 53 % 1012,1 hPa 0,0 mm 15,6 km/h (3 Bft) NW 323 ° 1 min 0,000 mm 7,2 UV-I 1013 W/m² 8,6 °C 18,4 °C 19,3 km/h (3 Bft)
13.05.2017 14:11 18,3 °C 18,4 °C 54 % 1012,0 hPa 0,0 mm 10,1 km/h (2 Bft) W-NW 284 ° 1 min 0,000 mm 6,2 UV-I 1111 W/m² 8,8 °C 18,3 °C 17,7 km/h (3 Bft)
13.05.2017 14:12 18,3 °C 18,3 °C 55 % 1012,0 hPa 0,0 mm 10,0 km/h (2 Bft) W-NW 292 ° 1 min 0,000 mm 6,9 UV-I 1111 W/m² 9,1 °C 18,3 °C 14,5 km/h (3 Bft)
13.05.2017 14:13 18,3 °C 18,3 °C 58 % 1012,0 hPa 0,0 mm 7,6 km/h (2 Bft) W 275 ° 1 min 0,000 mm 7,0 UV-I 1111 W/m² 9,9 °C 18,3 °C 12,9 km/h (3 Bft)
13.05.2017 14:14 18,2 °C 18,3 °C 60 % 1012,0 hPa 0,0 mm 6,8 km/h (2 Bft) W 260 ° 1 min 0,000 mm 4,6 UV-I 1111 W/m² 10,3 °C 18,2 °C 11,3 km/h (2 Bft)
13.05.2017 14:15 18,3 °C 18,3 °C 61 % 1011,9 hPa 0,0 mm 6,8 km/h (2 Bft) W 279 ° 1 min 0,000 mm 7,7 UV-I 1111 W/m² 10,6 °C 18,3 °C 12,9 km/h (3 Bft)
13.05.2017 14:16 18,4 °C 18,4 °C 61 % 1012,0 hPa 0,0 mm 9,4 km/h (2 Bft) W 261 ° 1 min 0,000 mm 7,7 UV-I 383 W/m² 10,7 °C 18,4 °C 14,5 km/h (3 Bft)
13.05.2017 14:17 18,4 °C 18,4 °C 58 % 1012,0 hPa 0,0 mm 15,2 km/h (3 Bft) W 269 ° 1 min 0,000 mm 4,0 UV-I 383 W/m² 10,0 °C 18,4 °C 19,3 km/h (3 Bft)
13.05.2017 14:18 18,3 °C 18,4 °C 56 % 1012,0 hPa 0,0 mm 12,0 km/h (2 Bft) W-NW 294 ° 1 min 0,000 mm 3,3 UV-I 383 W/m² 9,4 °C 18,3 °C 17,7 km/h (3 Bft)
13.05.2017 14:19 18,2 °C 18,3 °C 58 % 1012,0 hPa 0,0 mm 15,4 km/h (3 Bft) W 265 ° 1 min 0,000 mm 3,2 UV-I 383 W/m² 9,8 °C 18,2 °C 25,7 km/h (4 Bft)
13.05.2017 14:20 18,1 °C 18,2 °C 59 % 1012,0 hPa 0,0 mm 11,2 km/h (2 Bft) W 276 ° 1 min 0,000 mm 4,6 UV-I 380 W/m² 10,0 °C 18,1 °C 16,1 km/h (3 Bft)
13.05.2017 14:21 18,1 °C 18,2 °C 57 % 1012,1 hPa 0,0 mm 8,2 km/h (2 Bft) NW 304 ° 1 min 0,000 mm 4,6 UV-I 380 W/m² 9,4 °C 18,1 °C 12,9 km/h (3 Bft)
13.05.2017 14:22 18,1 °C 18,2 °C 58 % 1012,1 hPa 0,0 mm 7,0 km/h (2 Bft) NW 314 ° 1 min 0,000 mm 4,6 UV-I 380 W/m² 9,7 °C 18,1 °C 11,3 km/h (2 Bft)
13.05.2017 14:23 18,2 °C 18,2 °C 58 % 1012,2 hPa 0,0 mm 12,3 km/h (3 Bft) W 265 ° 1 min 0,000 mm 3,6 UV-I 380 W/m² 9,8 °C 18,2 °C 24,1 km/h (4 Bft)
13.05.2017 14:24 18,2 °C 18,2 °C 56 % 1012,1 hPa 0,0 mm 11,6 km/h (2 Bft) W-SW 252 ° 1 min 0,000 mm 3,5 UV-I 343 W/m² 9,3 °C 18,2 °C 16,1 km/h (3 Bft)
13.05.2017 14:25 18,1 °C 18,2 °C 55 % 1012,2 hPa 0,0 mm 10,5 km/h (2 Bft) W-NW 303 ° 1 min 0,000 mm 3,8 UV-I 359 W/m² 8,9 °C 18,1 °C 16,1 km/h (3 Bft)
13.05.2017 14:26 17,9 °C 18,1 °C 56 % 1012,2 hPa 0,0 mm 8,5 km/h (2 Bft) SW 218 ° 1 min 0,000 mm 3,6 UV-I 353 W/m² 9,0 °C 17,9 °C 16,1 km/h (3 Bft)
13.05.2017 14:27 17,8 °C 17,9 °C 58 % 1012,1 hPa 0,0 mm 9,7 km/h (2 Bft) W-SW 250 ° 1 min 0,000 mm 3,6 UV-I 364 W/m² 9,4 °C 17,8 °C 17,7 km/h (3 Bft)
13.05.2017 14:28 17,7 °C 17,8 °C 58 % 1012,1 hPa 0,0 mm 14,2 km/h (3 Bft) W 281 ° 1 min 0,000 mm 3,5 UV-I 325 W/m² 9,3 °C 17,7 °C 19,3 km/h (3 Bft)
13.05.2017 14:29 17,7 °C 17,7 °C 59 % 1012,1 hPa 0,0 mm 10,0 km/h (2 Bft) SW 218 ° 1 min 0,000 mm 3,5 UV-I 334 W/m² 9,6 °C 17,7 °C 16,1 km/h (3 Bft)
13.05.2017 14:30 17,7 °C 17,7 °C 57 % 1012,1 hPa 0,0 mm 7,3 km/h (2 Bft) W-NW 296 ° 1 min 0,000 mm 3,5 UV-I 338 W/m² 9,1 °C 17,7 °C 14,5 km/h (3 Bft)
13.05.2017 14:31 17,6 °C 17,7 °C 56 % 1012,1 hPa 0,0 mm 10,9 km/h (2 Bft) W-NW 296 ° 1 min 0,000 mm 3,5 UV-I 353 W/m² 8,7 °C 17,6 °C 16,1 km/h (3 Bft)
13.05.2017 14:32 17,7 °C 17,7 °C 58 % 1012,1 hPa 0,0 mm 13,0 km/h (3 Bft) NW 320 ° 1 min 0,000 mm 3,6 UV-I 373 W/m² 9,3 °C 17,7 °C 19,3 km/h (3 Bft)
13.05.2017 14:33 17,7 °C 17,7 °C 58 % 1012,2 hPa 0,0 mm 8,9 km/h (2 Bft) W 261 ° 1 min 0,000 mm 3,8 UV-I 396 W/m² 9,3 °C 17,7 °C 14,5 km/h (3 Bft)
13.05.2017 14:34 17,6 °C 17,7 °C 56 % 1012,1 hPa 0,0 mm 9,0 km/h (2 Bft) NW 306 ° 1 min 0,000 mm 4,0 UV-I 443 W/m² 8,7 °C 17,6 °C 14,5 km/h (3 Bft)
13.05.2017 14:35 17,6 °C 17,6 °C 58 % 1012,2 hPa 0,0 mm 8,8 km/h (2 Bft) W-NW 285 ° 1 min 0,000 mm 4,3 UV-I 461 W/m² 9,2 °C 17,6 °C 12,9 km/h (3 Bft)
13.05.2017 14:36 17,7 °C 17,7 °C 60 % 1012,2 hPa 0,0 mm 5,6 km/h (1 Bft) W-NW 298 ° 1 min 0,000 mm 5,6 UV-I 461 W/m² 9,8 °C 17,7 °C 9,7 km/h (2 Bft)
13.05.2017 14:37 17,9 °C 17,9 °C 59 % 1012,1 hPa 0,0 mm 5,4 km/h (1 Bft) W-NW 289 ° 1 min 0,000 mm 5,1 UV-I 461 W/m² 9,8 °C 17,9 °C 6,4 km/h (2 Bft)
13.05.2017 14:38 18,1 °C 18,1 °C 59 % 1012,1 hPa 0,0 mm 9,6 km/h (2 Bft) W 275 ° 1 min 0,000 mm 4,9 UV-I 461 W/m² 10,0 °C 18,1 °C 14,5 km/h (3 Bft)
13.05.2017 14:39 18,1 °C 18,1 °C 59 % 1012,1 hPa 0,0 mm 10,1 km/h (2 Bft) NW 310 ° 1 min 0,000 mm 4,6 UV-I 592 W/m² 10,0 °C 18,1 °C 14,5 km/h (3 Bft)
13.05.2017 14:40 18,2 °C 18,2 °C 55 % 1012,1 hPa 0,0 mm 10,7 km/h (2 Bft) W 274 ° 1 min 0,000 mm 4,6 UV-I 592 W/m² 9,0 °C 18,2 °C 16,1 km/h (3 Bft)
13.05.2017 14:41 18,1 °C 18,2 °C 55 % 1012,1 hPa 0,0 mm 3,9 km/h (1 Bft) W-NW 296 ° 1 min 0,000 mm 5,1 UV-I 605 W/m² 8,9 °C 18,1 °C 6,4 km/h (2 Bft)
13.05.2017 14:42 18,2 °C 18,2 °C 58 % 1012,1 hPa 0,0 mm 5,4 km/h (1 Bft) W-NW 285 ° 1 min 0,000 mm 6,1 UV-I 605 W/m² 9,8 °C 18,2 °C 8,0 km/h (2 Bft)
13.05.2017 14:43 18,2 °C 18,2 °C 57 % 1012,1 hPa 0,0 mm 12,2 km/h (2 Bft) W 269 ° 1 min 0,000 mm 7,5 UV-I 605 W/m² 9,5 °C 18,2 °C 19,3 km/h (3 Bft)
13.05.2017 14:44 18,3 °C 18,3 °C 58 % 1012,0 hPa 0,0 mm 8,4 km/h (2 Bft) W 277 ° 1 min 0,000 mm 7,1 UV-I 605 W/m² 9,9 °C 18,3 °C 17,7 km/h (3 Bft)
13.05.2017 14:45 18,5 °C 18,5 °C 56 % 1012,0 hPa 0,0 mm 12,9 km/h (3 Bft) W-SW 257 ° 1 min 0,000 mm 7,4 UV-I 605 W/m² 9,6 °C 18,5 °C 17,7 km/h (3 Bft)
13.05.2017 14:46 18,6 °C 18,6 °C 57 % 1012,0 hPa 0,0 mm 8,4 km/h (2 Bft) W 274 ° 1 min 0,000 mm 7,2 UV-I 605 W/m² 9,9 °C 18,6 °C 12,9 km/h (3 Bft)
13.05.2017 14:47 18,6 °C 18,6 °C 53 % 1012,0 hPa 0,0 mm 6,3 km/h (2 Bft) W 281 ° 1 min 0,000 mm 3,7 UV-I 399 W/m² 8,8 °C 18,6 °C 11,3 km/h (2 Bft)
13.05.2017 14:48 18,5 °C 18,6 °C 56 % 1012,0 hPa 0,0 mm 10,4 km/h (2 Bft) W-NW 293 ° 1 min 0,000 mm 3,5 UV-I 355 W/m² 9,6 °C 18,5 °C 22,5 km/h (4 Bft)
13.05.2017 14:49 18,4 °C 18,5 °C 54 % 1012,0 hPa 0,0 mm 13,5 km/h (3 Bft) W-NW 289 ° 1 min 0,000 mm 3,9 UV-I 383 W/m² 8,9 °C 18,4 °C 19,3 km/h (3 Bft)
13.05.2017 14:50 18,2 °C 18,4 °C 53 % 1012,0 hPa 0,0 mm 14,2 km/h (3 Bft) NW 304 ° 1 min 0,000 mm 4,0 UV-I 411 W/m² 8,5 °C 18,2 °C 19,3 km/h (3 Bft)
13.05.2017 14:51 18,1 °C 18,2 °C 55 % 1012,0 hPa 0,0 mm 8,7 km/h (2 Bft) W-NW 295 ° 1 min 0,000 mm 4,9 UV-I 411 W/m² 8,9 °C 18,1 °C 16,1 km/h (3 Bft)
13.05.2017 14:52 18,1 °C 18,1 °C 55 % 1012,0 hPa 0,0 mm 8,0 km/h (2 Bft) W-NW 297 ° 1 min 0,000 mm 4,5 UV-I 557 W/m² 8,9 °C 18,1 °C 11,3 km/h (2 Bft)
13.05.2017 14:53 18,2 °C 18,2 °C 59 % 1012,0 hPa 0,0 mm 7,0 km/h (2 Bft) W-NW 293 ° 1 min 0,000 mm 5,4 UV-I 557 W/m² 10,1 °C 18,2 °C 12,9 km/h (3 Bft)
13.05.2017 14:54 18,3 °C 18,3 °C 60 % 1012,0 hPa 0,0 mm 11,9 km/h (2 Bft) W-NW 283 ° 1 min 0,000 mm 5,2 UV-I 557 W/m² 10,4 °C 18,3 °C 16,1 km/h (3 Bft)
13.05.2017 14:55 18,3 °C 18,3 °C 57 % 1012,0 hPa 0,0 mm 5,0 km/h (1 Bft) W-SW 243 ° 1 min 0,000 mm 4,9 UV-I 707 W/m² 9,6 °C 18,3 °C 8,0 km/h (2 Bft)
13.05.2017 14:56 18,4 °C 18,4 °C 54 % 1012,0 hPa 0,0 mm 8,4 km/h (2 Bft) NW 311 ° 1 min 0,000 mm 4,2 UV-I 707 W/m² 8,9 °C 18,4 °C 12,9 km/h (3 Bft)
13.05.2017 14:57 18,4 °C 18,4 °C 54 % 1012,0 hPa 0,0 mm 9,4 km/h (2 Bft) NW 311 ° 1 min 0,000 mm 5,3 UV-I 529 W/m² 8,9 °C 18,4 °C 14,5 km/h (3 Bft)
13.05.2017 14:58 18,4 °C 18,4 °C 54 % 1012,1 hPa 0,0 mm 10,4 km/h (2 Bft) NW 312 ° 1 min 0,000 mm 6,9 UV-I 529 W/m² 8,9 °C 18,4 °C 16,1 km/h (3 Bft)
13.05.2017 14:59 18,5 °C 18,5 °C 54 % 1012,0 hPa 0,0 mm 6,6 km/h (2 Bft) W-NW 294 ° 1 min 0,000 mm 7,0 UV-I 1058 W/m² 9,0 °C 18,5 °C 14,5 km/h (3 Bft)
13.05.2017 15:00 18,6 °C 18,6 °C 52 % 1012,0 hPa 0,0 mm 8,7 km/h (2 Bft) N-NW 336 ° 1 min 0,000 mm 6,8 UV-I 1021 W/m² 8,5 °C 18,6 °C 14,5 km/h (3 Bft)
13.05.2017 15:01 18,7 °C 18,7 °C 53 % 1012,0 hPa 0,0 mm 10,1 km/h (2 Bft) W-NW 295 ° 1 min 0,431 mm 6,7 UV-I 1021 W/m² 8,9 °C 18,7 °C 19,3 km/h (3 Bft)
13.05.2017 15:02 18,8 °C 18,8 °C 55 % 1012,0 hPa 0,0 mm 13,9 km/h (3 Bft) W-NW 296 ° 1 min 0,000 mm 6,6 UV-I 1021 W/m² 9,6 °C 18,8 °C 19,3 km/h (3 Bft)
13.05.2017 15:03 18,9 °C 18,9 °C 52 % 1012,0 hPa 0,0 mm 12,2 km/h (2 Bft) W-NW 298 ° 1 min 0,000 mm 6,5 UV-I 933 W/m² 8,8 °C 18,9 °C 19,3 km/h (3 Bft)
13.05.2017 15:04 18,9 °C 18,9 °C 52 % 1012,0 hPa 0,0 mm 14,8 km/h (3 Bft) N-NW 344 ° 1 min 0,000 mm 6,3 UV-I 921 W/m² 8,8 °C 18,9 °C 20,9 km/h (4 Bft)
13.05.2017 15:05 19,1 °C 19,1 °C 53 % 1012,0 hPa 0,0 mm 9,6 km/h (2 Bft) NW 318 ° 1 min 0,000 mm 5,9 UV-I 879 W/m² 9,3 °C 19,1 °C 14,5 km/h (3 Bft)
13.05.2017 15:06 19,1 °C 19,1 °C 52 % 1011,9 hPa 0,0 mm 9,6 km/h (2 Bft) NW 315 ° 1 min 0,000 mm 6,6 UV-I 893 W/m² 9,0 °C 19,1 °C 12,9 km/h (3 Bft)
13.05.2017 15:07 19,1 °C 19,1 °C 53 % 1011,9 hPa 0,0 mm 8,7 km/h (2 Bft) NW 325 ° 1 min 0,000 mm 5,4 UV-I 976 W/m² 9,3 °C 19,1 °C 12,9 km/h (3 Bft)
13.05.2017 15:08 19,2 °C 19,2 °C 54 % 1011,9 hPa 0,0 mm 9,9 km/h (2 Bft) NW 308 ° 1 min 0,000 mm 6,7 UV-I 1030 W/m² 9,7 °C 19,2 °C 17,7 km/h (3 Bft)
13.05.2017 15:09 19,3 °C 19,3 °C 53 % 1011,9 hPa 0,0 mm 9,9 km/h (2 Bft) W 269 ° 1 min 0,000 mm 6,0 UV-I 1030 W/m² 9,5 °C 19,3 °C 16,1 km/h (3 Bft)
13.05.2017 15:10 19,3 °C 19,3 °C 54 % 1012,0 hPa 0,0 mm 12,5 km/h (3 Bft) W 274 ° 1 min 0,000 mm 3,7 UV-I 1030 W/m² 9,8 °C 19,3 °C 17,7 km/h (3 Bft)
13.05.2017 15:11 19,2 °C 19,3 °C 55 % 1011,9 hPa 0,0 mm 9,3 km/h (2 Bft) W-SW 252 ° 1 min 0,000 mm 3,5 UV-I 1030 W/m² 9,9 °C 19,2 °C 12,9 km/h (3 Bft)
13.05.2017 15:12 19,0 °C 19,2 °C 53 % 1012,0 hPa 0,0 mm 7,7 km/h (2 Bft) W-SW 246 ° 1 min 0,000 mm 3,6 UV-I 1030 W/m² 9,2 °C 19,0 °C 14,5 km/h (3 Bft)
13.05.2017 15:13 18,8 °C 19,0 °C 53 % 1012,0 hPa 0,0 mm 8,6 km/h (2 Bft) W-SW 237 ° 1 min 0,000 mm 4,4 UV-I 1030 W/m² 9,0 °C 18,8 °C 16,1 km/h (3 Bft)
13.05.2017 15:14 18,6 °C 18,8 °C 54 % 1012,0 hPa 0,0 mm 12,5 km/h (3 Bft) W-NW 285 ° 1 min 0,000 mm 3,7 UV-I 1030 W/m² 9,1 °C 18,6 °C 16,1 km/h (3 Bft)
13.05.2017 15:15 18,6 °C 18,6 °C 53 % 1012,0 hPa 0,0 mm 9,9 km/h (2 Bft) W-NW 291 ° 1 min 0,000 mm 5,2 UV-I 494 W/m² 8,8 °C 18,6 °C 14,5 km/h (3 Bft)
13.05.2017 15:16 18,6 °C 18,6 °C 53 % 1012,0 hPa 0,0 mm 8,9 km/h (2 Bft) W-SW 250 ° 1 min 0,000 mm 4,2 UV-I 543 W/m² 8,8 °C 18,6 °C 12,9 km/h (3 Bft)
13.05.2017 15:17 18,6 °C 18,6 °C 54 % 1012,0 hPa 0,0 mm 6,0 km/h (2 Bft) W-SW 252 ° 1 min 0,000 mm 6,3 UV-I 563 W/m² 9,1 °C 18,6 °C 8,0 km/h (2 Bft)
13.05.2017 15:18 18,8 °C 18,8 °C 58 % 1012,0 hPa 0,0 mm 7,7 km/h (2 Bft) S-SO 159 ° 1 min 0,000 mm 4,9 UV-I 563 W/m² 10,4 °C 18,8 °C 17,7 km/h (3 Bft)
13.05.2017 15:19 18,9 °C 18,9 °C 55 % 1012,0 hPa 0,0 mm 5,3 km/h (1 Bft) S-SW 211 ° 1 min 0,000 mm 6,5 UV-I 563 W/m² 9,7 °C 18,9 °C 11,3 km/h (2 Bft)
13.05.2017 15:20 19,1 °C 19,1 °C 54 % 1012,0 hPa 0,0 mm 12,1 km/h (2 Bft) W 268 ° 1 min 0,000 mm 6,4 UV-I 983 W/m² 9,6 °C 19,1 °C 17,7 km/h (3 Bft)
13.05.2017 15:21 19,3 °C 19,3 °C 57 % 1012,0 hPa 0,0 mm 6,6 km/h (2 Bft) W 281 ° 1 min 0,000 mm 6,4 UV-I 970 W/m² 10,6 °C 19,3 °C 11,3 km/h (2 Bft)
13.05.2017 15:22 19,3 °C 19,3 °C 53 % 1011,9 hPa 0,0 mm 8,6 km/h (2 Bft) W 274 ° 1 min 0,000 mm 6,2 UV-I 970 W/m² 9,5 °C 19,3 °C 14,5 km/h (3 Bft)
13.05.2017 15:23 19,4 °C 19,4 °C 57 % 1011,9 hPa 0,0 mm 17,6 km/h (3 Bft) W 263 ° 1 min 0,000 mm 5,6 UV-I 793 W/m² 10,7 °C 19,4 °C 25,7 km/h (4 Bft)
13.05.2017 15:24 19,3 °C 19,4 °C 52 % 1012,0 hPa 0,0 mm 13,2 km/h (3 Bft) W 269 ° 1 min 0,000 mm 4,0 UV-I 793 W/m² 9,2 °C 19,3 °C 19,3 km/h (3 Bft)
13.05.2017 15:25 19,2 °C 19,3 °C 51 % 1012,0 hPa 0,0 mm 11,9 km/h (2 Bft) N-NW 336 ° 1 min 0,000 mm 4,8 UV-I 793 W/m² 8,8 °C 19,2 °C 14,5 km/h (3 Bft)
13.05.2017 15:26 18,9 °C 19,2 °C 53 % 1011,9 hPa 0,0 mm 11,8 km/h (2 Bft) W-NW 301 ° 1 min 0,000 mm 3,9 UV-I 793 W/m² 9,1 °C 18,9 °C 16,1 km/h (3 Bft)
13.05.2017 15:27 18,8 °C 18,9 °C 54 % 1012,0 hPa 0,0 mm 8,2 km/h (2 Bft) NW 305 ° 1 min 0,000 mm 3,5 UV-I 396 W/m² 9,3 °C 18,8 °C 12,9 km/h (3 Bft)
13.05.2017 15:28 18,7 °C 18,8 °C 53 % 1011,9 hPa 0,0 mm 5,2 km/h (1 Bft) W 270 ° 1 min 0,000 mm 4,3 UV-I 417 W/m² 8,9 °C 18,7 °C 8,0 km/h (2 Bft)
13.05.2017 15:29 18,6 °C 18,7 °C 55 % 1011,9 hPa 0,0 mm 6,5 km/h (2 Bft) W 275 ° 1 min 0,000 mm 3,7 UV-I 404 W/m² 9,4 °C 18,6 °C 11,3 km/h (2 Bft)
13.05.2017 15:30 18,4 °C 18,6 °C 55 % 1011,9 hPa 0,0 mm 4,1 km/h (1 Bft) W-SW 255 ° 1 min 0,000 mm 3,8 UV-I 404 W/m² 9,2 °C 18,4 °C 6,4 km/h (2 Bft)
13.05.2017 15:31 18,3 °C 18,4 °C 54 % 1011,9 hPa 0,0 mm 7,0 km/h (2 Bft) W 265 ° 1 min 0,000 mm 4,4 UV-I 503 W/m² 8,8 °C 18,3 °C 11,3 km/h (2 Bft)
13.05.2017 15:32 18,3 °C 18,3 °C 57 % 1011,9 hPa 0,0 mm 6,4 km/h (2 Bft) W 261 ° 1 min 0,000 mm 4,7 UV-I 722 W/m² 9,6 °C 18,3 °C 9,7 km/h (2 Bft)
13.05.2017 15:33 18,3 °C 18,3 °C 54 % 1011,9 hPa 0,0 mm 4,7 km/h (1 Bft) W-SW 250 ° 1 min 0,000 mm 4,0 UV-I 722 W/m² 8,8 °C 18,3 °C 11,3 km/h (2 Bft)
13.05.2017 15:34 18,3 °C 18,3 °C 55 % 1011,9 hPa 0,0 mm 9,4 km/h (2 Bft) NW 316 ° 1 min 0,000 mm 4,4 UV-I 330 W/m² 9,1 °C 18,3 °C 12,9 km/h (3 Bft)
13.05.2017 15:35 18,4 °C 18,4 °C 54 % 1011,9 hPa 0,0 mm 7,2 km/h (2 Bft) NW 304 ° 1 min 0,000 mm 6,1 UV-I 330 W/m² 8,9 °C 18,4 °C 16,1 km/h (3 Bft)
13.05.2017 15:36 18,5 °C 18,5 °C 57 % 1011,9 hPa 0,0 mm 10,3 km/h (2 Bft) NW 325 ° 1 min 0,000 mm 6,0 UV-I 988 W/m² 9,8 °C 18,5 °C 14,5 km/h (3 Bft)
13.05.2017 15:37 18,6 °C 18,6 °C 53 % 1011,9 hPa 0,0 mm 8,3 km/h (2 Bft) W-SW 258 ° 1 min 0,000 mm 3,2 UV-I 988 W/m² 8,8 °C 18,6 °C 12,9 km/h (3 Bft)
13.05.2017 15:38 18,6 °C 18,6 °C 53 % 1011,9 hPa 0,0 mm 10,9 km/h (2 Bft) W-SW 245 ° 1 min 0,000 mm 3,8 UV-I 313 W/m² 8,8 °C 18,6 °C 16,1 km/h (3 Bft)
13.05.2017 15:39 18,5 °C 18,6 °C 54 % 1011,9 hPa 0,0 mm 7,9 km/h (2 Bft) W 263 ° 0 min 0,000 mm 3,2 UV-I 285 W/m² 9,0 °C 18,5 °C 12,9 km/h (3 Bft)
13.05.2017 15:40 18,4 °C 18,5 °C 54 % 1011,9 hPa 0,0 mm 4,0 km/h (1 Bft) W-NW 294 ° 0 min 0,000 mm 2,9 UV-I 287 W/m² 8,9 °C 18,4 °C 4,8 km/h (1 Bft)
13.05.2017 15:41 18,4 °C 18,4 °C 53 % 1011,9 hPa 0,0 mm 5,0 km/h (1 Bft) W-NW 294 ° 0 min 0,000 mm 4,6 UV-I 287 W/m² 8,6 °C 18,4 °C 8,0 km/h (2 Bft)
13.05.2017 15:42 18,4 °C 18,4 °C 53 % 1011,9 hPa 0,0 mm 3,4 km/h (1 Bft) W-NW 301 ° 0 min 0,000 mm 2,9 UV-I 287 W/m² 8,6 °C 18,4 °C 6,4 km/h (2 Bft)
13.05.2017 15:43 18,4 °C 18,4 °C 53 % 1011,9 hPa 0,0 mm 0,4 km/h (0 Bft) W-NW 301 ° 1 min 0,000 mm 3,1 UV-I 309 W/m² 8,6 °C 18,4 °C 1,6 km/h (1 Bft)
13.05.2017 15:44 18,3 °C 18,4 °C 54 % 1011,9 hPa 0,0 mm 3,5 km/h (1 Bft) W 279 ° 1 min 0,000 mm 3,3 UV-I 318 W/m² 8,8 °C 18,3 °C 6,4 km/h (2 Bft)
13.05.2017 15:45 18,3 °C 18,3 °C 53 % 1011,9 hPa 0,0 mm 6,8 km/h (2 Bft) N-NW 327 ° 1 min 0,000 mm 2,9 UV-I 301 W/m² 8,6 °C 18,3 °C 9,7 km/h (2 Bft)
13.05.2017 15:46 18,3 °C 18,3 °C 54 % 1011,9 hPa 0,0 mm 3,4 km/h (1 Bft) NW 326 ° 1 min 0,000 mm 3,2 UV-I 301 W/m² 8,8 °C 18,3 °C 6,4 km/h (2 Bft)
13.05.2017 15:47 18,3 °C 18,3 °C 56 % 1011,9 hPa 0,0 mm 3,7 km/h (1 Bft) NW 326 ° 1 min 0,000 mm 3,5 UV-I 346 W/m² 9,4 °C 18,3 °C 4,8 km/h (1 Bft)
13.05.2017 15:48 18,3 °C 18,3 °C 57 % 1011,8 hPa 0,0 mm 3,4 km/h (1 Bft) NW 323 ° 1 min 0,000 mm 3,7 UV-I 346 W/m² 9,6 °C 18,3 °C 6,4 km/h (2 Bft)
13.05.2017 15:49 18,4 °C 18,4 °C 57 % 1011,8 hPa 0,0 mm 9,8 km/h (2 Bft) W-NW 298 ° 1 min 0,000 mm 3,7 UV-I 431 W/m² 9,7 °C 18,4 °C 16,1 km/h (3 Bft)
13.05.2017 15:50 18,6 °C 18,6 °C 56 % 1011,8 hPa 0,0 mm 8,7 km/h (2 Bft) NW 321 ° 1 min 0,000 mm 5,4 UV-I 770 W/m² 9,6 °C 18,6 °C 12,9 km/h (3 Bft)
13.05.2017 15:51 18,8 °C 18,8 °C 56 % 1011,9 hPa 0,0 mm 3,5 km/h (1 Bft) NW 321 ° 1 min 0,000 mm 5,1 UV-I 770 W/m² 9,8 °C 18,8 °C 6,4 km/h (2 Bft)
13.05.2017 15:52 18,8 °C 18,8 °C 53 % 1011,8 hPa 0,0 mm 3,0 km/h (1 Bft) W 263 ° 1 min 0,000 mm 3,0 UV-I 770 W/m² 9,0 °C 18,8 °C 9,7 km/h (2 Bft)
13.05.2017 15:53 18,8 °C 18,8 °C 53 % 1011,8 hPa 0,0 mm 5,2 km/h (1 Bft) W 279 ° 0 min 0,000 mm 2,7 UV-I 269 W/m² 9,0 °C 18,8 °C 6,4 km/h (2 Bft)
13.05.2017 15:54 18,7 °C 18,8 °C 54 % 1011,8 hPa 0,0 mm 7,7 km/h (2 Bft) W-NW 300 ° 0 min 0,000 mm 2,7 UV-I 271 W/m² 9,2 °C 18,7 °C 12,9 km/h (3 Bft)
13.05.2017 15:55 18,7 °C 18,7 °C 50 % 1011,9 hPa 0,0 mm 9,1 km/h (2 Bft) W 264 ° 1 min 0,000 mm 3,1 UV-I 330 W/m² 8,1 °C 18,7 °C 12,9 km/h (3 Bft)
13.05.2017 15:56 18,6 °C 18,7 °C 49 % 1011,8 hPa 0,0 mm 7,4 km/h (2 Bft) W-NW 296 ° 1 min 0,000 mm 2,9 UV-I 343 W/m² 7,7 °C 18,6 °C 11,3 km/h (2 Bft)
13.05.2017 15:57 18,6 °C 18,7 °C 51 % 1011,8 hPa 0,0 mm 6,7 km/h (2 Bft) W 271 ° 1 min 0,000 mm 3,1 UV-I 360 W/m² 8,3 °C 18,6 °C 9,7 km/h (2 Bft)
13.05.2017 15:58 18,6 °C 18,6 °C 49 % 1011,8 hPa 0,0 mm 8,4 km/h (2 Bft) W-NW 294 ° 1 min 0,000 mm 3,0 UV-I 350 W/m² 7,7 °C 18,6 °C 14,5 km/h (3 Bft)
13.05.2017 15:59 18,6 °C 18,6 °C 50 % 1011,8 hPa 0,0 mm 10,3 km/h (2 Bft) W-NW 286 ° 1 min 0,000 mm 3,1 UV-I 355 W/m² 8,0 °C 18,6 °C 12,9 km/h (3 Bft)
13.05.2017 16:00 18,6 °C 18,6 °C 51 % 1011,8 hPa 0,0 mm 7,2 km/h (2 Bft) W 278 ° 1 min 0,000 mm 3,0 UV-I 355 W/m² 8,3 °C 18,6 °C 12,9 km/h (3 Bft)
13.05.2017 16:01 18,6 °C 18,6 °C 51 % 1011,9 hPa 0,0 mm 6,8 km/h (2 Bft) W-NW 296 ° 1 min 0,381 mm 3,0 UV-I 345 W/m² 8,3 °C 18,6 °C 12,9 km/h (3 Bft)
13.05.2017 16:02 18,6 °C 18,6 °C 50 % 1011,8 hPa 0,0 mm 9,5 km/h (2 Bft) W-SW 245 ° 1 min 0,000 mm 3,0 UV-I 325 W/m² 8,0 °C 18,6 °C 12,9 km/h (3 Bft)
13.05.2017 16:03 18,6 °C 18,6 °C 50 % 1011,8 hPa 0,0 mm 10,9 km/h (2 Bft) W 260 ° 1 min 0,000 mm 2,8 UV-I 315 W/m² 8,0 °C 18,6 °C 12,9 km/h (3 Bft)
13.05.2017 16:04 18,6 °C 18,6 °C 49 % 1011,8 hPa 0,0 mm 8,4 km/h (2 Bft) W 259 ° 1 min 0,000 mm 2,9 UV-I 295 W/m² 7,7 °C 18,6 °C 12,9 km/h (3 Bft)
13.05.2017 16:05 18,5 °C 18,6 °C 51 % 1011,8 hPa 0,0 mm 7,4 km/h (2 Bft) W 272 ° 1 min 0,000 mm 2,8 UV-I 301 W/m² 8,2 °C 18,5 °C 11,3 km/h (2 Bft)
13.05.2017 16:06 18,5 °C 18,6 °C 51 % 1011,8 hPa 0,0 mm 7,0 km/h (2 Bft) W-SW 239 ° 1 min 0,000 mm 2,9 UV-I 301 W/m² 8,2 °C 18,5 °C 11,3 km/h (2 Bft)
13.05.2017 16:07 18,6 °C 18,6 °C 53 % 1011,8 hPa 0,0 mm 4,3 km/h (1 Bft) W-SW 240 ° 1 min 0,000 mm 3,0 UV-I 308 W/m² 8,8 °C 18,6 °C 6,4 km/h (2 Bft)
13.05.2017 16:08 18,6 °C 18,6 °C 50 % 1011,8 hPa 0,0 mm 3,5 km/h (1 Bft) W-SW 248 ° 1 min 0,000 mm 3,8 UV-I 371 W/m² 8,0 °C 18,6 °C 4,8 km/h (1 Bft)
13.05.2017 16:09 18,6 °C 18,6 °C 48 % 1011,8 hPa 0,0 mm 6,5 km/h (2 Bft) W 281 ° 0 min 0,000 mm 3,5 UV-I 274 W/m² 7,4 °C 18,6 °C 9,7 km/h (2 Bft)
13.05.2017 16:10 18,7 °C 18,7 °C 49 % 1011,8 hPa 0,0 mm 4,4 km/h (1 Bft) W 277 ° 0 min 0,000 mm 2,6 UV-I 260 W/m² 7,8 °C 18,7 °C 6,4 km/h (2 Bft)
13.05.2017 16:11 18,7 °C 18,7 °C 49 % 1011,8 hPa 0,0 mm 4,1 km/h (1 Bft) W 277 ° 0 min 0,000 mm 2,6 UV-I 244 W/m² 7,8 °C 18,7 °C 6,4 km/h (2 Bft)
13.05.2017 16:12 18,7 °C 18,7 °C 51 % 1011,8 hPa 0,0 mm 3,2 km/h (1 Bft) W-NW 284 ° 0 min 0,000 mm 2,6 UV-I 246 W/m² 8,4 °C 18,7 °C 6,4 km/h (2 Bft)
13.05.2017 16:13 18,8 °C 18,8 °C 52 % 1011,7 hPa 0,0 mm 6,3 km/h (2 Bft) N-NW 341 ° 0 min 0,000 mm 2,7 UV-I 237 W/m² 8,7 °C 18,8 °C 9,7 km/h (2 Bft)
13.05.2017 16:14 18,8 °C 18,8 °C 53 % 1011,8 hPa 0,0 mm 4,5 km/h (1 Bft) NW 322 ° 0 min 0,000 mm 2,5 UV-I 244 W/m² 9,0 °C 18,8 °C 6,4 km/h (2 Bft)
13.05.2017 16:15 18,8 °C 18,8 °C 53 % 1011,8 hPa 0,0 mm 8,4 km/h (2 Bft) W-SW 252 ° 0 min 0,000 mm 2,6 UV-I 237 W/m² 9,0 °C 18,8 °C 12,9 km/h (3 Bft)
13.05.2017 16:16 18,8 °C 18,8 °C 54 % 1011,8 hPa 0,0 mm 12,6 km/h (3 Bft) W 270 ° 0 min 0,000 mm 2,7 UV-I 278 W/m² 9,3 °C 18,8 °C 17,7 km/h (3 Bft)
13.05.2017 16:17 18,7 °C 18,8 °C 50 % 1011,8 hPa 0,0 mm 7,5 km/h (2 Bft) W-NW 297 ° 0 min 0,000 mm 2,5 UV-I 279 W/m² 8,1 °C 18,7 °C 12,9 km/h (3 Bft)
13.05.2017 16:18 18,7 °C 18,7 °C 51 % 1011,7 hPa 0,0 mm 7,5 km/h (2 Bft) W-SW 255 ° 0 min 0,000 mm 2,4 UV-I 218 W/m² 8,4 °C 18,7 °C 12,9 km/h (3 Bft)
13.05.2017 16:19 18,7 °C 18,7 °C 48 % 1011,7 hPa 0,0 mm 7,2 km/h (2 Bft) W-NW 286 ° 0 min 0,000 mm 2,4 UV-I 223 W/m² 7,5 °C 18,7 °C 9,7 km/h (2 Bft)
13.05.2017 16:20 18,7 °C 18,7 °C 50 % 1011,7 hPa 0,0 mm 4,9 km/h (1 Bft) W-NW 294 ° 0 min 0,000 mm 2,2 UV-I 151 W/m² 8,1 °C 18,7 °C 6,4 km/h (2 Bft)
13.05.2017 16:21 18,7 °C 18,7 °C 51 % 1011,7 hPa 0,0 mm 7,0 km/h (2 Bft) W-NW 287 ° 0 min 0,000 mm 2,2 UV-I 165 W/m² 8,4 °C 18,7 °C 11,3 km/h (2 Bft)
13.05.2017 16:22 18,6 °C 18,7 °C 51 % 1011,8 hPa 0,0 mm 4,7 km/h (1 Bft) W-NW 296 ° 0 min 0,000 mm 2,4 UV-I 185 W/m² 8,3 °C 18,6 °C 8,0 km/h (2 Bft)
13.05.2017 16:23 18,6 °C 18,6 °C 51 % 1011,7 hPa 0,0 mm 6,1 km/h (2 Bft) W-NW 303 ° 0 min 0,000 mm 2,8 UV-I 185 W/m² 8,3 °C 18,6 °C 8,0 km/h (2 Bft)
13.05.2017 16:24 18,6 °C 18,6 °C 53 % 1011,8 hPa 0,0 mm 2,4 km/h (1 Bft) W-NW 303 ° 0 min 0,000 mm 2,3 UV-I 185 W/m² 8,8 °C 18,6 °C 4,8 km/h (1 Bft)
13.05.2017 16:25 18,6 °C 18,7 °C 51 % 1011,7 hPa 0,0 mm 6,5 km/h (2 Bft) NW 304 ° 0 min 0,000 mm 2,3 UV-I 188 W/m² 8,3 °C 18,6 °C 9,7 km/h (2 Bft)
13.05.2017 16:26 18,6 °C 18,6 °C 52 % 1011,7 hPa 0,0 mm 3,4 km/h (1 Bft) W-NW 292 ° 0 min 0,000 mm 2,3 UV-I 156 W/m² 8,5 °C 18,6 °C 6,4 km/h (2 Bft)
13.05.2017 16:27 18,6 °C 18,6 °C 53 % 1011,7 hPa 0,0 mm 0,6 km/h (0 Bft) W-NW 290 ° 0 min 0,000 mm 2,3 UV-I 141 W/m² 8,8 °C 18,6 °C 1,6 km/h (1 Bft)
13.05.2017 16:28 18,5 °C 18,6 °C 52 % 1011,7 hPa 0,0 mm 1,5 km/h (1 Bft) W-NW 290 ° 0 min 0,000 mm 2,5 UV-I 186 W/m² 8,5 °C 18,5 °C 3,2 km/h (1 Bft)
13.05.2017 16:29 18,5 °C 18,5 °C 52 % 1011,7 hPa 0,0 mm 4,6 km/h (1 Bft) SW 217 ° 0 min 0,000 mm 2,1 UV-I 135 W/m² 8,5 °C 18,5 °C 6,4 km/h (2 Bft)
13.05.2017 16:30 18,4 °C 18,5 °C 54 % 1011,7 hPa 0,0 mm 7,0 km/h (2 Bft) W 278 ° 0 min 0,000 mm 2,0 UV-I 120 W/m² 8,9 °C 18,4 °C 9,7 km/h (2 Bft)
13.05.2017 16:31 18,3 °C 18,4 °C 54 % 1011,6 hPa 0,0 mm 3,1 km/h (1 Bft) W-SW 250 ° 0 min 0,000 mm 2,2 UV-I 153 W/m² 8,8 °C 18,3 °C 4,8 km/h (1 Bft)
13.05.2017 16:32 18,3 °C 18,3 °C 53 % 1011,6 hPa 0,0 mm 1,7 km/h (1 Bft) W 261 ° 0 min 0,000 mm 2,2 UV-I 188 W/m² 8,6 °C 18,3 °C 4,8 km/h (1 Bft)
13.05.2017 16:33 18,3 °C 18,3 °C 52 % 1011,6 hPa 0,0 mm 4,0 km/h (1 Bft) NW 323 ° 0 min 0,000 mm 2,1 UV-I 156 W/m² 8,3 °C 18,3 °C 4,8 km/h (1 Bft)
13.05.2017 16:34 18,4 °C 18,4 °C 52 % 1011,6 hPa 0,0 mm 4,4 km/h (1 Bft) N-NW 348 ° 0 min 0,000 mm 2,1 UV-I 128 W/m² 8,4 °C 18,4 °C 6,4 km/h (2 Bft)
13.05.2017 16:35 18,6 °C 18,6 °C 53 % 1011,6 hPa 0,0 mm 3,5 km/h (1 Bft) NW 318 ° 0 min 0,000 mm 2,1 UV-I 128 W/m² 8,8 °C 18,6 °C 6,4 km/h (2 Bft)
13.05.2017 16:36 18,7 °C 18,7 °C 54 % 1011,6 hPa 0,0 mm 6,6 km/h (2 Bft) W-NW 302 ° 0 min 0,000 mm 2,1 UV-I 134 W/m² 9,2 °C 18,7 °C 11,3 km/h (2 Bft)
13.05.2017 16:37 18,8 °C 18,8 °C 53 % 1011,6 hPa 0,0 mm 9,7 km/h (2 Bft) W-NW 282 ° 0 min 0,000 mm 2,0 UV-I 95 W/m² 9,0 °C 18,8 °C 14,5 km/h (3 Bft)
13.05.2017 16:38 18,9 °C 18,9 °C 51 % 1011,6 hPa 0,0 mm 11,7 km/h (2 Bft) W-NW 288 ° 0 min 0,000 mm 2,0 UV-I 113 W/m² 8,5 °C 18,9 °C 14,5 km/h (3 Bft)
13.05.2017 16:39 18,9 °C 18,9 °C 51 % 1011,6 hPa 0,0 mm 3,8 km/h (1 Bft) NW 317 ° 0 min 0,000 mm 1,9 UV-I 113 W/m² 8,5 °C 18,9 °C 6,4 km/h (2 Bft)
13.05.2017 16:40 18,9 °C 18,9 °C 51 % 1011,6 hPa 0,0 mm 4,5 km/h (1 Bft) W-NW 290 ° 0 min 0,000 mm 1,8 UV-I 132 W/m² 8,5 °C 18,9 °C 11,3 km/h (2 Bft)
13.05.2017 16:41 18,9 °C 19,0 °C 49 % 1011,6 hPa 0,0 mm 7,0 km/h (2 Bft) NW 320 ° 0 min 0,000 mm 1,9 UV-I 132 W/m² 7,9 °C 18,9 °C 9,7 km/h (2 Bft)
13.05.2017 16:42 19,1 °C 19,1 °C 50 % 1011,6 hPa 0,0 mm 7,8 km/h (2 Bft) N 5 ° 0 min 0,000 mm 1,9 UV-I 132 W/m² 8,4 °C 19,1 °C 14,5 km/h (3 Bft)
13.05.2017 16:43 19,1 °C 19,1 °C 50 % 1011,6 hPa 0,0 mm 8,0 km/h (2 Bft) NW 324 ° 0 min 0,000 mm 1,9 UV-I 90 W/m² 8,4 °C 19,1 °C 16,1 km/h (3 Bft)
13.05.2017 16:44 19,1 °C 19,1 °C 51 % 1011,6 hPa 0,0 mm 9,9 km/h (2 Bft) W-NW 289 ° 0 min 0,000 mm 1,8 UV-I 88 W/m² 8,7 °C 19,1 °C 12,9 km/h (3 Bft)
13.05.2017 16:45 19,1 °C 19,1 °C 51 % 1011,6 hPa 0,0 mm 7,8 km/h (2 Bft) N-NW 333 ° 0 min 0,000 mm 1,8 UV-I 84 W/m² 8,7 °C 19,1 °C 12,9 km/h (3 Bft)
13.05.2017 16:46 19,2 °C 19,2 °C 50 % 1011,6 hPa 0,0 mm 7,2 km/h (2 Bft) NW 313 ° 0 min 0,000 mm 1,8 UV-I 109 W/m² 8,5 °C 19,2 °C 14,5 km/h (3 Bft)
13.05.2017 16:47 19,2 °C 19,2 °C 51 % 1011,6 hPa 0,0 mm 7,9 km/h (2 Bft) W-NW 297 ° 0 min 0,000 mm 1,9 UV-I 100 W/m² 8,8 °C 19,2 °C 14,5 km/h (3 Bft)
13.05.2017 16:48 19,3 °C 19,3 °C 51 % 1011,6 hPa 0,0 mm 6,8 km/h (2 Bft) W-NW 294 ° 0 min 0,000 mm 1,9 UV-I 81 W/m² 8,9 °C 19,3 °C 12,9 km/h (3 Bft)
13.05.2017 16:49 19,2 °C 19,3 °C 50 % 1011,6 hPa 0,0 mm 5,9 km/h (2 Bft) NW 318 ° 0 min 0,000 mm 1,9 UV-I 130 W/m² 8,5 °C 19,2 °C 9,7 km/h (2 Bft)
13.05.2017 16:50 19,3 °C 19,3 °C 53 % 1011,6 hPa 0,0 mm 9,3 km/h (2 Bft) NW 305 ° 0 min 0,000 mm 2,0 UV-I 188 W/m² 9,5 °C 19,3 °C 14,5 km/h (3 Bft)
13.05.2017 16:51 19,3 °C 19,3 °C 53 % 1011,6 hPa 0,0 mm 9,1 km/h (2 Bft) NW 304 ° 0 min 0,000 mm 1,9 UV-I 188 W/m² 9,5 °C 19,3 °C 14,5 km/h (3 Bft)
13.05.2017 16:52 19,4 °C 19,4 °C 53 % 1011,7 hPa 0,0 mm 9,0 km/h (2 Bft) NW 313 ° 0 min 0,000 mm 1,7 UV-I 188 W/m² 9,6 °C 19,4 °C 14,5 km/h (3 Bft)
13.05.2017 16:53 19,3 °C 19,4 °C 51 % 1011,7 hPa 0,0 mm 9,3 km/h (2 Bft) NW 312 ° 0 min 0,000 mm 1,6 UV-I 62 W/m² 8,9 °C 19,3 °C 16,1 km/h (3 Bft)
13.05.2017 16:54 19,3 °C 19,3 °C 52 % 1011,7 hPa 0,0 mm 7,6 km/h (2 Bft) N-NW 330 ° 0 min 0,000 mm 0,0 UV-I 54 W/m² 9,2 °C 19,3 °C 12,9 km/h (3 Bft)
13.05.2017 16:55 19,2 °C 19,3 °C 52 % 1011,7 hPa 0,0 mm 8,0 km/h (2 Bft) W-NW 288 ° 0 min 0,000 mm 0,0 UV-I 88 W/m² 9,1 °C 19,2 °C 12,9 km/h (3 Bft)
13.05.2017 16:56 19,2 °C 19,2 °C 52 % 1011,8 hPa 0,0 mm 5,2 km/h (1 Bft) NW 313 ° 0 min 0,000 mm 1,8 UV-I 104 W/m² 9,1 °C 19,2 °C 8,0 km/h (2 Bft)
13.05.2017 16:57 19,1 °C 19,2 °C 51 % 1011,7 hPa 0,0 mm 6,8 km/h (2 Bft) W 281 ° 0 min 0,000 mm 1,9 UV-I 93 W/m² 8,7 °C 19,1 °C 11,3 km/h (2 Bft)
13.05.2017 16:58 19,0 °C 19,1 °C 51 % 1011,7 hPa 0,0 mm 4,5 km/h (1 Bft) N 355 ° 0 min 0,000 mm 1,7 UV-I 69 W/m² 8,6 °C 19,0 °C 9,7 km/h (2 Bft)
13.05.2017 16:59 18,9 °C 19,0 °C 51 % 1011,7 hPa 0,0 mm 4,4 km/h (1 Bft) NW 323 ° 0 min 0,000 mm 1,6 UV-I 70 W/m² 8,5 °C 18,9 °C 6,4 km/h (2 Bft)
13.05.2017 17:00 18,9 °C 18,9 °C 53 % 1011,7 hPa 0,0 mm 2,9 km/h (1 Bft) NW 323 ° 0 min 0,000 mm 1,7 UV-I 70 W/m² 9,1 °C 18,9 °C 3,2 km/h (1 Bft)
13.05.2017 17:01 18,9 °C 18,9 °C 54 % 1011,6 hPa 0,0 mm 2,5 km/h (1 Bft) N-NO 23 ° 0 min 0,153 mm 1,7 UV-I 111 W/m² 9,4 °C 18,9 °C 6,4 km/h (2 Bft)
13.05.2017 17:02 18,9 °C 18,9 °C 54 % 1011,6 hPa 0,0 mm 4,3 km/h (1 Bft) N 349 ° 0 min 0,000 mm 1,6 UV-I 84 W/m² 9,4 °C 18,9 °C 6,4 km/h (2 Bft)
13.05.2017 17:03 18,9 °C 18,9 °C 51 % 1011,6 hPa 0,0 mm 6,2 km/h (2 Bft) NW 326 ° 0 min 0,000 mm 1,6 UV-I 77 W/m² 8,5 °C 18,9 °C 8,0 km/h (2 Bft)
13.05.2017 17:04 18,9 °C 18,9 °C 51 % 1011,6 hPa 0,0 mm 4,8 km/h (1 Bft) N-NW 332 ° 0 min 0,000 mm 1,6 UV-I 60 W/m² 8,5 °C 18,9 °C 8,0 km/h (2 Bft)
13.05.2017 17:05 19,1 °C 19,1 °C 53 % 1011,7 hPa 0,0 mm 6,6 km/h (2 Bft) N-NW 329 ° 0 min 0,000 mm 0,0 UV-I 49 W/m² 9,3 °C 19,1 °C 11,3 km/h (2 Bft)
13.05.2017 17:06 19,2 °C 19,2 °C 54 % 1011,7 hPa 0,0 mm 4,8 km/h (1 Bft) W-NW 284 ° 0 min 0,000 mm 0,0 UV-I 49 W/m² 9,7 °C 19,2 °C 8,0 km/h (2 Bft)
13.05.2017 17:07 19,3 °C 19,3 °C 54 % 1011,7 hPa 0,0 mm 4,1 km/h (1 Bft) W-NW 296 ° 0 min 0,000 mm 1,6 UV-I 62 W/m² 9,8 °C 19,3 °C 6,4 km/h (2 Bft)
13.05.2017 17:08 19,2 °C 19,3 °C 49 % 1011,6 hPa 0,0 mm 5,5 km/h (1 Bft) NW 320 ° 0 min 0,000 mm 1,6 UV-I 67 W/m² 8,2 °C 19,2 °C 9,7 km/h (2 Bft)
13.05.2017 17:09 19,3 °C 19,3 °C 54 % 1011,7 hPa 0,0 mm 6,5 km/h (2 Bft) NW 310 ° 0 min 0,000 mm 1,6 UV-I 98 W/m² 9,8 °C 19,3 °C 12,9 km/h (3 Bft)
13.05.2017 17:10 19,3 °C 19,3 °C 54 % 1011,7 hPa 0,0 mm 8,9 km/h (2 Bft) W-NW 285 ° 0 min 0,000 mm 1,6 UV-I 100 W/m² 9,8 °C 19,3 °C 12,9 km/h (3 Bft)
13.05.2017 17:11 19,4 °C 19,4 °C 50 % 1011,8 hPa 0,0 mm 5,7 km/h (1 Bft) W-NW 291 ° 0 min 0,000 mm 1,6 UV-I 139 W/m² 8,7 °C 19,4 °C 11,3 km/h (2 Bft)
13.05.2017 17:12 19,4 °C 19,4 °C 49 % 1011,8 hPa 0,0 mm 6,1 km/h (2 Bft) W-SW 252 ° 0 min 0,000 mm 1,6 UV-I 163 W/m² 8,4 °C 19,4 °C 11,3 km/h (2 Bft)
13.05.2017 17:13 19,4 °C 19,4 °C 51 % 1011,8 hPa 0,0 mm 11,5 km/h (2 Bft) W-SW 254 ° 0 min 0,000 mm 1,6 UV-I 142 W/m² 9,0 °C 19,4 °C 17,7 km/h (3 Bft)
13.05.2017 17:14 19,4 °C 19,4 °C 49 % 1011,8 hPa 0,0 mm 10,7 km/h (2 Bft) W-NW 287 ° 0 min 0,000 mm 1,6 UV-I 88 W/m² 8,4 °C 19,4 °C 16,1 km/h (3 Bft)
13.05.2017 17:15 19,4 °C 19,4 °C 49 % 1011,8 hPa 0,0 mm 7,3 km/h (2 Bft) W-NW 287 ° 0 min 0,000 mm 1,6 UV-I 83 W/m² 8,4 °C 19,4 °C 12,9 km/h (3 Bft)
13.05.2017 17:16 19,4 °C 19,4 °C 49 % 1011,8 hPa 0,0 mm 10,7 km/h (2 Bft) W 281 ° 0 min 0,000 mm 1,7 UV-I 132 W/m² 8,4 °C 19,4 °C 14,5 km/h (3 Bft)
13.05.2017 17:17 19,3 °C 19,4 °C 50 % 1011,8 hPa 0,0 mm 9,0 km/h (2 Bft) NW 313 ° 0 min 0,000 mm 1,8 UV-I 165 W/m² 8,6 °C 19,3 °C 12,9 km/h (3 Bft)
13.05.2017 17:18 19,3 °C 19,3 °C 48 % 1011,8 hPa 0,0 mm 9,3 km/h (2 Bft) W-NW 303 ° 0 min 0,000 mm 1,7 UV-I 120 W/m² 8,0 °C 19,3 °C 12,9 km/h (3 Bft)
13.05.2017 17:19 19,2 °C 19,3 °C 49 % 1011,8 hPa 0,0 mm 4,2 km/h (1 Bft) NW 311 ° 0 min 0,000 mm 1,6 UV-I 91 W/m² 8,2 °C 19,2 °C 8,0 km/h (2 Bft)
13.05.2017 17:20 19,2 °C 19,2 °C 51 % 1011,8 hPa 0,0 mm 3,1 km/h (1 Bft) NW 324 ° 0 min 0,000 mm 1,5 UV-I 56 W/m² 8,8 °C 19,2 °C 6,4 km/h (2 Bft)
13.05.2017 17:21 19,2 °C 19,2 °C 50 % 1011,8 hPa 0,0 mm 4,4 km/h (1 Bft) NW 324 ° 0 min 0,000 mm 1,5 UV-I 65 W/m² 8,5 °C 19,2 °C 6,4 km/h (2 Bft)
13.05.2017 17:22 19,2 °C 19,2 °C 51 % 1011,8 hPa 0,0 mm 5,5 km/h (1 Bft) W 279 ° 0 min 0,000 mm 1,6 UV-I 86 W/m² 8,8 °C 19,2 °C 9,7 km/h (2 Bft)
13.05.2017 17:23 19,2 °C 19,2 °C 50 % 1011,8 hPa 0,0 mm 5,7 km/h (1 Bft) NW 319 ° 0 min 0,000 mm 1,7 UV-I 104 W/m² 8,5 °C 19,2 °C 8,0 km/h (2 Bft)
13.05.2017 17:24 19,3 °C 19,3 °C 52 % 1011,8 hPa 0,0 mm 4,2 km/h (1 Bft) NW 315 ° 0 min 0,000 mm 1,8 UV-I 156 W/m² 9,2 °C 19,3 °C 8,0 km/h (2 Bft)
13.05.2017 17:25 19,4 °C 19,4 °C 54 % 1011,8 hPa 0,0 mm 5,6 km/h (1 Bft) N-NW 346 ° 0 min 0,000 mm 1,7 UV-I 142 W/m² 9,8 °C 19,4 °C 8,0 km/h (2 Bft)
13.05.2017 17:26 19,5 °C 19,5 °C 52 % 1011,8 hPa 0,0 mm 5,9 km/h (2 Bft) NW 308 ° 0 min 0,000 mm 1,6 UV-I 77 W/m² 9,4 °C 19,5 °C 14,5 km/h (3 Bft)
13.05.2017 17:27 19,6 °C 19,6 °C 49 % 1011,8 hPa 0,0 mm 9,5 km/h (2 Bft) NW 309 ° 0 min 0,000 mm 1,5 UV-I 84 W/m² 8,6 °C 19,6 °C 16,1 km/h (3 Bft)
13.05.2017 17:28 19,5 °C 19,6 °C 50 % 1011,8 hPa 0,0 mm 10,1 km/h (2 Bft) NW 304 ° 0 min 0,000 mm 1,5 UV-I 95 W/m² 8,8 °C 19,5 °C 14,5 km/h (3 Bft)
13.05.2017 17:29 19,5 °C 19,6 °C 49 % 1011,8 hPa 0,0 mm 7,9 km/h (2 Bft) NW 306 ° 0 min 0,000 mm 1,5 UV-I 63 W/m² 8,5 °C 19,5 °C 12,9 km/h (3 Bft)
13.05.2017 17:30 19,4 °C 19,5 °C 52 % 1011,8 hPa 0,0 mm 10,6 km/h (2 Bft) NW 314 ° 0 min 0,000 mm 1,5 UV-I 56 W/m² 9,3 °C 19,4 °C 16,1 km/h (3 Bft)
13.05.2017 17:31 19,5 °C 19,5 °C 51 % 1011,9 hPa 0,0 mm 7,1 km/h (2 Bft) NW 325 ° 0 min 0,000 mm 0,0 UV-I 54 W/m² 9,1 °C 19,5 °C 9,7 km/h (2 Bft)
13.05.2017 17:32 19,5 °C 19,5 °C 49 % 1011,9 hPa 0,0 mm 8,7 km/h (2 Bft) NW 313 ° 0 min 0,000 mm 1,5 UV-I 56 W/m² 8,5 °C 19,5 °C 12,9 km/h (3 Bft)
13.05.2017 17:33 19,5 °C 19,5 °C 51 % 1011,8 hPa 0,0 mm 8,6 km/h (2 Bft) NW 320 ° 0 min 0,000 mm 1,6 UV-I 114 W/m² 9,1 °C 19,5 °C 12,9 km/h (3 Bft)
13.05.2017 17:34 19,5 °C 19,6 °C 51 % 1011,9 hPa 0,0 mm 6,4 km/h (2 Bft) N-NW 339 ° 0 min 0,000 mm 1,8 UV-I 190 W/m² 9,1 °C 19,5 °C 12,9 km/h (3 Bft)
13.05.2017 17:35 19,5 °C 19,6 °C 49 % 1011,9 hPa 0,0 mm 6,6 km/h (2 Bft) W 278 ° 0 min 0,000 mm 1,5 UV-I 149 W/m² 8,5 °C 19,5 °C 11,3 km/h (2 Bft)
13.05.2017 17:36 19,4 °C 19,5 °C 48 % 1012,0 hPa 0,0 mm 7,2 km/h (2 Bft) NW 305 ° 0 min 0,000 mm 0,0 UV-I 49 W/m² 8,1 °C 19,4 °C 11,3 km/h (2 Bft)
13.05.2017 17:37 19,3 °C 19,4 °C 48 % 1012,0 hPa 0,0 mm 4,3 km/h (1 Bft) NW 309 ° 0 min 0,000 mm 0,0 UV-I 51 W/m² 8,0 °C 19,3 °C 8,0 km/h (2 Bft)
13.05.2017 17:38 19,3 °C 19,3 °C 49 % 1011,9 hPa 0,0 mm 5,0 km/h (1 Bft) NW 313 ° 0 min 0,000 mm 1,4 UV-I 65 W/m² 8,3 °C 19,3 °C 11,3 km/h (2 Bft)
13.05.2017 17:39 19,3 °C 19,3 °C 52 % 1012,0 hPa 0,0 mm 6,8 km/h (2 Bft) W-NW 288 ° 0 min 0,000 mm 1,4 UV-I 83 W/m² 9,2 °C 19,3 °C 12,9 km/h (3 Bft)
13.05.2017 17:40 19,3 °C 19,3 °C 51 % 1011,9 hPa 0,0 mm 8,2 km/h (2 Bft) NW 312 ° 0 min 0,000 mm 1,4 UV-I 67 W/m² 8,9 °C 19,3 °C 12,9 km/h (3 Bft)
13.05.2017 17:41 19,3 °C 19,3 °C 50 % 1012,0 hPa 0,0 mm 7,2 km/h (2 Bft) N-NW 328 ° 0 min 0,000 mm 1,4 UV-I 91 W/m² 8,6 °C 19,3 °C 12,9 km/h (3 Bft)
13.05.2017 17:42 19,3 °C 19,3 °C 51 % 1012,0 hPa 0,0 mm 5,0 km/h (1 Bft) W 270 ° 0 min 0,000 mm 1,3 UV-I 83 W/m² 8,9 °C 19,3 °C 16,1 km/h (3 Bft)
13.05.2017 17:43 19,4 °C 19,4 °C 53 % 1011,9 hPa 0,0 mm 10,0 km/h (2 Bft) NW 306 ° 0 min 0,000 mm 0,0 UV-I 54 W/m² 9,6 °C 19,4 °C 14,5 km/h (3 Bft)
13.05.2017 17:44 19,4 °C 19,4 °C 49 % 1012,0 hPa 0,0 mm 8,2 km/h (2 Bft) NW 311 ° 0 min 0,000 mm 0,0 UV-I 54 W/m² 8,4 °C 19,4 °C 12,9 km/h (3 Bft)
13.05.2017 17:45 19,4 °C 19,4 °C 50 % 1011,9 hPa 0,0 mm 5,5 km/h (1 Bft) W-SW 248 ° 0 min 0,000 mm 0,0 UV-I 54 W/m² 8,7 °C 19,4 °C 8,0 km/h (2 Bft)
13.05.2017 17:46 19,4 °C 19,4 °C 51 % 1011,9 hPa 0,0 mm 6,9 km/h (2 Bft) W-SW 250 ° 0 min 0,000 mm 1,3 UV-I 56 W/m² 9,0 °C 19,4 °C 9,7 km/h (2 Bft)
13.05.2017 17:47 19,4 °C 19,4 °C 52 % 1011,9 hPa 0,0 mm 9,3 km/h (2 Bft) W-SW 253 ° 0 min 0,000 mm 0,0 UV-I 67 W/m² 9,3 °C 19,4 °C 12,9 km/h (3 Bft)
13.05.2017 17:48 19,3 °C 19,4 °C 53 % 1011,9 hPa 0,0 mm 7,2 km/h (2 Bft) W 269 ° 0 min 0,000 mm 1,3 UV-I 63 W/m² 9,5 °C 19,3 °C 11,3 km/h (2 Bft)
13.05.2017 17:49 19,3 °C 19,4 °C 48 % 1012,0 hPa 0,0 mm 6,6 km/h (2 Bft) W-NW 299 ° 0 min 0,000 mm 1,3 UV-I 67 W/m² 8,0 °C 19,3 °C 14,5 km/h (3 Bft)
13.05.2017 17:50 19,3 °C 19,3 °C 50 % 1011,9 hPa 0,0 mm 8,2 km/h (2 Bft) W 263 ° 0 min 0,000 mm 1,4 UV-I 86 W/m² 8,6 °C 19,3 °C 14,5 km/h (3 Bft)
13.05.2017 17:51 19,3 °C 19,3 °C 50 % 1011,9 hPa 0,0 mm 12,9 km/h (3 Bft) W-NW 288 ° 0 min 0,000 mm 1,5 UV-I 88 W/m² 8,6 °C 19,3 °C 16,1 km/h (3 Bft)
13.05.2017 17:52 19,3 °C 19,3 °C 50 % 1011,9 hPa 0,0 mm 11,3 km/h (2 Bft) W-NW 283 ° 0 min 0,000 mm 1,4 UV-I 114 W/m² 8,6 °C 19,3 °C 14,5 km/h (3 Bft)
13.05.2017 17:53 19,3 °C 19,3 °C 49 % 1011,9 hPa 0,0 mm 8,3 km/h (2 Bft) NW 304 ° 0 min 0,000 mm 1,3 UV-I 81 W/m² 8,3 °C 19,3 °C 12,9 km/h (3 Bft)
13.05.2017 17:54 19,3 °C 19,3 °C 51 % 1011,9 hPa 0,0 mm 6,6 km/h (2 Bft) NW 304 ° 0 min 0,000 mm 1,3 UV-I 60 W/m² 8,9 °C 19,3 °C 9,7 km/h (2 Bft)
13.05.2017 17:55 19,3 °C 19,3 °C 52 % 1012,0 hPa 0,0 mm 7,7 km/h (2 Bft) NW 307 ° 0 min 0,000 mm 1,3 UV-I 97 W/m² 9,2 °C 19,3 °C 9,7 km/h (2 Bft)
13.05.2017 17:56 19,3 °C 19,3 °C 51 % 1012,0 hPa 0,0 mm 5,6 km/h (1 Bft) NW 315 ° 0 min 0,000 mm 1,3 UV-I 130 W/m² 8,9 °C 19,3 °C 11,3 km/h (2 Bft)
13.05.2017 17:57 19,3 °C 19,4 °C 51 % 1012,0 hPa 0,0 mm 3,5 km/h (1 Bft) NW 313 ° 0 min 0,000 mm 1,3 UV-I 70 W/m² 8,9 °C 19,3 °C 6,4 km/h (2 Bft)
13.05.2017 17:58 19,3 °C 19,3 °C 50 % 1011,9 hPa 0,0 mm 4,6 km/h (1 Bft) NW 317 ° 0 min 0,000 mm 1,2 UV-I 69 W/m² 8,6 °C 19,3 °C 6,4 km/h (2 Bft)
13.05.2017 17:59 19,2 °C 19,3 °C 53 % 1012,0 hPa 0,0 mm 6,4 km/h (2 Bft) N-NW 341 ° 0 min 0,000 mm 1,2 UV-I 74 W/m² 9,4 °C 19,2 °C 12,9 km/h (3 Bft)
13.05.2017 18:00 19,2 °C 19,2 °C 51 % 1011,9 hPa 0,0 mm 9,3 km/h (2 Bft) NW 321 ° 0 min 0,101 mm 1,2 UV-I 77 W/m² 8,8 °C 19,2 °C 14,5 km/h (3 Bft)
13.05.2017 18:01 19,1 °C 19,2 °C 52 % 1012,0 hPa 0,0 mm 6,7 km/h (2 Bft) N-NW 336 ° 0 min 0,000 mm 1,2 UV-I 81 W/m² 9,0 °C 19,1 °C 16,1 km/h (3 Bft)
13.05.2017 18:02 18,9 °C 19,1 °C 54 % 1012,0 hPa 0,0 mm 5,5 km/h (1 Bft) NW 311 ° 0 min 0,000 mm 1,2 UV-I 86 W/m² 9,4 °C 18,9 °C 8,0 km/h (2 Bft)
13.05.2017 18:03 18,8 °C 18,9 °C 54 % 1012,0 hPa 0,0 mm 5,2 km/h (1 Bft) NW 321 ° 0 min 0,000 mm 1,2 UV-I 91 W/m² 9,3 °C 18,8 °C 8,0 km/h (2 Bft)
13.05.2017 18:04 18,7 °C 18,8 °C 54 % 1012,0 hPa 0,0 mm 5,1 km/h (1 Bft) W-NW 297 ° 0 min 0,000 mm 1,1 UV-I 91 W/m² 9,2 °C 18,7 °C 8,0 km/h (2 Bft)
13.05.2017 18:05 18,6 °C 18,7 °C 52 % 1012,0 hPa 0,0 mm 5,3 km/h (1 Bft) NW 311 ° 0 min 0,000 mm 1,1 UV-I 86 W/m² 8,5 °C 18,6 °C 6,4 km/h (2 Bft)
13.05.2017 18:06 18,5 °C 18,6 °C 53 % 1012,0 hPa 0,0 mm 6,2 km/h (2 Bft) W-NW 287 ° 0 min 0,000 mm 1,1 UV-I 83 W/m² 8,7 °C 18,5 °C 12,9 km/h (3 Bft)
13.05.2017 18:07 18,4 °C 18,5 °C 52 % 1012,0 hPa 0,0 mm 3,7 km/h (1 Bft) W-NW 287 ° 0 min 0,000 mm 1,0 UV-I 77 W/m² 8,4 °C 18,4 °C 6,4 km/h (2 Bft)
13.05.2017 18:08 18,4 °C 18,4 °C 55 % 1012,0 hPa 0,0 mm 4,1 km/h (1 Bft) NW 325 ° 0 min 0,000 mm 1,0 UV-I 76 W/m² 9,2 °C 18,4 °C 6,4 km/h (2 Bft)
13.05.2017 18:09 18,4 °C 18,4 °C 55 % 1012,0 hPa 0,0 mm 4,4 km/h (1 Bft) N-NW 329 ° 0 min 0,000 mm 1,0 UV-I 77 W/m² 9,2 °C 18,4 °C 8,0 km/h (2 Bft)
13.05.2017 18:10 18,3 °C 18,4 °C 54 % 1012,0 hPa 0,0 mm 3,9 km/h (1 Bft) NW 311 ° 0 min 0,000 mm 1,0 UV-I 79 W/m² 8,8 °C 18,3 °C 6,4 km/h (2 Bft)
13.05.2017 18:11 18,2 °C 18,3 °C 54 % 1012,0 hPa 0,0 mm 3,6 km/h (1 Bft) W-NW 294 ° 0 min 0,000 mm 1,0 UV-I 79 W/m² 8,7 °C 18,2 °C 4,8 km/h (1 Bft)
13.05.2017 18:12 18,2 °C 18,2 °C 56 % 1012,0 hPa 0,0 mm 4,6 km/h (1 Bft) W-NW 302 ° 0 min 0,000 mm 1,0 UV-I 76 W/m² 9,3 °C 18,2 °C 6,4 km/h (2 Bft)
13.05.2017 18:13 18,1 °C 18,2 °C 55 % 1012,0 hPa 0,0 mm 1,1 km/h (1 Bft) W-NW 302 ° 0 min 0,000 mm 1,0 UV-I 74 W/m² 8,9 °C 18,1 °C 3,2 km/h (1 Bft)
13.05.2017 18:14 18,1 °C 18,1 °C 55 % 1012,0 hPa 0,0 mm 0,7 km/h (0 Bft) W-NW 303 ° 0 min 0,000 mm 1,0 UV-I 93 W/m² 8,9 °C 18,1 °C 3,2 km/h (1 Bft)
13.05.2017 18:15 18,1 °C 18,1 °C 56 % 1012,0 hPa 0,0 mm 1,0 km/h (0 Bft) W-NW 303 ° 0 min 0,000 mm 1,0 UV-I 86 W/m² 9,2 °C 18,1 °C 1,6 km/h (1 Bft)
13.05.2017 18:16 18,2 °C 18,2 °C 57 % 1012,0 hPa 0,0 mm 3,7 km/h (1 Bft) N-NW 341 ° 0 min 0,000 mm 1,0 UV-I 107 W/m² 9,5 °C 18,2 °C 4,8 km/h (1 Bft)
13.05.2017 18:17 18,3 °C 18,3 °C 57 % 1012,0 hPa 0,0 mm 4,4 km/h (1 Bft) NW 321 ° 0 min 0,000 mm 1,0 UV-I 93 W/m² 9,6 °C 18,3 °C 6,4 km/h (2 Bft)
13.05.2017 18:18 18,4 °C 18,4 °C 57 % 1011,9 hPa 0,0 mm 2,7 km/h (1 Bft) NW 321 ° 0 min 0,000 mm 1,0 UV-I 83 W/m² 9,7 °C 18,4 °C 3,2 km/h (1 Bft)
13.05.2017 18:19 18,5 °C 18,6 °C 59 % 1011,9 hPa 0,0 mm 4,7 km/h (1 Bft) NW 316 ° 0 min 0,000 mm 1,0 UV-I 88 W/m² 10,3 °C 18,5 °C 6,4 km/h (2 Bft)
13.05.2017 18:20 18,6 °C 18,6 °C 56 % 1012,0 hPa 0,0 mm 3,2 km/h (1 Bft) NW 323 ° 0 min 0,000 mm 1,0 UV-I 90 W/m² 9,6 °C 18,6 °C 4,8 km/h (1 Bft)
13.05.2017 18:21 18,7 °C 18,7 °C 56 % 1012,0 hPa 0,0 mm 4,8 km/h (1 Bft) W-NW 285 ° 0 min 0,000 mm 1,0 UV-I 98 W/m² 9,7 °C 18,7 °C 6,4 km/h (2 Bft)
13.05.2017 18:22 18,7 °C 18,7 °C 54 % 1012,0 hPa 0,0 mm 3,2 km/h (1 Bft) W-NW 296 ° 0 min 0,000 mm 1,0 UV-I 81 W/m² 9,2 °C 18,7 °C 4,8 km/h (1 Bft)
13.05.2017 18:23 18,7 °C 18,7 °C 53 % 1012,0 hPa 0,0 mm 3,6 km/h (1 Bft) W-NW 292 ° 0 min 0,000 mm 1,0 UV-I 81 W/m² 8,9 °C 18,7 °C 6,4 km/h (2 Bft)
13.05.2017 18:24 18,7 °C 18,7 °C 52 % 1012,0 hPa 0,0 mm 2,0 km/h (1 Bft) W-NW 292 ° 0 min 0,000 mm 1,0 UV-I 97 W/m² 8,6 °C 18,7 °C 3,2 km/h (1 Bft)
13.05.2017 18:25 18,7 °C 18,7 °C 53 % 1012,0 hPa 0,0 mm 3,6 km/h (1 Bft) NW 304 ° 0 min 0,000 mm 1,0 UV-I 107 W/m² 8,9 °C 18,7 °C 4,8 km/h (1 Bft)
13.05.2017 18:26 18,6 °C 18,7 °C 54 % 1012,1 hPa 0,0 mm 4,3 km/h (1 Bft) NW 315 ° 0 min 0,000 mm 1,0 UV-I 116 W/m² 9,1 °C 18,6 °C 6,4 km/h (2 Bft)
13.05.2017 18:27 18,6 °C 18,6 °C 57 % 1012,0 hPa 0,0 mm 2,7 km/h (1 Bft) NW 315 ° 0 min 0,000 mm 1,0 UV-I 118 W/m² 9,9 °C 18,6 °C 4,8 km/h (1 Bft)
13.05.2017 18:28 18,7 °C 18,7 °C 54 % 1012,1 hPa 0,0 mm 2,9 km/h (1 Bft) NW 315 ° 0 min 0,000 mm 1,0 UV-I 107 W/m² 9,2 °C 18,7 °C 4,8 km/h (1 Bft)
13.05.2017 18:29 18,7 °C 18,7 °C 55 % 1012,1 hPa 0,0 mm 2,7 km/h (1 Bft) NW 315 ° 0 min 0,000 mm 0,9 UV-I 107 W/m² 9,5 °C 18,7 °C 4,8 km/h (1 Bft)
13.05.2017 18:30 18,7 °C 18,7 °C 53 % 1012,1 hPa 0,0 mm 2,2 km/h (1 Bft) W-NW 286 ° 0 min 0,000 mm 0,9 UV-I 70 W/m² 8,9 °C 18,7 °C 6,4 km/h (2 Bft)
13.05.2017 18:31 18,6 °C 18,7 °C 53 % 1012,1 hPa 0,0 mm 4,0 km/h (1 Bft) W-NW 284 ° 0 min 0,000 mm 0,9 UV-I 67 W/m² 8,8 °C 18,6 °C 9,7 km/h (2 Bft)
13.05.2017 18:32 18,6 °C 18,6 °C 56 % 1012,1 hPa 0,0 mm 1,9 km/h (1 Bft) W-NW 284 ° 0 min 0,000 mm 0,9 UV-I 56 W/m² 9,6 °C 18,6 °C 3,2 km/h (1 Bft)
13.05.2017 18:33 18,4 °C 18,6 °C 55 % 1012,1 hPa 0,0 mm 1,6 km/h (1 Bft) W-NW 284 ° 0 min 0,000 mm 0,9 UV-I 51 W/m² 9,2 °C 18,4 °C 3,2 km/h (1 Bft)
13.05.2017 18:34 18,4 °C 18,5 °C 55 % 1012,1 hPa 0,0 mm 0,5 km/h (0 Bft) W-NW 292 ° 0 min 0,000 mm 0,0 UV-I 46 W/m² 9,2 °C 18,4 °C 3,2 km/h (1 Bft)
13.05.2017 18:35 18,4 °C 18,4 °C 56 % 1012,1 hPa 0,0 mm 4,0 km/h (1 Bft) N 355 ° 0 min 0,000 mm 0,0 UV-I 46 W/m² 9,5 °C 18,4 °C 6,4 km/h (2 Bft)
13.05.2017 18:36 18,3 °C 18,4 °C 55 % 1012,1 hPa 0,0 mm 3,0 km/h (1 Bft) N 355 ° 0 min 0,000 mm 0,0 UV-I 46 W/m² 9,1 °C 18,3 °C 4,8 km/h (1 Bft)
13.05.2017 18:37 18,3 °C 18,4 °C 55 % 1012,1 hPa 0,0 mm 2,2 km/h (1 Bft) N 355 ° 0 min 0,000 mm 0,0 UV-I 44 W/m² 9,1 °C 18,3 °C 4,8 km/h (1 Bft)
13.05.2017 18:38 18,2 °C 18,3 °C 56 % 1012,1 hPa 0,0 mm 1,5 km/h (1 Bft) NW 308 ° 0 min 0,000 mm 0,0 UV-I 42 W/m² 9,3 °C 18,2 °C 4,8 km/h (1 Bft)
13.05.2017 18:39 18,1 °C 18,2 °C 57 % 1012,2 hPa 0,0 mm 3,1 km/h (1 Bft) NW 313 ° 0 min 0,000 mm 0,0 UV-I 40 W/m² 9,4 °C 18,1 °C 4,8 km/h (1 Bft)
13.05.2017 18:40 17,9 °C 18,1 °C 56 % 1012,2 hPa 0,0 mm 2,9 km/h (1 Bft) NW 309 ° 0 min 0,000 mm 0,0 UV-I 40 W/m² 9,0 °C 17,9 °C 4,8 km/h (1 Bft)
13.05.2017 18:41 17,9 °C 17,9 °C 56 % 1012,2 hPa 0,0 mm 2,5 km/h (1 Bft) W-NW 284 ° 0 min 0,000 mm 0,0 UV-I 42 W/m² 9,0 °C 17,9 °C 4,8 km/h (1 Bft)
13.05.2017 18:42 17,8 °C 17,9 °C 56 % 1012,2 hPa 0,0 mm 3,5 km/h (1 Bft) NW 312 ° 0 min 0,000 mm 0,0 UV-I 40 W/m² 8,9 °C 17,8 °C 4,8 km/h (1 Bft)
13.05.2017 18:43 17,8 °C 17,8 °C 57 % 1012,2 hPa 0,0 mm 1,5 km/h (1 Bft) NW 312 ° 0 min 0,000 mm 0,0 UV-I 42 W/m² 9,2 °C 17,8 °C 3,2 km/h (1 Bft)
13.05.2017 18:44 17,7 °C 17,8 °C 56 % 1012,2 hPa 0,0 mm 1,4 km/h (1 Bft) NW 312 ° 0 min 0,000 mm 0,0 UV-I 42 W/m² 8,8 °C 17,7 °C 1,6 km/h (1 Bft)
13.05.2017 18:45 17,6 °C 17,7 °C 57 % 1012,2 hPa 0,0 mm 2,1 km/h (1 Bft) NW 312 ° 0 min 0,000 mm 0,0 UV-I 42 W/m² 9,0 °C 17,6 °C 3,2 km/h (1 Bft)
13.05.2017 18:46 17,6 °C 17,7 °C 58 % 1012,2 hPa 0,0 mm 1,2 km/h (1 Bft) NW 312 ° 0 min 0,000 mm 0,0 UV-I 40 W/m² 9,2 °C 17,6 °C 3,2 km/h (1 Bft)
13.05.2017 18:47 17,6 °C 17,6 °C 58 % 1012,1 hPa 0,0 mm 1,8 km/h (1 Bft) NW 312 ° 0 min 0,000 mm 0,0 UV-I 40 W/m² 9,2 °C 17,6 °C 3,2 km/h (1 Bft)
13.05.2017 18:48 17,4 °C 17,6 °C 58 % 1012,2 hPa 0,0 mm 2,0 km/h (1 Bft) NW 312 ° 0 min 0,000 mm 0,0 UV-I 40 W/m² 9,1 °C 17,4 °C 3,2 km/h (1 Bft)
13.05.2017 18:49 17,4 °C 17,4 °C 59 % 1012,2 hPa 0,0 mm 2,8 km/h (1 Bft) NW 312 ° 0 min 0,000 mm 0,0 UV-I 40 W/m² 9,3 °C 17,4 °C 4,8 km/h (1 Bft)
13.05.2017 18:50 17,3 °C 17,4 °C 60 % 1012,2 hPa 0,0 mm 1,1 km/h (1 Bft) NW 312 ° 0 min 0,000 mm 0,0 UV-I 40 W/m² 9,5 °C 17,3 °C 1,6 km/h (1 Bft)
13.05.2017 18:51 17,2 °C 17,3 °C 60 % 1012,2 hPa 0,0 mm 2,0 km/h (1 Bft) NW 312 ° 0 min 0,000 mm 0,0 UV-I 42 W/m² 9,4 °C 17,2 °C 3,2 km/h (1 Bft)
13.05.2017 18:52 17,1 °C 17,2 °C 60 % 1012,2 hPa 0,0 mm 1,9 km/h (1 Bft) NW 312 ° 0 min 0,000 mm 0,0 UV-I 42 W/m² 9,3 °C 17,1 °C 3,2 km/h (1 Bft)
13.05.2017 18:53 17,1 °C 17,1 °C 60 % 1012,2 hPa 0,0 mm 3,0 km/h (1 Bft) W 275 ° 0 min 0,000 mm 0,0 UV-I 44 W/m² 9,3 °C 17,1 °C 4,8 km/h (1 Bft)
13.05.2017 18:54 16,9 °C 17,1 °C 60 % 1012,2 hPa 0,0 mm 3,8 km/h (1 Bft) W 273 ° 0 min 0,000 mm 0,0 UV-I 46 W/m² 9,1 °C 16,9 °C 4,8 km/h (1 Bft)
13.05.2017 18:55 16,9 °C 16,9 °C 61 % 1012,2 hPa 0,0 mm 2,1 km/h (1 Bft) W 273 ° 0 min 0,000 mm 0,0 UV-I 53 W/m² 9,3 °C 16,9 °C 3,2 km/h (1 Bft)
13.05.2017 18:56 16,8 °C 16,9 °C 62 % 1012,2 hPa 0,0 mm 2,3 km/h (1 Bft) W 273 ° 0 min 0,000 mm 0,6 UV-I 58 W/m² 9,5 °C 16,8 °C 3,2 km/h (1 Bft)
13.05.2017 18:57 16,7 °C 16,8 °C 61 % 1012,2 hPa 0,0 mm 0,2 km/h (0 Bft) W 273 ° 0 min 0,000 mm 0,6 UV-I 70 W/m² 9,1 °C 16,7 °C 1,6 km/h (1 Bft)
13.05.2017 18:58 16,7 °C 16,7 °C 61 % 1012,2 hPa 0,0 mm 0,0 km/h (0 Bft) W 273 ° 0 min 0,000 mm 0,6 UV-I 79 W/m² 9,1 °C 16,7 °C 0,0 km/h (0 Bft)
13.05.2017 18:59 16,7 °C 16,7 °C 61 % 1012,2 hPa 0,0 mm 0,0 km/h (0 Bft) W 273 ° 0 min 0,000 mm 0,6 UV-I 72 W/m² 9,1 °C 16,7 °C 0,0 km/h (0 Bft)
13.05.2017 19:00 16,8 °C 16,8 °C 61 % 1012,2 hPa 0,0 mm 0,0 km/h (0 Bft) W 273 ° 0 min 0,000 mm 0,6 UV-I 62 W/m² 9,2 °C 16,8 °C 0,0 km/h (0 Bft)
13.05.2017 19:01 16,8 °C 16,8 °C 59 % 1012,2 hPa 0,0 mm 0,0 km/h (0 Bft) W 273 ° 0 min 0,051 mm 0,6 UV-I 62 W/m² 8,7 °C 16,8 °C 0,0 km/h (0 Bft)
13.05.2017 19:02 16,9 °C 16,9 °C 59 % 1012,2 hPa 0,0 mm 0,0 km/h (0 Bft) W 273 ° 0 min 0,000 mm 0,6 UV-I 62 W/m² 8,8 °C 16,9 °C 0,0 km/h (0 Bft)
13.05.2017 19:03 16,9 °C 16,9 °C 62 % 1012,2 hPa 0,0 mm 0,0 km/h (0 Bft) W 273 ° 0 min 0,000 mm 0,6 UV-I 62 W/m² 9,6 °C 16,9 °C 0,0 km/h (0 Bft)
13.05.2017 19:04 16,9 °C 16,9 °C 61 % 1012,2 hPa 0,0 mm 0,0 km/h (0 Bft) W 273 ° 0 min 0,000 mm 0,6 UV-I 62 W/m² 9,3 °C 16,9 °C 0,0 km/h (0 Bft)
13.05.2017 19:05 16,9 °C 16,9 °C 61 % 1012,2 hPa 0,0 mm 0,0 km/h (0 Bft) W 273 ° 0 min 0,000 mm 0,6 UV-I 62 W/m² 9,3 °C 16,9 °C 0,0 km/h (0 Bft)
13.05.2017 19:06 16,9 °C 16,9 °C 60 % 1012,2 hPa 0,0 mm 0,0 km/h (0 Bft) W 273 ° 0 min 0,000 mm 0,6 UV-I 60 W/m² 9,1 °C 16,9 °C 0,0 km/h (0 Bft)
13.05.2017 19:07 16,9 °C 16,9 °C 62 % 1012,2 hPa 0,0 mm 0,0 km/h (0 Bft) W 273 ° 0 min 0,000 mm 0,6 UV-I 60 W/m² 9,6 °C 16,9 °C 0,0 km/h (0 Bft)
13.05.2017 19:08 16,8 °C 16,9 °C 60 % 1012,2 hPa 0,0 mm 0,0 km/h (0 Bft) W 273 ° 0 min 0,000 mm 0,6 UV-I 58 W/m² 9,0 °C 16,8 °C 0,0 km/h (0 Bft)
13.05.2017 19:09 16,8 °C 16,8 °C 61 % 1012,2 hPa 0,0 mm 0,0 km/h (0 Bft) W 273 ° 0 min 0,000 mm 0,6 UV-I 53 W/m² 9,2 °C 16,8 °C 0,0 km/h (0 Bft)
13.05.2017 19:10 16,7 °C 16,8 °C 61 % 1012,2 hPa 0,0 mm 0,0 km/h (0 Bft) W 273 ° 0 min 0,000 mm 0,0 UV-I 49 W/m² 9,1 °C 16,7 °C 0,0 km/h (0 Bft)
13.05.2017 19:11 16,7 °C 16,7 °C 60 % 1012,2 hPa 0,0 mm 0,0 km/h (0 Bft) W 273 ° 0 min 0,000 mm 0,0 UV-I 46 W/m² 8,9 °C 16,7 °C 0,0 km/h (0 Bft)
13.05.2017 19:12 16,8 °C 16,8 °C 60 % 1012,2 hPa 0,0 mm 0,7 km/h (0 Bft) W 273 ° 0 min 0,000 mm 0,0 UV-I 44 W/m² 9,0 °C 16,8 °C 1,6 km/h (1 Bft)
13.05.2017 19:13 16,7 °C 16,8 °C 62 % 1012,3 hPa 0,0 mm 1,7 km/h (1 Bft) W 273 ° 0 min 0,000 mm 0,0 UV-I 40 W/m² 9,4 °C 16,7 °C 3,2 km/h (1 Bft)
13.05.2017 19:14 16,7 °C 16,7 °C 61 % 1012,2 hPa 0,0 mm 0,0 km/h (0 Bft) W 273 ° 0 min 0,000 mm 0,0 UV-I 39 W/m² 9,1 °C 16,7 °C 0,0 km/h (0 Bft)
13.05.2017 19:15 16,6 °C 16,7 °C 61 % 1012,2 hPa 0,0 mm 0,0 km/h (0 Bft) W 273 ° 0 min 0,000 mm 0,0 UV-I 35 W/m² 9,0 °C 16,6 °C 0,0 km/h (0 Bft)
13.05.2017 19:16 16,6 °C 16,6 °C 61 % 1012,2 hPa 0,0 mm 0,0 km/h (0 Bft) W 273 ° 0 min 0,000 mm 0,0 UV-I 35 W/m² 9,0 °C 16,6 °C 0,0 km/h (0 Bft)
13.05.2017 19:17 16,6 °C 16,6 °C 60 % 1012,2 hPa 0,0 mm 0,0 km/h (0 Bft) W 273 ° 0 min 0,000 mm 0,0 UV-I 35 W/m² 8,8 °C 16,6 °C 0,0 km/h (0 Bft)
13.05.2017 19:18 16,6 °C 16,6 °C 59 % 1012,3 hPa 0,0 mm 0,0 km/h (0 Bft) W 273 ° 0 min 0,000 mm 0,0 UV-I 33 W/m² 8,6 °C 16,6 °C 0,0 km/h (0 Bft)
13.05.2017 19:19 16,6 °C 16,6 °C 59 % 1012,2 hPa 0,0 mm 0,0 km/h (0 Bft) W 273 ° 0 min 0,000 mm 0,0 UV-I 33 W/m² 8,6 °C 16,6 °C 0,0 km/h (0 Bft)
13.05.2017 19:20 16,6 °C 16,6 °C 59 % 1012,3 hPa 0,0 mm 0,0 km/h (0 Bft) W 273 ° 0 min 0,000 mm 0,0 UV-I 33 W/m² 8,6 °C 16,6 °C 0,0 km/h (0 Bft)
13.05.2017 19:21 16,6 °C 16,6 °C 61 % 1012,2 hPa 0,0 mm 0,0 km/h (0 Bft) W 273 ° 0 min 0,000 mm 0,0 UV-I 32 W/m² 9,0 °C 16,6 °C 0,0 km/h (0 Bft)
13.05.2017 19:22 16,5 °C 16,6 °C 59 % 1012,3 hPa 0,0 mm 0,0 km/h (0 Bft) W 273 ° 0 min 0,000 mm 0,0 UV-I 32 W/m² 8,5 °C 16,5 °C 0,0 km/h (0 Bft)
13.05.2017 19:23 16,5 °C 16,5 °C 60 % 1012,3 hPa 0,0 mm 1,0 km/h (0 Bft) W 273 ° 0 min 0,000 mm 0,0 UV-I 32 W/m² 8,7 °C 16,5 °C 3,2 km/h (1 Bft)
13.05.2017 19:24 16,4 °C 16,5 °C 59 % 1012,3 hPa 0,0 mm 2,0 km/h (1 Bft) W 273 ° 0 min 0,000 mm 0,0 UV-I 33 W/m² 8,4 °C 16,4 °C 3,2 km/h (1 Bft)
13.05.2017 19:25 16,6 °C 16,6 °C 61 % 1012,3 hPa 0,0 mm 2,0 km/h (1 Bft) W 273 ° 0 min 0,000 mm 0,0 UV-I 35 W/m² 9,0 °C 16,6 °C 3,2 km/h (1 Bft)
13.05.2017 19:26 16,6 °C 16,6 °C 62 % 1012,3 hPa 0,0 mm 1,5 km/h (1 Bft) W 273 ° 0 min 0,000 mm 0,0 UV-I 39 W/m² 9,3 °C 16,6 °C 3,2 km/h (1 Bft)
13.05.2017 19:27 16,5 °C 16,6 °C 62 % 1012,4 hPa 0,0 mm 0,0 km/h (0 Bft) W 273 ° 0 min 0,000 mm 0,0 UV-I 40 W/m² 9,2 °C 16,5 °C 0,0 km/h (0 Bft)
13.05.2017 19:28 16,4 °C 16,5 °C 61 % 1012,3 hPa 0,0 mm 0,1 km/h (0 Bft) W 273 ° 0 min 0,000 mm 0,0 UV-I 42 W/m² 8,9 °C 16,4 °C 1,6 km/h (1 Bft)
13.05.2017 19:29 16,4 °C 16,4 °C 61 % 1012,3 hPa 0,0 mm 0,9 km/h (0 Bft) W 273 ° 0 min 0,000 mm 0,0 UV-I 42 W/m² 8,9 °C 16,4 °C 1,6 km/h (1 Bft)
13.05.2017 19:30 16,3 °C 16,4 °C 61 % 1012,4 hPa 0,0 mm 1,1 km/h (1 Bft) W 273 ° 0 min 0,000 mm 0,0 UV-I 42 W/m² 8,8 °C 16,3 °C 1,6 km/h (1 Bft)
13.05.2017 19:31 16,3 °C 16,3 °C 62 % 1012,3 hPa 0,0 mm 0,4 km/h (0 Bft) W 273 ° 0 min 0,000 mm 0,0 UV-I 42 W/m² 9,0 °C 16,3 °C 1,6 km/h (1 Bft)
13.05.2017 19:32 16,3 °C 16,3 °C 62 % 1012,4 hPa 0,0 mm 0,0 km/h (0 Bft) W 273 ° 0 min 0,000 mm 0,0 UV-I 95 W/m² 9,0 °C 16,3 °C 0,0 km/h (0 Bft)
13.05.2017 19:33 16,3 °C 16,3 °C 62 % 1012,4 hPa 0,0 mm 0,0 km/h (0 Bft) W 273 ° 0 min 0,000 mm 0,0 UV-I 53 W/m² 9,0 °C 16,3 °C 0,0 km/h (0 Bft)
13.05.2017 19:34 16,2 °C 16,3 °C 62 % 1012,4 hPa 0,0 mm 0,0 km/h (0 Bft) W 273 ° 0 min 0,000 mm 0,0 UV-I 47 W/m² 8,9 °C 16,2 °C 0,0 km/h (0 Bft)
13.05.2017 19:35 16,2 °C 16,3 °C 63 % 1012,4 hPa 0,0 mm 0,0 km/h (0 Bft) W 273 ° 0 min 0,000 mm 0,0 UV-I 46 W/m² 9,1 °C 16,2 °C 0,0 km/h (0 Bft)
13.05.2017 19:36 16,2 °C 16,2 °C 64 % 1012,4 hPa 0,0 mm 0,0 km/h (0 Bft) W 273 ° 0 min 0,000 mm 0,0 UV-I 46 W/m² 9,4 °C 16,2 °C 0,0 km/h (0 Bft)
13.05.2017 19:37 16,2 °C 16,2 °C 64 % 1012,5 hPa 0,0 mm 0,0 km/h (0 Bft) W 273 ° 0 min 0,000 mm 0,0 UV-I 46 W/m² 9,4 °C 16,2 °C 0,0 km/h (0 Bft)
13.05.2017 19:38 16,2 °C 16,2 °C 64 % 1012,5 hPa 0,0 mm 0,0 km/h (0 Bft) W 273 ° 0 min 0,000 mm 0,0 UV-I 44 W/m² 9,4 °C 16,2 °C 0,0 km/h (0 Bft)
13.05.2017 19:39 16,1 °C 16,2 °C 65 % 1012,5 hPa 0,0 mm 0,0 km/h (0 Bft) W 273 ° 0 min 0,000 mm 0,0 UV-I 44 W/m² 9,5 °C 16,1 °C 0,0 km/h (0 Bft)
13.05.2017 19:40 16,0 °C 16,1 °C 67 % 1012,5 hPa 0,0 mm 0,0 km/h (0 Bft) W 273 ° 0 min 0,000 mm 0,0 UV-I 42 W/m² 9,9 °C 16,0 °C 0,0 km/h (0 Bft)
13.05.2017 19:41 15,9 °C 16,0 °C 67 % 1012,6 hPa 0,0 mm 0,0 km/h (0 Bft) W 273 ° 0 min 0,000 mm 0,0 UV-I 42 W/m² 9,8 °C 15,9 °C 0,0 km/h (0 Bft)
13.05.2017 19:42 15,9 °C 15,9 °C 64 % 1012,6 hPa 0,0 mm 0,0 km/h (0 Bft) W 273 ° 0 min 0,000 mm 0,0 UV-I 42 W/m² 9,1 °C 15,9 °C 0,0 km/h (0 Bft)
13.05.2017 19:43 15,9 °C 15,9 °C 67 % 1012,6 hPa 0,0 mm 0,0 km/h (0 Bft) W 273 ° 0 min 0,000 mm 0,0 UV-I 42 W/m² 9,8 °C 15,9 °C 0,0 km/h (0 Bft)
13.05.2017 19:44 15,9 °C 15,9 °C 66 % 1012,7 hPa 0,0 mm 0,0 km/h (0 Bft) W 273 ° 0 min 0,000 mm 0,0 UV-I 53 W/m² 9,6 °C 15,9 °C 0,0 km/h (0 Bft)
13.05.2017 19:45 15,9 °C 15,9 °C 66 % 1012,6 hPa 0,0 mm 0,0 km/h (0 Bft) W 273 ° 0 min 0,000 mm 0,0 UV-I 84 W/m² 9,6 °C 15,9 °C 0,0 km/h (0 Bft)
13.05.2017 19:46 15,9 °C 15,9 °C 66 % 1012,7 hPa 0,0 mm 0,0 km/h (0 Bft) W 273 ° 0 min 0,000 mm 0,0 UV-I 98 W/m² 9,6 °C 15,9 °C 0,0 km/h (0 Bft)
13.05.2017 19:47 15,9 °C 15,9 °C 66 % 1012,7 hPa 0,0 mm 0,0 km/h (0 Bft) W 273 ° 0 min 0,000 mm 0,0 UV-I 95 W/m² 9,6 °C 15,9 °C 0,0 km/h (0 Bft)
13.05.2017 19:48 16,0 °C 16,0 °C 69 % 1012,7 hPa 0,0 mm 0,0 km/h (0 Bft) W 273 ° 0 min 0,000 mm 0,0 UV-I 86 W/m² 10,3 °C 16,0 °C 0,0 km/h (0 Bft)
13.05.2017 19:49 16,0 °C 16,0 °C 65 % 1012,8 hPa 0,0 mm 0,0 km/h (0 Bft) W 273 ° 0 min 0,000 mm 0,0 UV-I 70 W/m² 9,4 °C 16,0 °C 0,0 km/h (0 Bft)
13.05.2017 19:50 16,1 °C 16,1 °C 65 % 1012,8 hPa 0,0 mm 0,0 km/h (0 Bft) W 273 ° 0 min 0,000 mm 0,0 UV-I 49 W/m² 9,5 °C 16,1 °C 0,0 km/h (0 Bft)
13.05.2017 19:51 16,1 °C 16,1 °C 68 % 1012,8 hPa 0,0 mm 0,0 km/h (0 Bft) W 273 ° 0 min 0,000 mm 0,0 UV-I 65 W/m² 10,2 °C 16,1 °C 0,0 km/h (0 Bft)
13.05.2017 19:52 16,1 °C 16,1 °C 66 % 1012,8 hPa 0,0 mm 0,0 km/h (0 Bft) W 273 ° 0 min 0,000 mm 0,0 UV-I 60 W/m² 9,7 °C 16,1 °C 0,0 km/h (0 Bft)
13.05.2017 19:53 16,2 °C 16,2 °C 64 % 1012,8 hPa 0,0 mm 0,0 km/h (0 Bft) W 273 ° 0 min 0,000 mm 0,0 UV-I 65 W/m² 9,4 °C 16,2 °C 0,0 km/h (0 Bft)
13.05.2017 19:54 16,3 °C 16,3 °C 64 % 1012,8 hPa 0,0 mm 0,0 km/h (0 Bft) W 273 ° 0 min 0,000 mm 0,0 UV-I 62 W/m² 9,5 °C 16,3 °C 0,0 km/h (0 Bft)
13.05.2017 19:55 16,3 °C 16,3 °C 63 % 1012,8 hPa 0,0 mm 0,0 km/h (0 Bft) W 273 ° 0 min 0,000 mm 0,0 UV-I 51 W/m² 9,2 °C 16,3 °C 0,0 km/h (0 Bft)
13.05.2017 19:56 16,4 °C 16,4 °C 62 % 1012,8 hPa 0,0 mm 0,0 km/h (0 Bft) W 273 ° 0 min 0,000 mm 0,0 UV-I 54 W/m² 9,1 °C 16,4 °C 0,0 km/h (0 Bft)
13.05.2017 19:57 16,4 °C 16,4 °C 62 % 1012,8 hPa 0,0 mm 0,0 km/h (0 Bft) W 273 ° 0 min 0,000 mm 0,0 UV-I 47 W/m² 9,1 °C 16,4 °C 0,0 km/h (0 Bft)
13.05.2017 19:58 16,4 °C 16,4 °C 62 % 1012,8 hPa 0,0 mm 0,0 km/h (0 Bft) W 273 ° 0 min 0,000 mm 0,0 UV-I 44 W/m² 9,1 °C 16,4 °C 0,0 km/h (0 Bft)
13.05.2017 19:59 16,4 °C 16,4 °C 62 % 1012,8 hPa 0,0 mm 0,0 km/h (0 Bft) W 273 ° 0 min 0,000 mm 0,0 UV-I 44 W/m² 9,1 °C 16,4 °C 0,0 km/h (0 Bft)
13.05.2017 20:00 16,4 °C 16,5 °C 62 % 1012,9 hPa 0,0 mm 0,0 km/h (0 Bft) W 273 ° 0 min 0,026 mm 0,0 UV-I 40 W/m² 9,1 °C 16,4 °C 0,0 km/h (0 Bft)
13.05.2017 20:01 16,4 °C 16,5 °C 64 % 1012,9 hPa 0,0 mm 0,0 km/h (0 Bft) W 273 ° 0 min 0,000 mm 0,0 UV-I 35 W/m² 9,6 °C 16,4 °C 0,0 km/h (0 Bft)
13.05.2017 20:02 16,4 °C 16,5 °C 64 % 1012,9 hPa 0,0 mm 0,0 km/h (0 Bft) W 273 ° 0 min 0,000 mm 0,0 UV-I 28 W/m² 9,6 °C 16,4 °C 0,0 km/h (0 Bft)
13.05.2017 20:03 16,4 °C 16,4 °C 65 % 1012,9 hPa 0,0 mm 0,0 km/h (0 Bft) W 273 ° 0 min 0,000 mm 0,0 UV-I 28 W/m² 9,8 °C 16,4 °C 0,0 km/h (0 Bft)
13.05.2017 20:04 16,3 °C 16,4 °C 65 % 1012,8 hPa 0,0 mm 0,0 km/h (0 Bft) W 273 ° 0 min 0,000 mm 0,0 UV-I 32 W/m² 9,7 °C 16,3 °C 0,0 km/h (0 Bft)
13.05.2017 20:05 16,3 °C 16,3 °C 65 % 1012,9 hPa 0,0 mm 0,0 km/h (0 Bft) W 273 ° 0 min 0,000 mm 0,0 UV-I 37 W/m² 9,7 °C 16,3 °C 0,0 km/h (0 Bft)
13.05.2017 20:06 16,2 °C 16,3 °C 64 % 1012,8 hPa 0,0 mm 0,0 km/h (0 Bft) W 273 ° 0 min 0,000 mm 0,0 UV-I 39 W/m² 9,4 °C 16,2 °C 0,0 km/h (0 Bft)
13.05.2017 20:07 16,2 °C 16,3 °C 64 % 1012,9 hPa 0,0 mm 0,0 km/h (0 Bft) W 273 ° 0 min 0,000 mm 0,0 UV-I 39 W/m² 9,4 °C 16,2 °C 0,0 km/h (0 Bft)
13.05.2017 20:08 16,2 °C 16,3 °C 63 % 1012,9 hPa 0,0 mm 0,0 km/h (0 Bft) W 273 ° 0 min 0,000 mm 0,0 UV-I 39 W/m² 9,1 °C 16,2 °C 0,0 km/h (0 Bft)
13.05.2017 20:09 16,2 °C 16,3 °C 63 % 1012,9 hPa 0,0 mm 0,0 km/h (0 Bft) W 273 ° 0 min 0,000 mm 0,0 UV-I 37 W/m² 9,1 °C 16,2 °C 0,0 km/h (0 Bft)
13.05.2017 20:10 16,3 °C 16,3 °C 63 % 1012,9 hPa 0,0 mm 0,0 km/h (0 Bft) W 273 ° 0 min 0,000 mm 0,0 UV-I 35 W/m² 9,2 °C 16,3 °C 0,0 km/h (0 Bft)
13.05.2017 20:11 16,3 °C 16,3 °C 62 % 1012,9 hPa 0,0 mm 0,0 km/h (0 Bft) W 273 ° 0 min 0,000 mm 0,0 UV-I 32 W/m² 9,0 °C 16,3 °C 0,0 km/h (0 Bft)
13.05.2017 20:12 16,3 °C 16,3 °C 63 % 1012,9 hPa 0,0 mm 0,0 km/h (0 Bft) W 273 ° 0 min 0,000 mm 0,0 UV-I 28 W/m² 9,2 °C 16,3 °C 0,0 km/h (0 Bft)
13.05.2017 20:13 16,3 °C 16,3 °C 65 % 1012,9 hPa 0,0 mm 0,0 km/h (0 Bft) W 273 ° 0 min 0,000 mm 0,0 UV-I 26 W/m² 9,7 °C 16,3 °C 0,0 km/h (0 Bft)
13.05.2017 20:14 16,3 °C 16,3 °C 64 % 1013,0 hPa 0,0 mm 0,0 km/h (0 Bft) W 273 ° 0 min 0,000 mm 0,0 UV-I 26 W/m² 9,5 °C 16,3 °C 0,0 km/h (0 Bft)
13.05.2017 20:15 16,2 °C 16,3 °C 69 % 1013,0 hPa 0,0 mm 0,0 km/h (0 Bft) W 273 ° 0 min 0,000 mm 0,0 UV-I 25 W/m² 10,5 °C 16,2 °C 0,0 km/h (0 Bft)
13.05.2017 20:16 16,0 °C 16,2 °C 70 % 1012,9 hPa 0,0 mm 0,0 km/h (0 Bft) W 273 ° 0 min 0,000 mm 0,0 UV-I 23 W/m² 10,5 °C 16,0 °C 0,0 km/h (0 Bft)
13.05.2017 20:17 15,8 °C 16,0 °C 70 % 1013,0 hPa 0,0 mm 0,0 km/h (0 Bft) W 273 ° 0 min 0,000 mm 0,0 UV-I 23 W/m² 10,3 °C 15,8 °C 0,0 km/h (0 Bft)
13.05.2017 20:18 15,7 °C 15,8 °C 72 % 1013,0 hPa 0,0 mm 0,0 km/h (0 Bft) W 273 ° 0 min 0,000 mm 0,0 UV-I 16 W/m² 10,7 °C 15,7 °C 0,0 km/h (0 Bft)
13.05.2017 20:19 15,6 °C 15,7 °C 71 % 1013,0 hPa 0,0 mm 0,0 km/h (0 Bft) W 273 ° 0 min 0,000 mm 0,0 UV-I 11 W/m² 10,4 °C 15,6 °C 0,0 km/h (0 Bft)
13.05.2017 20:20 15,4 °C 15,6 °C 72 % 1013,0 hPa 0,0 mm 0,0 km/h (0 Bft) W 273 ° 0 min 0,000 mm 0,0 UV-I 11 W/m² 10,4 °C 15,4 °C 0,0 km/h (0 Bft)
13.05.2017 20:21 15,3 °C 15,4 °C 72 % 1013,0 hPa 0,0 mm 0,0 km/h (0 Bft) W 273 ° 0 min 0,000 mm 0,0 UV-I 11 W/m² 10,3 °C 15,3 °C 0,0 km/h (0 Bft)
13.05.2017 20:22 15,3 °C 15,3 °C 74 % 1013,0 hPa 0,0 mm 0,3 km/h (0 Bft) W 273 ° 0 min 0,000 mm 0,0 UV-I 9 W/m² 10,7 °C 15,3 °C 1,6 km/h (1 Bft)
13.05.2017 20:23 15,2 °C 15,3 °C 74 % 1013,0 hPa 0,0 mm 1,7 km/h (1 Bft) W-SW 257 ° 0 min 0,000 mm 0,0 UV-I 7 W/m² 10,6 °C 15,2 °C 3,2 km/h (1 Bft)
13.05.2017 20:24 15,1 °C 15,2 °C 72 % 1013,0 hPa 0,0 mm 0,5 km/h (0 Bft) W-SW 257 ° 0 min 0,000 mm 0,0 UV-I 7 W/m² 10,1 °C 15,1 °C 3,2 km/h (1 Bft)
13.05.2017 20:25 15,1 °C 15,2 °C 76 % 1013,1 hPa 0,0 mm 0,3 km/h (0 Bft) W 267 ° 0 min 0,000 mm 0,0 UV-I 5 W/m² 10,9 °C 15,1 °C 1,6 km/h (1 Bft)
13.05.2017 20:26 15,1 °C 15,1 °C 75 % 1013,0 hPa 0,0 mm 2,1 km/h (1 Bft) O-SO 119 ° 0 min 0,000 mm 0,0 UV-I 5 W/m² 10,7 °C 15,1 °C 3,2 km/h (1 Bft)
13.05.2017 20:27 15,0 °C 15,1 °C 75 % 1013,1 hPa 0,0 mm 1,0 km/h (0 Bft) O-SO 119 ° 0 min 0,000 mm 0,0 UV-I 5 W/m² 10,6 °C 15,0 °C 3,2 km/h (1 Bft)
13.05.2017 20:28 14,9 °C 15,0 °C 74 % 1013,1 hPa 0,0 mm 1,3 km/h (1 Bft) O-SO 119 ° 0 min 0,000 mm 0,0 UV-I 5 W/m² 10,3 °C 14,9 °C 3,2 km/h (1 Bft)
13.05.2017 20:29 15,0 °C 15,0 °C 71 % 1013,1 hPa 0,0 mm 1,0 km/h (0 Bft) O-SO 119 ° 0 min 0,000 mm 0,0 UV-I 5 W/m² 9,8 °C 15,0 °C 3,2 km/h (1 Bft)
13.05.2017 20:30 15,1 °C 15,1 °C 73 % 1013,1 hPa 0,0 mm 0,0 km/h (0 Bft) O-SO 119 ° 0 min 0,000 mm 0,0 UV-I 5 W/m² 10,3 °C 15,1 °C 0,0 km/h (0 Bft)
13.05.2017 20:31 15,1 °C 15,1 °C 71 % 1013,1 hPa 0,0 mm 0,0 km/h (0 Bft) O-SO 119 ° 0 min 0,000 mm 0,0 UV-I 0 W/m² 9,9 °C 15,1 °C 0,0 km/h (0 Bft)
13.05.2017 20:32 15,1 °C 15,1 °C 72 % 1013,1 hPa 0,0 mm 0,0 km/h (0 Bft) O-SO 119 ° 0 min 0,000 mm 0,0 UV-I 0 W/m² 10,1 °C 15,1 °C 0,0 km/h (0 Bft)
13.05.2017 20:33 15,1 °C 15,1 °C 74 % 1013,1 hPa 0,0 mm 0,0 km/h (0 Bft) O-SO 119 ° 0 min 0,000 mm 0,0 UV-I 0 W/m² 10,5 °C 15,1 °C 0,0 km/h (0 Bft)
13.05.2017 20:34 15,1 °C 15,1 °C 72 % 1013,2 hPa 0,0 mm 0,0 km/h (0 Bft) O-SO 119 ° 0 min 0,000 mm 0,0 UV-I 0 W/m² 10,1 °C 15,1 °C 0,0 km/h (0 Bft)
13.05.2017 20:35 15,0 °C 15,1 °C 72 % 1013,1 hPa 0,0 mm 0,0 km/h (0 Bft) O-SO 119 ° 0 min 0,000 mm 0,0 UV-I 0 W/m² 10,0 °C 15,0 °C 0,0 km/h (0 Bft)
13.05.2017 20:36 15,0 °C 15,1 °C 73 % 1013,2 hPa 0,0 mm 0,0 km/h (0 Bft) O-SO 119 ° 0 min 0,000 mm 0,0 UV-I 0 W/m² 10,2 °C 15,0 °C 0,0 km/h (0 Bft)
13.05.2017 20:37 15,1 °C 15,1 °C 71 % 1013,2 hPa 0,0 mm 0,0 km/h (0 Bft) O-SO 119 ° 0 min 0,000 mm 0,0 UV-I 0 W/m² 9,9 °C 15,1 °C 0,0 km/h (0 Bft)
13.05.2017 20:38 15,1 °C 15,1 °C 70 % 1013,2 hPa 0,0 mm 0,0 km/h (0 Bft) O-SO 119 ° 0 min 0,000 mm 0,0 UV-I 0 W/m² 9,7 °C 15,1 °C 0,0 km/h (0 Bft)
13.05.2017 20:39 15,1 °C 15,1 °C 70 % 1013,2 hPa 0,0 mm 0,0 km/h (0 Bft) O-SO 119 ° 0 min 0,000 mm 0,0 UV-I 0 W/m² 9,7 °C 15,1 °C 0,0 km/h (0 Bft)
13.05.2017 20:40 15,1 °C 15,2 °C 72 % 1013,2 hPa 0,0 mm 0,0 km/h (0 Bft) O-SO 119 ° 0 min 0,000 mm 0,0 UV-I 0 W/m² 10,1 °C 15,1 °C 0,0 km/h (0 Bft)
13.05.2017 20:41 15,1 °C 15,2 °C 69 % 1013,2 hPa 0,0 mm 0,0 km/h (0 Bft) O-SO 119 ° 0 min 0,000 mm 0,0 UV-I 0 W/m² 9,5 °C 15,1 °C 0,0 km/h (0 Bft)
13.05.2017 20:42 15,2 °C 15,2 °C 72 % 1013,3 hPa 0,0 mm 0,0 km/h (0 Bft) O-SO 119 ° 0 min 0,000 mm 0,0 UV-I 0 W/m² 10,2 °C 15,2 °C 0,0 km/h (0 Bft)
13.05.2017 20:43 15,1 °C 15,2 °C 72 % 1013,3 hPa 0,0 mm 0,0 km/h (0 Bft) O-SO 119 ° 0 min 0,000 mm 0,0 UV-I 0 W/m² 10,1 °C 15,1 °C 0,0 km/h (0 Bft)
13.05.2017 20:44 15,1 °C 15,1 °C 71 % 1013,3 hPa 0,0 mm 0,0 km/h (0 Bft) O-SO 119 ° 0 min 0,000 mm 0,0 UV-I 0 W/m² 9,9 °C 15,1 °C 0,0 km/h (0 Bft)
13.05.2017 20:45 15,1 °C 15,1 °C 71 % 1013,3 hPa 0,0 mm 0,0 km/h (0 Bft) O-SO 119 ° 0 min 0,000 mm 0,0 UV-I 0 W/m² 9,9 °C 15,1 °C 0,0 km/h (0 Bft)
13.05.2017 20:46 15,1 °C 15,1 °C 71 % 1013,3 hPa 0,0 mm 0,0 km/h (0 Bft) O-SO 119 ° 0 min 0,000 mm 0,0 UV-I 0 W/m² 9,9 °C 15,1 °C 0,0 km/h (0 Bft)
13.05.2017 20:47 15,0 °C 15,1 °C 71 % 1013,4 hPa 0,0 mm 0,0 km/h (0 Bft) O-SO 119 ° 0 min 0,000 mm 0,0 UV-I 0 W/m² 9,8 °C 15,0 °C 0,0 km/h (0 Bft)
13.05.2017 20:48 15,0 °C 15,0 °C 71 % 1013,4 hPa 0,0 mm 0,0 km/h (0 Bft) O-SO 119 ° 0 min 0,000 mm 0,0 UV-I 0 W/m² 9,8 °C 15,0 °C 0,0 km/h (0 Bft)
13.05.2017 20:49 15,0 °C 15,0 °C 71 % 1013,4 hPa 0,0 mm 0,0 km/h (0 Bft) O-SO 119 ° 0 min 0,000 mm 0,0 UV-I 0 W/m² 9,8 °C 15,0 °C 0,0 km/h (0 Bft)
13.05.2017 20:50 14,9 °C 15,0 °C 71 % 1013,4 hPa 0,0 mm 0,0 km/h (0 Bft) O-SO 119 ° 0 min 0,000 mm 0,0 UV-I 0 W/m² 9,7 °C 14,9 °C 0,0 km/h (0 Bft)
13.05.2017 20:51 14,9 °C 14,9 °C 71 % 1013,4 hPa 0,0 mm 0,0 km/h (0 Bft) O-SO 119 ° 0 min 0,000 mm 0,0 UV-I 0 W/m² 9,7 °C 14,9 °C 0,0 km/h (0 Bft)
13.05.2017 20:52 14,9 °C 14,9 °C 71 % 1013,4 hPa 0,0 mm 0,0 km/h (0 Bft) O-SO 119 ° 0 min 0,000 mm 0,0 UV-I 0 W/m² 9,7 °C 14,9 °C 0,0 km/h (0 Bft)
13.05.2017 20:53 14,9 °C 14,9 °C 72 % 1013,4 hPa 0,0 mm 0,0 km/h (0 Bft) O-SO 119 ° 0 min 0,000 mm 0,0 UV-I 0 W/m² 9,9 °C 14,9 °C 0,0 km/h (0 Bft)
13.05.2017 20:54 14,8 °C 14,9 °C 71 % 1013,3 hPa 0,0 mm 0,0 km/h (0 Bft) O-SO 119 ° 0 min 0,000 mm 0,0 UV-I 0 W/m² 9,6 °C 14,8 °C 0,0 km/h (0 Bft)
13.05.2017 20:55 14,8 °C 14,9 °C 71 % 1013,3 hPa 0,0 mm 0,0 km/h (0 Bft) O-SO 119 ° 0 min 0,000 mm 0,0 UV-I 0 W/m² 9,6 °C 14,8 °C 0,0 km/h (0 Bft)
13.05.2017 20:56 14,8 °C 14,8 °C 71 % 1013,3 hPa 0,0 mm 0,0 km/h (0 Bft) O-SO 119 ° 0 min 0,000 mm 0,0 UV-I 0 W/m² 9,6 °C 14,8 °C 0,0 km/h (0 Bft)
13.05.2017 20:57 14,8 °C 14,8 °C 72 % 1013,3 hPa 0,0 mm 0,0 km/h (0 Bft) O-SO 119 ° 0 min 0,000 mm 0,0 UV-I 0 W/m² 9,8 °C 14,8 °C 0,0 km/h (0 Bft)
13.05.2017 20:58 14,7 °C 14,8 °C 72 % 1013,3 hPa 0,0 mm 0,0 km/h (0 Bft) O-SO 119 ° 0 min 0,000 mm 0,0 UV-I 0 W/m² 9,7 °C 14,7 °C 0,0 km/h (0 Bft)
13.05.2017 20:59 14,7 °C 14,7 °C 72 % 1013,4 hPa 0,0 mm 0,0 km/h (0 Bft) O-SO 119 ° 0 min 0,000 mm 0,0 UV-I 0 W/m² 9,7 °C 14,7 °C 0,0 km/h (0 Bft)
13.05.2017 21:00 14,6 °C 14,7 °C 72 % 1013,4 hPa 0,0 mm 0,0 km/h (0 Bft) O-SO 119 ° 0 min 0,000 mm 0,0 UV-I 0 W/m² 9,6 °C 14,6 °C 0,0 km/h (0 Bft)
13.05.2017 21:01 14,6 °C 14,6 °C 72 % 1013,4 hPa 0,0 mm 0,0 km/h (0 Bft) O-SO 119 ° 0 min 0,000 mm 0,0 UV-I 0 W/m² 9,6 °C 14,6 °C 0,0 km/h (0 Bft)
13.05.2017 21:02 14,6 °C 14,6 °C 72 % 1013,5 hPa 0,0 mm 0,0 km/h (0 Bft) O-SO 119 ° 0 min 0,000 mm 0,0 UV-I 0 W/m² 9,6 °C 14,6 °C 0,0 km/h (0 Bft)
13.05.2017 21:03 14,6 °C 14,6 °C 73 % 1013,5 hPa 0,0 mm 0,0 km/h (0 Bft) O-SO 119 ° 0 min 0,000 mm 0,0 UV-I 0 W/m² 9,8 °C 14,6 °C 0,0 km/h (0 Bft)
13.05.2017 21:04 14,5 °C 14,6 °C 73 % 1013,5 hPa 0,0 mm 0,0 km/h (0 Bft) O-SO 119 ° 0 min 0,000 mm 0,0 UV-I 0 W/m² 9,7 °C 14,5 °C 0,0 km/h (0 Bft)
13.05.2017 21:05 14,4 °C 14,5 °C 74 % 1013,5 hPa 0,0 mm 0,0 km/h (0 Bft) O-SO 120 ° 0 min 0,000 mm 0,0 UV-I 0 W/m² 9,8 °C 14,4 °C 0,0 km/h (0 Bft)
13.05.2017 21:06 14,3 °C 14,4 °C 74 % 1013,5 hPa 0,0 mm 0,0 km/h (0 Bft) SO 124 ° 0 min 0,000 mm 0,0 UV-I 0 W/m² 9,7 °C 14,3 °C 0,0 km/h (0 Bft)
13.05.2017 21:07 14,3 °C 14,3 °C 74 % 1013,5 hPa 0,0 mm 0,0 km/h (0 Bft) SO 124 ° 0 min 0,000 mm 0,0 UV-I 0 W/m² 9,7 °C 14,3 °C 0,0 km/h (0 Bft)
13.05.2017 21:08 14,2 °C 14,3 °C 74 % 1013,5 hPa 0,0 mm 0,0 km/h (0 Bft) SO 124 ° 0 min 0,000 mm 0,0 UV-I 0 W/m² 9,6 °C 14,2 °C 0,0 km/h (0 Bft)
13.05.2017 21:09 14,2 °C 14,2 °C 74 % 1013,5 hPa 0,0 mm 0,0 km/h (0 Bft) SO 126 ° 0 min 0,000 mm 0,0 UV-I 0 W/m² 9,6 °C 14,2 °C 0,0 km/h (0 Bft)
13.05.2017 21:10 14,2 °C 14,2 °C 74 % 1013,6 hPa 0,0 mm 0,0 km/h (0 Bft) SO 128 ° 0 min 0,000 mm 0,0 UV-I 0 W/m² 9,6 °C 14,2 °C 0,0 km/h (0 Bft)
13.05.2017 21:11 14,2 °C 14,2 °C 74 % 1013,6 hPa 0,0 mm 0,5 km/h (0 Bft) SO 128 ° 0 min 0,000 mm 0,0 UV-I 0 W/m² 9,6 °C 14,2 °C 1,6 km/h (1 Bft)
13.05.2017 21:12 14,3 °C 14,3 °C 73 % 1013,6 hPa 0,0 mm 1,3 km/h (1 Bft) SO 128 ° 0 min 0,000 mm 0,0 UV-I 0 W/m² 9,5 °C 14,3 °C 3,2 km/h (1 Bft)
13.05.2017 21:13 14,3 °C 14,3 °C 73 % 1013,6 hPa 0,0 mm 3,4 km/h (1 Bft) SO 128 ° 0 min 0,000 mm 0,0 UV-I 0 W/m² 9,5 °C 14,3 °C 4,8 km/h (1 Bft)
13.05.2017 21:14 14,3 °C 14,3 °C 73 % 1013,6 hPa 0,0 mm 2,3 km/h (1 Bft) SO 128 ° 0 min 0,000 mm 0,0 UV-I 0 W/m² 9,5 °C 14,3 °C 3,2 km/h (1 Bft)
13.05.2017 21:15 14,3 °C 14,4 °C 73 % 1013,6 hPa 0,0 mm 0,9 km/h (0 Bft) SO 128 ° 0 min 0,000 mm 0,0 UV-I 0 W/m² 9,5 °C 14,3 °C 3,2 km/h (1 Bft)
13.05.2017 21:16 14,3 °C 14,3 °C 73 % 1013,6 hPa 0,0 mm 2,2 km/h (1 Bft) SO 128 ° 0 min 0,000 mm 0,0 UV-I 0 W/m² 9,5 °C 14,3 °C 3,2 km/h (1 Bft)
13.05.2017 21:17 14,2 °C 14,3 °C 73 % 1013,6 hPa 0,0 mm 1,0 km/h (0 Bft) SO 128 ° 0 min 0,000 mm 0,0 UV-I 0 W/m² 9,4 °C 14,2 °C 3,2 km/h (1 Bft)
13.05.2017 21:18 14,1 °C 14,2 °C 74 % 1013,7 hPa 0,0 mm 0,7 km/h (0 Bft) SO 128 ° 0 min 0,000 mm 0,0 UV-I 0 W/m² 9,5 °C 14,1 °C 3,2 km/h (1 Bft)
13.05.2017 21:19 14,0 °C 14,1 °C 74 % 1013,6 hPa 0,0 mm 3,1 km/h (1 Bft) SO 128 ° 0 min 0,000 mm 0,0 UV-I 0 W/m² 9,4 °C 14,0 °C 4,8 km/h (1 Bft)
13.05.2017 21:20 13,8 °C 14,0 °C 74 % 1013,7 hPa 0,0 mm 3,8 km/h (1 Bft) S 184 ° 0 min 0,000 mm 0,0 UV-I 0 W/m² 9,2 °C 13,8 °C 6,4 km/h (2 Bft)
13.05.2017 21:21 13,8 °C 13,9 °C 75 % 1013,7 hPa 0,0 mm 5,3 km/h (1 Bft) S-SW 192 ° 0 min 0,000 mm 0,0 UV-I 0 W/m² 9,4 °C 13,8 °C 6,4 km/h (2 Bft)
13.05.2017 21:22 13,7 °C 13,8 °C 76 % 1013,7 hPa 0,0 mm 4,9 km/h (1 Bft) S-SW 193 ° 0 min 0,000 mm 0,0 UV-I 0 W/m² 9,5 °C 13,7 °C 6,4 km/h (2 Bft)
13.05.2017 21:23 13,6 °C 13,7 °C 76 % 1013,7 hPa 0,0 mm 4,0 km/h (1 Bft) S-SW 193 ° 0 min 0,000 mm 0,0 UV-I 0 W/m² 9,4 °C 13,6 °C 4,8 km/h (1 Bft)
13.05.2017 21:24 13,4 °C 13,6 °C 77 % 1013,7 hPa 0,0 mm 3,6 km/h (1 Bft) S-SW 193 ° 0 min 0,000 mm 0,0 UV-I 0 W/m² 9,5 °C 13,4 °C 4,8 km/h (1 Bft)
13.05.2017 21:25 13,3 °C 13,4 °C 77 % 1013,8 hPa 0,0 mm 3,5 km/h (1 Bft) S-SW 193 ° 0 min 0,000 mm 0,0 UV-I 0 W/m² 9,4 °C 13,3 °C 4,8 km/h (1 Bft)
13.05.2017 21:26 13,3 °C 13,3 °C 78 % 1013,8 hPa 0,0 mm 3,6 km/h (1 Bft) S-SW 193 ° 0 min 0,000 mm 0,0 UV-I 0 W/m² 9,5 °C 13,3 °C 4,8 km/h (1 Bft)
13.05.2017 21:27 13,2 °C 13,3 °C 78 % 1013,8 hPa 0,0 mm 3,1 km/h (1 Bft) S-SW 193 ° 0 min 0,000 mm 0,0 UV-I 0 W/m² 9,4 °C 13,2 °C 4,8 km/h (1 Bft)
13.05.2017 21:28 13,2 °C 13,2 °C 78 % 1013,9 hPa 0,0 mm 0,6 km/h (0 Bft) S-SW 193 ° 0 min 0,000 mm 0,0 UV-I 0 W/m² 9,4 °C 13,2 °C 3,2 km/h (1 Bft)
13.05.2017 21:29 13,2 °C 13,2 °C 79 % 1013,9 hPa 0,0 mm 1,6 km/h (1 Bft) S-SW 193 ° 0 min 0,000 mm 0,0 UV-I 0 W/m² 9,6 °C 13,2 °C 3,2 km/h (1 Bft)
13.05.2017 21:30 13,2 °C 13,2 °C 78 % 1013,8 hPa 0,0 mm 1,4 km/h (1 Bft) S-SW 193 ° 0 min 0,000 mm 0,0 UV-I 0 W/m² 9,4 °C 13,2 °C 3,2 km/h (1 Bft)
13.05.2017 21:31 13,3 °C 13,3 °C 78 % 1013,9 hPa 0,0 mm 0,6 km/h (0 Bft) S-SW 193 ° 0 min 0,000 mm 0,0 UV-I 0 W/m² 9,5 °C 13,3 °C 1,6 km/h (1 Bft)
13.05.2017 21:32 13,4 °C 13,4 °C 78 % 1013,9 hPa 0,0 mm 0,0 km/h (0 Bft) S-SW 193 ° 0 min 0,000 mm 0,0 UV-I 0 W/m² 9,6 °C 13,4 °C 0,0 km/h (0 Bft)
13.05.2017 21:33 13,4 °C 13,4 °C 78 % 1013,9 hPa 0,0 mm 0,0 km/h (0 Bft) S-SW 193 ° 0 min 0,000 mm 0,0 UV-I 0 W/m² 9,6 °C 13,4 °C 0,0 km/h (0 Bft)
13.05.2017 21:34 13,4 °C 13,4 °C 78 % 1013,9 hPa 0,0 mm 0,1 km/h (0 Bft) S-SW 193 ° 0 min 0,000 mm 0,0 UV-I 0 W/m² 9,6 °C 13,4 °C 1,6 km/h (1 Bft)
13.05.2017 21:35 13,5 °C 13,5 °C 79 % 1013,9 hPa 0,0 mm 1,3 km/h (1 Bft) S-SW 193 ° 0 min 0,000 mm 0,0 UV-I 0 W/m² 9,9 °C 13,5 °C 3,2 km/h (1 Bft)
13.05.2017 21:36 13,5 °C 13,5 °C 79 % 1013,9 hPa 0,0 mm 1,9 km/h (1 Bft) S-SW 192 ° 0 min 0,000 mm 0,0 UV-I 0 W/m² 9,9 °C 13,5 °C 3,2 km/h (1 Bft)
13.05.2017 21:37 13,4 °C 13,5 °C 80 % 1014,0 hPa 0,0 mm 3,2 km/h (1 Bft) S 190 ° 0 min 0,000 mm 0,0 UV-I 0 W/m² 10,0 °C 13,4 °C 3,2 km/h (1 Bft)
13.05.2017 21:38 13,4 °C 13,4 °C 80 % 1013,9 hPa 0,0 mm 2,5 km/h (1 Bft) S 190 ° 0 min 0,000 mm 0,0 UV-I 0 W/m² 10,0 °C 13,4 °C 3,2 km/h (1 Bft)
13.05.2017 21:39 13,4 °C 13,4 °C 79 % 1013,9 hPa 0,0 mm 2,5 km/h (1 Bft) S 190 ° 0 min 0,000 mm 0,0 UV-I 0 W/m² 9,8 °C 13,4 °C 3,2 km/h (1 Bft)
13.05.2017 21:40 13,4 °C 13,4 °C 80 % 1013,9 hPa 0,0 mm 1,7 km/h (1 Bft) S 190 ° 0 min 0,000 mm 0,0 UV-I 0 W/m² 10,0 °C 13,4 °C 3,2 km/h (1 Bft)
13.05.2017 21:41 13,4 °C 13,4 °C 80 % 1013,9 hPa 0,0 mm 1,4 km/h (1 Bft) S 190 ° 0 min 0,000 mm 0,0 UV-I 0 W/m² 10,0 °C 13,4 °C 3,2 km/h (1 Bft)
13.05.2017 21:42 13,4 °C 13,4 °C 80 % 1013,9 hPa 0,0 mm 0,0 km/h (0 Bft) S 190 ° 0 min 0,000 mm 0,0 UV-I 0 W/m² 10,0 °C 13,4 °C 0,0 km/h (0 Bft)
13.05.2017 21:43 13,3 °C 13,4 °C 81 % 1014,0 hPa 0,0 mm 0,1 km/h (0 Bft) S 190 ° 0 min 0,000 mm 0,0 UV-I 0 W/m² 10,1 °C 13,3 °C 1,6 km/h (1 Bft)
13.05.2017 21:44 13,3 °C 13,3 °C 81 % 1014,0 hPa 0,0 mm 0,9 km/h (0 Bft) S-SW 192 ° 0 min 0,000 mm 0,0 UV-I 0 W/m² 10,1 °C 13,3 °C 3,2 km/h (1 Bft)
13.05.2017 21:45 13,3 °C 13,3 °C 82 % 1014,0 hPa 0,0 mm 1,0 km/h (0 Bft) S-SW 192 ° 0 min 0,000 mm 0,0 UV-I 0 W/m² 10,3 °C 13,3 °C 3,2 km/h (1 Bft)
13.05.2017 21:46 13,2 °C 13,3 °C 82 % 1014,0 hPa 0,0 mm 1,5 km/h (1 Bft) S-SW 209 ° 0 min 0,000 mm 0,0 UV-I 0 W/m² 10,2 °C 13,2 °C 3,2 km/h (1 Bft)
13.05.2017 21:47 13,2 °C 13,2 °C 82 % 1014,1 hPa 0,0 mm 1,0 km/h (0 Bft) S-SW 209 ° 0 min 0,000 mm 0,0 UV-I 0 W/m² 10,2 °C 13,2 °C 1,6 km/h (1 Bft)
13.05.2017 21:48 13,2 °C 13,2 °C 83 % 1014,1 hPa 0,0 mm 0,3 km/h (0 Bft) S-SW 209 ° 0 min 0,000 mm 0,0 UV-I 0 W/m² 10,4 °C 13,2 °C 1,6 km/h (1 Bft)
13.05.2017 21:49 13,1 °C 13,2 °C 83 % 1014,1 hPa 0,0 mm 0,3 km/h (0 Bft) S-SW 209 ° 0 min 0,000 mm 0,0 UV-I 0 W/m² 10,3 °C 13,1 °C 3,2 km/h (1 Bft)
13.05.2017 21:50 13,1 °C 13,1 °C 83 % 1014,1 hPa 0,0 mm 3,4 km/h (1 Bft) W 269 ° 0 min 0,000 mm 0,0 UV-I 0 W/m² 10,3 °C 13,1 °C 4,8 km/h (1 Bft)
13.05.2017 21:51 13,1 °C 13,1 °C 84 % 1014,0 hPa 0,0 mm 0,3 km/h (0 Bft) W 269 ° 0 min 0,000 mm 0,0 UV-I 0 W/m² 10,5 °C 13,1 °C 1,6 km/h (1 Bft)
13.05.2017 21:52 13,0 °C 13,1 °C 85 % 1014,1 hPa 0,0 mm 0,0 km/h (0 Bft) W 269 ° 0 min 0,000 mm 0,0 UV-I 0 W/m² 10,5 °C 13,0 °C 0,0 km/h (0 Bft)
13.05.2017 21:53 12,9 °C 13,0 °C 85 % 1014,1 hPa 0,0 mm 0,1 km/h (0 Bft) W 269 ° 0 min 0,000 mm 0,0 UV-I 0 W/m² 10,4 °C 12,9 °C 1,6 km/h (1 Bft)
13.05.2017 21:54 12,9 °C 12,9 °C 85 % 1014,1 hPa 0,0 mm 0,0 km/h (0 Bft) W 269 ° 0 min 0,000 mm 0,0 UV-I 0 W/m² 10,4 °C 12,9 °C 0,0 km/h (0 Bft)
13.05.2017 21:55 12,8 °C 12,9 °C 86 % 1014,1 hPa 0,0 mm 0,0 km/h (0 Bft) W 269 ° 0 min 0,000 mm 0,0 UV-I 0 W/m² 10,5 °C 12,8 °C 0,0 km/h (0 Bft)
13.05.2017 21:56 12,8 °C 12,8 °C 85 % 1014,1 hPa 0,0 mm 0,0 km/h (0 Bft) W 269 ° 0 min 0,000 mm 0,0 UV-I 0 W/m² 10,3 °C 12,8 °C 0,0 km/h (0 Bft)
13.05.2017 21:57 12,8 °C 12,8 °C 85 % 1014,1 hPa 0,0 mm 1,2 km/h (1 Bft) W 269 ° 0 min 0,000 mm 0,0 UV-I 0 W/m² 10,3 °C 12,8 °C 4,8 km/h (1 Bft)
13.05.2017 21:58 12,8 °C 12,8 °C 84 % 1014,1 hPa 0,0 mm 1,6 km/h (1 Bft) W 269 ° 0 min 0,000 mm 0,0 UV-I 0 W/m² 10,2 °C 12,8 °C 3,2 km/h (1 Bft)
13.05.2017 21:59 12,8 °C 12,8 °C 83 % 1014,1 hPa 0,0 mm 1,3 km/h (1 Bft) W 269 ° 0 min 0,000 mm 0,0 UV-I 0 W/m² 10,0 °C 12,8 °C 3,2 km/h (1 Bft)
13.05.2017 22:00 12,9 °C 12,9 °C 84 % 1014,1 hPa 0,0 mm 1,1 km/h (1 Bft) W 269 ° 0 min 0,000 mm 0,0 UV-I 0 W/m² 10,3 °C 12,9 °C 1,6 km/h (1 Bft)
13.05.2017 22:01 12,9 °C 12,9 °C 84 % 1014,1 hPa 0,0 mm 0,0 km/h (0 Bft) W 269 ° 0 min 0,025 mm 0,0 UV-I 0 W/m² 10,3 °C 12,9 °C 0,0 km/h (0 Bft)
13.05.2017 22:02 12,8 °C 12,9 °C 84 % 1014,1 hPa 0,0 mm 0,0 km/h (0 Bft) W 269 ° 0 min 0,000 mm 0,0 UV-I 0 W/m² 10,2 °C 12,8 °C 0,0 km/h (0 Bft)
13.05.2017 22:03 12,8 °C 12,8 °C 85 % 1014,1 hPa 0,0 mm 0,6 km/h (0 Bft) W 269 ° 0 min 0,000 mm 0,0 UV-I 0 W/m² 10,3 °C 12,8 °C 1,6 km/h (1 Bft)
13.05.2017 22:04 12,8 °C 12,8 °C 85 % 1014,1 hPa 0,0 mm 0,0 km/h (0 Bft) W 269 ° 0 min 0,000 mm 0,0 UV-I 0 W/m² 10,3 °C 12,8 °C 0,0 km/h (0 Bft)
13.05.2017 22:05 12,8 °C 12,8 °C 85 % 1014,1 hPa 0,0 mm 0,0 km/h (0 Bft) W 269 ° 0 min 0,000 mm 0,0 UV-I 0 W/m² 10,3 °C 12,8 °C 0,0 km/h (0 Bft)
13.05.2017 22:06 12,8 °C 12,8 °C 85 % 1014,1 hPa 0,0 mm 0,0 km/h (0 Bft) W 269 ° 0 min 0,000 mm 0,0 UV-I 0 W/m² 10,3 °C 12,8 °C 0,0 km/h (0 Bft)
13.05.2017 22:07 12,8 °C 12,8 °C 85 % 1014,1 hPa 0,0 mm 0,0 km/h (0 Bft) W 269 ° 0 min 0,000 mm 0,0 UV-I 0 W/m² 10,3 °C 12,8 °C 0,0 km/h (0 Bft)
13.05.2017 22:08 12,8 °C 12,8 °C 85 % 1014,1 hPa 0,0 mm 0,0 km/h (0 Bft) W 269 ° 0 min 0,000 mm 0,0 UV-I 0 W/m² 10,3 °C 12,8 °C 0,0 km/h (0 Bft)
13.05.2017 22:09 12,8 °C 12,8 °C 85 % 1014,1 hPa 0,0 mm 0,1 km/h (0 Bft) W 269 ° 0 min 0,000 mm 0,0 UV-I 0 W/m² 10,3 °C 12,8 °C 1,6 km/h (1 Bft)
13.05.2017 22:10 12,8 °C 12,8 °C 85 % 1014,1 hPa 0,0 mm 0,0 km/h (0 Bft) W 269 ° 0 min 0,000 mm 0,0 UV-I 0 W/m² 10,3 °C 12,8 °C 0,0 km/h (0 Bft)
13.05.2017 22:11 12,7 °C 12,8 °C 85 % 1014,1 hPa 0,0 mm 0,0 km/h (0 Bft) W 269 ° 0 min 0,000 mm 0,0 UV-I 0 W/m² 10,2 °C 12,7 °C 0,0 km/h (0 Bft)
13.05.2017 22:12 12,7 °C 12,7 °C 85 % 1014,1 hPa 0,0 mm 0,0 km/h (0 Bft) W 269 ° 0 min 0,000 mm 0,0 UV-I 0 W/m² 10,2 °C 12,7 °C 0,0 km/h (0 Bft)
13.05.2017 22:13 12,7 °C 12,7 °C 85 % 1014,1 hPa 0,0 mm 0,0 km/h (0 Bft) W 269 ° 0 min 0,000 mm 0,0 UV-I 0 W/m² 10,2 °C 12,7 °C 0,0 km/h (0 Bft)
13.05.2017 22:14 12,7 °C 12,7 °C 85 % 1014,1 hPa 0,0 mm 0,0 km/h (0 Bft) W 269 ° 0 min 0,000 mm 0,0 UV-I 0 W/m² 10,2 °C 12,7 °C 0,0 km/h (0 Bft)
13.05.2017 22:15 12,7 °C 12,7 °C 85 % 1014,1 hPa 0,0 mm 0,7 km/h (0 Bft) W 269 ° 0 min 0,000 mm 0,0 UV-I 0 W/m² 10,2 °C 12,7 °C 3,2 km/h (1 Bft)
13.05.2017 22:16 12,6 °C 12,7 °C 85 % 1014,2 hPa 0,0 mm 2,3 km/h (1 Bft) W 269 ° 0 min 0,000 mm 0,0 UV-I 0 W/m² 10,1 °C 12,6 °C 4,8 km/h (1 Bft)
13.05.2017 22:17 12,6 °C 12,7 °C 85 % 1014,2 hPa 0,0 mm 3,0 km/h (1 Bft) W 269 ° 0 min 0,000 mm 0,0 UV-I 0 W/m² 10,1 °C 12,6 °C 4,8 km/h (1 Bft)
13.05.2017 22:18 12,7 °C 12,7 °C 84 % 1014,2 hPa 0,0 mm 2,1 km/h (1 Bft) W 269 ° 0 min 0,000 mm 0,0 UV-I 0 W/m² 10,1 °C 12,7 °C 3,2 km/h (1 Bft)
13.05.2017 22:19 12,8 °C 12,8 °C 84 % 1014,2 hPa 0,0 mm 1,5 km/h (1 Bft) W 269 ° 0 min 0,000 mm 0,0 UV-I 0 W/m² 10,2 °C 12,8 °C 3,2 km/h (1 Bft)
13.05.2017 22:20 12,8 °C 12,8 °C 84 % 1014,2 hPa 0,0 mm 0,9 km/h (0 Bft) W 269 ° 0 min 0,000 mm 0,0 UV-I 0 W/m² 10,2 °C 12,8 °C 3,2 km/h (1 Bft)
13.05.2017 22:21 12,7 °C 12,8 °C 85 % 1014,2 hPa 0,0 mm 0,5 km/h (0 Bft) W 269 ° 0 min 0,000 mm 0,0 UV-I 0 W/m² 10,2 °C 12,7 °C 1,6 km/h (1 Bft)
13.05.2017 22:22 12,6 °C 12,7 °C 85 % 1014,2 hPa 0,0 mm 0,0 km/h (0 Bft) W 269 ° 0 min 0,000 mm 0,0 UV-I 0 W/m² 10,1 °C 12,6 °C 0,0 km/h (0 Bft)
13.05.2017 22:23 12,6 °C 12,7 °C 85 % 1014,2 hPa 0,0 mm 0,0 km/h (0 Bft) W 269 ° 0 min 0,000 mm 0,0 UV-I 0 W/m² 10,1 °C 12,6 °C 0,0 km/h (0 Bft)
13.05.2017 22:24 12,6 °C 12,6 °C 85 % 1014,2 hPa 0,0 mm 0,0 km/h (0 Bft) W 269 ° 0 min 0,000 mm 0,0 UV-I 0 W/m² 10,1 °C 12,6 °C 0,0 km/h (0 Bft)
13.05.2017 22:25 12,6 °C 12,6 °C 85 % 1014,1 hPa 0,0 mm 0,0 km/h (0 Bft) W 269 ° 0 min 0,000 mm 0,0 UV-I 0 W/m² 10,1 °C 12,6 °C 0,0 km/h (0 Bft)
13.05.2017 22:26 12,6 °C 12,6 °C 85 % 1014,1 hPa 0,0 mm 0,0 km/h (0 Bft) W 269 ° 0 min 0,000 mm 0,0 UV-I 0 W/m² 10,1 °C 12,6 °C 0,0 km/h (0 Bft)
13.05.2017 22:27 12,6 °C 12,6 °C 84 % 1014,2 hPa 0,0 mm 0,0 km/h (0 Bft) W 269 ° 0 min 0,000 mm 0,0 UV-I 0 W/m² 10,0 °C 12,6 °C 0,0 km/h (0 Bft)
13.05.2017 22:28 12,6 °C 12,6 °C 85 % 1014,1 hPa 0,0 mm 0,0 km/h (0 Bft) W 269 ° 0 min 0,000 mm 0,0 UV-I 0 W/m² 10,1 °C 12,6 °C 0,0 km/h (0 Bft)
13.05.2017 22:29 12,5 °C 12,6 °C 85 % 1014,1 hPa 0,0 mm 0,0 km/h (0 Bft) W 269 ° 0 min 0,000 mm 0,0 UV-I 0 W/m² 10,0 °C 12,5 °C 0,0 km/h (0 Bft)
13.05.2017 22:30 12,4 °C 12,5 °C 85 % 1014,1 hPa 0,0 mm 0,0 km/h (0 Bft) W 269 ° 0 min 0,000 mm 0,0 UV-I 0 W/m² 9,9 °C 12,4 °C 0,0 km/h (0 Bft)
13.05.2017 22:31 12,4 °C 12,4 °C 86 % 1014,2 hPa 0,0 mm 1,0 km/h (0 Bft) W 269 ° 0 min 0,000 mm 0,0 UV-I 0 W/m² 10,1 °C 12,4 °C 3,2 km/h (1 Bft)
13.05.2017 22:32 12,3 °C 12,4 °C 86 % 1014,2 hPa 0,0 mm 0,5 km/h (0 Bft) W 269 ° 0 min 0,000 mm 0,0 UV-I 0 W/m² 10,0 °C 12,3 °C 1,6 km/h (1 Bft)
13.05.2017 22:33 12,3 °C 12,4 °C 86 % 1014,2 hPa 0,0 mm 0,0 km/h (0 Bft) W 269 ° 0 min 0,000 mm 0,0 UV-I 0 W/m² 10,0 °C 12,3 °C 0,0 km/h (0 Bft)
13.05.2017 22:34 12,4 °C 12,4 °C 86 % 1014,2 hPa 0,0 mm 0,0 km/h (0 Bft) W 269 ° 0 min 0,000 mm 0,0 UV-I 0 W/m² 10,1 °C 12,4 °C 0,0 km/h (0 Bft)
13.05.2017 22:35 12,4 °C 12,4 °C 85 % 1014,2 hPa 0,0 mm 0,0 km/h (0 Bft) W 269 ° 0 min 0,000 mm 0,0 UV-I 0 W/m² 9,9 °C 12,4 °C 0,0 km/h (0 Bft)
13.05.2017 22:36 12,4 °C 12,4 °C 85 % 1014,2 hPa 0,0 mm 0,0 km/h (0 Bft) W 269 ° 0 min 0,000 mm 0,0 UV-I 0 W/m² 9,9 °C 12,4 °C 0,0 km/h (0 Bft)
13.05.2017 22:37 12,4 °C 12,4 °C 85 % 1014,2 hPa 0,0 mm 0,3 km/h (0 Bft) W 269 ° 0 min 0,000 mm 0,0 UV-I 0 W/m² 9,9 °C 12,4 °C 3,2 km/h (1 Bft)
13.05.2017 22:38 12,3 °C 12,4 °C 85 % 1014,2 hPa 0,0 mm 0,5 km/h (0 Bft) W 269 ° 0 min 0,000 mm 0,0 UV-I 0 W/m² 9,9 °C 12,3 °C 1,6 km/h (1 Bft)
13.05.2017 22:39 12,3 °C 12,4 °C 85 % 1014,3 hPa 0,0 mm 0,0 km/h (0 Bft) W 269 ° 0 min 0,000 mm 0,0 UV-I 0 W/m² 9,9 °C 12,3 °C 0,0 km/h (0 Bft)
13.05.2017 22:40 12,2 °C 12,3 °C 85 % 1014,3 hPa 0,0 mm 0,0 km/h (0 Bft) W 269 ° 0 min 0,000 mm 0,0 UV-I 0 W/m² 9,8 °C 12,2 °C 0,0 km/h (0 Bft)
13.05.2017 22:41 12,2 °C 12,2 °C 85 % 1014,2 hPa 0,0 mm 0,0 km/h (0 Bft) W 269 ° 0 min 0,000 mm 0,0 UV-I 0 W/m² 9,8 °C 12,2 °C 0,0 km/h (0 Bft)
13.05.2017 22:42 12,1 °C 12,2 °C 86 % 1014,3 hPa 0,0 mm 0,3 km/h (0 Bft) W 269 ° 0 min 0,000 mm 0,0 UV-I 0 W/m² 9,8 °C 12,1 °C 1,6 km/h (1 Bft)
13.05.2017 22:43 12,1 °C 12,1 °C 86 % 1014,3 hPa 0,0 mm 0,0 km/h (0 Bft) W 269 ° 0 min 0,000 mm 0,0 UV-I 0 W/m² 9,8 °C 12,1 °C 0,0 km/h (0 Bft)
13.05.2017 22:44 12,1 °C 12,1 °C 86 % 1014,3 hPa 0,0 mm 0,0 km/h (0 Bft) W 269 ° 0 min 0,000 mm 0,0 UV-I 0 W/m² 9,8 °C 12,1 °C 0,0 km/h (0 Bft)
13.05.2017 22:45 12,0 °C 12,1 °C 86 % 1014,3 hPa 0,0 mm 0,0 km/h (0 Bft) W 269 ° 0 min 0,000 mm 0,0 UV-I 0 W/m² 9,7 °C 12,0 °C 0,0 km/h (0 Bft)
13.05.2017 22:46 11,9 °C 12,0 °C 86 % 1014,3 hPa 0,0 mm 0,0 km/h (0 Bft) W 269 ° 0 min 0,000 mm 0,0 UV-I 0 W/m² 9,6 °C 11,9 °C 0,0 km/h (0 Bft)
13.05.2017 22:47 11,9 °C 11,9 °C 86 % 1014,3 hPa 0,0 mm 0,0 km/h (0 Bft) W 269 ° 0 min 0,000 mm 0,0 UV-I 0 W/m² 9,6 °C 11,9 °C 0,0 km/h (0 Bft)
13.05.2017 22:48 11,9 °C 12,0 °C 86 % 1014,4 hPa 0,0 mm 0,0 km/h (0 Bft) W 269 ° 0 min 0,000 mm 0,0 UV-I 0 W/m² 9,6 °C 11,9 °C 0,0 km/h (0 Bft)
13.05.2017 22:49 12,0 °C 12,0 °C 86 % 1014,4 hPa 0,0 mm 0,0 km/h (0 Bft) W 269 ° 0 min 0,000 mm 0,0 UV-I 0 W/m² 9,7 °C 12,0 °C 0,0 km/h (0 Bft)
13.05.2017 22:50 12,0 °C 12,0 °C 86 % 1014,4 hPa 0,0 mm 0,0 km/h (0 Bft) W 269 ° 0 min 0,000 mm 0,0 UV-I 0 W/m² 9,7 °C 12,0 °C 0,0 km/h (0 Bft)
13.05.2017 22:51 11,9 °C 12,0 °C 86 % 1014,4 hPa 0,0 mm 0,0 km/h (0 Bft) W 269 ° 0 min 0,000 mm 0,0 UV-I 0 W/m² 9,6 °C 11,9 °C 0,0 km/h (0 Bft)
13.05.2017 22:52 11,9 °C 11,9 °C 87 % 1014,4 hPa 0,0 mm 0,0 km/h (0 Bft) W 269 ° 0 min 0,000 mm 0,0 UV-I 0 W/m² 9,8 °C 11,9 °C 0,0 km/h (0 Bft)
13.05.2017 22:53 11,9 °C 11,9 °C 87 % 1014,4 hPa 0,0 mm 0,0 km/h (0 Bft) W 269 ° 0 min 0,000 mm 0,0 UV-I 0 W/m² 9,8 °C 11,9 °C 0,0 km/h (0 Bft)
13.05.2017 22:54 11,9 °C 11,9 °C 87 % 1014,4 hPa 0,0 mm 0,0 km/h (0 Bft) W 269 ° 0 min 0,000 mm 0,0 UV-I 0 W/m² 9,8 °C 11,9 °C 0,0 km/h (0 Bft)
13.05.2017 22:55 11,9 °C 11,9 °C 87 % 1014,4 hPa 0,0 mm 0,0 km/h (0 Bft) W 269 ° 0 min 0,000 mm 0,0 UV-I 0 W/m² 9,8 °C 11,9 °C 0,0 km/h (0 Bft)
13.05.2017 22:56 12,0 °C 12,0 °C 86 % 1014,4 hPa 0,0 mm 0,0 km/h (0 Bft) W 269 ° 0 min 0,000 mm 0,0 UV-I 0 W/m² 9,7 °C 12,0 °C 0,0 km/h (0 Bft)
13.05.2017 22:57 11,9 °C 12,0 °C 87 % 1014,5 hPa 0,0 mm 0,0 km/h (0 Bft) W 269 ° 0 min 0,000 mm 0,0 UV-I 0 W/m² 9,8 °C 11,9 °C 0,0 km/h (0 Bft)
13.05.2017 22:58 11,9 °C 11,9 °C 87 % 1014,5 hPa 0,0 mm 0,0 km/h (0 Bft) W 269 ° 0 min 0,000 mm 0,0 UV-I 0 W/m² 9,8 °C 11,9 °C 0,0 km/h (0 Bft)
13.05.2017 22:59 11,9 °C 11,9 °C 87 % 1014,5 hPa 0,0 mm 0,0 km/h (0 Bft) W 269 ° 0 min 0,000 mm 0,0 UV-I 0 W/m² 9,8 °C 11,9 °C 0,0 km/h (0 Bft)
13.05.2017 23:00 12,0 °C 12,0 °C 86 % 1014,5 hPa 0,0 mm 0,0 km/h (0 Bft) W 269 ° 0 min 0,000 mm 0,0 UV-I 0 W/m² 9,7 °C 12,0 °C 0,0 km/h (0 Bft)
13.05.2017 23:01 12,1 °C 12,1 °C 86 % 1014,5 hPa 0,0 mm 0,0 km/h (0 Bft) W 269 ° 0 min 0,000 mm 0,0 UV-I 0 W/m² 9,8 °C 12,1 °C 0,0 km/h (0 Bft)
13.05.2017 23:02 12,0 °C 12,1 °C 86 % 1014,5 hPa 0,0 mm 0,0 km/h (0 Bft) W 269 ° 0 min 0,000 mm 0,0 UV-I 0 W/m² 9,7 °C 12,0 °C 0,0 km/h (0 Bft)
13.05.2017 23:03 12,0 °C 12,1 °C 86 % 1014,5 hPa 0,0 mm 0,0 km/h (0 Bft) W 269 ° 0 min 0,000 mm 0,0 UV-I 0 W/m² 9,7 °C 12,0 °C 0,0 km/h (0 Bft)
13.05.2017 23:04 12,1 °C 12,1 °C 86 % 1014,5 hPa 0,0 mm 0,0 km/h (0 Bft) W 269 ° 0 min 0,000 mm 0,0 UV-I 0 W/m² 9,8 °C 12,1 °C 0,0 km/h (0 Bft)
13.05.2017 23:05 12,0 °C 12,1 °C 86 % 1014,5 hPa 0,0 mm 0,5 km/h (0 Bft) W 269 ° 0 min 0,000 mm 0,0 UV-I 0 W/m² 9,7 °C 12,0 °C 3,2 km/h (1 Bft)
13.05.2017 23:06 12,0 °C 12,1 °C 86 % 1014,6 hPa 0,0 mm 2,3 km/h (1 Bft) W 269 ° 0 min 0,000 mm 0,0 UV-I 0 W/m² 9,7 °C 12,0 °C 4,8 km/h (1 Bft)
13.05.2017 23:07 12,1 °C 12,1 °C 86 % 1014,6 hPa 0,0 mm 3,2 km/h (1 Bft) W 269 ° 0 min 0,000 mm 0,0 UV-I 0 W/m² 9,8 °C 12,1 °C 4,8 km/h (1 Bft)
13.05.2017 23:08 12,1 °C 12,1 °C 85 % 1014,6 hPa 0,0 mm 4,5 km/h (1 Bft) W 269 ° 0 min 0,000 mm 0,0 UV-I 0 W/m² 9,7 °C 12,1 °C 6,4 km/h (2 Bft)
13.05.2017 23:09 12,2 °C 12,2 °C 85 % 1014,6 hPa 0,0 mm 1,9 km/h (1 Bft) W 269 ° 0 min 0,000 mm 0,0 UV-I 0 W/m² 9,8 °C 12,2 °C 3,2 km/h (1 Bft)
13.05.2017 23:10 12,2 °C 12,3 °C 85 % 1014,6 hPa 0,0 mm 0,6 km/h (0 Bft) W 269 ° 0 min 0,000 mm 0,0 UV-I 0 W/m² 9,8 °C 12,2 °C 1,6 km/h (1 Bft)
13.05.2017 23:11 12,3 °C 12,3 °C 85 % 1014,6 hPa 0,0 mm 0,3 km/h (0 Bft) W 269 ° 0 min 0,000 mm 0,0 UV-I 0 W/m² 9,9 °C 12,3 °C 1,6 km/h (1 Bft)
13.05.2017 23:12 12,3 °C 12,3 °C 85 % 1014,6 hPa 0,0 mm 0,0 km/h (0 Bft) W 269 ° 0 min 0,000 mm 0,0 UV-I 0 W/m² 9,9 °C 12,3 °C 0,0 km/h (0 Bft)
13.05.2017 23:13 12,2 °C 12,3 °C 85 % 1014,6 hPa 0,0 mm 1,1 km/h (1 Bft) W 269 ° 0 min 0,000 mm 0,0 UV-I 0 W/m² 9,8 °C 12,2 °C 3,2 km/h (1 Bft)
13.05.2017 23:14 12,3 °C 12,3 °C 85 % 1014,6 hPa 0,0 mm 4,8 km/h (1 Bft) W-SW 253 ° 0 min 0,000 mm 0,0 UV-I 0 W/m² 9,9 °C 12,3 °C 8,0 km/h (2 Bft)
13.05.2017 23:15 12,3 °C 12,3 °C 85 % 1014,6 hPa 0,0 mm 5,3 km/h (1 Bft) W-SW 254 ° 0 min 0,000 mm 0,0 UV-I 0 W/m² 9,9 °C 12,3 °C 6,4 km/h (2 Bft)
13.05.2017 23:16 12,3 °C 12,4 °C 84 % 1014,6 hPa 0,0 mm 3,1 km/h (1 Bft) SW 233 ° 0 min 0,000 mm 0,0 UV-I 0 W/m² 9,7 °C 12,3 °C 4,8 km/h (1 Bft)
13.05.2017 23:17 12,4 °C 12,4 °C 84 % 1014,7 hPa 0,0 mm 1,9 km/h (1 Bft) SW 233 ° 0 min 0,000 mm 0,0 UV-I 0 W/m² 9,8 °C 12,4 °C 4,8 km/h (1 Bft)
13.05.2017 23:18 12,4 °C 12,4 °C 84 % 1014,7 hPa 0,0 mm 0,9 km/h (0 Bft) SW 233 ° 0 min 0,000 mm 0,0 UV-I 0 W/m² 9,8 °C 12,4 °C 1,6 km/h (1 Bft)
13.05.2017 23:19 12,3 °C 12,4 °C 85 % 1014,7 hPa 0,0 mm 0,3 km/h (0 Bft) SW 233 ° 0 min 0,000 mm 0,0 UV-I 0 W/m² 9,9 °C 12,3 °C 1,6 km/h (1 Bft)
13.05.2017 23:20 12,4 °C 12,4 °C 84 % 1014,7 hPa 0,0 mm 0,0 km/h (0 Bft) SW 233 ° 0 min 0,000 mm 0,0 UV-I 0 W/m² 9,8 °C 12,4 °C 0,0 km/h (0 Bft)
13.05.2017 23:21 12,3 °C 12,4 °C 85 % 1014,7 hPa 0,0 mm 0,0 km/h (0 Bft) SW 233 ° 0 min 0,000 mm 0,0 UV-I 0 W/m² 9,9 °C 12,3 °C 0,0 km/h (0 Bft)
13.05.2017 23:22 12,3 °C 12,3 °C 85 % 1014,7 hPa 0,0 mm 0,0 km/h (0 Bft) SW 233 ° 0 min 0,000 mm 0,0 UV-I 0 W/m² 9,9 °C 12,3 °C 0,0 km/h (0 Bft)
13.05.2017 23:23 12,3 °C 12,3 °C 85 % 1014,7 hPa 0,0 mm 2,1 km/h (1 Bft) SW 233 ° 0 min 0,000 mm 0,0 UV-I 0 W/m² 9,9 °C 12,3 °C 3,2 km/h (1 Bft)
13.05.2017 23:24 12,2 °C 12,3 °C 85 % 1014,7 hPa 0,0 mm 0,0 km/h (0 Bft) SW 233 ° 0 min 0,000 mm 0,0 UV-I 0 W/m² 9,8 °C 12,2 °C 0,0 km/h (0 Bft)
13.05.2017 23:25 12,2 °C 12,2 °C 86 % 1014,7 hPa 0,0 mm 0,3 km/h (0 Bft) SW 233 ° 0 min 0,000 mm 0,0 UV-I 0 W/m² 9,9 °C 12,2 °C 1,6 km/h (1 Bft)
13.05.2017 23:26 12,1 °C 12,2 °C 86 % 1014,8 hPa 0,0 mm 0,7 km/h (0 Bft) SW 233 ° 0 min 0,000 mm 0,0 UV-I 0 W/m² 9,8 °C 12,1 °C 3,2 km/h (1 Bft)
13.05.2017 23:27 12,0 °C 12,1 °C 86 % 1014,8 hPa 0,0 mm 0,9 km/h (0 Bft) SW 233 ° 0 min 0,000 mm 0,0 UV-I 0 W/m² 9,7 °C 12,0 °C 3,2 km/h (1 Bft)
13.05.2017 23:28 11,9 °C 12,1 °C 86 % 1014,8 hPa 0,0 mm 0,0 km/h (0 Bft) SW 233 ° 0 min 0,000 mm 0,0 UV-I 0 W/m² 9,6 °C 11,9 °C 0,0 km/h (0 Bft)
13.05.2017 23:29 12,0 °C 12,0 °C 86 % 1014,8 hPa 0,0 mm 0,0 km/h (0 Bft) SW 233 ° 0 min 0,000 mm 0,0 UV-I 0 W/m² 9,7 °C 12,0 °C 0,0 km/h (0 Bft)
13.05.2017 23:30 12,0 °C 12,0 °C 86 % 1014,8 hPa 0,0 mm 0,0 km/h (0 Bft) SW 233 ° 0 min 0,000 mm 0,0 UV-I 0 W/m² 9,7 °C 12,0 °C 0,0 km/h (0 Bft)
13.05.2017 23:31 12,0 °C 12,0 °C 86 % 1014,8 hPa 0,0 mm 0,1 km/h (0 Bft) SW 233 ° 0 min 0,000 mm 0,0 UV-I 0 W/m² 9,7 °C 12,0 °C 1,6 km/h (1 Bft)
13.05.2017 23:32 11,9 °C 12,0 °C 86 % 1014,8 hPa 0,0 mm 0,0 km/h (0 Bft) SW 233 ° 0 min 0,000 mm 0,0 UV-I 0 W/m² 9,6 °C 11,9 °C 0,0 km/h (0 Bft)
13.05.2017 23:33 11,9 °C 12,0 °C 86 % 1014,8 hPa 0,0 mm 0,0 km/h (0 Bft) SW 233 ° 0 min 0,000 mm 0,0 UV-I 0 W/m² 9,6 °C 11,9 °C 0,0 km/h (0 Bft)
13.05.2017 23:34 12,0 °C 12,0 °C 86 % 1014,8 hPa 0,0 mm 4,1 km/h (1 Bft) O-NO 74 ° 0 min 0,000 mm 0,0 UV-I 0 W/m² 9,7 °C 12,0 °C 9,7 km/h (2 Bft)
13.05.2017 23:35 11,9 °C 12,0 °C 86 % 1014,8 hPa 0,0 mm 2,3 km/h (1 Bft) NO 35 ° 0 min 0,000 mm 0,0 UV-I 0 W/m² 9,6 °C 11,9 °C 4,8 km/h (1 Bft)
13.05.2017 23:36 11,9 °C 11,9 °C 87 % 1014,8 hPa 0,0 mm 1,5 km/h (1 Bft) NO 35 ° 0 min 0,000 mm 0,0 UV-I 0 W/m² 9,8 °C 11,9 °C 3,2 km/h (1 Bft)
13.05.2017 23:37 11,8 °C 11,9 °C 87 % 1014,8 hPa 0,0 mm 0,6 km/h (0 Bft) NO 35 ° 0 min 0,000 mm 0,0 UV-I 0 W/m² 9,7 °C 11,8 °C 1,6 km/h (1 Bft)
13.05.2017 23:38 11,8 °C 11,8 °C 87 % 1014,8 hPa 0,0 mm 0,0 km/h (0 Bft) NO 35 ° 0 min 0,000 mm 0,0 UV-I 0 W/m² 9,7 °C 11,8 °C 0,0 km/h (0 Bft)
13.05.2017 23:39 11,8 °C 11,8 °C 87 % 1014,8 hPa 0,0 mm 0,4 km/h (0 Bft) NO 35 ° 0 min 0,000 mm 0,0 UV-I 0 W/m² 9,7 °C 11,8 °C 1,6 km/h (1 Bft)
13.05.2017 23:40 11,8 °C 11,8 °C 87 % 1014,8 hPa 0,0 mm 0,4 km/h (0 Bft) NO 35 ° 0 min 0,000 mm 0,0 UV-I 0 W/m² 9,7 °C 11,8 °C 1,6 km/h (1 Bft)
13.05.2017 23:41 11,8 °C 11,8 °C 87 % 1014,8 hPa 0,0 mm 0,1 km/h (0 Bft) NO 35 ° 0 min 0,000 mm 0,0 UV-I 0 W/m² 9,7 °C 11,8 °C 1,6 km/h (1 Bft)
13.05.2017 23:42 11,8 °C 11,8 °C 86 % 1014,8 hPa 0,0 mm 0,0 km/h (0 Bft) NO 35 ° 0 min 0,000 mm 0,0 UV-I 0 W/m² 9,5 °C 11,8 °C 0,0 km/h (0 Bft)
13.05.2017 23:43 11,8 °C 11,8 °C 86 % 1014,9 hPa 0,0 mm 0,0 km/h (0 Bft) NO 35 ° 0 min 0,000 mm 0,0 UV-I 0 W/m² 9,5 °C 11,8 °C 0,0 km/h (0 Bft)
13.05.2017 23:44 11,8 °C 11,8 °C 86 % 1014,9 hPa 0,0 mm 0,1 km/h (0 Bft) NO 35 ° 0 min 0,000 mm 0,0 UV-I 0 W/m² 9,5 °C 11,8 °C 1,6 km/h (1 Bft)
13.05.2017 23:45 11,8 °C 11,8 °C 86 % 1015,0 hPa 0,0 mm 0,7 km/h (0 Bft) NO 35 ° 0 min 0,000 mm 0,0 UV-I 0 W/m² 9,5 °C 11,8 °C 1,6 km/h (1 Bft)
13.05.2017 23:46 11,8 °C 11,8 °C 86 % 1014,9 hPa 0,0 mm 3,0 km/h (1 Bft) W-NW 291 ° 0 min 0,000 mm 0,0 UV-I 0 W/m² 9,5 °C 11,8 °C 4,8 km/h (1 Bft)
13.05.2017 23:47 11,8 °C 11,8 °C 86 % 1015,0 hPa 0,0 mm 0,1 km/h (0 Bft) W-NW 291 ° 0 min 0,000 mm 0,0 UV-I 0 W/m² 9,5 °C 11,8 °C 1,6 km/h (1 Bft)
13.05.2017 23:48 11,8 °C 11,8 °C 86 % 1014,9 hPa 0,0 mm 0,1 km/h (0 Bft) W-NW 291 ° 0 min 0,000 mm 0,0 UV-I 0 W/m² 9,5 °C 11,8 °C 1,6 km/h (1 Bft)
13.05.2017 23:49 11,8 °C 11,8 °C 86 % 1014,9 hPa 0,0 mm 0,0 km/h (0 Bft) W-NW 291 ° 0 min 0,000 mm 0,0 UV-I 0 W/m² 9,5 °C 11,8 °C 0,0 km/h (0 Bft)
13.05.2017 23:50 11,8 °C 11,8 °C 86 % 1014,9 hPa 0,0 mm 0,0 km/h (0 Bft) W-NW 291 ° 0 min 0,000 mm 0,0 UV-I 0 W/m² 9,5 °C 11,8 °C 0,0 km/h (0 Bft)
13.05.2017 23:51 11,8 °C 11,8 °C 86 % 1014,9 hPa 0,0 mm 0,0 km/h (0 Bft) W-NW 291 ° 0 min 0,000 mm 0,0 UV-I 0 W/m² 9,5 °C 11,8 °C 0,0 km/h (0 Bft)
13.05.2017 23:52 11,8 °C 11,8 °C 85 % 1014,9 hPa 0,0 mm 0,0 km/h (0 Bft) W-NW 291 ° 0 min 0,000 mm 0,0 UV-I 0 W/m² 9,4 °C 11,8 °C 0,0 km/h (0 Bft)
13.05.2017 23:53 11,8 °C 11,8 °C 85 % 1015,0 hPa 0,0 mm 0,0 km/h (0 Bft) W-NW 291 ° 0 min 0,000 mm 0,0 UV-I 0 W/m² 9,4 °C 11,8 °C 0,0 km/h (0 Bft)
13.05.2017 23:54 11,8 °C 11,8 °C 85 % 1014,9 hPa 0,0 mm 3,8 km/h (1 Bft) W-SW 254 ° 0 min 0,000 mm 0,0 UV-I 0 W/m² 9,4 °C 11,8 °C 4,8 km/h (1 Bft)
13.05.2017 23:55 11,8 °C 11,8 °C 85 % 1015,0 hPa 0,0 mm 4,8 km/h (1 Bft) W 263 ° 0 min 0,000 mm 0,0 UV-I 0 W/m² 9,4 °C 11,8 °C 6,4 km/h (2 Bft)
13.05.2017 23:56 11,8 °C 11,8 °C 85 % 1015,1 hPa 0,0 mm 4,1 km/h (1 Bft) W-SW 249 ° 0 min 0,000 mm 0,0 UV-I 0 W/m² 9,4 °C 11,8 °C 4,8 km/h (1 Bft)
13.05.2017 23:57 11,9 °C 11,9 °C 85 % 1015,0 hPa 0,0 mm 2,0 km/h (1 Bft) W-SW 248 ° 0 min 0,000 mm 0,0 UV-I 0 W/m² 9,5 °C 11,9 °C 3,2 km/h (1 Bft)
13.05.2017 23:58 11,9 °C 11,9 °C 85 % 1015,0 hPa 0,0 mm 1,6 km/h (1 Bft) W-SW 248 ° 0 min 0,000 mm 0,0 UV-I 0 W/m² 9,5 °C 11,9 °C 3,2 km/h (1 Bft)
13.05.2017 23:59 11,9 °C 11,9 °C 85 % 1015,1 hPa 0,0 mm 1,4 km/h (1 Bft) W-SW 248 ° 0 min 0,000 mm 0,0 UV-I 0 W/m² 9,5 °C 11,9 °C 1,6 km/h (1 Bft)
_ Min-Zeit 00:16 00:11 17:49 00:04 - 23:53 - - - - - - 16:09 03:54 23:53
Minimum _ 8,9 °C 8,9 °C 48 % 1006,9 hPa - 0,0 km/h (0 Bft) - - - - - - 7,4 °C 8,7 °C 0,0 km/h (0 Bft)
_ Max-Zeit 17:27 17:35 06:42 23:59 04:11 15:23 - - 16:08 13:01 12:40 12:46 13:56 17:27 15:23
Maximum _ 19,6 °C 19,6 °C 95 % 1015,1 hPa 0,2 mm 17,6 km/h
W (3 Bft)
- - 1 min 0,559 mm 9,1 UV-I 1368 W/m² 11,9 °C 19,6 °C 25,7 km/h
W-SW (4 Bft)
Durchschnitt _ 14,0 °C 14,0 °C 75 % 1011,1 hPa #2,0 mm 4,2 km/h (1 Bft) W-NW - #6:34 h #3,429 mm 3,6 UV-I 230 W/m² 9,3 °C 14,0 °C 6,9 km/h (2 Bft)